<?xml version="1.0" encoding="UTF-8" standalone="no" ?>
<gpx xmlns="http://www.topografix.com/GPX/1/1" xmlns:xsi="http://www.w3.org/2001/XMLSchema-instance" xsi:schemaLocation="http://www.topografix.com/GPX/1/1 http://www.topografix.com/GPX/1/1/gpx.xsd" version="1.1" creator="VisuGPX - https://www.visugpx.com">
  <metadata>
    <name>La Gatinaise 2013 - 53km</name>
    <desc><![CDATA[Très roulant dans l\'ensemble. Pas mal de sable]]></desc>
  </metadata>
  <trk>
    <name><![CDATA[Rando la Gatinaise]]></name>
    <trkseg>
      <trkpt lat="48.38325" lon="2.47198">
        <ele>88.800003051758</ele>
        <time>2013-12-01T07:23:04Z</time>
      </trkpt>
      <trkpt lat="48.38323" lon="2.472">
        <ele>88.800003051758</ele>
        <time>2013-12-01T07:23:05Z</time>
      </trkpt>
      <trkpt lat="48.38322" lon="2.472">
        <ele>88.800003051758</ele>
        <time>2013-12-01T07:23:06Z</time>
      </trkpt>
      <trkpt lat="48.38322" lon="2.47201">
        <ele>88.800003051758</ele>
        <time>2013-12-01T07:23:07Z</time>
      </trkpt>
      <trkpt lat="48.38321" lon="2.472">
        <ele>89.400001525879</ele>
        <time>2013-12-01T07:23:08Z</time>
      </trkpt>
      <trkpt lat="48.38319" lon="2.47199">
        <ele>89.400001525879</ele>
        <time>2013-12-01T07:23:09Z</time>
      </trkpt>
      <trkpt lat="48.38314" lon="2.47198">
        <ele>89.400001525879</ele>
        <time>2013-12-01T07:23:11Z</time>
      </trkpt>
      <trkpt lat="48.38308" lon="2.47181">
        <ele>89.400001525879</ele>
        <time>2013-12-01T07:23:23Z</time>
      </trkpt>
      <trkpt lat="48.38306" lon="2.47176">
        <ele>89.400001525879</ele>
        <time>2013-12-01T07:23:29Z</time>
      </trkpt>
      <trkpt lat="48.38302" lon="2.4717">
        <ele>89.400001525879</ele>
        <time>2013-12-01T07:23:38Z</time>
      </trkpt>
      <trkpt lat="48.383" lon="2.47169">
        <ele>89.400001525879</ele>
        <time>2013-12-01T07:23:39Z</time>
      </trkpt>
      <trkpt lat="48.38296" lon="2.47167">
        <ele>89.400001525879</ele>
        <time>2013-12-01T07:23:40Z</time>
      </trkpt>
      <trkpt lat="48.38294" lon="2.47167">
        <ele>89.400001525879</ele>
        <time>2013-12-01T07:23:41Z</time>
      </trkpt>
      <trkpt lat="48.38284" lon="2.47162">
        <ele>88.800003051758</ele>
        <time>2013-12-01T07:23:44Z</time>
      </trkpt>
      <trkpt lat="48.38279" lon="2.47161">
        <ele>88.199996948242</ele>
        <time>2013-12-01T07:23:45Z</time>
      </trkpt>
      <trkpt lat="48.3828" lon="2.4716">
        <ele>87.800003051758</ele>
        <time>2013-12-01T07:23:46Z</time>
      </trkpt>
      <trkpt lat="48.3828" lon="2.47161">
        <ele>87.199996948242</ele>
        <time>2013-12-01T07:23:47Z</time>
      </trkpt>
      <trkpt lat="48.38278" lon="2.47158">
        <ele>86.599998474121</ele>
        <time>2013-12-01T07:23:48Z</time>
      </trkpt>
      <trkpt lat="48.38279" lon="2.47154">
        <ele>86.599998474121</ele>
        <time>2013-12-01T07:23:50Z</time>
      </trkpt>
      <trkpt lat="48.38279" lon="2.47153">
        <ele>86.599998474121</ele>
        <time>2013-12-01T07:23:51Z</time>
      </trkpt>
      <trkpt lat="48.38279" lon="2.47155">
        <ele>86.199996948242</ele>
        <time>2013-12-01T07:23:52Z</time>
      </trkpt>
      <trkpt lat="48.3828" lon="2.47159">
        <ele>85.800003051758</ele>
        <time>2013-12-01T07:23:53Z</time>
      </trkpt>
      <trkpt lat="48.38288" lon="2.47165">
        <ele>85.400001525879</ele>
        <time>2013-12-01T07:23:54Z</time>
      </trkpt>
      <trkpt lat="48.38285" lon="2.47172">
        <ele>84.800003051758</ele>
        <time>2013-12-01T07:23:55Z</time>
      </trkpt>
      <trkpt lat="48.38288" lon="2.4718">
        <ele>84.400001525879</ele>
        <time>2013-12-01T07:23:56Z</time>
      </trkpt>
      <trkpt lat="48.38288" lon="2.47187">
        <ele>84</ele>
        <time>2013-12-01T07:23:57Z</time>
      </trkpt>
      <trkpt lat="48.38287" lon="2.47195">
        <ele>83.599998474121</ele>
        <time>2013-12-01T07:23:58Z</time>
      </trkpt>
      <trkpt lat="48.38285" lon="2.47202">
        <ele>83</ele>
        <time>2013-12-01T07:23:59Z</time>
      </trkpt>
      <trkpt lat="48.38282" lon="2.4721">
        <ele>82.599998474121</ele>
        <time>2013-12-01T07:24:00Z</time>
      </trkpt>
      <trkpt lat="48.38279" lon="2.47217">
        <ele>82.199996948242</ele>
        <time>2013-12-01T07:24:01Z</time>
      </trkpt>
      <trkpt lat="48.38272" lon="2.47231">
        <ele>81.800003051758</ele>
        <time>2013-12-01T07:24:03Z</time>
      </trkpt>
      <trkpt lat="48.38268" lon="2.47239">
        <ele>81.400001525879</ele>
        <time>2013-12-01T07:24:04Z</time>
      </trkpt>
      <trkpt lat="48.38265" lon="2.47246">
        <ele>81</ele>
        <time>2013-12-01T07:24:05Z</time>
      </trkpt>
      <trkpt lat="48.38265" lon="2.47252">
        <ele>80.599998474121</ele>
        <time>2013-12-01T07:24:06Z</time>
      </trkpt>
      <trkpt lat="48.38263" lon="2.47259">
        <ele>80.199996948242</ele>
        <time>2013-12-01T07:24:07Z</time>
      </trkpt>
      <trkpt lat="48.38264" lon="2.47279">
        <ele>80.199996948242</ele>
        <time>2013-12-01T07:24:10Z</time>
      </trkpt>
      <trkpt lat="48.38271" lon="2.47287">
        <ele>80.199996948242</ele>
        <time>2013-12-01T07:24:12Z</time>
      </trkpt>
      <trkpt lat="48.38277" lon="2.47293">
        <ele>80.199996948242</ele>
        <time>2013-12-01T07:24:14Z</time>
      </trkpt>
      <trkpt lat="48.38292" lon="2.47308">
        <ele>80.199996948242</ele>
        <time>2013-12-01T07:24:20Z</time>
      </trkpt>
      <trkpt lat="48.38285" lon="2.47311">
        <ele>80.199996948242</ele>
        <time>2013-12-01T07:24:22Z</time>
      </trkpt>
      <trkpt lat="48.38282" lon="2.47311">
        <ele>80.199996948242</ele>
        <time>2013-12-01T07:24:23Z</time>
      </trkpt>
      <trkpt lat="48.38265" lon="2.47307">
        <ele>79.800003051758</ele>
        <time>2013-12-01T07:24:26Z</time>
      </trkpt>
      <trkpt lat="48.3826" lon="2.47306">
        <ele>79.199996948242</ele>
        <time>2013-12-01T07:24:27Z</time>
      </trkpt>
      <trkpt lat="48.38254" lon="2.47304">
        <ele>78.800003051758</ele>
        <time>2013-12-01T07:24:28Z</time>
      </trkpt>
      <trkpt lat="48.38247" lon="2.47303">
        <ele>78.400001525879</ele>
        <time>2013-12-01T07:24:29Z</time>
      </trkpt>
      <trkpt lat="48.38239" lon="2.473">
        <ele>78</ele>
        <time>2013-12-01T07:24:30Z</time>
      </trkpt>
      <trkpt lat="48.38221" lon="2.47294">
        <ele>78</ele>
        <time>2013-12-01T07:24:32Z</time>
      </trkpt>
      <trkpt lat="48.38172" lon="2.47281">
        <ele>78</ele>
        <time>2013-12-01T07:24:38Z</time>
      </trkpt>
      <trkpt lat="48.38156" lon="2.47277">
        <ele>78</ele>
        <time>2013-12-01T07:24:40Z</time>
      </trkpt>
      <trkpt lat="48.38148" lon="2.47275">
        <ele>78</ele>
        <time>2013-12-01T07:24:41Z</time>
      </trkpt>
      <trkpt lat="48.38135" lon="2.4727">
        <ele>77.400001525879</ele>
        <time>2013-12-01T07:24:43Z</time>
      </trkpt>
      <trkpt lat="48.38127" lon="2.47267">
        <ele>77</ele>
        <time>2013-12-01T07:24:44Z</time>
      </trkpt>
      <trkpt lat="48.3812" lon="2.47264">
        <ele>76.599998474121</ele>
        <time>2013-12-01T07:24:45Z</time>
      </trkpt>
      <trkpt lat="48.38111" lon="2.47261">
        <ele>76.199996948242</ele>
        <time>2013-12-01T07:24:46Z</time>
      </trkpt>
      <trkpt lat="48.38105" lon="2.47257">
        <ele>75.800003051758</ele>
        <time>2013-12-01T07:24:47Z</time>
      </trkpt>
      <trkpt lat="48.38097" lon="2.47253">
        <ele>75.800003051758</ele>
        <time>2013-12-01T07:24:48Z</time>
      </trkpt>
      <trkpt lat="48.38073" lon="2.47242">
        <ele>75.800003051758</ele>
        <time>2013-12-01T07:24:51Z</time>
      </trkpt>
      <trkpt lat="48.38024" lon="2.47193">
        <ele>75.800003051758</ele>
        <time>2013-12-01T07:24:56Z</time>
      </trkpt>
      <trkpt lat="48.37997" lon="2.47171">
        <ele>75.800003051758</ele>
        <time>2013-12-01T07:24:59Z</time>
      </trkpt>
      <trkpt lat="48.37992" lon="2.47168">
        <ele>75.800003051758</ele>
        <time>2013-12-01T07:25:00Z</time>
      </trkpt>
      <trkpt lat="48.37988" lon="2.47166">
        <ele>75.800003051758</ele>
        <time>2013-12-01T07:25:01Z</time>
      </trkpt>
      <trkpt lat="48.37984" lon="2.47165">
        <ele>75.800003051758</ele>
        <time>2013-12-01T07:25:02Z</time>
      </trkpt>
      <trkpt lat="48.37974" lon="2.47165">
        <ele>75.800003051758</ele>
        <time>2013-12-01T07:25:04Z</time>
      </trkpt>
      <trkpt lat="48.37953" lon="2.47182">
        <ele>75.800003051758</ele>
        <time>2013-12-01T07:25:08Z</time>
      </trkpt>
      <trkpt lat="48.3792" lon="2.47194">
        <ele>75.800003051758</ele>
        <time>2013-12-01T07:25:13Z</time>
      </trkpt>
      <trkpt lat="48.37886" lon="2.47209">
        <ele>75.800003051758</ele>
        <time>2013-12-01T07:25:19Z</time>
      </trkpt>
      <trkpt lat="48.37875" lon="2.47215">
        <ele>75.199996948242</ele>
        <time>2013-12-01T07:25:21Z</time>
      </trkpt>
      <trkpt lat="48.37869" lon="2.47217">
        <ele>74.800003051758</ele>
        <time>2013-12-01T07:25:22Z</time>
      </trkpt>
      <trkpt lat="48.37863" lon="2.47219">
        <ele>74.400001525879</ele>
        <time>2013-12-01T07:25:23Z</time>
      </trkpt>
      <trkpt lat="48.37864" lon="2.47226">
        <ele>74</ele>
        <time>2013-12-01T07:25:24Z</time>
      </trkpt>
      <trkpt lat="48.37858" lon="2.47228">
        <ele>73.400001525879</ele>
        <time>2013-12-01T07:25:25Z</time>
      </trkpt>
      <trkpt lat="48.37822" lon="2.47244">
        <ele>73.400001525879</ele>
        <time>2013-12-01T07:25:31Z</time>
      </trkpt>
      <trkpt lat="48.37791" lon="2.47256">
        <ele>73.400001525879</ele>
        <time>2013-12-01T07:25:37Z</time>
      </trkpt>
      <trkpt lat="48.37786" lon="2.47253">
        <ele>73.400001525879</ele>
        <time>2013-12-01T07:25:40Z</time>
      </trkpt>
      <trkpt lat="48.37783" lon="2.47248">
        <ele>73.400001525879</ele>
        <time>2013-12-01T07:25:41Z</time>
      </trkpt>
      <trkpt lat="48.37784" lon="2.47244">
        <ele>73.400001525879</ele>
        <time>2013-12-01T07:25:42Z</time>
      </trkpt>
      <trkpt lat="48.37791" lon="2.47238">
        <ele>73.400001525879</ele>
        <time>2013-12-01T07:25:44Z</time>
      </trkpt>
      <trkpt lat="48.37785" lon="2.47211">
        <ele>73.400001525879</ele>
        <time>2013-12-01T07:25:49Z</time>
      </trkpt>
      <trkpt lat="48.3778" lon="2.4721">
        <ele>73.400001525879</ele>
        <time>2013-12-01T07:25:51Z</time>
      </trkpt>
      <trkpt lat="48.37774" lon="2.47214">
        <ele>73.400001525879</ele>
        <time>2013-12-01T07:25:53Z</time>
      </trkpt>
      <trkpt lat="48.37766" lon="2.47219">
        <ele>73.400001525879</ele>
        <time>2013-12-01T07:25:55Z</time>
      </trkpt>
      <trkpt lat="48.3775" lon="2.4723">
        <ele>73.400001525879</ele>
        <time>2013-12-01T07:25:59Z</time>
      </trkpt>
      <trkpt lat="48.37741" lon="2.47235">
        <ele>73.400001525879</ele>
        <time>2013-12-01T07:26:01Z</time>
      </trkpt>
      <trkpt lat="48.37727" lon="2.47246">
        <ele>73.400001525879</ele>
        <time>2013-12-01T07:26:05Z</time>
      </trkpt>
      <trkpt lat="48.37723" lon="2.47248">
        <ele>73.400001525879</ele>
        <time>2013-12-01T07:26:06Z</time>
      </trkpt>
      <trkpt lat="48.37719" lon="2.4725">
        <ele>73.400001525879</ele>
        <time>2013-12-01T07:26:07Z</time>
      </trkpt>
      <trkpt lat="48.37715" lon="2.47252">
        <ele>73.400001525879</ele>
        <time>2013-12-01T07:26:08Z</time>
      </trkpt>
      <trkpt lat="48.37701" lon="2.47262">
        <ele>73.400001525879</ele>
        <time>2013-12-01T07:26:12Z</time>
      </trkpt>
      <trkpt lat="48.37698" lon="2.47264">
        <ele>73.400001525879</ele>
        <time>2013-12-01T07:26:13Z</time>
      </trkpt>
      <trkpt lat="48.37695" lon="2.47266">
        <ele>73.400001525879</ele>
        <time>2013-12-01T07:26:14Z</time>
      </trkpt>
      <trkpt lat="48.37683" lon="2.47273">
        <ele>73.400001525879</ele>
        <time>2013-12-01T07:26:18Z</time>
      </trkpt>
      <trkpt lat="48.37675" lon="2.47274">
        <ele>73.400001525879</ele>
        <time>2013-12-01T07:26:20Z</time>
      </trkpt>
      <trkpt lat="48.37667" lon="2.47272">
        <ele>73.400001525879</ele>
        <time>2013-12-01T07:26:22Z</time>
      </trkpt>
      <trkpt lat="48.3766" lon="2.47269">
        <ele>73.400001525879</ele>
        <time>2013-12-01T07:26:24Z</time>
      </trkpt>
      <trkpt lat="48.37646" lon="2.47261">
        <ele>73.400001525879</ele>
        <time>2013-12-01T07:26:28Z</time>
      </trkpt>
      <trkpt lat="48.37624" lon="2.4725">
        <ele>73.400001525879</ele>
        <time>2013-12-01T07:26:34Z</time>
      </trkpt>
      <trkpt lat="48.37601" lon="2.47239">
        <ele>73.400001525879</ele>
        <time>2013-12-01T07:26:41Z</time>
      </trkpt>
      <trkpt lat="48.37598" lon="2.47237">
        <ele>73.400001525879</ele>
        <time>2013-12-01T07:26:42Z</time>
      </trkpt>
      <trkpt lat="48.37591" lon="2.47233">
        <ele>73.400001525879</ele>
        <time>2013-12-01T07:26:44Z</time>
      </trkpt>
      <trkpt lat="48.37587" lon="2.47231">
        <ele>73.400001525879</ele>
        <time>2013-12-01T07:26:45Z</time>
      </trkpt>
      <trkpt lat="48.37577" lon="2.47226">
        <ele>73.400001525879</ele>
        <time>2013-12-01T07:26:48Z</time>
      </trkpt>
      <trkpt lat="48.37556" lon="2.47214">
        <ele>73.400001525879</ele>
        <time>2013-12-01T07:26:55Z</time>
      </trkpt>
      <trkpt lat="48.37546" lon="2.4721">
        <ele>73.400001525879</ele>
        <time>2013-12-01T07:26:58Z</time>
      </trkpt>
      <trkpt lat="48.37544" lon="2.4721">
        <ele>73.400001525879</ele>
        <time>2013-12-01T07:26:59Z</time>
      </trkpt>
      <trkpt lat="48.37542" lon="2.47212">
        <ele>73.400001525879</ele>
        <time>2013-12-01T07:27:00Z</time>
      </trkpt>
      <trkpt lat="48.37541" lon="2.47226">
        <ele>73.400001525879</ele>
        <time>2013-12-01T07:27:03Z</time>
      </trkpt>
      <trkpt lat="48.37543" lon="2.47236">
        <ele>73.400001525879</ele>
        <time>2013-12-01T07:27:05Z</time>
      </trkpt>
      <trkpt lat="48.37549" lon="2.47254">
        <ele>73.400001525879</ele>
        <time>2013-12-01T07:27:08Z</time>
      </trkpt>
      <trkpt lat="48.3757" lon="2.47332">
        <ele>73.400001525879</ele>
        <time>2013-12-01T07:27:20Z</time>
      </trkpt>
      <trkpt lat="48.37571" lon="2.47339">
        <ele>73.400001525879</ele>
        <time>2013-12-01T07:27:21Z</time>
      </trkpt>
      <trkpt lat="48.37582" lon="2.47378">
        <ele>73</ele>
        <time>2013-12-01T07:27:28Z</time>
      </trkpt>
      <trkpt lat="48.37585" lon="2.47385">
        <ele>72.599998474121</ele>
        <time>2013-12-01T07:27:29Z</time>
      </trkpt>
      <trkpt lat="48.37587" lon="2.47392">
        <ele>72.199996948242</ele>
        <time>2013-12-01T07:27:30Z</time>
      </trkpt>
      <trkpt lat="48.37588" lon="2.47398">
        <ele>71.800003051758</ele>
        <time>2013-12-01T07:27:31Z</time>
      </trkpt>
      <trkpt lat="48.37589" lon="2.47405">
        <ele>71.400001525879</ele>
        <time>2013-12-01T07:27:32Z</time>
      </trkpt>
      <trkpt lat="48.37596" lon="2.4743">
        <ele>71.400001525879</ele>
        <time>2013-12-01T07:27:36Z</time>
      </trkpt>
      <trkpt lat="48.37597" lon="2.47436">
        <ele>71.400001525879</ele>
        <time>2013-12-01T07:27:37Z</time>
      </trkpt>
      <trkpt lat="48.37598" lon="2.47442">
        <ele>71.400001525879</ele>
        <time>2013-12-01T07:27:38Z</time>
      </trkpt>
      <trkpt lat="48.37603" lon="2.47461">
        <ele>71.400001525879</ele>
        <time>2013-12-01T07:27:41Z</time>
      </trkpt>
      <trkpt lat="48.37605" lon="2.47466">
        <ele>71.400001525879</ele>
        <time>2013-12-01T07:27:42Z</time>
      </trkpt>
      <trkpt lat="48.37609" lon="2.47483">
        <ele>71.400001525879</ele>
        <time>2013-12-01T07:27:45Z</time>
      </trkpt>
      <trkpt lat="48.37622" lon="2.4752">
        <ele>71.400001525879</ele>
        <time>2013-12-01T07:27:51Z</time>
      </trkpt>
      <trkpt lat="48.37638" lon="2.47576">
        <ele>71.400001525879</ele>
        <time>2013-12-01T07:27:59Z</time>
      </trkpt>
      <trkpt lat="48.37641" lon="2.47583">
        <ele>71.400001525879</ele>
        <time>2013-12-01T07:28:00Z</time>
      </trkpt>
      <trkpt lat="48.3765" lon="2.47612">
        <ele>71.400001525879</ele>
        <time>2013-12-01T07:28:04Z</time>
      </trkpt>
      <trkpt lat="48.37658" lon="2.4764">
        <ele>71.400001525879</ele>
        <time>2013-12-01T07:28:08Z</time>
      </trkpt>
      <trkpt lat="48.37658" lon="2.47646">
        <ele>71.400001525879</ele>
        <time>2013-12-01T07:28:09Z</time>
      </trkpt>
      <trkpt lat="48.3765" lon="2.47651">
        <ele>71.400001525879</ele>
        <time>2013-12-01T07:28:11Z</time>
      </trkpt>
      <trkpt lat="48.37646" lon="2.47652">
        <ele>71.400001525879</ele>
        <time>2013-12-01T07:28:12Z</time>
      </trkpt>
      <trkpt lat="48.37631" lon="2.47661">
        <ele>71.400001525879</ele>
        <time>2013-12-01T07:28:16Z</time>
      </trkpt>
      <trkpt lat="48.3759" lon="2.4768">
        <ele>71.400001525879</ele>
        <time>2013-12-01T07:28:26Z</time>
      </trkpt>
      <trkpt lat="48.3757" lon="2.47691">
        <ele>71.400001525879</ele>
        <time>2013-12-01T07:28:31Z</time>
      </trkpt>
      <trkpt lat="48.37564" lon="2.47695">
        <ele>71.400001525879</ele>
        <time>2013-12-01T07:28:32Z</time>
      </trkpt>
      <trkpt lat="48.3756" lon="2.47697">
        <ele>71.400001525879</ele>
        <time>2013-12-01T07:28:33Z</time>
      </trkpt>
      <trkpt lat="48.37551" lon="2.47703">
        <ele>71.400001525879</ele>
        <time>2013-12-01T07:28:35Z</time>
      </trkpt>
      <trkpt lat="48.37531" lon="2.47716">
        <ele>71.400001525879</ele>
        <time>2013-12-01T07:28:40Z</time>
      </trkpt>
      <trkpt lat="48.37522" lon="2.47723">
        <ele>71.400001525879</ele>
        <time>2013-12-01T07:28:42Z</time>
      </trkpt>
      <trkpt lat="48.37518" lon="2.47727">
        <ele>71.400001525879</ele>
        <time>2013-12-01T07:28:43Z</time>
      </trkpt>
      <trkpt lat="48.37515" lon="2.47731">
        <ele>71.400001525879</ele>
        <time>2013-12-01T07:28:44Z</time>
      </trkpt>
      <trkpt lat="48.37499" lon="2.47751">
        <ele>71.400001525879</ele>
        <time>2013-12-01T07:28:48Z</time>
      </trkpt>
      <trkpt lat="48.37475" lon="2.47783">
        <ele>71</ele>
        <time>2013-12-01T07:28:55Z</time>
      </trkpt>
      <trkpt lat="48.37471" lon="2.47788">
        <ele>70.599998474121</ele>
        <time>2013-12-01T07:28:56Z</time>
      </trkpt>
      <trkpt lat="48.37468" lon="2.47793">
        <ele>70.199996948242</ele>
        <time>2013-12-01T07:28:57Z</time>
      </trkpt>
      <trkpt lat="48.37464" lon="2.47797">
        <ele>69.800003051758</ele>
        <time>2013-12-01T07:28:58Z</time>
      </trkpt>
      <trkpt lat="48.37461" lon="2.47802">
        <ele>69.400001525879</ele>
        <time>2013-12-01T07:28:59Z</time>
      </trkpt>
      <trkpt lat="48.37444" lon="2.47826">
        <ele>69.400001525879</ele>
        <time>2013-12-01T07:29:04Z</time>
      </trkpt>
      <trkpt lat="48.3744" lon="2.47831">
        <ele>69.400001525879</ele>
        <time>2013-12-01T07:29:05Z</time>
      </trkpt>
      <trkpt lat="48.37437" lon="2.47835">
        <ele>69.400001525879</ele>
        <time>2013-12-01T07:29:06Z</time>
      </trkpt>
      <trkpt lat="48.3742" lon="2.47857">
        <ele>69.400001525879</ele>
        <time>2013-12-01T07:29:11Z</time>
      </trkpt>
      <trkpt lat="48.37418" lon="2.47862">
        <ele>69.400001525879</ele>
        <time>2013-12-01T07:29:12Z</time>
      </trkpt>
      <trkpt lat="48.37405" lon="2.4788">
        <ele>69.400001525879</ele>
        <time>2013-12-01T07:29:16Z</time>
      </trkpt>
      <trkpt lat="48.37402" lon="2.47884">
        <ele>69.400001525879</ele>
        <time>2013-12-01T07:29:17Z</time>
      </trkpt>
      <trkpt lat="48.37399" lon="2.47888">
        <ele>69.400001525879</ele>
        <time>2013-12-01T07:29:18Z</time>
      </trkpt>
      <trkpt lat="48.37393" lon="2.47896">
        <ele>69.400001525879</ele>
        <time>2013-12-01T07:29:20Z</time>
      </trkpt>
      <trkpt lat="48.3739" lon="2.47899">
        <ele>69.400001525879</ele>
        <time>2013-12-01T07:29:21Z</time>
      </trkpt>
      <trkpt lat="48.3738" lon="2.47911">
        <ele>69.400001525879</ele>
        <time>2013-12-01T07:29:24Z</time>
      </trkpt>
      <trkpt lat="48.37378" lon="2.47915">
        <ele>69.400001525879</ele>
        <time>2013-12-01T07:29:25Z</time>
      </trkpt>
      <trkpt lat="48.37377" lon="2.47919">
        <ele>69.400001525879</ele>
        <time>2013-12-01T07:29:26Z</time>
      </trkpt>
      <trkpt lat="48.37361" lon="2.47944">
        <ele>69.400001525879</ele>
        <time>2013-12-01T07:29:33Z</time>
      </trkpt>
      <trkpt lat="48.37358" lon="2.47948">
        <ele>69.400001525879</ele>
        <time>2013-12-01T07:29:34Z</time>
      </trkpt>
      <trkpt lat="48.3735" lon="2.47958">
        <ele>69.400001525879</ele>
        <time>2013-12-01T07:29:37Z</time>
      </trkpt>
      <trkpt lat="48.37347" lon="2.47962">
        <ele>69.400001525879</ele>
        <time>2013-12-01T07:29:38Z</time>
      </trkpt>
      <trkpt lat="48.37338" lon="2.47974">
        <ele>69.400001525879</ele>
        <time>2013-12-01T07:29:41Z</time>
      </trkpt>
      <trkpt lat="48.37329" lon="2.47985">
        <ele>70.199996948242</ele>
        <time>2013-12-01T07:29:44Z</time>
      </trkpt>
      <trkpt lat="48.37326" lon="2.47988">
        <ele>70.599998474121</ele>
        <time>2013-12-01T07:29:45Z</time>
      </trkpt>
      <trkpt lat="48.37324" lon="2.47992">
        <ele>71</ele>
        <time>2013-12-01T07:29:46Z</time>
      </trkpt>
      <trkpt lat="48.37321" lon="2.47995">
        <ele>71.599998474121</ele>
        <time>2013-12-01T07:29:47Z</time>
      </trkpt>
      <trkpt lat="48.37313" lon="2.48007">
        <ele>71.599998474121</ele>
        <time>2013-12-01T07:29:50Z</time>
      </trkpt>
      <trkpt lat="48.3731" lon="2.48011">
        <ele>71.599998474121</ele>
        <time>2013-12-01T07:29:51Z</time>
      </trkpt>
      <trkpt lat="48.37303" lon="2.48019">
        <ele>71.599998474121</ele>
        <time>2013-12-01T07:29:53Z</time>
      </trkpt>
      <trkpt lat="48.37294" lon="2.48036">
        <ele>71.599998474121</ele>
        <time>2013-12-01T07:29:57Z</time>
      </trkpt>
      <trkpt lat="48.37281" lon="2.48057">
        <ele>71.599998474121</ele>
        <time>2013-12-01T07:30:02Z</time>
      </trkpt>
      <trkpt lat="48.37278" lon="2.4807">
        <ele>71.599998474121</ele>
        <time>2013-12-01T07:30:05Z</time>
      </trkpt>
      <trkpt lat="48.37278" lon="2.48075">
        <ele>71.599998474121</ele>
        <time>2013-12-01T07:30:06Z</time>
      </trkpt>
      <trkpt lat="48.37288" lon="2.48092">
        <ele>71.599998474121</ele>
        <time>2013-12-01T07:30:10Z</time>
      </trkpt>
      <trkpt lat="48.37305" lon="2.48123">
        <ele>71.599998474121</ele>
        <time>2013-12-01T07:30:16Z</time>
      </trkpt>
      <trkpt lat="48.37325" lon="2.48162">
        <ele>71.599998474121</ele>
        <time>2013-12-01T07:30:24Z</time>
      </trkpt>
      <trkpt lat="48.37341" lon="2.48185">
        <ele>72</ele>
        <time>2013-12-01T07:30:29Z</time>
      </trkpt>
      <trkpt lat="48.37343" lon="2.48189">
        <ele>72.400001525879</ele>
        <time>2013-12-01T07:30:30Z</time>
      </trkpt>
      <trkpt lat="48.37345" lon="2.48193">
        <ele>73</ele>
        <time>2013-12-01T07:30:31Z</time>
      </trkpt>
      <trkpt lat="48.37346" lon="2.48196">
        <ele>73.400001525879</ele>
        <time>2013-12-01T07:30:32Z</time>
      </trkpt>
      <trkpt lat="48.37347" lon="2.48198">
        <ele>74</ele>
        <time>2013-12-01T07:30:33Z</time>
      </trkpt>
      <trkpt lat="48.37348" lon="2.482">
        <ele>74</ele>
        <time>2013-12-01T07:30:34Z</time>
      </trkpt>
      <trkpt lat="48.37361" lon="2.4822">
        <ele>74</ele>
        <time>2013-12-01T07:30:40Z</time>
      </trkpt>
      <trkpt lat="48.37374" lon="2.48238">
        <ele>74</ele>
        <time>2013-12-01T07:30:44Z</time>
      </trkpt>
      <trkpt lat="48.37376" lon="2.48242">
        <ele>74</ele>
        <time>2013-12-01T07:30:45Z</time>
      </trkpt>
      <trkpt lat="48.37383" lon="2.48253">
        <ele>74</ele>
        <time>2013-12-01T07:30:47Z</time>
      </trkpt>
      <trkpt lat="48.37406" lon="2.48276">
        <ele>74</ele>
        <time>2013-12-01T07:30:52Z</time>
      </trkpt>
      <trkpt lat="48.37422" lon="2.48287">
        <ele>74</ele>
        <time>2013-12-01T07:30:55Z</time>
      </trkpt>
      <trkpt lat="48.37432" lon="2.48295">
        <ele>74</ele>
        <time>2013-12-01T07:30:58Z</time>
      </trkpt>
      <trkpt lat="48.37439" lon="2.48307">
        <ele>74</ele>
        <time>2013-12-01T07:31:03Z</time>
      </trkpt>
      <trkpt lat="48.37441" lon="2.48321">
        <ele>74</ele>
        <time>2013-12-01T07:31:11Z</time>
      </trkpt>
      <trkpt lat="48.37428" lon="2.48331">
        <ele>74</ele>
        <time>2013-12-01T07:31:19Z</time>
      </trkpt>
      <trkpt lat="48.37414" lon="2.48348">
        <ele>74</ele>
        <time>2013-12-01T07:31:26Z</time>
      </trkpt>
      <trkpt lat="48.37405" lon="2.48372">
        <ele>74</ele>
        <time>2013-12-01T07:31:33Z</time>
      </trkpt>
      <trkpt lat="48.37413" lon="2.48398">
        <ele>74</ele>
        <time>2013-12-01T07:31:39Z</time>
      </trkpt>
      <trkpt lat="48.37413" lon="2.48405">
        <ele>74.400001525879</ele>
        <time>2013-12-01T07:31:40Z</time>
      </trkpt>
      <trkpt lat="48.37413" lon="2.4841">
        <ele>74.800003051758</ele>
        <time>2013-12-01T07:31:41Z</time>
      </trkpt>
      <trkpt lat="48.37413" lon="2.48414">
        <ele>75.199996948242</ele>
        <time>2013-12-01T07:31:42Z</time>
      </trkpt>
      <trkpt lat="48.37413" lon="2.4842">
        <ele>75.599998474121</ele>
        <time>2013-12-01T07:31:43Z</time>
      </trkpt>
      <trkpt lat="48.37412" lon="2.48423">
        <ele>76</ele>
        <time>2013-12-01T07:31:44Z</time>
      </trkpt>
      <trkpt lat="48.37407" lon="2.48445">
        <ele>76</ele>
        <time>2013-12-01T07:31:49Z</time>
      </trkpt>
      <trkpt lat="48.37406" lon="2.48451">
        <ele>75.599998474121</ele>
        <time>2013-12-01T07:31:50Z</time>
      </trkpt>
      <trkpt lat="48.37406" lon="2.48458">
        <ele>75.199996948242</ele>
        <time>2013-12-01T07:31:51Z</time>
      </trkpt>
      <trkpt lat="48.37405" lon="2.48465">
        <ele>74.800003051758</ele>
        <time>2013-12-01T07:31:52Z</time>
      </trkpt>
      <trkpt lat="48.37404" lon="2.48473">
        <ele>74.400001525879</ele>
        <time>2013-12-01T07:31:53Z</time>
      </trkpt>
      <trkpt lat="48.37403" lon="2.48481">
        <ele>74</ele>
        <time>2013-12-01T07:31:54Z</time>
      </trkpt>
      <trkpt lat="48.37403" lon="2.48497">
        <ele>73.599998474121</ele>
        <time>2013-12-01T07:31:56Z</time>
      </trkpt>
      <trkpt lat="48.37402" lon="2.48506">
        <ele>73.199996948242</ele>
        <time>2013-12-01T07:31:57Z</time>
      </trkpt>
      <trkpt lat="48.37402" lon="2.48515">
        <ele>72.800003051758</ele>
        <time>2013-12-01T07:31:58Z</time>
      </trkpt>
      <trkpt lat="48.37402" lon="2.48523">
        <ele>72.400001525879</ele>
        <time>2013-12-01T07:31:59Z</time>
      </trkpt>
      <trkpt lat="48.37403" lon="2.48532">
        <ele>72</ele>
        <time>2013-12-01T07:32:00Z</time>
      </trkpt>
      <trkpt lat="48.37402" lon="2.4854">
        <ele>71.599998474121</ele>
        <time>2013-12-01T07:32:01Z</time>
      </trkpt>
      <trkpt lat="48.37399" lon="2.48547">
        <ele>71.199996948242</ele>
        <time>2013-12-01T07:32:02Z</time>
      </trkpt>
      <trkpt lat="48.37397" lon="2.48551">
        <ele>70.800003051758</ele>
        <time>2013-12-01T07:32:03Z</time>
      </trkpt>
      <trkpt lat="48.37395" lon="2.48554">
        <ele>70.400001525879</ele>
        <time>2013-12-01T07:32:04Z</time>
      </trkpt>
      <trkpt lat="48.37395" lon="2.48557">
        <ele>70</ele>
        <time>2013-12-01T07:32:05Z</time>
      </trkpt>
      <trkpt lat="48.37397" lon="2.48561">
        <ele>70</ele>
        <time>2013-12-01T07:32:07Z</time>
      </trkpt>
      <trkpt lat="48.37396" lon="2.48554">
        <ele>70</ele>
        <time>2013-12-01T07:32:11Z</time>
      </trkpt>
      <trkpt lat="48.37394" lon="2.48554">
        <ele>70</ele>
        <time>2013-12-01T07:32:12Z</time>
      </trkpt>
      <trkpt lat="48.37383" lon="2.48559">
        <ele>70</ele>
        <time>2013-12-01T07:32:16Z</time>
      </trkpt>
      <trkpt lat="48.37361" lon="2.48567">
        <ele>70</ele>
        <time>2013-12-01T07:32:21Z</time>
      </trkpt>
      <trkpt lat="48.37351" lon="2.48571">
        <ele>70</ele>
        <time>2013-12-01T07:32:23Z</time>
      </trkpt>
      <trkpt lat="48.3734" lon="2.48576">
        <ele>70</ele>
        <time>2013-12-01T07:32:26Z</time>
      </trkpt>
      <trkpt lat="48.37335" lon="2.48578">
        <ele>70</ele>
        <time>2013-12-01T07:32:27Z</time>
      </trkpt>
      <trkpt lat="48.37306" lon="2.48597">
        <ele>70</ele>
        <time>2013-12-01T07:32:33Z</time>
      </trkpt>
      <trkpt lat="48.37281" lon="2.4862">
        <ele>70</ele>
        <time>2013-12-01T07:32:39Z</time>
      </trkpt>
      <trkpt lat="48.37268" lon="2.48645">
        <ele>70</ele>
        <time>2013-12-01T07:32:44Z</time>
      </trkpt>
      <trkpt lat="48.37266" lon="2.48652">
        <ele>70</ele>
        <time>2013-12-01T07:32:45Z</time>
      </trkpt>
      <trkpt lat="48.37265" lon="2.48672">
        <ele>70</ele>
        <time>2013-12-01T07:32:48Z</time>
      </trkpt>
      <trkpt lat="48.37264" lon="2.48679">
        <ele>70</ele>
        <time>2013-12-01T07:32:49Z</time>
      </trkpt>
      <trkpt lat="48.37263" lon="2.48692">
        <ele>70</ele>
        <time>2013-12-01T07:32:51Z</time>
      </trkpt>
      <trkpt lat="48.37259" lon="2.48716">
        <ele>70</ele>
        <time>2013-12-01T07:32:55Z</time>
      </trkpt>
      <trkpt lat="48.37252" lon="2.4876">
        <ele>70</ele>
        <time>2013-12-01T07:33:03Z</time>
      </trkpt>
      <trkpt lat="48.37249" lon="2.48789">
        <ele>70.400001525879</ele>
        <time>2013-12-01T07:33:08Z</time>
      </trkpt>
      <trkpt lat="48.37248" lon="2.48795">
        <ele>70.800003051758</ele>
        <time>2013-12-01T07:33:09Z</time>
      </trkpt>
      <trkpt lat="48.37247" lon="2.488">
        <ele>71.199996948242</ele>
        <time>2013-12-01T07:33:10Z</time>
      </trkpt>
      <trkpt lat="48.37246" lon="2.48805">
        <ele>71.599998474121</ele>
        <time>2013-12-01T07:33:11Z</time>
      </trkpt>
      <trkpt lat="48.37244" lon="2.4881">
        <ele>72</ele>
        <time>2013-12-01T07:33:12Z</time>
      </trkpt>
      <trkpt lat="48.37237" lon="2.48849">
        <ele>72</ele>
        <time>2013-12-01T07:33:19Z</time>
      </trkpt>
      <trkpt lat="48.37231" lon="2.4889">
        <ele>72</ele>
        <time>2013-12-01T07:33:27Z</time>
      </trkpt>
      <trkpt lat="48.3723" lon="2.48919">
        <ele>72</ele>
        <time>2013-12-01T07:33:33Z</time>
      </trkpt>
      <trkpt lat="48.37231" lon="2.48943">
        <ele>72</ele>
        <time>2013-12-01T07:33:37Z</time>
      </trkpt>
      <trkpt lat="48.37231" lon="2.48949">
        <ele>72</ele>
        <time>2013-12-01T07:33:38Z</time>
      </trkpt>
      <trkpt lat="48.3723" lon="2.49003">
        <ele>72</ele>
        <time>2013-12-01T07:33:46Z</time>
      </trkpt>
      <trkpt lat="48.3723" lon="2.49017">
        <ele>72</ele>
        <time>2013-12-01T07:33:48Z</time>
      </trkpt>
      <trkpt lat="48.37229" lon="2.49046">
        <ele>72</ele>
        <time>2013-12-01T07:33:52Z</time>
      </trkpt>
      <trkpt lat="48.3723" lon="2.491">
        <ele>72</ele>
        <time>2013-12-01T07:34:00Z</time>
      </trkpt>
      <trkpt lat="48.37242" lon="2.49133">
        <ele>72</ele>
        <time>2013-12-01T07:34:06Z</time>
      </trkpt>
      <trkpt lat="48.37252" lon="2.49149">
        <ele>71.599998474121</ele>
        <time>2013-12-01T07:34:09Z</time>
      </trkpt>
      <trkpt lat="48.37256" lon="2.49154">
        <ele>71.199996948242</ele>
        <time>2013-12-01T07:34:10Z</time>
      </trkpt>
      <trkpt lat="48.3726" lon="2.49159">
        <ele>70.800003051758</ele>
        <time>2013-12-01T07:34:11Z</time>
      </trkpt>
      <trkpt lat="48.37264" lon="2.49164">
        <ele>70.400001525879</ele>
        <time>2013-12-01T07:34:12Z</time>
      </trkpt>
      <trkpt lat="48.37269" lon="2.49168">
        <ele>70</ele>
        <time>2013-12-01T07:34:13Z</time>
      </trkpt>
      <trkpt lat="48.37288" lon="2.49193">
        <ele>70</ele>
        <time>2013-12-01T07:34:18Z</time>
      </trkpt>
      <trkpt lat="48.37294" lon="2.49205">
        <ele>70</ele>
        <time>2013-12-01T07:34:20Z</time>
      </trkpt>
      <trkpt lat="48.37304" lon="2.4923">
        <ele>70</ele>
        <time>2013-12-01T07:34:24Z</time>
      </trkpt>
      <trkpt lat="48.3733" lon="2.49294">
        <ele>70</ele>
        <time>2013-12-01T07:34:33Z</time>
      </trkpt>
      <trkpt lat="48.37335" lon="2.49308">
        <ele>70</ele>
        <time>2013-12-01T07:34:35Z</time>
      </trkpt>
      <trkpt lat="48.37342" lon="2.49338">
        <ele>70</ele>
        <time>2013-12-01T07:34:39Z</time>
      </trkpt>
      <trkpt lat="48.37343" lon="2.49345">
        <ele>70</ele>
        <time>2013-12-01T07:34:40Z</time>
      </trkpt>
      <trkpt lat="48.37346" lon="2.49383">
        <ele>70</ele>
        <time>2013-12-01T07:34:45Z</time>
      </trkpt>
      <trkpt lat="48.37347" lon="2.49455">
        <ele>70</ele>
        <time>2013-12-01T07:34:55Z</time>
      </trkpt>
      <trkpt lat="48.37346" lon="2.49516">
        <ele>70</ele>
        <time>2013-12-01T07:35:03Z</time>
      </trkpt>
      <trkpt lat="48.37345" lon="2.49523">
        <ele>70</ele>
        <time>2013-12-01T07:35:04Z</time>
      </trkpt>
      <trkpt lat="48.37339" lon="2.49559">
        <ele>70</ele>
        <time>2013-12-01T07:35:09Z</time>
      </trkpt>
      <trkpt lat="48.37339" lon="2.49567">
        <ele>70</ele>
        <time>2013-12-01T07:35:10Z</time>
      </trkpt>
      <trkpt lat="48.37331" lon="2.49593">
        <ele>70</ele>
        <time>2013-12-01T07:35:14Z</time>
      </trkpt>
      <trkpt lat="48.37332" lon="2.4961">
        <ele>70</ele>
        <time>2013-12-01T07:35:17Z</time>
      </trkpt>
      <trkpt lat="48.37336" lon="2.49614">
        <ele>70</ele>
        <time>2013-12-01T07:35:18Z</time>
      </trkpt>
      <trkpt lat="48.3735" lon="2.49618">
        <ele>70</ele>
        <time>2013-12-01T07:35:21Z</time>
      </trkpt>
      <trkpt lat="48.37355" lon="2.4962">
        <ele>70</ele>
        <time>2013-12-01T07:35:22Z</time>
      </trkpt>
      <trkpt lat="48.37374" lon="2.49627">
        <ele>70</ele>
        <time>2013-12-01T07:35:26Z</time>
      </trkpt>
      <trkpt lat="48.37389" lon="2.49631">
        <ele>70</ele>
        <time>2013-12-01T07:35:29Z</time>
      </trkpt>
      <trkpt lat="48.37421" lon="2.49639">
        <ele>70</ele>
        <time>2013-12-01T07:35:36Z</time>
      </trkpt>
      <trkpt lat="48.37432" lon="2.49652">
        <ele>70</ele>
        <time>2013-12-01T07:35:42Z</time>
      </trkpt>
      <trkpt lat="48.37428" lon="2.49659">
        <ele>70</ele>
        <time>2013-12-01T07:35:43Z</time>
      </trkpt>
      <trkpt lat="48.37425" lon="2.49665">
        <ele>70</ele>
        <time>2013-12-01T07:35:44Z</time>
      </trkpt>
      <trkpt lat="48.37416" lon="2.49688">
        <ele>70</ele>
        <time>2013-12-01T07:35:48Z</time>
      </trkpt>
      <trkpt lat="48.37407" lon="2.49711">
        <ele>70</ele>
        <time>2013-12-01T07:35:52Z</time>
      </trkpt>
      <trkpt lat="48.37404" lon="2.49716">
        <ele>70</ele>
        <time>2013-12-01T07:35:53Z</time>
      </trkpt>
      <trkpt lat="48.37394" lon="2.49729">
        <ele>70</ele>
        <time>2013-12-01T07:35:56Z</time>
      </trkpt>
      <trkpt lat="48.37363" lon="2.49767">
        <ele>70</ele>
        <time>2013-12-01T07:36:05Z</time>
      </trkpt>
      <trkpt lat="48.37347" lon="2.49791">
        <ele>70</ele>
        <time>2013-12-01T07:36:10Z</time>
      </trkpt>
      <trkpt lat="48.37339" lon="2.49799">
        <ele>70</ele>
        <time>2013-12-01T07:36:12Z</time>
      </trkpt>
      <trkpt lat="48.37331" lon="2.49804">
        <ele>70</ele>
        <time>2013-12-01T07:36:14Z</time>
      </trkpt>
      <trkpt lat="48.37313" lon="2.49816">
        <ele>70</ele>
        <time>2013-12-01T07:36:18Z</time>
      </trkpt>
      <trkpt lat="48.3727" lon="2.49847">
        <ele>70</ele>
        <time>2013-12-01T07:36:28Z</time>
      </trkpt>
      <trkpt lat="48.37232" lon="2.4988">
        <ele>70</ele>
        <time>2013-12-01T07:36:38Z</time>
      </trkpt>
      <trkpt lat="48.37222" lon="2.49891">
        <ele>70</ele>
        <time>2013-12-01T07:36:41Z</time>
      </trkpt>
      <trkpt lat="48.37195" lon="2.49918">
        <ele>70</ele>
        <time>2013-12-01T07:36:49Z</time>
      </trkpt>
      <trkpt lat="48.3717" lon="2.49937">
        <ele>70</ele>
        <time>2013-12-01T07:36:56Z</time>
      </trkpt>
      <trkpt lat="48.37146" lon="2.4994">
        <ele>70</ele>
        <time>2013-12-01T07:37:02Z</time>
      </trkpt>
      <trkpt lat="48.37128" lon="2.49952">
        <ele>70</ele>
        <time>2013-12-01T07:37:07Z</time>
      </trkpt>
      <trkpt lat="48.37106" lon="2.4998">
        <ele>70</ele>
        <time>2013-12-01T07:37:14Z</time>
      </trkpt>
      <trkpt lat="48.37099" lon="2.49991">
        <ele>70</ele>
        <time>2013-12-01T07:37:16Z</time>
      </trkpt>
      <trkpt lat="48.37092" lon="2.50004">
        <ele>70</ele>
        <time>2013-12-01T07:37:18Z</time>
      </trkpt>
      <trkpt lat="48.37067" lon="2.50053">
        <ele>70</ele>
        <time>2013-12-01T07:37:26Z</time>
      </trkpt>
      <trkpt lat="48.3705" lon="2.50084">
        <ele>70</ele>
        <time>2013-12-01T07:37:31Z</time>
      </trkpt>
      <trkpt lat="48.37044" lon="2.50099">
        <ele>70</ele>
        <time>2013-12-01T07:37:33Z</time>
      </trkpt>
      <trkpt lat="48.37015" lon="2.50161">
        <ele>70</ele>
        <time>2013-12-01T07:37:42Z</time>
      </trkpt>
      <trkpt lat="48.36985" lon="2.50209">
        <ele>70</ele>
        <time>2013-12-01T07:37:50Z</time>
      </trkpt>
      <trkpt lat="48.36977" lon="2.50227">
        <ele>70</ele>
        <time>2013-12-01T07:37:53Z</time>
      </trkpt>
      <trkpt lat="48.36968" lon="2.50245">
        <ele>70</ele>
        <time>2013-12-01T07:37:56Z</time>
      </trkpt>
      <trkpt lat="48.36945" lon="2.50302">
        <ele>70</ele>
        <time>2013-12-01T07:38:05Z</time>
      </trkpt>
      <trkpt lat="48.36929" lon="2.50347">
        <ele>70</ele>
        <time>2013-12-01T07:38:12Z</time>
      </trkpt>
      <trkpt lat="48.3691" lon="2.50402">
        <ele>70</ele>
        <time>2013-12-01T07:38:21Z</time>
      </trkpt>
      <trkpt lat="48.36893" lon="2.50453">
        <ele>70</ele>
        <time>2013-12-01T07:38:29Z</time>
      </trkpt>
      <trkpt lat="48.36893" lon="2.5046">
        <ele>70</ele>
        <time>2013-12-01T07:38:30Z</time>
      </trkpt>
      <trkpt lat="48.36883" lon="2.5049">
        <ele>70</ele>
        <time>2013-12-01T07:38:35Z</time>
      </trkpt>
      <trkpt lat="48.3687" lon="2.50535">
        <ele>70</ele>
        <time>2013-12-01T07:38:42Z</time>
      </trkpt>
      <trkpt lat="48.36854" lon="2.50589">
        <ele>70</ele>
        <time>2013-12-01T07:38:51Z</time>
      </trkpt>
      <trkpt lat="48.36843" lon="2.50604">
        <ele>70</ele>
        <time>2013-12-01T07:38:56Z</time>
      </trkpt>
      <trkpt lat="48.36831" lon="2.50607">
        <ele>70</ele>
        <time>2013-12-01T07:39:01Z</time>
      </trkpt>
      <trkpt lat="48.36815" lon="2.50623">
        <ele>70</ele>
        <time>2013-12-01T07:39:06Z</time>
      </trkpt>
      <trkpt lat="48.368" lon="2.50645">
        <ele>70</ele>
        <time>2013-12-01T07:39:13Z</time>
      </trkpt>
      <trkpt lat="48.36796" lon="2.50646">
        <ele>70</ele>
        <time>2013-12-01T07:39:15Z</time>
      </trkpt>
      <trkpt lat="48.36791" lon="2.50647">
        <ele>70</ele>
        <time>2013-12-01T07:39:17Z</time>
      </trkpt>
      <trkpt lat="48.36786" lon="2.50665">
        <ele>70</ele>
        <time>2013-12-01T07:39:21Z</time>
      </trkpt>
      <trkpt lat="48.36785" lon="2.50672">
        <ele>70</ele>
        <time>2013-12-01T07:39:22Z</time>
      </trkpt>
      <trkpt lat="48.36782" lon="2.50707">
        <ele>70</ele>
        <time>2013-12-01T07:39:26Z</time>
      </trkpt>
      <trkpt lat="48.36779" lon="2.50743">
        <ele>70</ele>
        <time>2013-12-01T07:39:30Z</time>
      </trkpt>
      <trkpt lat="48.36774" lon="2.5076">
        <ele>70</ele>
        <time>2013-12-01T07:39:32Z</time>
      </trkpt>
      <trkpt lat="48.36768" lon="2.50776">
        <ele>70</ele>
        <time>2013-12-01T07:39:34Z</time>
      </trkpt>
      <trkpt lat="48.3676" lon="2.50798">
        <ele>70</ele>
        <time>2013-12-01T07:39:38Z</time>
      </trkpt>
      <trkpt lat="48.36762" lon="2.5081">
        <ele>70</ele>
        <time>2013-12-01T07:39:40Z</time>
      </trkpt>
      <trkpt lat="48.36766" lon="2.50815">
        <ele>70</ele>
        <time>2013-12-01T07:39:41Z</time>
      </trkpt>
      <trkpt lat="48.36785" lon="2.50831">
        <ele>70</ele>
        <time>2013-12-01T07:39:45Z</time>
      </trkpt>
      <trkpt lat="48.36831" lon="2.50862">
        <ele>70</ele>
        <time>2013-12-01T07:39:53Z</time>
      </trkpt>
      <trkpt lat="48.36858" lon="2.50883">
        <ele>70</ele>
        <time>2013-12-01T07:39:58Z</time>
      </trkpt>
      <trkpt lat="48.36901" lon="2.50915">
        <ele>70</ele>
        <time>2013-12-01T07:40:06Z</time>
      </trkpt>
      <trkpt lat="48.36916" lon="2.50925">
        <ele>70</ele>
        <time>2013-12-01T07:40:09Z</time>
      </trkpt>
      <trkpt lat="48.36928" lon="2.50926">
        <ele>70</ele>
        <time>2013-12-01T07:40:11Z</time>
      </trkpt>
      <trkpt lat="48.36939" lon="2.50925">
        <ele>70</ele>
        <time>2013-12-01T07:40:13Z</time>
      </trkpt>
      <trkpt lat="48.36954" lon="2.50921">
        <ele>70</ele>
        <time>2013-12-01T07:40:16Z</time>
      </trkpt>
      <trkpt lat="48.36971" lon="2.5092">
        <ele>70</ele>
        <time>2013-12-01T07:40:19Z</time>
      </trkpt>
      <trkpt lat="48.36987" lon="2.5092">
        <ele>70</ele>
        <time>2013-12-01T07:40:22Z</time>
      </trkpt>
      <trkpt lat="48.36993" lon="2.50922">
        <ele>70</ele>
        <time>2013-12-01T07:40:23Z</time>
      </trkpt>
      <trkpt lat="48.37007" lon="2.50927">
        <ele>70</ele>
        <time>2013-12-01T07:40:26Z</time>
      </trkpt>
      <trkpt lat="48.37012" lon="2.5093">
        <ele>70</ele>
        <time>2013-12-01T07:40:27Z</time>
      </trkpt>
      <trkpt lat="48.37049" lon="2.50947">
        <ele>70</ele>
        <time>2013-12-01T07:40:33Z</time>
      </trkpt>
      <trkpt lat="48.37076" lon="2.50963">
        <ele>70</ele>
        <time>2013-12-01T07:40:38Z</time>
      </trkpt>
      <trkpt lat="48.37086" lon="2.5097">
        <ele>70</ele>
        <time>2013-12-01T07:40:40Z</time>
      </trkpt>
      <trkpt lat="48.3712" lon="2.50994">
        <ele>70</ele>
        <time>2013-12-01T07:40:47Z</time>
      </trkpt>
      <trkpt lat="48.37125" lon="2.50997">
        <ele>70</ele>
        <time>2013-12-01T07:40:48Z</time>
      </trkpt>
      <trkpt lat="48.37131" lon="2.51003">
        <ele>70</ele>
        <time>2013-12-01T07:40:49Z</time>
      </trkpt>
      <trkpt lat="48.37147" lon="2.51018">
        <ele>70.400001525879</ele>
        <time>2013-12-01T07:40:52Z</time>
      </trkpt>
      <trkpt lat="48.37152" lon="2.51022">
        <ele>70.800003051758</ele>
        <time>2013-12-01T07:40:53Z</time>
      </trkpt>
      <trkpt lat="48.37159" lon="2.51027">
        <ele>71.199996948242</ele>
        <time>2013-12-01T07:40:54Z</time>
      </trkpt>
      <trkpt lat="48.37164" lon="2.51032">
        <ele>71.599998474121</ele>
        <time>2013-12-01T07:40:55Z</time>
      </trkpt>
      <trkpt lat="48.37169" lon="2.51035">
        <ele>72</ele>
        <time>2013-12-01T07:40:56Z</time>
      </trkpt>
      <trkpt lat="48.37173" lon="2.51039">
        <ele>72</ele>
        <time>2013-12-01T07:40:57Z</time>
      </trkpt>
      <trkpt lat="48.37189" lon="2.51054">
        <ele>72</ele>
        <time>2013-12-01T07:41:01Z</time>
      </trkpt>
      <trkpt lat="48.37192" lon="2.51059">
        <ele>72</ele>
        <time>2013-12-01T07:41:02Z</time>
      </trkpt>
      <trkpt lat="48.37191" lon="2.51069">
        <ele>72</ele>
        <time>2013-12-01T07:41:05Z</time>
      </trkpt>
      <trkpt lat="48.37189" lon="2.51074">
        <ele>72.400001525879</ele>
        <time>2013-12-01T07:41:07Z</time>
      </trkpt>
      <trkpt lat="48.37188" lon="2.51076">
        <ele>73</ele>
        <time>2013-12-01T07:41:08Z</time>
      </trkpt>
      <trkpt lat="48.37188" lon="2.51077">
        <ele>73.400001525879</ele>
        <time>2013-12-01T07:41:09Z</time>
      </trkpt>
      <trkpt lat="48.37186" lon="2.51078">
        <ele>74</ele>
        <time>2013-12-01T07:41:10Z</time>
      </trkpt>
      <trkpt lat="48.37185" lon="2.51079">
        <ele>74.400001525879</ele>
        <time>2013-12-01T07:41:11Z</time>
      </trkpt>
      <trkpt lat="48.37173" lon="2.51084">
        <ele>74.400001525879</ele>
        <time>2013-12-01T07:41:16Z</time>
      </trkpt>
      <trkpt lat="48.3717" lon="2.51084">
        <ele>74.800003051758</ele>
        <time>2013-12-01T07:41:17Z</time>
      </trkpt>
      <trkpt lat="48.37167" lon="2.51084">
        <ele>75.199996948242</ele>
        <time>2013-12-01T07:41:18Z</time>
      </trkpt>
      <trkpt lat="48.37165" lon="2.51085">
        <ele>75.800003051758</ele>
        <time>2013-12-01T07:41:19Z</time>
      </trkpt>
      <trkpt lat="48.37162" lon="2.51087">
        <ele>76.199996948242</ele>
        <time>2013-12-01T07:41:20Z</time>
      </trkpt>
      <trkpt lat="48.3716" lon="2.5109">
        <ele>76.599998474121</ele>
        <time>2013-12-01T07:41:21Z</time>
      </trkpt>
      <trkpt lat="48.37146" lon="2.51114">
        <ele>76.599998474121</ele>
        <time>2013-12-01T07:41:27Z</time>
      </trkpt>
      <trkpt lat="48.37139" lon="2.51161">
        <ele>76.599998474121</ele>
        <time>2013-12-01T07:41:33Z</time>
      </trkpt>
      <trkpt lat="48.37123" lon="2.51181">
        <ele>76.599998474121</ele>
        <time>2013-12-01T07:41:38Z</time>
      </trkpt>
      <trkpt lat="48.3712" lon="2.51186">
        <ele>76.599998474121</ele>
        <time>2013-12-01T07:41:39Z</time>
      </trkpt>
      <trkpt lat="48.37118" lon="2.51191">
        <ele>76.199996948242</ele>
        <time>2013-12-01T07:41:40Z</time>
      </trkpt>
      <trkpt lat="48.37115" lon="2.51197">
        <ele>75.800003051758</ele>
        <time>2013-12-01T07:41:41Z</time>
      </trkpt>
      <trkpt lat="48.37112" lon="2.51203">
        <ele>75.400001525879</ele>
        <time>2013-12-01T07:41:42Z</time>
      </trkpt>
      <trkpt lat="48.3711" lon="2.51209">
        <ele>74.800003051758</ele>
        <time>2013-12-01T07:41:43Z</time>
      </trkpt>
      <trkpt lat="48.37107" lon="2.51216">
        <ele>74.400001525879</ele>
        <time>2013-12-01T07:41:44Z</time>
      </trkpt>
      <trkpt lat="48.37095" lon="2.5124">
        <ele>74.400001525879</ele>
        <time>2013-12-01T07:41:48Z</time>
      </trkpt>
      <trkpt lat="48.37078" lon="2.51283">
        <ele>74.400001525879</ele>
        <time>2013-12-01T07:41:54Z</time>
      </trkpt>
      <trkpt lat="48.37057" lon="2.51317">
        <ele>74</ele>
        <time>2013-12-01T07:42:00Z</time>
      </trkpt>
      <trkpt lat="48.3705" lon="2.51324">
        <ele>73.599998474121</ele>
        <time>2013-12-01T07:42:01Z</time>
      </trkpt>
      <trkpt lat="48.37045" lon="2.51334">
        <ele>73</ele>
        <time>2013-12-01T07:42:02Z</time>
      </trkpt>
      <trkpt lat="48.37044" lon="2.51347">
        <ele>72.599998474121</ele>
        <time>2013-12-01T07:42:03Z</time>
      </trkpt>
      <trkpt lat="48.37045" lon="2.51359">
        <ele>72.199996948242</ele>
        <time>2013-12-01T07:42:04Z</time>
      </trkpt>
      <trkpt lat="48.37051" lon="2.51419">
        <ele>72.199996948242</ele>
        <time>2013-12-01T07:42:10Z</time>
      </trkpt>
      <trkpt lat="48.37054" lon="2.51429">
        <ele>72.199996948242</ele>
        <time>2013-12-01T07:42:11Z</time>
      </trkpt>
      <trkpt lat="48.37061" lon="2.51456">
        <ele>72.199996948242</ele>
        <time>2013-12-01T07:42:14Z</time>
      </trkpt>
      <trkpt lat="48.37076" lon="2.51527">
        <ele>72.199996948242</ele>
        <time>2013-12-01T07:42:22Z</time>
      </trkpt>
      <trkpt lat="48.37087" lon="2.516">
        <ele>72.199996948242</ele>
        <time>2013-12-01T07:42:30Z</time>
      </trkpt>
      <trkpt lat="48.37088" lon="2.51609">
        <ele>71.599998474121</ele>
        <time>2013-12-01T07:42:31Z</time>
      </trkpt>
      <trkpt lat="48.3709" lon="2.51619">
        <ele>71.199996948242</ele>
        <time>2013-12-01T07:42:32Z</time>
      </trkpt>
      <trkpt lat="48.37093" lon="2.51628">
        <ele>70.800003051758</ele>
        <time>2013-12-01T07:42:33Z</time>
      </trkpt>
      <trkpt lat="48.37095" lon="2.51636">
        <ele>70.400001525879</ele>
        <time>2013-12-01T07:42:34Z</time>
      </trkpt>
      <trkpt lat="48.37096" lon="2.51644">
        <ele>69.800003051758</ele>
        <time>2013-12-01T07:42:35Z</time>
      </trkpt>
      <trkpt lat="48.37098" lon="2.51654">
        <ele>69.800003051758</ele>
        <time>2013-12-01T07:42:36Z</time>
      </trkpt>
      <trkpt lat="48.37104" lon="2.51705">
        <ele>69.800003051758</ele>
        <time>2013-12-01T07:42:42Z</time>
      </trkpt>
      <trkpt lat="48.37116" lon="2.51771">
        <ele>69.800003051758</ele>
        <time>2013-12-01T07:42:49Z</time>
      </trkpt>
      <trkpt lat="48.37118" lon="2.51781">
        <ele>69.800003051758</ele>
        <time>2013-12-01T07:42:50Z</time>
      </trkpt>
      <trkpt lat="48.37138" lon="2.51861">
        <ele>69.800003051758</ele>
        <time>2013-12-01T07:42:59Z</time>
      </trkpt>
      <trkpt lat="48.3715" lon="2.51924">
        <ele>69.800003051758</ele>
        <time>2013-12-01T07:43:06Z</time>
      </trkpt>
      <trkpt lat="48.37156" lon="2.5198">
        <ele>69.800003051758</ele>
        <time>2013-12-01T07:43:12Z</time>
      </trkpt>
      <trkpt lat="48.37161" lon="2.52035">
        <ele>69.800003051758</ele>
        <time>2013-12-01T07:43:18Z</time>
      </trkpt>
      <trkpt lat="48.37163" lon="2.52044">
        <ele>69.800003051758</ele>
        <time>2013-12-01T07:43:19Z</time>
      </trkpt>
      <trkpt lat="48.37167" lon="2.52078">
        <ele>69.800003051758</ele>
        <time>2013-12-01T07:43:23Z</time>
      </trkpt>
      <trkpt lat="48.37169" lon="2.52096">
        <ele>69.800003051758</ele>
        <time>2013-12-01T07:43:25Z</time>
      </trkpt>
      <trkpt lat="48.37179" lon="2.52157">
        <ele>69.800003051758</ele>
        <time>2013-12-01T07:43:32Z</time>
      </trkpt>
      <trkpt lat="48.37186" lon="2.52212">
        <ele>69.800003051758</ele>
        <time>2013-12-01T07:43:38Z</time>
      </trkpt>
      <trkpt lat="48.37185" lon="2.5222">
        <ele>69.800003051758</ele>
        <time>2013-12-01T07:43:39Z</time>
      </trkpt>
      <trkpt lat="48.37187" lon="2.52259">
        <ele>69.800003051758</ele>
        <time>2013-12-01T07:43:44Z</time>
      </trkpt>
      <trkpt lat="48.37189" lon="2.52276">
        <ele>69.800003051758</ele>
        <time>2013-12-01T07:43:46Z</time>
      </trkpt>
      <trkpt lat="48.37193" lon="2.523">
        <ele>69.800003051758</ele>
        <time>2013-12-01T07:43:49Z</time>
      </trkpt>
      <trkpt lat="48.372" lon="2.52322">
        <ele>69.800003051758</ele>
        <time>2013-12-01T07:43:52Z</time>
      </trkpt>
      <trkpt lat="48.37204" lon="2.52337">
        <ele>69.800003051758</ele>
        <time>2013-12-01T07:43:54Z</time>
      </trkpt>
      <trkpt lat="48.37218" lon="2.52382">
        <ele>69.800003051758</ele>
        <time>2013-12-01T07:44:00Z</time>
      </trkpt>
      <trkpt lat="48.37239" lon="2.52448">
        <ele>69.800003051758</ele>
        <time>2013-12-01T07:44:09Z</time>
      </trkpt>
      <trkpt lat="48.37246" lon="2.52488">
        <ele>69.800003051758</ele>
        <time>2013-12-01T07:44:15Z</time>
      </trkpt>
      <trkpt lat="48.37232" lon="2.52501">
        <ele>69.800003051758</ele>
        <time>2013-12-01T07:44:19Z</time>
      </trkpt>
      <trkpt lat="48.37215" lon="2.52509">
        <ele>69.800003051758</ele>
        <time>2013-12-01T07:44:23Z</time>
      </trkpt>
      <trkpt lat="48.37199" lon="2.52522">
        <ele>69.800003051758</ele>
        <time>2013-12-01T07:44:27Z</time>
      </trkpt>
      <trkpt lat="48.37194" lon="2.52525">
        <ele>69.800003051758</ele>
        <time>2013-12-01T07:44:28Z</time>
      </trkpt>
      <trkpt lat="48.37175" lon="2.52534">
        <ele>69.800003051758</ele>
        <time>2013-12-01T07:44:32Z</time>
      </trkpt>
      <trkpt lat="48.37135" lon="2.5256">
        <ele>69.800003051758</ele>
        <time>2013-12-01T07:44:39Z</time>
      </trkpt>
      <trkpt lat="48.37123" lon="2.52579">
        <ele>69.800003051758</ele>
        <time>2013-12-01T07:44:43Z</time>
      </trkpt>
      <trkpt lat="48.37123" lon="2.52588">
        <ele>69.800003051758</ele>
        <time>2013-12-01T07:44:44Z</time>
      </trkpt>
      <trkpt lat="48.37127" lon="2.52617">
        <ele>69.800003051758</ele>
        <time>2013-12-01T07:44:48Z</time>
      </trkpt>
      <trkpt lat="48.37128" lon="2.52623">
        <ele>69.800003051758</ele>
        <time>2013-12-01T07:44:49Z</time>
      </trkpt>
      <trkpt lat="48.3713" lon="2.52629">
        <ele>69.800003051758</ele>
        <time>2013-12-01T07:44:50Z</time>
      </trkpt>
      <trkpt lat="48.37136" lon="2.52657">
        <ele>69.800003051758</ele>
        <time>2013-12-01T07:44:54Z</time>
      </trkpt>
      <trkpt lat="48.3714" lon="2.52671">
        <ele>70.199996948242</ele>
        <time>2013-12-01T07:44:56Z</time>
      </trkpt>
      <trkpt lat="48.37141" lon="2.52678">
        <ele>70.599998474121</ele>
        <time>2013-12-01T07:44:57Z</time>
      </trkpt>
      <trkpt lat="48.37143" lon="2.52685">
        <ele>71</ele>
        <time>2013-12-01T07:44:58Z</time>
      </trkpt>
      <trkpt lat="48.37145" lon="2.52693">
        <ele>71.400001525879</ele>
        <time>2013-12-01T07:44:59Z</time>
      </trkpt>
      <trkpt lat="48.37146" lon="2.527">
        <ele>71.800003051758</ele>
        <time>2013-12-01T07:45:00Z</time>
      </trkpt>
      <trkpt lat="48.37149" lon="2.52715">
        <ele>71.800003051758</ele>
        <time>2013-12-01T07:45:02Z</time>
      </trkpt>
      <trkpt lat="48.3715" lon="2.52724">
        <ele>71.800003051758</ele>
        <time>2013-12-01T07:45:03Z</time>
      </trkpt>
      <trkpt lat="48.37151" lon="2.52749">
        <ele>71.800003051758</ele>
        <time>2013-12-01T07:45:06Z</time>
      </trkpt>
      <trkpt lat="48.3715" lon="2.52766">
        <ele>71.800003051758</ele>
        <time>2013-12-01T07:45:08Z</time>
      </trkpt>
      <trkpt lat="48.37145" lon="2.52795">
        <ele>71.800003051758</ele>
        <time>2013-12-01T07:45:11Z</time>
      </trkpt>
      <trkpt lat="48.37143" lon="2.52833">
        <ele>71.800003051758</ele>
        <time>2013-12-01T07:45:16Z</time>
      </trkpt>
      <trkpt lat="48.37144" lon="2.52848">
        <ele>71.800003051758</ele>
        <time>2013-12-01T07:45:18Z</time>
      </trkpt>
      <trkpt lat="48.37145" lon="2.52871">
        <ele>71.800003051758</ele>
        <time>2013-12-01T07:45:21Z</time>
      </trkpt>
      <trkpt lat="48.37149" lon="2.52905">
        <ele>71.800003051758</ele>
        <time>2013-12-01T07:45:26Z</time>
      </trkpt>
      <trkpt lat="48.37156" lon="2.52941">
        <ele>71.800003051758</ele>
        <time>2013-12-01T07:45:31Z</time>
      </trkpt>
      <trkpt lat="48.37158" lon="2.52945">
        <ele>71.800003051758</ele>
        <time>2013-12-01T07:45:32Z</time>
      </trkpt>
      <trkpt lat="48.37173" lon="2.52973">
        <ele>71.800003051758</ele>
        <time>2013-12-01T07:45:37Z</time>
      </trkpt>
      <trkpt lat="48.37185" lon="2.53016">
        <ele>71.800003051758</ele>
        <time>2013-12-01T07:45:43Z</time>
      </trkpt>
      <trkpt lat="48.37188" lon="2.53021">
        <ele>71.800003051758</ele>
        <time>2013-12-01T07:45:44Z</time>
      </trkpt>
      <trkpt lat="48.37198" lon="2.53034">
        <ele>71.800003051758</ele>
        <time>2013-12-01T07:45:47Z</time>
      </trkpt>
      <trkpt lat="48.37206" lon="2.53041">
        <ele>71.800003051758</ele>
        <time>2013-12-01T07:45:49Z</time>
      </trkpt>
      <trkpt lat="48.37231" lon="2.53063">
        <ele>71.800003051758</ele>
        <time>2013-12-01T07:45:55Z</time>
      </trkpt>
      <trkpt lat="48.37234" lon="2.5307">
        <ele>71.800003051758</ele>
        <time>2013-12-01T07:45:56Z</time>
      </trkpt>
      <trkpt lat="48.37242" lon="2.5309">
        <ele>71.800003051758</ele>
        <time>2013-12-01T07:45:59Z</time>
      </trkpt>
      <trkpt lat="48.37245" lon="2.53103">
        <ele>71.800003051758</ele>
        <time>2013-12-01T07:46:01Z</time>
      </trkpt>
      <trkpt lat="48.37246" lon="2.5311">
        <ele>71.800003051758</ele>
        <time>2013-12-01T07:46:02Z</time>
      </trkpt>
      <trkpt lat="48.37256" lon="2.53163">
        <ele>71.800003051758</ele>
        <time>2013-12-01T07:46:09Z</time>
      </trkpt>
      <trkpt lat="48.37267" lon="2.53227">
        <ele>72.199996948242</ele>
        <time>2013-12-01T07:46:18Z</time>
      </trkpt>
      <trkpt lat="48.37269" lon="2.53231">
        <ele>72.800003051758</ele>
        <time>2013-12-01T07:46:19Z</time>
      </trkpt>
      <trkpt lat="48.37271" lon="2.53233">
        <ele>73.199996948242</ele>
        <time>2013-12-01T07:46:20Z</time>
      </trkpt>
      <trkpt lat="48.37273" lon="2.53233">
        <ele>73.599998474121</ele>
        <time>2013-12-01T07:46:21Z</time>
      </trkpt>
      <trkpt lat="48.37275" lon="2.53232">
        <ele>74</ele>
        <time>2013-12-01T07:46:22Z</time>
      </trkpt>
      <trkpt lat="48.37285" lon="2.53225">
        <ele>74</ele>
        <time>2013-12-01T07:46:25Z</time>
      </trkpt>
      <trkpt lat="48.37292" lon="2.53219">
        <ele>74</ele>
        <time>2013-12-01T07:46:27Z</time>
      </trkpt>
      <trkpt lat="48.37296" lon="2.53216">
        <ele>74</ele>
        <time>2013-12-01T07:46:28Z</time>
      </trkpt>
      <trkpt lat="48.37307" lon="2.5321">
        <ele>74</ele>
        <time>2013-12-01T07:46:31Z</time>
      </trkpt>
      <trkpt lat="48.3733" lon="2.53199">
        <ele>74</ele>
        <time>2013-12-01T07:46:36Z</time>
      </trkpt>
      <trkpt lat="48.37361" lon="2.53186">
        <ele>74</ele>
        <time>2013-12-01T07:46:43Z</time>
      </trkpt>
      <trkpt lat="48.37389" lon="2.53179">
        <ele>74</ele>
        <time>2013-12-01T07:46:50Z</time>
      </trkpt>
      <trkpt lat="48.374" lon="2.53166">
        <ele>74</ele>
        <time>2013-12-01T07:46:54Z</time>
      </trkpt>
      <trkpt lat="48.37413" lon="2.53152">
        <ele>74</ele>
        <time>2013-12-01T07:47:00Z</time>
      </trkpt>
      <trkpt lat="48.37431" lon="2.53139">
        <ele>74</ele>
        <time>2013-12-01T07:47:06Z</time>
      </trkpt>
      <trkpt lat="48.37458" lon="2.53127">
        <ele>74</ele>
        <time>2013-12-01T07:47:13Z</time>
      </trkpt>
      <trkpt lat="48.37466" lon="2.53121">
        <ele>74.400001525879</ele>
        <time>2013-12-01T07:47:16Z</time>
      </trkpt>
      <trkpt lat="48.3747" lon="2.53119">
        <ele>74.800003051758</ele>
        <time>2013-12-01T07:47:17Z</time>
      </trkpt>
      <trkpt lat="48.37474" lon="2.53118">
        <ele>75.400001525879</ele>
        <time>2013-12-01T07:47:18Z</time>
      </trkpt>
      <trkpt lat="48.37478" lon="2.53116">
        <ele>75.800003051758</ele>
        <time>2013-12-01T07:47:19Z</time>
      </trkpt>
      <trkpt lat="48.37482" lon="2.53116">
        <ele>76.199996948242</ele>
        <time>2013-12-01T07:47:20Z</time>
      </trkpt>
      <trkpt lat="48.37498" lon="2.53107">
        <ele>76.199996948242</ele>
        <time>2013-12-01T07:47:25Z</time>
      </trkpt>
      <trkpt lat="48.37516" lon="2.53097">
        <ele>76.199996948242</ele>
        <time>2013-12-01T07:47:31Z</time>
      </trkpt>
      <trkpt lat="48.37531" lon="2.53082">
        <ele>76.199996948242</ele>
        <time>2013-12-01T07:47:37Z</time>
      </trkpt>
      <trkpt lat="48.37549" lon="2.53064">
        <ele>76.199996948242</ele>
        <time>2013-12-01T07:47:43Z</time>
      </trkpt>
      <trkpt lat="48.37562" lon="2.53057">
        <ele>76.199996948242</ele>
        <time>2013-12-01T07:47:47Z</time>
      </trkpt>
      <trkpt lat="48.3759" lon="2.5304">
        <ele>76.199996948242</ele>
        <time>2013-12-01T07:47:55Z</time>
      </trkpt>
      <trkpt lat="48.37609" lon="2.53032">
        <ele>76.199996948242</ele>
        <time>2013-12-01T07:48:00Z</time>
      </trkpt>
      <trkpt lat="48.37635" lon="2.53028">
        <ele>76.199996948242</ele>
        <time>2013-12-01T07:48:05Z</time>
      </trkpt>
      <trkpt lat="48.37669" lon="2.53012">
        <ele>76.199996948242</ele>
        <time>2013-12-01T07:48:12Z</time>
      </trkpt>
      <trkpt lat="48.37676" lon="2.53003">
        <ele>75.800003051758</ele>
        <time>2013-12-01T07:48:14Z</time>
      </trkpt>
      <trkpt lat="48.37679" lon="2.53001">
        <ele>75.400001525879</ele>
        <time>2013-12-01T07:48:15Z</time>
      </trkpt>
      <trkpt lat="48.37683" lon="2.52998">
        <ele>75</ele>
        <time>2013-12-01T07:48:16Z</time>
      </trkpt>
      <trkpt lat="48.37687" lon="2.52994">
        <ele>74.599998474121</ele>
        <time>2013-12-01T07:48:17Z</time>
      </trkpt>
      <trkpt lat="48.37691" lon="2.52991">
        <ele>74</ele>
        <time>2013-12-01T07:48:18Z</time>
      </trkpt>
      <trkpt lat="48.37705" lon="2.52991">
        <ele>74</ele>
        <time>2013-12-01T07:48:20Z</time>
      </trkpt>
      <trkpt lat="48.3771" lon="2.52994">
        <ele>74</ele>
        <time>2013-12-01T07:48:21Z</time>
      </trkpt>
      <trkpt lat="48.37729" lon="2.53023">
        <ele>74</ele>
        <time>2013-12-01T07:48:27Z</time>
      </trkpt>
      <trkpt lat="48.37752" lon="2.53034">
        <ele>74</ele>
        <time>2013-12-01T07:48:33Z</time>
      </trkpt>
      <trkpt lat="48.37762" lon="2.53036">
        <ele>74</ele>
        <time>2013-12-01T07:48:35Z</time>
      </trkpt>
      <trkpt lat="48.37775" lon="2.53039">
        <ele>74</ele>
        <time>2013-12-01T07:48:38Z</time>
      </trkpt>
      <trkpt lat="48.3778" lon="2.5304">
        <ele>74</ele>
        <time>2013-12-01T07:48:39Z</time>
      </trkpt>
      <trkpt lat="48.37806" lon="2.53053">
        <ele>74</ele>
        <time>2013-12-01T07:48:44Z</time>
      </trkpt>
      <trkpt lat="48.37836" lon="2.53078">
        <ele>74</ele>
        <time>2013-12-01T07:48:50Z</time>
      </trkpt>
      <trkpt lat="48.37844" lon="2.53076">
        <ele>74</ele>
        <time>2013-12-01T07:48:52Z</time>
      </trkpt>
      <trkpt lat="48.37845" lon="2.53071">
        <ele>74</ele>
        <time>2013-12-01T07:48:53Z</time>
      </trkpt>
      <trkpt lat="48.37847" lon="2.53053">
        <ele>74</ele>
        <time>2013-12-01T07:48:56Z</time>
      </trkpt>
      <trkpt lat="48.3785" lon="2.53032">
        <ele>74</ele>
        <time>2013-12-01T07:48:59Z</time>
      </trkpt>
      <trkpt lat="48.37849" lon="2.53025">
        <ele>73.599998474121</ele>
        <time>2013-12-01T07:49:00Z</time>
      </trkpt>
      <trkpt lat="48.37849" lon="2.53018">
        <ele>73.199996948242</ele>
        <time>2013-12-01T07:49:01Z</time>
      </trkpt>
      <trkpt lat="48.37849" lon="2.5301">
        <ele>72.800003051758</ele>
        <time>2013-12-01T07:49:02Z</time>
      </trkpt>
      <trkpt lat="48.3785" lon="2.53003">
        <ele>72.400001525879</ele>
        <time>2013-12-01T07:49:03Z</time>
      </trkpt>
      <trkpt lat="48.3785" lon="2.52995">
        <ele>72</ele>
        <time>2013-12-01T07:49:04Z</time>
      </trkpt>
      <trkpt lat="48.37859" lon="2.52945">
        <ele>72</ele>
        <time>2013-12-01T07:49:10Z</time>
      </trkpt>
      <trkpt lat="48.37866" lon="2.5289">
        <ele>72</ele>
        <time>2013-12-01T07:49:17Z</time>
      </trkpt>
      <trkpt lat="48.37867" lon="2.52869">
        <ele>72</ele>
        <time>2013-12-01T07:49:20Z</time>
      </trkpt>
      <trkpt lat="48.37867" lon="2.5285">
        <ele>72</ele>
        <time>2013-12-01T07:49:23Z</time>
      </trkpt>
      <trkpt lat="48.37861" lon="2.52826">
        <ele>72</ele>
        <time>2013-12-01T07:49:27Z</time>
      </trkpt>
      <trkpt lat="48.37857" lon="2.5282">
        <ele>72</ele>
        <time>2013-12-01T07:49:28Z</time>
      </trkpt>
      <trkpt lat="48.37848" lon="2.52794">
        <ele>72</ele>
        <time>2013-12-01T07:49:32Z</time>
      </trkpt>
      <trkpt lat="48.37849" lon="2.52781">
        <ele>72</ele>
        <time>2013-12-01T07:49:34Z</time>
      </trkpt>
      <trkpt lat="48.37847" lon="2.52747">
        <ele>72</ele>
        <time>2013-12-01T07:49:39Z</time>
      </trkpt>
      <trkpt lat="48.37844" lon="2.52735">
        <ele>72</ele>
        <time>2013-12-01T07:49:41Z</time>
      </trkpt>
      <trkpt lat="48.3784" lon="2.527">
        <ele>72</ele>
        <time>2013-12-01T07:49:47Z</time>
      </trkpt>
      <trkpt lat="48.37841" lon="2.5267">
        <ele>72.400001525879</ele>
        <time>2013-12-01T07:49:53Z</time>
      </trkpt>
      <trkpt lat="48.37842" lon="2.52665">
        <ele>73</ele>
        <time>2013-12-01T07:49:54Z</time>
      </trkpt>
      <trkpt lat="48.37843" lon="2.52661">
        <ele>73.400001525879</ele>
        <time>2013-12-01T07:49:55Z</time>
      </trkpt>
      <trkpt lat="48.37843" lon="2.52654">
        <ele>74</ele>
        <time>2013-12-01T07:49:56Z</time>
      </trkpt>
      <trkpt lat="48.37844" lon="2.52645">
        <ele>74.400001525879</ele>
        <time>2013-12-01T07:49:58Z</time>
      </trkpt>
      <trkpt lat="48.37849" lon="2.52637">
        <ele>74.400001525879</ele>
        <time>2013-12-01T07:50:01Z</time>
      </trkpt>
      <trkpt lat="48.37856" lon="2.52625">
        <ele>74.800003051758</ele>
        <time>2013-12-01T07:50:06Z</time>
      </trkpt>
      <trkpt lat="48.37857" lon="2.52623">
        <ele>75.199996948242</ele>
        <time>2013-12-01T07:50:07Z</time>
      </trkpt>
      <trkpt lat="48.37857" lon="2.5262">
        <ele>75.599998474121</ele>
        <time>2013-12-01T07:50:08Z</time>
      </trkpt>
      <trkpt lat="48.37858" lon="2.52617">
        <ele>76.199996948242</ele>
        <time>2013-12-01T07:50:09Z</time>
      </trkpt>
      <trkpt lat="48.3786" lon="2.52614">
        <ele>76.599998474121</ele>
        <time>2013-12-01T07:50:10Z</time>
      </trkpt>
      <trkpt lat="48.37864" lon="2.5261">
        <ele>77</ele>
        <time>2013-12-01T07:50:12Z</time>
      </trkpt>
      <trkpt lat="48.37866" lon="2.52608">
        <ele>77.400001525879</ele>
        <time>2013-12-01T07:50:13Z</time>
      </trkpt>
      <trkpt lat="48.37868" lon="2.52607">
        <ele>77.800003051758</ele>
        <time>2013-12-01T07:50:14Z</time>
      </trkpt>
      <trkpt lat="48.3787" lon="2.52605">
        <ele>78.199996948242</ele>
        <time>2013-12-01T07:50:15Z</time>
      </trkpt>
      <trkpt lat="48.37875" lon="2.52603">
        <ele>78.599998474121</ele>
        <time>2013-12-01T07:50:16Z</time>
      </trkpt>
      <trkpt lat="48.37882" lon="2.52601">
        <ele>78.599998474121</ele>
        <time>2013-12-01T07:50:18Z</time>
      </trkpt>
      <trkpt lat="48.37885" lon="2.526">
        <ele>79</ele>
        <time>2013-12-01T07:50:19Z</time>
      </trkpt>
      <trkpt lat="48.37888" lon="2.52599">
        <ele>79.400001525879</ele>
        <time>2013-12-01T07:50:20Z</time>
      </trkpt>
      <trkpt lat="48.3789" lon="2.52597">
        <ele>79.800003051758</ele>
        <time>2013-12-01T07:50:21Z</time>
      </trkpt>
      <trkpt lat="48.37892" lon="2.52595">
        <ele>80.199996948242</ele>
        <time>2013-12-01T07:50:22Z</time>
      </trkpt>
      <trkpt lat="48.37895" lon="2.52593">
        <ele>80.599998474121</ele>
        <time>2013-12-01T07:50:23Z</time>
      </trkpt>
      <trkpt lat="48.37901" lon="2.52591">
        <ele>80.599998474121</ele>
        <time>2013-12-01T07:50:25Z</time>
      </trkpt>
      <trkpt lat="48.37902" lon="2.52589">
        <ele>81</ele>
        <time>2013-12-01T07:50:26Z</time>
      </trkpt>
      <trkpt lat="48.37905" lon="2.52587">
        <ele>81.599998474121</ele>
        <time>2013-12-01T07:50:27Z</time>
      </trkpt>
      <trkpt lat="48.37907" lon="2.52586">
        <ele>82</ele>
        <time>2013-12-01T07:50:28Z</time>
      </trkpt>
      <trkpt lat="48.3791" lon="2.52584">
        <ele>82.400001525879</ele>
        <time>2013-12-01T07:50:29Z</time>
      </trkpt>
      <trkpt lat="48.37912" lon="2.52582">
        <ele>82.800003051758</ele>
        <time>2013-12-01T07:50:30Z</time>
      </trkpt>
      <trkpt lat="48.37922" lon="2.52568">
        <ele>82.800003051758</ele>
        <time>2013-12-01T07:50:36Z</time>
      </trkpt>
      <trkpt lat="48.37934" lon="2.52543">
        <ele>82.800003051758</ele>
        <time>2013-12-01T07:50:42Z</time>
      </trkpt>
      <trkpt lat="48.3795" lon="2.52512">
        <ele>82.800003051758</ele>
        <time>2013-12-01T07:50:47Z</time>
      </trkpt>
      <trkpt lat="48.37964" lon="2.52494">
        <ele>82.400001525879</ele>
        <time>2013-12-01T07:50:51Z</time>
      </trkpt>
      <trkpt lat="48.37967" lon="2.52492">
        <ele>81.800003051758</ele>
        <time>2013-12-01T07:50:52Z</time>
      </trkpt>
      <trkpt lat="48.3797" lon="2.52487">
        <ele>81.400001525879</ele>
        <time>2013-12-01T07:50:53Z</time>
      </trkpt>
      <trkpt lat="48.37973" lon="2.52481">
        <ele>80.599998474121</ele>
        <time>2013-12-01T07:50:54Z</time>
      </trkpt>
      <trkpt lat="48.37977" lon="2.52477">
        <ele>79.800003051758</ele>
        <time>2013-12-01T07:50:55Z</time>
      </trkpt>
      <trkpt lat="48.37981" lon="2.52472">
        <ele>79</ele>
        <time>2013-12-01T07:50:56Z</time>
      </trkpt>
      <trkpt lat="48.37984" lon="2.52466">
        <ele>78.199996948242</ele>
        <time>2013-12-01T07:50:57Z</time>
      </trkpt>
      <trkpt lat="48.37986" lon="2.52458">
        <ele>77.400001525879</ele>
        <time>2013-12-01T07:50:58Z</time>
      </trkpt>
      <trkpt lat="48.37989" lon="2.52451">
        <ele>76.599998474121</ele>
        <time>2013-12-01T07:50:59Z</time>
      </trkpt>
      <trkpt lat="48.37995" lon="2.52444">
        <ele>75.800003051758</ele>
        <time>2013-12-01T07:51:00Z</time>
      </trkpt>
      <trkpt lat="48.38" lon="2.52438">
        <ele>75.199996948242</ele>
        <time>2013-12-01T07:51:01Z</time>
      </trkpt>
      <trkpt lat="48.38005" lon="2.52431">
        <ele>74.599998474121</ele>
        <time>2013-12-01T07:51:02Z</time>
      </trkpt>
      <trkpt lat="48.38011" lon="2.52426">
        <ele>74</ele>
        <time>2013-12-01T07:51:03Z</time>
      </trkpt>
      <trkpt lat="48.38016" lon="2.52423">
        <ele>73.400001525879</ele>
        <time>2013-12-01T07:51:04Z</time>
      </trkpt>
      <trkpt lat="48.38021" lon="2.5242">
        <ele>72.800003051758</ele>
        <time>2013-12-01T07:51:05Z</time>
      </trkpt>
      <trkpt lat="48.38032" lon="2.52414">
        <ele>72.400001525879</ele>
        <time>2013-12-01T07:51:07Z</time>
      </trkpt>
      <trkpt lat="48.38037" lon="2.52411">
        <ele>72</ele>
        <time>2013-12-01T07:51:08Z</time>
      </trkpt>
      <trkpt lat="48.38042" lon="2.52407">
        <ele>71.400001525879</ele>
        <time>2013-12-01T07:51:09Z</time>
      </trkpt>
      <trkpt lat="48.38046" lon="2.52403">
        <ele>71</ele>
        <time>2013-12-01T07:51:10Z</time>
      </trkpt>
      <trkpt lat="48.38051" lon="2.52401">
        <ele>70.599998474121</ele>
        <time>2013-12-01T07:51:11Z</time>
      </trkpt>
      <trkpt lat="48.38055" lon="2.52399">
        <ele>70.599998474121</ele>
        <time>2013-12-01T07:51:12Z</time>
      </trkpt>
      <trkpt lat="48.38075" lon="2.52387">
        <ele>70.599998474121</ele>
        <time>2013-12-01T07:51:17Z</time>
      </trkpt>
      <trkpt lat="48.38105" lon="2.52369">
        <ele>70.599998474121</ele>
        <time>2013-12-01T07:51:23Z</time>
      </trkpt>
      <trkpt lat="48.38124" lon="2.52368">
        <ele>70.599998474121</ele>
        <time>2013-12-01T07:51:27Z</time>
      </trkpt>
      <trkpt lat="48.38143" lon="2.52365">
        <ele>70.599998474121</ele>
        <time>2013-12-01T07:51:32Z</time>
      </trkpt>
      <trkpt lat="48.3816" lon="2.52361">
        <ele>70.599998474121</ele>
        <time>2013-12-01T07:51:37Z</time>
      </trkpt>
      <trkpt lat="48.38177" lon="2.52367">
        <ele>70.599998474121</ele>
        <time>2013-12-01T07:51:42Z</time>
      </trkpt>
      <trkpt lat="48.38181" lon="2.52366">
        <ele>70.599998474121</ele>
        <time>2013-12-01T07:51:43Z</time>
      </trkpt>
      <trkpt lat="48.38207" lon="2.5236">
        <ele>70.599998474121</ele>
        <time>2013-12-01T07:51:49Z</time>
      </trkpt>
      <trkpt lat="48.38217" lon="2.52361">
        <ele>70.599998474121</ele>
        <time>2013-12-01T07:51:51Z</time>
      </trkpt>
      <trkpt lat="48.38229" lon="2.52365">
        <ele>70.599998474121</ele>
        <time>2013-12-01T07:51:54Z</time>
      </trkpt>
      <trkpt lat="48.38255" lon="2.52373">
        <ele>70.599998474121</ele>
        <time>2013-12-01T07:52:00Z</time>
      </trkpt>
      <trkpt lat="48.38264" lon="2.52379">
        <ele>70.599998474121</ele>
        <time>2013-12-01T07:52:02Z</time>
      </trkpt>
      <trkpt lat="48.38277" lon="2.52388">
        <ele>70.599998474121</ele>
        <time>2013-12-01T07:52:05Z</time>
      </trkpt>
      <trkpt lat="48.3829" lon="2.52397">
        <ele>70.599998474121</ele>
        <time>2013-12-01T07:52:08Z</time>
      </trkpt>
      <trkpt lat="48.38305" lon="2.52407">
        <ele>70.599998474121</ele>
        <time>2013-12-01T07:52:11Z</time>
      </trkpt>
      <trkpt lat="48.38345" lon="2.52434">
        <ele>70.599998474121</ele>
        <time>2013-12-01T07:52:19Z</time>
      </trkpt>
      <trkpt lat="48.38351" lon="2.52436">
        <ele>70.599998474121</ele>
        <time>2013-12-01T07:52:20Z</time>
      </trkpt>
      <trkpt lat="48.38393" lon="2.52459">
        <ele>70.599998474121</ele>
        <time>2013-12-01T07:52:28Z</time>
      </trkpt>
      <trkpt lat="48.38425" lon="2.52471">
        <ele>70.599998474121</ele>
        <time>2013-12-01T07:52:35Z</time>
      </trkpt>
      <trkpt lat="48.38454" lon="2.52474">
        <ele>70.599998474121</ele>
        <time>2013-12-01T07:52:41Z</time>
      </trkpt>
      <trkpt lat="48.38458" lon="2.52474">
        <ele>70.599998474121</ele>
        <time>2013-12-01T07:52:42Z</time>
      </trkpt>
      <trkpt lat="48.38474" lon="2.52472">
        <ele>71</ele>
        <time>2013-12-01T07:52:46Z</time>
      </trkpt>
      <trkpt lat="48.38478" lon="2.52471">
        <ele>71.400001525879</ele>
        <time>2013-12-01T07:52:47Z</time>
      </trkpt>
      <trkpt lat="48.38483" lon="2.5247">
        <ele>71.800003051758</ele>
        <time>2013-12-01T07:52:48Z</time>
      </trkpt>
      <trkpt lat="48.38487" lon="2.52468">
        <ele>72.400001525879</ele>
        <time>2013-12-01T07:52:49Z</time>
      </trkpt>
      <trkpt lat="48.38492" lon="2.52466">
        <ele>72.800003051758</ele>
        <time>2013-12-01T07:52:50Z</time>
      </trkpt>
      <trkpt lat="48.38499" lon="2.52465">
        <ele>72.800003051758</ele>
        <time>2013-12-01T07:52:51Z</time>
      </trkpt>
      <trkpt lat="48.3851" lon="2.52463">
        <ele>72.800003051758</ele>
        <time>2013-12-01T07:52:53Z</time>
      </trkpt>
      <trkpt lat="48.38534" lon="2.52459">
        <ele>72.800003051758</ele>
        <time>2013-12-01T07:52:58Z</time>
      </trkpt>
      <trkpt lat="48.38543" lon="2.52458">
        <ele>72.800003051758</ele>
        <time>2013-12-01T07:53:00Z</time>
      </trkpt>
      <trkpt lat="48.38562" lon="2.52459">
        <ele>72.800003051758</ele>
        <time>2013-12-01T07:53:04Z</time>
      </trkpt>
      <trkpt lat="48.38583" lon="2.52449">
        <ele>72.800003051758</ele>
        <time>2013-12-01T07:53:09Z</time>
      </trkpt>
      <trkpt lat="48.38607" lon="2.52438">
        <ele>72.800003051758</ele>
        <time>2013-12-01T07:53:15Z</time>
      </trkpt>
      <trkpt lat="48.38622" lon="2.52431">
        <ele>72.800003051758</ele>
        <time>2013-12-01T07:53:19Z</time>
      </trkpt>
      <trkpt lat="48.38626" lon="2.52433">
        <ele>72.800003051758</ele>
        <time>2013-12-01T07:53:20Z</time>
      </trkpt>
      <trkpt lat="48.38654" lon="2.52447">
        <ele>72.800003051758</ele>
        <time>2013-12-01T07:53:26Z</time>
      </trkpt>
      <trkpt lat="48.38663" lon="2.52452">
        <ele>73.199996948242</ele>
        <time>2013-12-01T07:53:28Z</time>
      </trkpt>
      <trkpt lat="48.38667" lon="2.52455">
        <ele>73.599998474121</ele>
        <time>2013-12-01T07:53:29Z</time>
      </trkpt>
      <trkpt lat="48.3867" lon="2.52458">
        <ele>74</ele>
        <time>2013-12-01T07:53:30Z</time>
      </trkpt>
      <trkpt lat="48.38675" lon="2.5246">
        <ele>74.400001525879</ele>
        <time>2013-12-01T07:53:31Z</time>
      </trkpt>
      <trkpt lat="48.38678" lon="2.52463">
        <ele>74.800003051758</ele>
        <time>2013-12-01T07:53:32Z</time>
      </trkpt>
      <trkpt lat="48.38688" lon="2.52489">
        <ele>74.800003051758</ele>
        <time>2013-12-01T07:53:37Z</time>
      </trkpt>
      <trkpt lat="48.38694" lon="2.52522">
        <ele>74.800003051758</ele>
        <time>2013-12-01T07:53:43Z</time>
      </trkpt>
      <trkpt lat="48.38697" lon="2.5256">
        <ele>74.800003051758</ele>
        <time>2013-12-01T07:53:50Z</time>
      </trkpt>
      <trkpt lat="48.38694" lon="2.52582">
        <ele>74.800003051758</ele>
        <time>2013-12-01T07:53:55Z</time>
      </trkpt>
      <trkpt lat="48.38693" lon="2.52592">
        <ele>75.199996948242</ele>
        <time>2013-12-01T07:53:57Z</time>
      </trkpt>
      <trkpt lat="48.38692" lon="2.52597">
        <ele>75.599998474121</ele>
        <time>2013-12-01T07:53:58Z</time>
      </trkpt>
      <trkpt lat="48.38692" lon="2.52602">
        <ele>76</ele>
        <time>2013-12-01T07:53:59Z</time>
      </trkpt>
      <trkpt lat="48.38692" lon="2.52606">
        <ele>76.400001525879</ele>
        <time>2013-12-01T07:54:00Z</time>
      </trkpt>
      <trkpt lat="48.38693" lon="2.52611">
        <ele>76.800003051758</ele>
        <time>2013-12-01T07:54:01Z</time>
      </trkpt>
      <trkpt lat="48.38693" lon="2.52614">
        <ele>76.800003051758</ele>
        <time>2013-12-01T07:54:02Z</time>
      </trkpt>
      <trkpt lat="48.38697" lon="2.52642">
        <ele>76.800003051758</ele>
        <time>2013-12-01T07:54:08Z</time>
      </trkpt>
      <trkpt lat="48.38707" lon="2.52685">
        <ele>76.800003051758</ele>
        <time>2013-12-01T07:54:16Z</time>
      </trkpt>
      <trkpt lat="48.3871" lon="2.52704">
        <ele>76.800003051758</ele>
        <time>2013-12-01T07:54:19Z</time>
      </trkpt>
      <trkpt lat="48.3871" lon="2.52711">
        <ele>77.199996948242</ele>
        <time>2013-12-01T07:54:20Z</time>
      </trkpt>
      <trkpt lat="48.38711" lon="2.52718">
        <ele>77.199996948242</ele>
        <time>2013-12-01T07:54:21Z</time>
      </trkpt>
      <trkpt lat="48.38712" lon="2.52725">
        <ele>77.599998474121</ele>
        <time>2013-12-01T07:54:22Z</time>
      </trkpt>
      <trkpt lat="48.38713" lon="2.52731">
        <ele>78</ele>
        <time>2013-12-01T07:54:23Z</time>
      </trkpt>
      <trkpt lat="48.38713" lon="2.5274">
        <ele>78.400001525879</ele>
        <time>2013-12-01T07:54:24Z</time>
      </trkpt>
      <trkpt lat="48.38715" lon="2.52747">
        <ele>78.800003051758</ele>
        <time>2013-12-01T07:54:25Z</time>
      </trkpt>
      <trkpt lat="48.38717" lon="2.52762">
        <ele>78.800003051758</ele>
        <time>2013-12-01T07:54:27Z</time>
      </trkpt>
      <trkpt lat="48.38717" lon="2.52779">
        <ele>78.800003051758</ele>
        <time>2013-12-01T07:54:29Z</time>
      </trkpt>
      <trkpt lat="48.38717" lon="2.52805">
        <ele>78.800003051758</ele>
        <time>2013-12-01T07:54:32Z</time>
      </trkpt>
      <trkpt lat="48.38718" lon="2.5283">
        <ele>78.800003051758</ele>
        <time>2013-12-01T07:54:35Z</time>
      </trkpt>
      <trkpt lat="48.38718" lon="2.52838">
        <ele>78.400001525879</ele>
        <time>2013-12-01T07:54:36Z</time>
      </trkpt>
      <trkpt lat="48.38719" lon="2.52846">
        <ele>78</ele>
        <time>2013-12-01T07:54:37Z</time>
      </trkpt>
      <trkpt lat="48.3872" lon="2.52855">
        <ele>77.599998474121</ele>
        <time>2013-12-01T07:54:38Z</time>
      </trkpt>
      <trkpt lat="48.38719" lon="2.52864">
        <ele>77.199996948242</ele>
        <time>2013-12-01T07:54:39Z</time>
      </trkpt>
      <trkpt lat="48.38718" lon="2.52872">
        <ele>76.599998474121</ele>
        <time>2013-12-01T07:54:40Z</time>
      </trkpt>
      <trkpt lat="48.38715" lon="2.52888">
        <ele>76.199996948242</ele>
        <time>2013-12-01T07:54:42Z</time>
      </trkpt>
      <trkpt lat="48.38712" lon="2.52897">
        <ele>75.800003051758</ele>
        <time>2013-12-01T07:54:43Z</time>
      </trkpt>
      <trkpt lat="48.38711" lon="2.52906">
        <ele>75.400001525879</ele>
        <time>2013-12-01T07:54:44Z</time>
      </trkpt>
      <trkpt lat="48.38709" lon="2.52915">
        <ele>75</ele>
        <time>2013-12-01T07:54:45Z</time>
      </trkpt>
      <trkpt lat="48.38708" lon="2.52924">
        <ele>74.599998474121</ele>
        <time>2013-12-01T07:54:46Z</time>
      </trkpt>
      <trkpt lat="48.38705" lon="2.52939">
        <ele>74.599998474121</ele>
        <time>2013-12-01T07:54:48Z</time>
      </trkpt>
      <trkpt lat="48.38705" lon="2.52946">
        <ele>74.599998474121</ele>
        <time>2013-12-01T07:54:49Z</time>
      </trkpt>
      <trkpt lat="48.38696" lon="2.52985">
        <ele>74.599998474121</ele>
        <time>2013-12-01T07:54:55Z</time>
      </trkpt>
      <trkpt lat="48.38697" lon="2.5303">
        <ele>74.599998474121</ele>
        <time>2013-12-01T07:55:02Z</time>
      </trkpt>
      <trkpt lat="48.38697" lon="2.53037">
        <ele>74.599998474121</ele>
        <time>2013-12-01T07:55:03Z</time>
      </trkpt>
      <trkpt lat="48.38694" lon="2.5306">
        <ele>74.599998474121</ele>
        <time>2013-12-01T07:55:07Z</time>
      </trkpt>
      <trkpt lat="48.38689" lon="2.53078">
        <ele>74.599998474121</ele>
        <time>2013-12-01T07:55:10Z</time>
      </trkpt>
      <trkpt lat="48.38687" lon="2.531">
        <ele>74.599998474121</ele>
        <time>2013-12-01T07:55:14Z</time>
      </trkpt>
      <trkpt lat="48.38687" lon="2.53104">
        <ele>74.599998474121</ele>
        <time>2013-12-01T07:55:15Z</time>
      </trkpt>
      <trkpt lat="48.38689" lon="2.5313">
        <ele>74.599998474121</ele>
        <time>2013-12-01T07:55:20Z</time>
      </trkpt>
      <trkpt lat="48.38692" lon="2.53161">
        <ele>74.599998474121</ele>
        <time>2013-12-01T07:55:25Z</time>
      </trkpt>
      <trkpt lat="48.38692" lon="2.53169">
        <ele>74.599998474121</ele>
        <time>2013-12-01T07:55:26Z</time>
      </trkpt>
      <trkpt lat="48.38696" lon="2.53192">
        <ele>74.599998474121</ele>
        <time>2013-12-01T07:55:29Z</time>
      </trkpt>
      <trkpt lat="48.38697" lon="2.532">
        <ele>74.599998474121</ele>
        <time>2013-12-01T07:55:30Z</time>
      </trkpt>
      <trkpt lat="48.38697" lon="2.5323">
        <ele>74.599998474121</ele>
        <time>2013-12-01T07:55:35Z</time>
      </trkpt>
      <trkpt lat="48.38689" lon="2.53259">
        <ele>74.599998474121</ele>
        <time>2013-12-01T07:55:40Z</time>
      </trkpt>
      <trkpt lat="48.38687" lon="2.53297">
        <ele>74.599998474121</ele>
        <time>2013-12-01T07:55:46Z</time>
      </trkpt>
      <trkpt lat="48.38686" lon="2.53303">
        <ele>74.599998474121</ele>
        <time>2013-12-01T07:55:47Z</time>
      </trkpt>
      <trkpt lat="48.3868" lon="2.53331">
        <ele>74.599998474121</ele>
        <time>2013-12-01T07:55:52Z</time>
      </trkpt>
      <trkpt lat="48.38679" lon="2.53367">
        <ele>74.599998474121</ele>
        <time>2013-12-01T07:55:58Z</time>
      </trkpt>
      <trkpt lat="48.3868" lon="2.53378">
        <ele>75</ele>
        <time>2013-12-01T07:56:00Z</time>
      </trkpt>
      <trkpt lat="48.38681" lon="2.53385">
        <ele>75.599998474121</ele>
        <time>2013-12-01T07:56:01Z</time>
      </trkpt>
      <trkpt lat="48.38682" lon="2.53391">
        <ele>76</ele>
        <time>2013-12-01T07:56:02Z</time>
      </trkpt>
      <trkpt lat="48.38683" lon="2.53397">
        <ele>76.400001525879</ele>
        <time>2013-12-01T07:56:03Z</time>
      </trkpt>
      <trkpt lat="48.38684" lon="2.53403">
        <ele>76.800003051758</ele>
        <time>2013-12-01T07:56:04Z</time>
      </trkpt>
      <trkpt lat="48.38682" lon="2.53437">
        <ele>76.800003051758</ele>
        <time>2013-12-01T07:56:10Z</time>
      </trkpt>
      <trkpt lat="48.38684" lon="2.53459">
        <ele>77.199996948242</ele>
        <time>2013-12-01T07:56:14Z</time>
      </trkpt>
      <trkpt lat="48.38684" lon="2.53464">
        <ele>77.599998474121</ele>
        <time>2013-12-01T07:56:15Z</time>
      </trkpt>
      <trkpt lat="48.38684" lon="2.53469">
        <ele>78.199996948242</ele>
        <time>2013-12-01T07:56:16Z</time>
      </trkpt>
      <trkpt lat="48.38685" lon="2.53474">
        <ele>78.599998474121</ele>
        <time>2013-12-01T07:56:17Z</time>
      </trkpt>
      <trkpt lat="48.38684" lon="2.5348">
        <ele>79</ele>
        <time>2013-12-01T07:56:18Z</time>
      </trkpt>
      <trkpt lat="48.38683" lon="2.53515">
        <ele>79.400001525879</ele>
        <time>2013-12-01T07:56:25Z</time>
      </trkpt>
      <trkpt lat="48.38683" lon="2.5352">
        <ele>80</ele>
        <time>2013-12-01T07:56:26Z</time>
      </trkpt>
      <trkpt lat="48.38682" lon="2.53525">
        <ele>80.400001525879</ele>
        <time>2013-12-01T07:56:27Z</time>
      </trkpt>
      <trkpt lat="48.38681" lon="2.5353">
        <ele>80.800003051758</ele>
        <time>2013-12-01T07:56:28Z</time>
      </trkpt>
      <trkpt lat="48.38681" lon="2.53538">
        <ele>81.400001525879</ele>
        <time>2013-12-01T07:56:29Z</time>
      </trkpt>
      <trkpt lat="48.38682" lon="2.53554">
        <ele>81.800003051758</ele>
        <time>2013-12-01T07:56:32Z</time>
      </trkpt>
      <trkpt lat="48.38683" lon="2.53559">
        <ele>82.199996948242</ele>
        <time>2013-12-01T07:56:34Z</time>
      </trkpt>
      <trkpt lat="48.38684" lon="2.53564">
        <ele>82.599998474121</ele>
        <time>2013-12-01T07:56:35Z</time>
      </trkpt>
      <trkpt lat="48.38686" lon="2.53569">
        <ele>83</ele>
        <time>2013-12-01T07:56:36Z</time>
      </trkpt>
      <trkpt lat="48.38686" lon="2.53574">
        <ele>83.599998474121</ele>
        <time>2013-12-01T07:56:37Z</time>
      </trkpt>
      <trkpt lat="48.38691" lon="2.53588">
        <ele>83.599998474121</ele>
        <time>2013-12-01T07:56:40Z</time>
      </trkpt>
      <trkpt lat="48.38696" lon="2.53599">
        <ele>83.599998474121</ele>
        <time>2013-12-01T07:56:43Z</time>
      </trkpt>
      <trkpt lat="48.38699" lon="2.53608">
        <ele>84</ele>
        <time>2013-12-01T07:56:45Z</time>
      </trkpt>
      <trkpt lat="48.387" lon="2.53612">
        <ele>84.400001525879</ele>
        <time>2013-12-01T07:56:46Z</time>
      </trkpt>
      <trkpt lat="48.38701" lon="2.53616">
        <ele>84.800003051758</ele>
        <time>2013-12-01T07:56:47Z</time>
      </trkpt>
      <trkpt lat="48.38702" lon="2.5362">
        <ele>85.199996948242</ele>
        <time>2013-12-01T07:56:48Z</time>
      </trkpt>
      <trkpt lat="48.38704" lon="2.53625">
        <ele>85.599998474121</ele>
        <time>2013-12-01T07:56:49Z</time>
      </trkpt>
      <trkpt lat="48.38713" lon="2.53651">
        <ele>86</ele>
        <time>2013-12-01T07:56:56Z</time>
      </trkpt>
      <trkpt lat="48.38713" lon="2.53655">
        <ele>86.400001525879</ele>
        <time>2013-12-01T07:56:57Z</time>
      </trkpt>
      <trkpt lat="48.38714" lon="2.5366">
        <ele>86.800003051758</ele>
        <time>2013-12-01T07:56:58Z</time>
      </trkpt>
      <trkpt lat="48.38715" lon="2.53663">
        <ele>87.199996948242</ele>
        <time>2013-12-01T07:56:59Z</time>
      </trkpt>
      <trkpt lat="48.38717" lon="2.53667">
        <ele>87.599998474121</ele>
        <time>2013-12-01T07:57:00Z</time>
      </trkpt>
      <trkpt lat="48.38717" lon="2.53679">
        <ele>87.599998474121</ele>
        <time>2013-12-01T07:57:03Z</time>
      </trkpt>
      <trkpt lat="48.38712" lon="2.53693">
        <ele>88</ele>
        <time>2013-12-01T07:57:07Z</time>
      </trkpt>
      <trkpt lat="48.38712" lon="2.53696">
        <ele>88.599998474121</ele>
        <time>2013-12-01T07:57:08Z</time>
      </trkpt>
      <trkpt lat="48.38711" lon="2.537">
        <ele>89</ele>
        <time>2013-12-01T07:57:09Z</time>
      </trkpt>
      <trkpt lat="48.3871" lon="2.53703">
        <ele>89.599998474121</ele>
        <time>2013-12-01T07:57:10Z</time>
      </trkpt>
      <trkpt lat="48.3871" lon="2.53706">
        <ele>90</ele>
        <time>2013-12-01T07:57:11Z</time>
      </trkpt>
      <trkpt lat="48.3871" lon="2.53724">
        <ele>90.599998474121</ele>
        <time>2013-12-01T07:57:16Z</time>
      </trkpt>
      <trkpt lat="48.3871" lon="2.53728">
        <ele>91</ele>
        <time>2013-12-01T07:57:17Z</time>
      </trkpt>
      <trkpt lat="48.3871" lon="2.53732">
        <ele>91.400001525879</ele>
        <time>2013-12-01T07:57:18Z</time>
      </trkpt>
      <trkpt lat="48.38711" lon="2.53735">
        <ele>91.800003051758</ele>
        <time>2013-12-01T07:57:19Z</time>
      </trkpt>
      <trkpt lat="48.38712" lon="2.53738">
        <ele>92.199996948242</ele>
        <time>2013-12-01T07:57:20Z</time>
      </trkpt>
      <trkpt lat="48.38715" lon="2.53746">
        <ele>92.199996948242</ele>
        <time>2013-12-01T07:57:23Z</time>
      </trkpt>
      <trkpt lat="48.38717" lon="2.53747">
        <ele>92.599998474121</ele>
        <time>2013-12-01T07:57:24Z</time>
      </trkpt>
      <trkpt lat="48.38718" lon="2.53749">
        <ele>93.199996948242</ele>
        <time>2013-12-01T07:57:25Z</time>
      </trkpt>
      <trkpt lat="48.38719" lon="2.5375">
        <ele>93.599998474121</ele>
        <time>2013-12-01T07:57:26Z</time>
      </trkpt>
      <trkpt lat="48.38721" lon="2.53751">
        <ele>94</ele>
        <time>2013-12-01T07:57:27Z</time>
      </trkpt>
      <trkpt lat="48.38723" lon="2.53752">
        <ele>94.400001525879</ele>
        <time>2013-12-01T07:57:28Z</time>
      </trkpt>
      <trkpt lat="48.38728" lon="2.53758">
        <ele>94.400001525879</ele>
        <time>2013-12-01T07:57:32Z</time>
      </trkpt>
      <trkpt lat="48.38732" lon="2.53759">
        <ele>94.800003051758</ele>
        <time>2013-12-01T07:57:34Z</time>
      </trkpt>
      <trkpt lat="48.38733" lon="2.5376">
        <ele>95.199996948242</ele>
        <time>2013-12-01T07:57:35Z</time>
      </trkpt>
      <trkpt lat="48.38735" lon="2.53761">
        <ele>95.599998474121</ele>
        <time>2013-12-01T07:57:36Z</time>
      </trkpt>
      <trkpt lat="48.38736" lon="2.53762">
        <ele>96</ele>
        <time>2013-12-01T07:57:37Z</time>
      </trkpt>
      <trkpt lat="48.38738" lon="2.53764">
        <ele>96.400001525879</ele>
        <time>2013-12-01T07:57:38Z</time>
      </trkpt>
      <trkpt lat="48.38749" lon="2.53776">
        <ele>96.800003051758</ele>
        <time>2013-12-01T07:57:44Z</time>
      </trkpt>
      <trkpt lat="48.38751" lon="2.53778">
        <ele>97.400001525879</ele>
        <time>2013-12-01T07:57:45Z</time>
      </trkpt>
      <trkpt lat="48.38754" lon="2.5378">
        <ele>97.800003051758</ele>
        <time>2013-12-01T07:57:46Z</time>
      </trkpt>
      <trkpt lat="48.38756" lon="2.53783">
        <ele>98.199996948242</ele>
        <time>2013-12-01T07:57:47Z</time>
      </trkpt>
      <trkpt lat="48.38758" lon="2.53785">
        <ele>98.599998474121</ele>
        <time>2013-12-01T07:57:48Z</time>
      </trkpt>
      <trkpt lat="48.3876" lon="2.53797">
        <ele>98.599998474121</ele>
        <time>2013-12-01T07:57:52Z</time>
      </trkpt>
      <trkpt lat="48.3876" lon="2.53803">
        <ele>99</ele>
        <time>2013-12-01T07:57:54Z</time>
      </trkpt>
      <trkpt lat="48.38758" lon="2.53805">
        <ele>99.400001525879</ele>
        <time>2013-12-01T07:57:55Z</time>
      </trkpt>
      <trkpt lat="48.38757" lon="2.53807">
        <ele>99.800003051758</ele>
        <time>2013-12-01T07:57:56Z</time>
      </trkpt>
      <trkpt lat="48.38756" lon="2.53809">
        <ele>100.40000152588</ele>
        <time>2013-12-01T07:57:57Z</time>
      </trkpt>
      <trkpt lat="48.38755" lon="2.5381">
        <ele>100.80000305176</ele>
        <time>2013-12-01T07:57:58Z</time>
      </trkpt>
      <trkpt lat="48.38743" lon="2.53818">
        <ele>101.19999694824</ele>
        <time>2013-12-01T07:58:04Z</time>
      </trkpt>
      <trkpt lat="48.38741" lon="2.5382">
        <ele>101.59999847412</ele>
        <time>2013-12-01T07:58:05Z</time>
      </trkpt>
      <trkpt lat="48.38739" lon="2.53822">
        <ele>102</ele>
        <time>2013-12-01T07:58:06Z</time>
      </trkpt>
      <trkpt lat="48.38737" lon="2.53823">
        <ele>102.40000152588</ele>
        <time>2013-12-01T07:58:07Z</time>
      </trkpt>
      <trkpt lat="48.38736" lon="2.53824">
        <ele>102.80000305176</ele>
        <time>2013-12-01T07:58:08Z</time>
      </trkpt>
      <trkpt lat="48.38727" lon="2.53831">
        <ele>103.19999694824</ele>
        <time>2013-12-01T07:58:14Z</time>
      </trkpt>
      <trkpt lat="48.38725" lon="2.53833">
        <ele>103.59999847412</ele>
        <time>2013-12-01T07:58:15Z</time>
      </trkpt>
      <trkpt lat="48.38723" lon="2.53835">
        <ele>104</ele>
        <time>2013-12-01T07:58:16Z</time>
      </trkpt>
      <trkpt lat="48.38722" lon="2.53837">
        <ele>104.40000152588</ele>
        <time>2013-12-01T07:58:17Z</time>
      </trkpt>
      <trkpt lat="48.38721" lon="2.53839">
        <ele>104.80000305176</ele>
        <time>2013-12-01T07:58:18Z</time>
      </trkpt>
      <trkpt lat="48.38718" lon="2.53847">
        <ele>104.80000305176</ele>
        <time>2013-12-01T07:58:21Z</time>
      </trkpt>
      <trkpt lat="48.38717" lon="2.5385">
        <ele>104.80000305176</ele>
        <time>2013-12-01T07:58:22Z</time>
      </trkpt>
      <trkpt lat="48.38715" lon="2.53859">
        <ele>105.19999694824</ele>
        <time>2013-12-01T07:58:25Z</time>
      </trkpt>
      <trkpt lat="48.38714" lon="2.53861">
        <ele>105.80000305176</ele>
        <time>2013-12-01T07:58:26Z</time>
      </trkpt>
      <trkpt lat="48.38713" lon="2.53865">
        <ele>106.19999694824</ele>
        <time>2013-12-01T07:58:27Z</time>
      </trkpt>
      <trkpt lat="48.38714" lon="2.53868">
        <ele>106.59999847412</ele>
        <time>2013-12-01T07:58:28Z</time>
      </trkpt>
      <trkpt lat="48.38714" lon="2.53871">
        <ele>107</ele>
        <time>2013-12-01T07:58:29Z</time>
      </trkpt>
      <trkpt lat="48.38712" lon="2.53894">
        <ele>107.40000152588</ele>
        <time>2013-12-01T07:58:36Z</time>
      </trkpt>
      <trkpt lat="48.38712" lon="2.53898">
        <ele>107.80000305176</ele>
        <time>2013-12-01T07:58:37Z</time>
      </trkpt>
      <trkpt lat="48.38712" lon="2.539">
        <ele>108.19999694824</ele>
        <time>2013-12-01T07:58:38Z</time>
      </trkpt>
      <trkpt lat="48.38712" lon="2.53903">
        <ele>108.59999847412</ele>
        <time>2013-12-01T07:58:39Z</time>
      </trkpt>
      <trkpt lat="48.38711" lon="2.53906">
        <ele>109</ele>
        <time>2013-12-01T07:58:40Z</time>
      </trkpt>
      <trkpt lat="48.38711" lon="2.53913">
        <ele>109.40000152588</ele>
        <time>2013-12-01T07:58:43Z</time>
      </trkpt>
      <trkpt lat="48.3871" lon="2.53915">
        <ele>109.80000305176</ele>
        <time>2013-12-01T07:58:44Z</time>
      </trkpt>
      <trkpt lat="48.3871" lon="2.53918">
        <ele>110.19999694824</ele>
        <time>2013-12-01T07:58:45Z</time>
      </trkpt>
      <trkpt lat="48.3871" lon="2.53921">
        <ele>110.80000305176</ele>
        <time>2013-12-01T07:58:46Z</time>
      </trkpt>
      <trkpt lat="48.3871" lon="2.53924">
        <ele>111.19999694824</ele>
        <time>2013-12-01T07:58:47Z</time>
      </trkpt>
      <trkpt lat="48.38709" lon="2.53939">
        <ele>111.19999694824</ele>
        <time>2013-12-01T07:58:52Z</time>
      </trkpt>
      <trkpt lat="48.3871" lon="2.53946">
        <ele>111.59999847412</ele>
        <time>2013-12-01T07:58:54Z</time>
      </trkpt>
      <trkpt lat="48.3871" lon="2.53948">
        <ele>112</ele>
        <time>2013-12-01T07:58:55Z</time>
      </trkpt>
      <trkpt lat="48.3871" lon="2.53951">
        <ele>112.40000152588</ele>
        <time>2013-12-01T07:58:56Z</time>
      </trkpt>
      <trkpt lat="48.3871" lon="2.53954">
        <ele>112.80000305176</ele>
        <time>2013-12-01T07:58:57Z</time>
      </trkpt>
      <trkpt lat="48.3871" lon="2.53958">
        <ele>113.19999694824</ele>
        <time>2013-12-01T07:58:58Z</time>
      </trkpt>
      <trkpt lat="48.38711" lon="2.53965">
        <ele>113.19999694824</ele>
        <time>2013-12-01T07:59:00Z</time>
      </trkpt>
      <trkpt lat="48.3871" lon="2.53992">
        <ele>113.19999694824</ele>
        <time>2013-12-01T07:59:07Z</time>
      </trkpt>
      <trkpt lat="48.38711" lon="2.53997">
        <ele>113.80000305176</ele>
        <time>2013-12-01T07:59:08Z</time>
      </trkpt>
      <trkpt lat="48.38711" lon="2.54001">
        <ele>114.19999694824</ele>
        <time>2013-12-01T07:59:09Z</time>
      </trkpt>
      <trkpt lat="48.38711" lon="2.54005">
        <ele>114.59999847412</ele>
        <time>2013-12-01T07:59:10Z</time>
      </trkpt>
      <trkpt lat="48.3871" lon="2.54008">
        <ele>115</ele>
        <time>2013-12-01T07:59:11Z</time>
      </trkpt>
      <trkpt lat="48.3871" lon="2.54013">
        <ele>115.59999847412</ele>
        <time>2013-12-01T07:59:12Z</time>
      </trkpt>
      <trkpt lat="48.3871" lon="2.54029">
        <ele>115.59999847412</ele>
        <time>2013-12-01T07:59:16Z</time>
      </trkpt>
      <trkpt lat="48.38707" lon="2.54054">
        <ele>115.59999847412</ele>
        <time>2013-12-01T07:59:22Z</time>
      </trkpt>
      <trkpt lat="48.38702" lon="2.54083">
        <ele>115.59999847412</ele>
        <time>2013-12-01T07:59:28Z</time>
      </trkpt>
      <trkpt lat="48.38697" lon="2.54112">
        <ele>115.59999847412</ele>
        <time>2013-12-01T07:59:34Z</time>
      </trkpt>
      <trkpt lat="48.38691" lon="2.54141">
        <ele>116</ele>
        <time>2013-12-01T07:59:39Z</time>
      </trkpt>
      <trkpt lat="48.3869" lon="2.54147">
        <ele>116.40000152588</ele>
        <time>2013-12-01T07:59:40Z</time>
      </trkpt>
      <trkpt lat="48.3869" lon="2.54155">
        <ele>116.80000305176</ele>
        <time>2013-12-01T07:59:41Z</time>
      </trkpt>
      <trkpt lat="48.38691" lon="2.54162">
        <ele>117.19999694824</ele>
        <time>2013-12-01T07:59:42Z</time>
      </trkpt>
      <trkpt lat="48.38691" lon="2.54168">
        <ele>117.59999847412</ele>
        <time>2013-12-01T07:59:43Z</time>
      </trkpt>
      <trkpt lat="48.38691" lon="2.54174">
        <ele>117.59999847412</ele>
        <time>2013-12-01T07:59:44Z</time>
      </trkpt>
      <trkpt lat="48.38692" lon="2.54213">
        <ele>117.59999847412</ele>
        <time>2013-12-01T07:59:51Z</time>
      </trkpt>
      <trkpt lat="48.38684" lon="2.54254">
        <ele>117.59999847412</ele>
        <time>2013-12-01T07:59:58Z</time>
      </trkpt>
      <trkpt lat="48.3868" lon="2.54302">
        <ele>117.59999847412</ele>
        <time>2013-12-01T08:00:05Z</time>
      </trkpt>
      <trkpt lat="48.38674" lon="2.54342">
        <ele>117.59999847412</ele>
        <time>2013-12-01T08:00:11Z</time>
      </trkpt>
      <trkpt lat="48.38672" lon="2.54348">
        <ele>117.59999847412</ele>
        <time>2013-12-01T08:00:12Z</time>
      </trkpt>
      <trkpt lat="48.38667" lon="2.54385">
        <ele>117.59999847412</ele>
        <time>2013-12-01T08:00:18Z</time>
      </trkpt>
      <trkpt lat="48.38662" lon="2.54429">
        <ele>117.59999847412</ele>
        <time>2013-12-01T08:00:24Z</time>
      </trkpt>
      <trkpt lat="48.38658" lon="2.54479">
        <ele>117.59999847412</ele>
        <time>2013-12-01T08:00:31Z</time>
      </trkpt>
      <trkpt lat="48.38654" lon="2.54509">
        <ele>117.59999847412</ele>
        <time>2013-12-01T08:00:35Z</time>
      </trkpt>
      <trkpt lat="48.38652" lon="2.54516">
        <ele>117.59999847412</ele>
        <time>2013-12-01T08:00:36Z</time>
      </trkpt>
      <trkpt lat="48.38641" lon="2.54543">
        <ele>117.59999847412</ele>
        <time>2013-12-01T08:00:40Z</time>
      </trkpt>
      <trkpt lat="48.3864" lon="2.54552">
        <ele>117.59999847412</ele>
        <time>2013-12-01T08:00:41Z</time>
      </trkpt>
      <trkpt lat="48.38635" lon="2.54565">
        <ele>117.59999847412</ele>
        <time>2013-12-01T08:00:43Z</time>
      </trkpt>
      <trkpt lat="48.38631" lon="2.54588">
        <ele>117.59999847412</ele>
        <time>2013-12-01T08:00:46Z</time>
      </trkpt>
      <trkpt lat="48.38626" lon="2.54613">
        <ele>117.59999847412</ele>
        <time>2013-12-01T08:00:49Z</time>
      </trkpt>
      <trkpt lat="48.38623" lon="2.5462">
        <ele>117.59999847412</ele>
        <time>2013-12-01T08:00:50Z</time>
      </trkpt>
      <trkpt lat="48.38621" lon="2.54628">
        <ele>117.19999694824</ele>
        <time>2013-12-01T08:00:51Z</time>
      </trkpt>
      <trkpt lat="48.3862" lon="2.54637">
        <ele>116.80000305176</ele>
        <time>2013-12-01T08:00:52Z</time>
      </trkpt>
      <trkpt lat="48.38618" lon="2.54645">
        <ele>116.40000152588</ele>
        <time>2013-12-01T08:00:53Z</time>
      </trkpt>
      <trkpt lat="48.38617" lon="2.54654">
        <ele>116</ele>
        <time>2013-12-01T08:00:54Z</time>
      </trkpt>
      <trkpt lat="48.38615" lon="2.54661">
        <ele>115.59999847412</ele>
        <time>2013-12-01T08:00:55Z</time>
      </trkpt>
      <trkpt lat="48.38612" lon="2.54668">
        <ele>115.59999847412</ele>
        <time>2013-12-01T08:00:56Z</time>
      </trkpt>
      <trkpt lat="48.3861" lon="2.54677">
        <ele>115.59999847412</ele>
        <time>2013-12-01T08:00:57Z</time>
      </trkpt>
      <trkpt lat="48.38604" lon="2.54721">
        <ele>115.19999694824</ele>
        <time>2013-12-01T08:01:02Z</time>
      </trkpt>
      <trkpt lat="48.38603" lon="2.5473">
        <ele>114.80000305176</ele>
        <time>2013-12-01T08:01:03Z</time>
      </trkpt>
      <trkpt lat="48.38602" lon="2.54739">
        <ele>114.40000152588</ele>
        <time>2013-12-01T08:01:04Z</time>
      </trkpt>
      <trkpt lat="48.38601" lon="2.54748">
        <ele>114</ele>
        <time>2013-12-01T08:01:05Z</time>
      </trkpt>
      <trkpt lat="48.38601" lon="2.54757">
        <ele>113.59999847412</ele>
        <time>2013-12-01T08:01:06Z</time>
      </trkpt>
      <trkpt lat="48.38594" lon="2.54782">
        <ele>113.59999847412</ele>
        <time>2013-12-01T08:01:09Z</time>
      </trkpt>
      <trkpt lat="48.38588" lon="2.54827">
        <ele>113.59999847412</ele>
        <time>2013-12-01T08:01:15Z</time>
      </trkpt>
      <trkpt lat="48.38586" lon="2.54859">
        <ele>113.59999847412</ele>
        <time>2013-12-01T08:01:19Z</time>
      </trkpt>
      <trkpt lat="48.38583" lon="2.54872">
        <ele>113.59999847412</ele>
        <time>2013-12-01T08:01:21Z</time>
      </trkpt>
      <trkpt lat="48.3858" lon="2.54893">
        <ele>113.59999847412</ele>
        <time>2013-12-01T08:01:24Z</time>
      </trkpt>
      <trkpt lat="48.38577" lon="2.54913">
        <ele>113.59999847412</ele>
        <time>2013-12-01T08:01:27Z</time>
      </trkpt>
      <trkpt lat="48.38575" lon="2.54919">
        <ele>113.59999847412</ele>
        <time>2013-12-01T08:01:28Z</time>
      </trkpt>
      <trkpt lat="48.3857" lon="2.54944">
        <ele>113.59999847412</ele>
        <time>2013-12-01T08:01:32Z</time>
      </trkpt>
      <trkpt lat="48.38564" lon="2.54976">
        <ele>113.59999847412</ele>
        <time>2013-12-01T08:01:37Z</time>
      </trkpt>
      <trkpt lat="48.38561" lon="2.54991">
        <ele>113.59999847412</ele>
        <time>2013-12-01T08:01:39Z</time>
      </trkpt>
      <trkpt lat="48.38556" lon="2.55034">
        <ele>113.59999847412</ele>
        <time>2013-12-01T08:01:45Z</time>
      </trkpt>
      <trkpt lat="48.38545" lon="2.5507">
        <ele>113.59999847412</ele>
        <time>2013-12-01T08:01:50Z</time>
      </trkpt>
      <trkpt lat="48.38533" lon="2.55114">
        <ele>113.59999847412</ele>
        <time>2013-12-01T08:01:56Z</time>
      </trkpt>
      <trkpt lat="48.38531" lon="2.5512">
        <ele>113.59999847412</ele>
        <time>2013-12-01T08:01:57Z</time>
      </trkpt>
      <trkpt lat="48.38518" lon="2.55157">
        <ele>113.59999847412</ele>
        <time>2013-12-01T08:02:03Z</time>
      </trkpt>
      <trkpt lat="48.38503" lon="2.55158">
        <ele>113.59999847412</ele>
        <time>2013-12-01T08:02:06Z</time>
      </trkpt>
      <trkpt lat="48.38499" lon="2.55156">
        <ele>113.59999847412</ele>
        <time>2013-12-01T08:02:07Z</time>
      </trkpt>
      <trkpt lat="48.38481" lon="2.55146">
        <ele>113.59999847412</ele>
        <time>2013-12-01T08:02:12Z</time>
      </trkpt>
      <trkpt lat="48.38467" lon="2.5514">
        <ele>113.59999847412</ele>
        <time>2013-12-01T08:02:16Z</time>
      </trkpt>
      <trkpt lat="48.38461" lon="2.55136">
        <ele>113.59999847412</ele>
        <time>2013-12-01T08:02:18Z</time>
      </trkpt>
      <trkpt lat="48.38459" lon="2.55133">
        <ele>113.59999847412</ele>
        <time>2013-12-01T08:02:19Z</time>
      </trkpt>
      <trkpt lat="48.38454" lon="2.5513">
        <ele>114</ele>
        <time>2013-12-01T08:02:21Z</time>
      </trkpt>
      <trkpt lat="48.38451" lon="2.55128">
        <ele>114.40000152588</ele>
        <time>2013-12-01T08:02:22Z</time>
      </trkpt>
      <trkpt lat="48.38449" lon="2.55127">
        <ele>114.80000305176</ele>
        <time>2013-12-01T08:02:23Z</time>
      </trkpt>
      <trkpt lat="48.38446" lon="2.55125">
        <ele>115.40000152588</ele>
        <time>2013-12-01T08:02:24Z</time>
      </trkpt>
      <trkpt lat="48.38443" lon="2.55123">
        <ele>115.80000305176</ele>
        <time>2013-12-01T08:02:25Z</time>
      </trkpt>
      <trkpt lat="48.38435" lon="2.55116">
        <ele>115.80000305176</ele>
        <time>2013-12-01T08:02:28Z</time>
      </trkpt>
      <trkpt lat="48.38422" lon="2.55107">
        <ele>116.19999694824</ele>
        <time>2013-12-01T08:02:33Z</time>
      </trkpt>
      <trkpt lat="48.3842" lon="2.55105">
        <ele>116.80000305176</ele>
        <time>2013-12-01T08:02:34Z</time>
      </trkpt>
      <trkpt lat="48.38418" lon="2.55105">
        <ele>117.19999694824</ele>
        <time>2013-12-01T08:02:35Z</time>
      </trkpt>
      <trkpt lat="48.38415" lon="2.55103">
        <ele>117.59999847412</ele>
        <time>2013-12-01T08:02:36Z</time>
      </trkpt>
      <trkpt lat="48.38412" lon="2.55102">
        <ele>118.19999694824</ele>
        <time>2013-12-01T08:02:37Z</time>
      </trkpt>
      <trkpt lat="48.38407" lon="2.55099">
        <ele>118.19999694824</ele>
        <time>2013-12-01T08:02:39Z</time>
      </trkpt>
      <trkpt lat="48.38387" lon="2.55084">
        <ele>118.59999847412</ele>
        <time>2013-12-01T08:02:45Z</time>
      </trkpt>
      <trkpt lat="48.38383" lon="2.55082">
        <ele>119</ele>
        <time>2013-12-01T08:02:46Z</time>
      </trkpt>
      <trkpt lat="48.38379" lon="2.55081">
        <ele>119.40000152588</ele>
        <time>2013-12-01T08:02:47Z</time>
      </trkpt>
      <trkpt lat="48.38374" lon="2.5508">
        <ele>119.80000305176</ele>
        <time>2013-12-01T08:02:48Z</time>
      </trkpt>
      <trkpt lat="48.3837" lon="2.55079">
        <ele>120.19999694824</ele>
        <time>2013-12-01T08:02:49Z</time>
      </trkpt>
      <trkpt lat="48.38359" lon="2.5508">
        <ele>120.19999694824</ele>
        <time>2013-12-01T08:02:52Z</time>
      </trkpt>
      <trkpt lat="48.38344" lon="2.55058">
        <ele>119.59999847412</ele>
        <time>2013-12-01T08:02:57Z</time>
      </trkpt>
      <trkpt lat="48.38342" lon="2.55051">
        <ele>119</ele>
        <time>2013-12-01T08:02:58Z</time>
      </trkpt>
      <trkpt lat="48.38338" lon="2.55043">
        <ele>118</ele>
        <time>2013-12-01T08:02:59Z</time>
      </trkpt>
      <trkpt lat="48.38332" lon="2.55041">
        <ele>117.19999694824</ele>
        <time>2013-12-01T08:03:00Z</time>
      </trkpt>
      <trkpt lat="48.38326" lon="2.55038">
        <ele>116.19999694824</ele>
        <time>2013-12-01T08:03:01Z</time>
      </trkpt>
      <trkpt lat="48.38317" lon="2.55032">
        <ele>114.80000305176</ele>
        <time>2013-12-01T08:03:02Z</time>
      </trkpt>
      <trkpt lat="48.38307" lon="2.55028">
        <ele>113.40000152588</ele>
        <time>2013-12-01T08:03:03Z</time>
      </trkpt>
      <trkpt lat="48.38299" lon="2.55034">
        <ele>112</ele>
        <time>2013-12-01T08:03:04Z</time>
      </trkpt>
      <trkpt lat="48.38292" lon="2.55037">
        <ele>110.59999847412</ele>
        <time>2013-12-01T08:03:05Z</time>
      </trkpt>
      <trkpt lat="48.38284" lon="2.55043">
        <ele>109.40000152588</ele>
        <time>2013-12-01T08:03:06Z</time>
      </trkpt>
      <trkpt lat="48.38278" lon="2.5505">
        <ele>108.19999694824</ele>
        <time>2013-12-01T08:03:07Z</time>
      </trkpt>
      <trkpt lat="48.38273" lon="2.55056">
        <ele>106.80000305176</ele>
        <time>2013-12-01T08:03:08Z</time>
      </trkpt>
      <trkpt lat="48.38272" lon="2.55063">
        <ele>105.59999847412</ele>
        <time>2013-12-01T08:03:09Z</time>
      </trkpt>
      <trkpt lat="48.3827" lon="2.55071">
        <ele>104.19999694824</ele>
        <time>2013-12-01T08:03:10Z</time>
      </trkpt>
      <trkpt lat="48.38272" lon="2.55093">
        <ele>104.19999694824</ele>
        <time>2013-12-01T08:03:13Z</time>
      </trkpt>
      <trkpt lat="48.38271" lon="2.55139">
        <ele>104.19999694824</ele>
        <time>2013-12-01T08:03:19Z</time>
      </trkpt>
      <trkpt lat="48.3827" lon="2.55146">
        <ele>104.19999694824</ele>
        <time>2013-12-01T08:03:20Z</time>
      </trkpt>
      <trkpt lat="48.38268" lon="2.55163">
        <ele>104.19999694824</ele>
        <time>2013-12-01T08:03:23Z</time>
      </trkpt>
      <trkpt lat="48.38265" lon="2.55201">
        <ele>104.19999694824</ele>
        <time>2013-12-01T08:03:29Z</time>
      </trkpt>
      <trkpt lat="48.38264" lon="2.55207">
        <ele>104.19999694824</ele>
        <time>2013-12-01T08:03:30Z</time>
      </trkpt>
      <trkpt lat="48.38259" lon="2.55238">
        <ele>104.19999694824</ele>
        <time>2013-12-01T08:03:36Z</time>
      </trkpt>
      <trkpt lat="48.38257" lon="2.5527">
        <ele>104.19999694824</ele>
        <time>2013-12-01T08:03:42Z</time>
      </trkpt>
      <trkpt lat="48.38254" lon="2.55313">
        <ele>104.19999694824</ele>
        <time>2013-12-01T08:03:49Z</time>
      </trkpt>
      <trkpt lat="48.38259" lon="2.55339">
        <ele>104.19999694824</ele>
        <time>2013-12-01T08:03:54Z</time>
      </trkpt>
      <trkpt lat="48.38262" lon="2.55365">
        <ele>104.80000305176</ele>
        <time>2013-12-01T08:03:59Z</time>
      </trkpt>
      <trkpt lat="48.38262" lon="2.5537">
        <ele>105.19999694824</ele>
        <time>2013-12-01T08:04:00Z</time>
      </trkpt>
      <trkpt lat="48.38262" lon="2.55377">
        <ele>105.59999847412</ele>
        <time>2013-12-01T08:04:01Z</time>
      </trkpt>
      <trkpt lat="48.38262" lon="2.55382">
        <ele>106</ele>
        <time>2013-12-01T08:04:02Z</time>
      </trkpt>
      <trkpt lat="48.38262" lon="2.55388">
        <ele>106.40000152588</ele>
        <time>2013-12-01T08:04:03Z</time>
      </trkpt>
      <trkpt lat="48.38257" lon="2.55417">
        <ele>106.40000152588</ele>
        <time>2013-12-01T08:04:08Z</time>
      </trkpt>
      <trkpt lat="48.38247" lon="2.55463">
        <ele>106.40000152588</ele>
        <time>2013-12-01T08:04:15Z</time>
      </trkpt>
      <trkpt lat="48.38235" lon="2.55504">
        <ele>106.40000152588</ele>
        <time>2013-12-01T08:04:23Z</time>
      </trkpt>
      <trkpt lat="48.38226" lon="2.55539">
        <ele>106.40000152588</ele>
        <time>2013-12-01T08:04:29Z</time>
      </trkpt>
      <trkpt lat="48.38227" lon="2.55555">
        <ele>106.40000152588</ele>
        <time>2013-12-01T08:04:31Z</time>
      </trkpt>
      <trkpt lat="48.38226" lon="2.55568">
        <ele>106.40000152588</ele>
        <time>2013-12-01T08:04:33Z</time>
      </trkpt>
      <trkpt lat="48.38224" lon="2.55575">
        <ele>106.80000305176</ele>
        <time>2013-12-01T08:04:34Z</time>
      </trkpt>
      <trkpt lat="48.38224" lon="2.55581">
        <ele>107.19999694824</ele>
        <time>2013-12-01T08:04:35Z</time>
      </trkpt>
      <trkpt lat="48.38222" lon="2.55587">
        <ele>107.59999847412</ele>
        <time>2013-12-01T08:04:36Z</time>
      </trkpt>
      <trkpt lat="48.38221" lon="2.55592">
        <ele>108</ele>
        <time>2013-12-01T08:04:37Z</time>
      </trkpt>
      <trkpt lat="48.38219" lon="2.55598">
        <ele>108.40000152588</ele>
        <time>2013-12-01T08:04:38Z</time>
      </trkpt>
      <trkpt lat="48.38217" lon="2.55604">
        <ele>108.40000152588</ele>
        <time>2013-12-01T08:04:39Z</time>
      </trkpt>
      <trkpt lat="48.38213" lon="2.55625">
        <ele>108.40000152588</ele>
        <time>2013-12-01T08:04:42Z</time>
      </trkpt>
      <trkpt lat="48.38213" lon="2.55633">
        <ele>108.40000152588</ele>
        <time>2013-12-01T08:04:43Z</time>
      </trkpt>
      <trkpt lat="48.3821" lon="2.5565">
        <ele>108.40000152588</ele>
        <time>2013-12-01T08:04:45Z</time>
      </trkpt>
      <trkpt lat="48.38205" lon="2.55676">
        <ele>108.40000152588</ele>
        <time>2013-12-01T08:04:49Z</time>
      </trkpt>
      <trkpt lat="48.38193" lon="2.5572">
        <ele>108.40000152588</ele>
        <time>2013-12-01T08:04:57Z</time>
      </trkpt>
      <trkpt lat="48.38179" lon="2.55746">
        <ele>108.40000152588</ele>
        <time>2013-12-01T08:05:03Z</time>
      </trkpt>
      <trkpt lat="48.38177" lon="2.5575">
        <ele>108.80000305176</ele>
        <time>2013-12-01T08:05:04Z</time>
      </trkpt>
      <trkpt lat="48.38174" lon="2.55754">
        <ele>109.19999694824</ele>
        <time>2013-12-01T08:05:05Z</time>
      </trkpt>
      <trkpt lat="48.38171" lon="2.55759">
        <ele>109.59999847412</ele>
        <time>2013-12-01T08:05:06Z</time>
      </trkpt>
      <trkpt lat="48.38168" lon="2.55764">
        <ele>110.19999694824</ele>
        <time>2013-12-01T08:05:07Z</time>
      </trkpt>
      <trkpt lat="48.38165" lon="2.5577">
        <ele>110.59999847412</ele>
        <time>2013-12-01T08:05:08Z</time>
      </trkpt>
      <trkpt lat="48.38161" lon="2.55776">
        <ele>110.59999847412</ele>
        <time>2013-12-01T08:05:09Z</time>
      </trkpt>
      <trkpt lat="48.38159" lon="2.55784">
        <ele>110.59999847412</ele>
        <time>2013-12-01T08:05:10Z</time>
      </trkpt>
      <trkpt lat="48.38153" lon="2.55798">
        <ele>110.19999694824</ele>
        <time>2013-12-01T08:05:12Z</time>
      </trkpt>
      <trkpt lat="48.3815" lon="2.55806">
        <ele>109.80000305176</ele>
        <time>2013-12-01T08:05:13Z</time>
      </trkpt>
      <trkpt lat="48.38147" lon="2.55816">
        <ele>109.40000152588</ele>
        <time>2013-12-01T08:05:14Z</time>
      </trkpt>
      <trkpt lat="48.38145" lon="2.55826">
        <ele>108.80000305176</ele>
        <time>2013-12-01T08:05:15Z</time>
      </trkpt>
      <trkpt lat="48.38142" lon="2.55837">
        <ele>108.40000152588</ele>
        <time>2013-12-01T08:05:16Z</time>
      </trkpt>
      <trkpt lat="48.38139" lon="2.55847">
        <ele>108</ele>
        <time>2013-12-01T08:05:17Z</time>
      </trkpt>
      <trkpt lat="48.38138" lon="2.55858">
        <ele>107.59999847412</ele>
        <time>2013-12-01T08:05:18Z</time>
      </trkpt>
      <trkpt lat="48.38136" lon="2.55868">
        <ele>107.19999694824</ele>
        <time>2013-12-01T08:05:19Z</time>
      </trkpt>
      <trkpt lat="48.38131" lon="2.55875">
        <ele>106.80000305176</ele>
        <time>2013-12-01T08:05:20Z</time>
      </trkpt>
      <trkpt lat="48.38126" lon="2.5588">
        <ele>106.40000152588</ele>
        <time>2013-12-01T08:05:21Z</time>
      </trkpt>
      <trkpt lat="48.38105" lon="2.55893">
        <ele>105.80000305176</ele>
        <time>2013-12-01T08:05:25Z</time>
      </trkpt>
      <trkpt lat="48.381" lon="2.55898">
        <ele>105.40000152588</ele>
        <time>2013-12-01T08:05:26Z</time>
      </trkpt>
      <trkpt lat="48.38096" lon="2.55904">
        <ele>105</ele>
        <time>2013-12-01T08:05:27Z</time>
      </trkpt>
      <trkpt lat="48.38093" lon="2.5591">
        <ele>104.59999847412</ele>
        <time>2013-12-01T08:05:28Z</time>
      </trkpt>
      <trkpt lat="48.3809" lon="2.55914">
        <ele>104.19999694824</ele>
        <time>2013-12-01T08:05:29Z</time>
      </trkpt>
      <trkpt lat="48.38088" lon="2.55917">
        <ele>104.19999694824</ele>
        <time>2013-12-01T08:05:30Z</time>
      </trkpt>
      <trkpt lat="48.38085" lon="2.55925">
        <ele>104.19999694824</ele>
        <time>2013-12-01T08:05:32Z</time>
      </trkpt>
      <trkpt lat="48.38085" lon="2.55931">
        <ele>104.19999694824</ele>
        <time>2013-12-01T08:05:34Z</time>
      </trkpt>
      <trkpt lat="48.38088" lon="2.55947">
        <ele>104.19999694824</ele>
        <time>2013-12-01T08:05:39Z</time>
      </trkpt>
      <trkpt lat="48.38091" lon="2.55965">
        <ele>104.19999694824</ele>
        <time>2013-12-01T08:05:44Z</time>
      </trkpt>
      <trkpt lat="48.38089" lon="2.55999">
        <ele>104.19999694824</ele>
        <time>2013-12-01T08:05:51Z</time>
      </trkpt>
      <trkpt lat="48.38097" lon="2.5602">
        <ele>104.19999694824</ele>
        <time>2013-12-01T08:05:58Z</time>
      </trkpt>
      <trkpt lat="48.38102" lon="2.56027">
        <ele>104.19999694824</ele>
        <time>2013-12-01T08:06:00Z</time>
      </trkpt>
      <trkpt lat="48.38117" lon="2.56044">
        <ele>104.19999694824</ele>
        <time>2013-12-01T08:06:06Z</time>
      </trkpt>
      <trkpt lat="48.38136" lon="2.56053">
        <ele>104.19999694824</ele>
        <time>2013-12-01T08:06:12Z</time>
      </trkpt>
      <trkpt lat="48.38145" lon="2.56081">
        <ele>104.19999694824</ele>
        <time>2013-12-01T08:06:17Z</time>
      </trkpt>
      <trkpt lat="48.38148" lon="2.56113">
        <ele>104.19999694824</ele>
        <time>2013-12-01T08:06:22Z</time>
      </trkpt>
      <trkpt lat="48.38149" lon="2.56123">
        <ele>104.59999847412</ele>
        <time>2013-12-01T08:06:24Z</time>
      </trkpt>
      <trkpt lat="48.38149" lon="2.56129">
        <ele>105</ele>
        <time>2013-12-01T08:06:25Z</time>
      </trkpt>
      <trkpt lat="48.3815" lon="2.56135">
        <ele>105.40000152588</ele>
        <time>2013-12-01T08:06:26Z</time>
      </trkpt>
      <trkpt lat="48.3815" lon="2.56141">
        <ele>105.80000305176</ele>
        <time>2013-12-01T08:06:27Z</time>
      </trkpt>
      <trkpt lat="48.3815" lon="2.56147">
        <ele>106.19999694824</ele>
        <time>2013-12-01T08:06:28Z</time>
      </trkpt>
      <trkpt lat="48.38155" lon="2.56178">
        <ele>106.19999694824</ele>
        <time>2013-12-01T08:06:33Z</time>
      </trkpt>
      <trkpt lat="48.38165" lon="2.5622">
        <ele>106.19999694824</ele>
        <time>2013-12-01T08:06:40Z</time>
      </trkpt>
      <trkpt lat="48.38168" lon="2.56251">
        <ele>106.19999694824</ele>
        <time>2013-12-01T08:06:46Z</time>
      </trkpt>
      <trkpt lat="48.38169" lon="2.56288">
        <ele>106.80000305176</ele>
        <time>2013-12-01T08:06:53Z</time>
      </trkpt>
      <trkpt lat="48.3817" lon="2.56292">
        <ele>107.19999694824</ele>
        <time>2013-12-01T08:06:54Z</time>
      </trkpt>
      <trkpt lat="48.38169" lon="2.56297">
        <ele>107.59999847412</ele>
        <time>2013-12-01T08:06:55Z</time>
      </trkpt>
      <trkpt lat="48.38169" lon="2.56301">
        <ele>108.19999694824</ele>
        <time>2013-12-01T08:06:56Z</time>
      </trkpt>
      <trkpt lat="48.38169" lon="2.56306">
        <ele>108.59999847412</ele>
        <time>2013-12-01T08:06:57Z</time>
      </trkpt>
      <trkpt lat="48.38169" lon="2.56314">
        <ele>108.59999847412</ele>
        <time>2013-12-01T08:06:59Z</time>
      </trkpt>
      <trkpt lat="48.38166" lon="2.56331">
        <ele>109</ele>
        <time>2013-12-01T08:07:03Z</time>
      </trkpt>
      <trkpt lat="48.38165" lon="2.56335">
        <ele>109.40000152588</ele>
        <time>2013-12-01T08:07:04Z</time>
      </trkpt>
      <trkpt lat="48.38163" lon="2.56339">
        <ele>109.80000305176</ele>
        <time>2013-12-01T08:07:05Z</time>
      </trkpt>
      <trkpt lat="48.38163" lon="2.56342">
        <ele>110.19999694824</ele>
        <time>2013-12-01T08:07:06Z</time>
      </trkpt>
      <trkpt lat="48.38163" lon="2.56346">
        <ele>110.59999847412</ele>
        <time>2013-12-01T08:07:07Z</time>
      </trkpt>
      <trkpt lat="48.3816" lon="2.56365">
        <ele>110.59999847412</ele>
        <time>2013-12-01T08:07:12Z</time>
      </trkpt>
      <trkpt lat="48.3816" lon="2.56376">
        <ele>111.19999694824</ele>
        <time>2013-12-01T08:07:15Z</time>
      </trkpt>
      <trkpt lat="48.38159" lon="2.5638">
        <ele>111.59999847412</ele>
        <time>2013-12-01T08:07:16Z</time>
      </trkpt>
      <trkpt lat="48.38157" lon="2.56385">
        <ele>112.19999694824</ele>
        <time>2013-12-01T08:07:17Z</time>
      </trkpt>
      <trkpt lat="48.38157" lon="2.56389">
        <ele>112.59999847412</ele>
        <time>2013-12-01T08:07:18Z</time>
      </trkpt>
      <trkpt lat="48.38153" lon="2.56395">
        <ele>113</ele>
        <time>2013-12-01T08:07:19Z</time>
      </trkpt>
      <trkpt lat="48.38152" lon="2.564">
        <ele>113</ele>
        <time>2013-12-01T08:07:20Z</time>
      </trkpt>
      <trkpt lat="48.38148" lon="2.56433">
        <ele>113</ele>
        <time>2013-12-01T08:07:28Z</time>
      </trkpt>
      <trkpt lat="48.38147" lon="2.56441">
        <ele>113.59999847412</ele>
        <time>2013-12-01T08:07:30Z</time>
      </trkpt>
      <trkpt lat="48.38147" lon="2.56445">
        <ele>114</ele>
        <time>2013-12-01T08:07:31Z</time>
      </trkpt>
      <trkpt lat="48.38147" lon="2.56449">
        <ele>114.40000152588</ele>
        <time>2013-12-01T08:07:32Z</time>
      </trkpt>
      <trkpt lat="48.38147" lon="2.56454">
        <ele>114.80000305176</ele>
        <time>2013-12-01T08:07:33Z</time>
      </trkpt>
      <trkpt lat="48.38147" lon="2.56458">
        <ele>115.19999694824</ele>
        <time>2013-12-01T08:07:34Z</time>
      </trkpt>
      <trkpt lat="48.38147" lon="2.56462">
        <ele>115.19999694824</ele>
        <time>2013-12-01T08:07:35Z</time>
      </trkpt>
      <trkpt lat="48.38147" lon="2.56478">
        <ele>115.59999847412</ele>
        <time>2013-12-01T08:07:39Z</time>
      </trkpt>
      <trkpt lat="48.38148" lon="2.56481">
        <ele>116</ele>
        <time>2013-12-01T08:07:40Z</time>
      </trkpt>
      <trkpt lat="48.38149" lon="2.56484">
        <ele>116.40000152588</ele>
        <time>2013-12-01T08:07:41Z</time>
      </trkpt>
      <trkpt lat="48.3815" lon="2.56487">
        <ele>117</ele>
        <time>2013-12-01T08:07:42Z</time>
      </trkpt>
      <trkpt lat="48.3815" lon="2.56488">
        <ele>117.40000152588</ele>
        <time>2013-12-01T08:07:43Z</time>
      </trkpt>
      <trkpt lat="48.38152" lon="2.56488">
        <ele>117.40000152588</ele>
        <time>2013-12-01T08:07:45Z</time>
      </trkpt>
      <trkpt lat="48.38152" lon="2.56481">
        <ele>117.40000152588</ele>
        <time>2013-12-01T08:07:52Z</time>
      </trkpt>
      <trkpt lat="48.38042" lon="2.55928">
        <ele>102.19999694824</ele>
        <time>2013-12-01T08:14:49Z</time>
      </trkpt>
      <trkpt lat="48.38042" lon="2.55923">
        <ele>102.19999694824</ele>
        <time>2013-12-01T08:14:50Z</time>
      </trkpt>
      <trkpt lat="48.38038" lon="2.5588">
        <ele>102.19999694824</ele>
        <time>2013-12-01T08:14:55Z</time>
      </trkpt>
      <trkpt lat="48.38037" lon="2.55838">
        <ele>102.19999694824</ele>
        <time>2013-12-01T08:15:00Z</time>
      </trkpt>
      <trkpt lat="48.38038" lon="2.55801">
        <ele>101.59999847412</ele>
        <time>2013-12-01T08:15:05Z</time>
      </trkpt>
      <trkpt lat="48.38037" lon="2.55792">
        <ele>101.19999694824</ele>
        <time>2013-12-01T08:15:06Z</time>
      </trkpt>
      <trkpt lat="48.38037" lon="2.55783">
        <ele>100.80000305176</ele>
        <time>2013-12-01T08:15:07Z</time>
      </trkpt>
      <trkpt lat="48.38037" lon="2.55774">
        <ele>100.40000152588</ele>
        <time>2013-12-01T08:15:08Z</time>
      </trkpt>
      <trkpt lat="48.38039" lon="2.55766">
        <ele>100</ele>
        <time>2013-12-01T08:15:09Z</time>
      </trkpt>
      <trkpt lat="48.3804" lon="2.55749">
        <ele>100</ele>
        <time>2013-12-01T08:15:11Z</time>
      </trkpt>
      <trkpt lat="48.38036" lon="2.55733">
        <ele>100</ele>
        <time>2013-12-01T08:15:13Z</time>
      </trkpt>
      <trkpt lat="48.38033" lon="2.55725">
        <ele>100</ele>
        <time>2013-12-01T08:15:14Z</time>
      </trkpt>
      <trkpt lat="48.38019" lon="2.55702">
        <ele>100</ele>
        <time>2013-12-01T08:15:17Z</time>
      </trkpt>
      <trkpt lat="48.38018" lon="2.55692">
        <ele>100</ele>
        <time>2013-12-01T08:15:18Z</time>
      </trkpt>
      <trkpt lat="48.3802" lon="2.55666">
        <ele>100</ele>
        <time>2013-12-01T08:15:21Z</time>
      </trkpt>
      <trkpt lat="48.38022" lon="2.5562">
        <ele>100</ele>
        <time>2013-12-01T08:15:26Z</time>
      </trkpt>
      <trkpt lat="48.38024" lon="2.55613">
        <ele>100</ele>
        <time>2013-12-01T08:15:27Z</time>
      </trkpt>
      <trkpt lat="48.38026" lon="2.55577">
        <ele>100</ele>
        <time>2013-12-01T08:15:32Z</time>
      </trkpt>
      <trkpt lat="48.38023" lon="2.55568">
        <ele>100</ele>
        <time>2013-12-01T08:15:33Z</time>
      </trkpt>
      <trkpt lat="48.38014" lon="2.55531">
        <ele>100</ele>
        <time>2013-12-01T08:15:38Z</time>
      </trkpt>
      <trkpt lat="48.38024" lon="2.55486">
        <ele>100</ele>
        <time>2013-12-01T08:15:44Z</time>
      </trkpt>
      <trkpt lat="48.38034" lon="2.55442">
        <ele>100</ele>
        <time>2013-12-01T08:15:50Z</time>
      </trkpt>
      <trkpt lat="48.38035" lon="2.55434">
        <ele>100</ele>
        <time>2013-12-01T08:15:51Z</time>
      </trkpt>
      <trkpt lat="48.38036" lon="2.55382">
        <ele>100</ele>
        <time>2013-12-01T08:15:57Z</time>
      </trkpt>
      <trkpt lat="48.38043" lon="2.55325">
        <ele>100</ele>
        <time>2013-12-01T08:16:04Z</time>
      </trkpt>
      <trkpt lat="48.38052" lon="2.55272">
        <ele>100</ele>
        <time>2013-12-01T08:16:11Z</time>
      </trkpt>
      <trkpt lat="48.38058" lon="2.55224">
        <ele>100</ele>
        <time>2013-12-01T08:16:17Z</time>
      </trkpt>
      <trkpt lat="48.38066" lon="2.55169">
        <ele>100</ele>
        <time>2013-12-01T08:16:24Z</time>
      </trkpt>
      <trkpt lat="48.38076" lon="2.55132">
        <ele>100</ele>
        <time>2013-12-01T08:16:29Z</time>
      </trkpt>
      <trkpt lat="48.38084" lon="2.55074">
        <ele>100</ele>
        <time>2013-12-01T08:16:36Z</time>
      </trkpt>
      <trkpt lat="48.38087" lon="2.55045">
        <ele>100</ele>
        <time>2013-12-01T08:16:40Z</time>
      </trkpt>
      <trkpt lat="48.38087" lon="2.55028">
        <ele>100</ele>
        <time>2013-12-01T08:16:42Z</time>
      </trkpt>
      <trkpt lat="48.38089" lon="2.5499">
        <ele>100</ele>
        <time>2013-12-01T08:16:48Z</time>
      </trkpt>
      <trkpt lat="48.38095" lon="2.54965">
        <ele>100</ele>
        <time>2013-12-01T08:16:52Z</time>
      </trkpt>
      <trkpt lat="48.38105" lon="2.54929">
        <ele>100</ele>
        <time>2013-12-01T08:16:58Z</time>
      </trkpt>
      <trkpt lat="48.3811" lon="2.54912">
        <ele>100.40000152588</ele>
        <time>2013-12-01T08:17:02Z</time>
      </trkpt>
      <trkpt lat="48.38111" lon="2.54907">
        <ele>100.80000305176</ele>
        <time>2013-12-01T08:17:03Z</time>
      </trkpt>
      <trkpt lat="48.38113" lon="2.54903">
        <ele>101.19999694824</ele>
        <time>2013-12-01T08:17:04Z</time>
      </trkpt>
      <trkpt lat="48.38114" lon="2.54897">
        <ele>101.59999847412</ele>
        <time>2013-12-01T08:17:05Z</time>
      </trkpt>
      <trkpt lat="48.38113" lon="2.54891">
        <ele>102.19999694824</ele>
        <time>2013-12-01T08:17:06Z</time>
      </trkpt>
      <trkpt lat="48.38119" lon="2.5487">
        <ele>102.19999694824</ele>
        <time>2013-12-01T08:17:10Z</time>
      </trkpt>
      <trkpt lat="48.38128" lon="2.54842">
        <ele>102.19999694824</ele>
        <time>2013-12-01T08:17:16Z</time>
      </trkpt>
      <trkpt lat="48.38129" lon="2.54836">
        <ele>102.59999847412</ele>
        <time>2013-12-01T08:17:17Z</time>
      </trkpt>
      <trkpt lat="48.38131" lon="2.5483">
        <ele>103</ele>
        <time>2013-12-01T08:17:18Z</time>
      </trkpt>
      <trkpt lat="48.38132" lon="2.54824">
        <ele>103.40000152588</ele>
        <time>2013-12-01T08:17:19Z</time>
      </trkpt>
      <trkpt lat="48.38133" lon="2.54818">
        <ele>103.80000305176</ele>
        <time>2013-12-01T08:17:20Z</time>
      </trkpt>
      <trkpt lat="48.38135" lon="2.54812">
        <ele>104.19999694824</ele>
        <time>2013-12-01T08:17:21Z</time>
      </trkpt>
      <trkpt lat="48.38139" lon="2.54802">
        <ele>104.19999694824</ele>
        <time>2013-12-01T08:17:23Z</time>
      </trkpt>
      <trkpt lat="48.38152" lon="2.54777">
        <ele>104.19999694824</ele>
        <time>2013-12-01T08:17:27Z</time>
      </trkpt>
      <trkpt lat="48.38171" lon="2.54748">
        <ele>104.19999694824</ele>
        <time>2013-12-01T08:17:32Z</time>
      </trkpt>
      <trkpt lat="48.38178" lon="2.54739">
        <ele>104.19999694824</ele>
        <time>2013-12-01T08:17:34Z</time>
      </trkpt>
      <trkpt lat="48.38187" lon="2.54728">
        <ele>104.19999694824</ele>
        <time>2013-12-01T08:17:37Z</time>
      </trkpt>
      <trkpt lat="48.38205" lon="2.54712">
        <ele>104.19999694824</ele>
        <time>2013-12-01T08:17:43Z</time>
      </trkpt>
      <trkpt lat="48.3821" lon="2.547">
        <ele>104.59999847412</ele>
        <time>2013-12-01T08:17:46Z</time>
      </trkpt>
      <trkpt lat="48.38212" lon="2.54697">
        <ele>105</ele>
        <time>2013-12-01T08:17:47Z</time>
      </trkpt>
      <trkpt lat="48.38214" lon="2.54694">
        <ele>105.40000152588</ele>
        <time>2013-12-01T08:17:48Z</time>
      </trkpt>
      <trkpt lat="48.38217" lon="2.54692">
        <ele>105.80000305176</ele>
        <time>2013-12-01T08:17:49Z</time>
      </trkpt>
      <trkpt lat="48.38219" lon="2.5469">
        <ele>106.40000152588</ele>
        <time>2013-12-01T08:17:50Z</time>
      </trkpt>
      <trkpt lat="48.38224" lon="2.5469">
        <ele>106.40000152588</ele>
        <time>2013-12-01T08:17:52Z</time>
      </trkpt>
      <trkpt lat="48.38227" lon="2.5469">
        <ele>106.80000305176</ele>
        <time>2013-12-01T08:17:53Z</time>
      </trkpt>
      <trkpt lat="48.38229" lon="2.5469">
        <ele>107.40000152588</ele>
        <time>2013-12-01T08:17:54Z</time>
      </trkpt>
      <trkpt lat="48.38231" lon="2.5469">
        <ele>107.80000305176</ele>
        <time>2013-12-01T08:17:55Z</time>
      </trkpt>
      <trkpt lat="48.38234" lon="2.54691">
        <ele>108.19999694824</ele>
        <time>2013-12-01T08:17:56Z</time>
      </trkpt>
      <trkpt lat="48.38237" lon="2.54689">
        <ele>108.80000305176</ele>
        <time>2013-12-01T08:17:57Z</time>
      </trkpt>
      <trkpt lat="48.38247" lon="2.54687">
        <ele>108.80000305176</ele>
        <time>2013-12-01T08:18:00Z</time>
      </trkpt>
      <trkpt lat="48.38257" lon="2.54682">
        <ele>109.19999694824</ele>
        <time>2013-12-01T08:18:04Z</time>
      </trkpt>
      <trkpt lat="48.38258" lon="2.5468">
        <ele>109.80000305176</ele>
        <time>2013-12-01T08:18:05Z</time>
      </trkpt>
      <trkpt lat="48.3826" lon="2.54679">
        <ele>110.19999694824</ele>
        <time>2013-12-01T08:18:06Z</time>
      </trkpt>
      <trkpt lat="48.38262" lon="2.54676">
        <ele>110.59999847412</ele>
        <time>2013-12-01T08:18:07Z</time>
      </trkpt>
      <trkpt lat="48.38264" lon="2.54674">
        <ele>111.19999694824</ele>
        <time>2013-12-01T08:18:08Z</time>
      </trkpt>
      <trkpt lat="48.38276" lon="2.54667">
        <ele>111.59999847412</ele>
        <time>2013-12-01T08:18:13Z</time>
      </trkpt>
      <trkpt lat="48.38278" lon="2.54666">
        <ele>112</ele>
        <time>2013-12-01T08:18:14Z</time>
      </trkpt>
      <trkpt lat="48.3828" lon="2.54664">
        <ele>112.40000152588</ele>
        <time>2013-12-01T08:18:15Z</time>
      </trkpt>
      <trkpt lat="48.38282" lon="2.54663">
        <ele>113</ele>
        <time>2013-12-01T08:18:16Z</time>
      </trkpt>
      <trkpt lat="48.38284" lon="2.54661">
        <ele>113.40000152588</ele>
        <time>2013-12-01T08:18:17Z</time>
      </trkpt>
      <trkpt lat="48.38292" lon="2.54658">
        <ele>113.40000152588</ele>
        <time>2013-12-01T08:18:21Z</time>
      </trkpt>
      <trkpt lat="48.383" lon="2.54656">
        <ele>113.80000305176</ele>
        <time>2013-12-01T08:18:24Z</time>
      </trkpt>
      <trkpt lat="48.38303" lon="2.54657">
        <ele>114.19999694824</ele>
        <time>2013-12-01T08:18:25Z</time>
      </trkpt>
      <trkpt lat="48.38307" lon="2.54656">
        <ele>114.59999847412</ele>
        <time>2013-12-01T08:18:26Z</time>
      </trkpt>
      <trkpt lat="48.38311" lon="2.54656">
        <ele>115.19999694824</ele>
        <time>2013-12-01T08:18:27Z</time>
      </trkpt>
      <trkpt lat="48.38315" lon="2.54656">
        <ele>115.59999847412</ele>
        <time>2013-12-01T08:18:28Z</time>
      </trkpt>
      <trkpt lat="48.38334" lon="2.54648">
        <ele>115.59999847412</ele>
        <time>2013-12-01T08:18:33Z</time>
      </trkpt>
      <trkpt lat="48.38353" lon="2.54641">
        <ele>115.59999847412</ele>
        <time>2013-12-01T08:18:38Z</time>
      </trkpt>
      <trkpt lat="48.38368" lon="2.5463">
        <ele>115.59999847412</ele>
        <time>2013-12-01T08:18:42Z</time>
      </trkpt>
      <trkpt lat="48.38372" lon="2.54627">
        <ele>115.59999847412</ele>
        <time>2013-12-01T08:18:43Z</time>
      </trkpt>
      <trkpt lat="48.38384" lon="2.54622">
        <ele>115.59999847412</ele>
        <time>2013-12-01T08:18:47Z</time>
      </trkpt>
      <trkpt lat="48.38396" lon="2.54619">
        <ele>115.59999847412</ele>
        <time>2013-12-01T08:18:50Z</time>
      </trkpt>
      <trkpt lat="48.38409" lon="2.54615">
        <ele>115.59999847412</ele>
        <time>2013-12-01T08:18:53Z</time>
      </trkpt>
      <trkpt lat="48.38419" lon="2.5461">
        <ele>115.59999847412</ele>
        <time>2013-12-01T08:18:55Z</time>
      </trkpt>
      <trkpt lat="48.38427" lon="2.54599">
        <ele>115.59999847412</ele>
        <time>2013-12-01T08:18:58Z</time>
      </trkpt>
      <trkpt lat="48.38451" lon="2.54584">
        <ele>115.59999847412</ele>
        <time>2013-12-01T08:19:04Z</time>
      </trkpt>
      <trkpt lat="48.38467" lon="2.5458">
        <ele>115.59999847412</ele>
        <time>2013-12-01T08:19:09Z</time>
      </trkpt>
      <trkpt lat="48.38468" lon="2.54576">
        <ele>115.59999847412</ele>
        <time>2013-12-01T08:19:10Z</time>
      </trkpt>
      <trkpt lat="48.38467" lon="2.54566">
        <ele>115.59999847412</ele>
        <time>2013-12-01T08:19:12Z</time>
      </trkpt>
      <trkpt lat="48.3846" lon="2.54551">
        <ele>115.59999847412</ele>
        <time>2013-12-01T08:19:16Z</time>
      </trkpt>
      <trkpt lat="48.38458" lon="2.54544">
        <ele>116</ele>
        <time>2013-12-01T08:19:18Z</time>
      </trkpt>
      <trkpt lat="48.38457" lon="2.5454">
        <ele>116.59999847412</ele>
        <time>2013-12-01T08:19:19Z</time>
      </trkpt>
      <trkpt lat="48.38457" lon="2.54537">
        <ele>117.19999694824</ele>
        <time>2013-12-01T08:19:20Z</time>
      </trkpt>
      <trkpt lat="48.38456" lon="2.54533">
        <ele>117.80000305176</ele>
        <time>2013-12-01T08:19:21Z</time>
      </trkpt>
      <trkpt lat="48.38454" lon="2.54528">
        <ele>118.19999694824</ele>
        <time>2013-12-01T08:19:22Z</time>
      </trkpt>
      <trkpt lat="48.38453" lon="2.54524">
        <ele>118.19999694824</ele>
        <time>2013-12-01T08:19:23Z</time>
      </trkpt>
      <trkpt lat="48.38446" lon="2.54499">
        <ele>118.19999694824</ele>
        <time>2013-12-01T08:19:28Z</time>
      </trkpt>
      <trkpt lat="48.38445" lon="2.54487">
        <ele>118.19999694824</ele>
        <time>2013-12-01T08:19:31Z</time>
      </trkpt>
      <trkpt lat="48.38446" lon="2.54477">
        <ele>118.19999694824</ele>
        <time>2013-12-01T08:19:33Z</time>
      </trkpt>
      <trkpt lat="48.38441" lon="2.54456">
        <ele>117.80000305176</ele>
        <time>2013-12-01T08:19:36Z</time>
      </trkpt>
      <trkpt lat="48.38438" lon="2.54449">
        <ele>117.40000152588</ele>
        <time>2013-12-01T08:19:37Z</time>
      </trkpt>
      <trkpt lat="48.38434" lon="2.54441">
        <ele>116.59999847412</ele>
        <time>2013-12-01T08:19:38Z</time>
      </trkpt>
      <trkpt lat="48.38431" lon="2.54433">
        <ele>116</ele>
        <time>2013-12-01T08:19:39Z</time>
      </trkpt>
      <trkpt lat="48.38427" lon="2.54425">
        <ele>115.19999694824</ele>
        <time>2013-12-01T08:19:40Z</time>
      </trkpt>
      <trkpt lat="48.38424" lon="2.54417">
        <ele>114.59999847412</ele>
        <time>2013-12-01T08:19:41Z</time>
      </trkpt>
      <trkpt lat="48.38422" lon="2.5441">
        <ele>113.80000305176</ele>
        <time>2013-12-01T08:19:42Z</time>
      </trkpt>
      <trkpt lat="48.38422" lon="2.54403">
        <ele>113.40000152588</ele>
        <time>2013-12-01T08:19:43Z</time>
      </trkpt>
      <trkpt lat="48.38422" lon="2.54397">
        <ele>112.80000305176</ele>
        <time>2013-12-01T08:19:44Z</time>
      </trkpt>
      <trkpt lat="48.3842" lon="2.5439">
        <ele>112.40000152588</ele>
        <time>2013-12-01T08:19:45Z</time>
      </trkpt>
      <trkpt lat="48.38419" lon="2.54385">
        <ele>111.80000305176</ele>
        <time>2013-12-01T08:19:46Z</time>
      </trkpt>
      <trkpt lat="48.38417" lon="2.54379">
        <ele>111.19999694824</ele>
        <time>2013-12-01T08:19:47Z</time>
      </trkpt>
      <trkpt lat="48.38417" lon="2.54372">
        <ele>110.59999847412</ele>
        <time>2013-12-01T08:19:48Z</time>
      </trkpt>
      <trkpt lat="48.38417" lon="2.54364">
        <ele>109.80000305176</ele>
        <time>2013-12-01T08:19:49Z</time>
      </trkpt>
      <trkpt lat="48.38417" lon="2.54356">
        <ele>108.80000305176</ele>
        <time>2013-12-01T08:19:50Z</time>
      </trkpt>
      <trkpt lat="48.38418" lon="2.54347">
        <ele>108</ele>
        <time>2013-12-01T08:19:51Z</time>
      </trkpt>
      <trkpt lat="48.38419" lon="2.54342">
        <ele>107.19999694824</ele>
        <time>2013-12-01T08:19:52Z</time>
      </trkpt>
      <trkpt lat="48.3842" lon="2.54338">
        <ele>106.40000152588</ele>
        <time>2013-12-01T08:19:53Z</time>
      </trkpt>
      <trkpt lat="48.3842" lon="2.54336">
        <ele>105.59999847412</ele>
        <time>2013-12-01T08:19:54Z</time>
      </trkpt>
      <trkpt lat="48.3842" lon="2.54334">
        <ele>104.59999847412</ele>
        <time>2013-12-01T08:19:55Z</time>
      </trkpt>
      <trkpt lat="48.38419" lon="2.54331">
        <ele>103.80000305176</ele>
        <time>2013-12-01T08:19:56Z</time>
      </trkpt>
      <trkpt lat="48.38412" lon="2.54327">
        <ele>103.80000305176</ele>
        <time>2013-12-01T08:20:01Z</time>
      </trkpt>
      <trkpt lat="48.38407" lon="2.54315">
        <ele>103.80000305176</ele>
        <time>2013-12-01T08:20:07Z</time>
      </trkpt>
      <trkpt lat="48.38408" lon="2.54312">
        <ele>103.40000152588</ele>
        <time>2013-12-01T08:20:08Z</time>
      </trkpt>
      <trkpt lat="48.3841" lon="2.54308">
        <ele>103</ele>
        <time>2013-12-01T08:20:09Z</time>
      </trkpt>
      <trkpt lat="48.38411" lon="2.54304">
        <ele>102.59999847412</ele>
        <time>2013-12-01T08:20:10Z</time>
      </trkpt>
      <trkpt lat="48.38413" lon="2.54298">
        <ele>101.80000305176</ele>
        <time>2013-12-01T08:20:11Z</time>
      </trkpt>
      <trkpt lat="48.38414" lon="2.54292">
        <ele>101</ele>
        <time>2013-12-01T08:20:12Z</time>
      </trkpt>
      <trkpt lat="48.38414" lon="2.54287">
        <ele>100.40000152588</ele>
        <time>2013-12-01T08:20:13Z</time>
      </trkpt>
      <trkpt lat="48.38414" lon="2.54281">
        <ele>99.599998474121</ele>
        <time>2013-12-01T08:20:14Z</time>
      </trkpt>
      <trkpt lat="48.38413" lon="2.54274">
        <ele>99</ele>
        <time>2013-12-01T08:20:15Z</time>
      </trkpt>
      <trkpt lat="48.38412" lon="2.54267">
        <ele>99</ele>
        <time>2013-12-01T08:20:16Z</time>
      </trkpt>
      <trkpt lat="48.38412" lon="2.54259">
        <ele>97.800003051758</ele>
        <time>2013-12-01T08:20:17Z</time>
      </trkpt>
      <trkpt lat="48.38411" lon="2.54252">
        <ele>97.400001525879</ele>
        <time>2013-12-01T08:20:18Z</time>
      </trkpt>
      <trkpt lat="48.3841" lon="2.54245">
        <ele>96.800003051758</ele>
        <time>2013-12-01T08:20:19Z</time>
      </trkpt>
      <trkpt lat="48.38409" lon="2.54239">
        <ele>96.199996948242</ele>
        <time>2013-12-01T08:20:20Z</time>
      </trkpt>
      <trkpt lat="48.38407" lon="2.54233">
        <ele>95.800003051758</ele>
        <time>2013-12-01T08:20:21Z</time>
      </trkpt>
      <trkpt lat="48.38406" lon="2.54229">
        <ele>95.400001525879</ele>
        <time>2013-12-01T08:20:22Z</time>
      </trkpt>
      <trkpt lat="48.38404" lon="2.54227">
        <ele>95</ele>
        <time>2013-12-01T08:20:23Z</time>
      </trkpt>
      <trkpt lat="48.38404" lon="2.54225">
        <ele>94.400001525879</ele>
        <time>2013-12-01T08:20:24Z</time>
      </trkpt>
      <trkpt lat="48.38404" lon="2.54222">
        <ele>94.400001525879</ele>
        <time>2013-12-01T08:20:26Z</time>
      </trkpt>
      <trkpt lat="48.38403" lon="2.54221">
        <ele>94</ele>
        <time>2013-12-01T08:20:27Z</time>
      </trkpt>
      <trkpt lat="48.38402" lon="2.54219">
        <ele>93.599998474121</ele>
        <time>2013-12-01T08:20:28Z</time>
      </trkpt>
      <trkpt lat="48.38401" lon="2.54218">
        <ele>93.199996948242</ele>
        <time>2013-12-01T08:20:29Z</time>
      </trkpt>
      <trkpt lat="48.38401" lon="2.54217">
        <ele>92.800003051758</ele>
        <time>2013-12-01T08:20:30Z</time>
      </trkpt>
      <trkpt lat="48.384" lon="2.54216">
        <ele>92.400001525879</ele>
        <time>2013-12-01T08:20:31Z</time>
      </trkpt>
      <trkpt lat="48.38398" lon="2.54208">
        <ele>92</ele>
        <time>2013-12-01T08:20:34Z</time>
      </trkpt>
      <trkpt lat="48.38396" lon="2.54205">
        <ele>91.599998474121</ele>
        <time>2013-12-01T08:20:35Z</time>
      </trkpt>
      <trkpt lat="48.38396" lon="2.54202">
        <ele>91.199996948242</ele>
        <time>2013-12-01T08:20:36Z</time>
      </trkpt>
      <trkpt lat="48.38394" lon="2.54197">
        <ele>90.800003051758</ele>
        <time>2013-12-01T08:20:37Z</time>
      </trkpt>
      <trkpt lat="48.38392" lon="2.54192">
        <ele>90.400001525879</ele>
        <time>2013-12-01T08:20:38Z</time>
      </trkpt>
      <trkpt lat="48.38386" lon="2.54167">
        <ele>89.800003051758</ele>
        <time>2013-12-01T08:20:41Z</time>
      </trkpt>
      <trkpt lat="48.38383" lon="2.54158">
        <ele>89.400001525879</ele>
        <time>2013-12-01T08:20:42Z</time>
      </trkpt>
      <trkpt lat="48.3838" lon="2.5415">
        <ele>89</ele>
        <time>2013-12-01T08:20:43Z</time>
      </trkpt>
      <trkpt lat="48.38377" lon="2.54143">
        <ele>88.400001525879</ele>
        <time>2013-12-01T08:20:44Z</time>
      </trkpt>
      <trkpt lat="48.38372" lon="2.54136">
        <ele>88</ele>
        <time>2013-12-01T08:20:45Z</time>
      </trkpt>
      <trkpt lat="48.38366" lon="2.54129">
        <ele>87.400001525879</ele>
        <time>2013-12-01T08:20:46Z</time>
      </trkpt>
      <trkpt lat="48.38361" lon="2.54122">
        <ele>86.800003051758</ele>
        <time>2013-12-01T08:20:47Z</time>
      </trkpt>
      <trkpt lat="48.38357" lon="2.54114">
        <ele>86.400001525879</ele>
        <time>2013-12-01T08:20:48Z</time>
      </trkpt>
      <trkpt lat="48.38351" lon="2.54105">
        <ele>85.800003051758</ele>
        <time>2013-12-01T08:20:49Z</time>
      </trkpt>
      <trkpt lat="48.38347" lon="2.54098">
        <ele>85.199996948242</ele>
        <time>2013-12-01T08:20:50Z</time>
      </trkpt>
      <trkpt lat="48.38343" lon="2.54092">
        <ele>84.599998474121</ele>
        <time>2013-12-01T08:20:51Z</time>
      </trkpt>
      <trkpt lat="48.38338" lon="2.54087">
        <ele>84.199996948242</ele>
        <time>2013-12-01T08:20:52Z</time>
      </trkpt>
      <trkpt lat="48.38332" lon="2.54083">
        <ele>83.599998474121</ele>
        <time>2013-12-01T08:20:53Z</time>
      </trkpt>
      <trkpt lat="48.38327" lon="2.5408">
        <ele>83.199996948242</ele>
        <time>2013-12-01T08:20:54Z</time>
      </trkpt>
      <trkpt lat="48.38321" lon="2.54077">
        <ele>82.800003051758</ele>
        <time>2013-12-01T08:20:55Z</time>
      </trkpt>
      <trkpt lat="48.38316" lon="2.54074">
        <ele>82.400001525879</ele>
        <time>2013-12-01T08:20:56Z</time>
      </trkpt>
      <trkpt lat="48.3831" lon="2.54069">
        <ele>82</ele>
        <time>2013-12-01T08:20:57Z</time>
      </trkpt>
      <trkpt lat="48.38305" lon="2.54063">
        <ele>81.400001525879</ele>
        <time>2013-12-01T08:20:58Z</time>
      </trkpt>
      <trkpt lat="48.38299" lon="2.54056">
        <ele>81</ele>
        <time>2013-12-01T08:20:59Z</time>
      </trkpt>
      <trkpt lat="48.38293" lon="2.5405">
        <ele>80.400001525879</ele>
        <time>2013-12-01T08:21:00Z</time>
      </trkpt>
      <trkpt lat="48.38287" lon="2.54043">
        <ele>80</ele>
        <time>2013-12-01T08:21:01Z</time>
      </trkpt>
      <trkpt lat="48.38281" lon="2.54037">
        <ele>79.599998474121</ele>
        <time>2013-12-01T08:21:02Z</time>
      </trkpt>
      <trkpt lat="48.38275" lon="2.54032">
        <ele>79</ele>
        <time>2013-12-01T08:21:03Z</time>
      </trkpt>
      <trkpt lat="48.38269" lon="2.54028">
        <ele>78.599998474121</ele>
        <time>2013-12-01T08:21:04Z</time>
      </trkpt>
      <trkpt lat="48.38265" lon="2.54022">
        <ele>78.199996948242</ele>
        <time>2013-12-01T08:21:05Z</time>
      </trkpt>
      <trkpt lat="48.38261" lon="2.54014">
        <ele>77.800003051758</ele>
        <time>2013-12-01T08:21:06Z</time>
      </trkpt>
      <trkpt lat="48.38258" lon="2.54007">
        <ele>77.400001525879</ele>
        <time>2013-12-01T08:21:07Z</time>
      </trkpt>
      <trkpt lat="48.38255" lon="2.53991">
        <ele>77.400001525879</ele>
        <time>2013-12-01T08:21:09Z</time>
      </trkpt>
      <trkpt lat="48.38253" lon="2.53984">
        <ele>77.400001525879</ele>
        <time>2013-12-01T08:21:10Z</time>
      </trkpt>
      <trkpt lat="48.38256" lon="2.53957">
        <ele>77.400001525879</ele>
        <time>2013-12-01T08:21:14Z</time>
      </trkpt>
      <trkpt lat="48.3826" lon="2.53938">
        <ele>77.400001525879</ele>
        <time>2013-12-01T08:21:17Z</time>
      </trkpt>
      <trkpt lat="48.38261" lon="2.5393">
        <ele>77.400001525879</ele>
        <time>2013-12-01T08:21:18Z</time>
      </trkpt>
      <trkpt lat="48.38269" lon="2.53886">
        <ele>77.400001525879</ele>
        <time>2013-12-01T08:21:24Z</time>
      </trkpt>
      <trkpt lat="48.38273" lon="2.53856">
        <ele>77.400001525879</ele>
        <time>2013-12-01T08:21:28Z</time>
      </trkpt>
      <trkpt lat="48.38271" lon="2.53844">
        <ele>77.400001525879</ele>
        <time>2013-12-01T08:21:29Z</time>
      </trkpt>
      <trkpt lat="48.3827" lon="2.53816">
        <ele>77</ele>
        <time>2013-12-01T08:21:32Z</time>
      </trkpt>
      <trkpt lat="48.38269" lon="2.53808">
        <ele>76.400001525879</ele>
        <time>2013-12-01T08:21:33Z</time>
      </trkpt>
      <trkpt lat="48.38268" lon="2.53799">
        <ele>76</ele>
        <time>2013-12-01T08:21:34Z</time>
      </trkpt>
      <trkpt lat="48.38268" lon="2.53792">
        <ele>75.599998474121</ele>
        <time>2013-12-01T08:21:35Z</time>
      </trkpt>
      <trkpt lat="48.38267" lon="2.53783">
        <ele>75.199996948242</ele>
        <time>2013-12-01T08:21:36Z</time>
      </trkpt>
      <trkpt lat="48.38264" lon="2.5375">
        <ele>75.199996948242</ele>
        <time>2013-12-01T08:21:39Z</time>
      </trkpt>
      <trkpt lat="48.38261" lon="2.53687">
        <ele>75.199996948242</ele>
        <time>2013-12-01T08:21:46Z</time>
      </trkpt>
      <trkpt lat="48.3826" lon="2.53659">
        <ele>75.199996948242</ele>
        <time>2013-12-01T08:21:49Z</time>
      </trkpt>
      <trkpt lat="48.3826" lon="2.5365">
        <ele>74.599998474121</ele>
        <time>2013-12-01T08:21:50Z</time>
      </trkpt>
      <trkpt lat="48.38259" lon="2.53641">
        <ele>74.199996948242</ele>
        <time>2013-12-01T08:21:51Z</time>
      </trkpt>
      <trkpt lat="48.38258" lon="2.53634">
        <ele>73.800003051758</ele>
        <time>2013-12-01T08:21:52Z</time>
      </trkpt>
      <trkpt lat="48.38255" lon="2.53628">
        <ele>73.199996948242</ele>
        <time>2013-12-01T08:21:53Z</time>
      </trkpt>
      <trkpt lat="48.3825" lon="2.53623">
        <ele>72.800003051758</ele>
        <time>2013-12-01T08:21:54Z</time>
      </trkpt>
      <trkpt lat="48.38241" lon="2.53616">
        <ele>72.800003051758</ele>
        <time>2013-12-01T08:21:56Z</time>
      </trkpt>
      <trkpt lat="48.38207" lon="2.53593">
        <ele>72.800003051758</ele>
        <time>2013-12-01T08:22:03Z</time>
      </trkpt>
      <trkpt lat="48.38172" lon="2.53573">
        <ele>72.800003051758</ele>
        <time>2013-12-01T08:22:10Z</time>
      </trkpt>
      <trkpt lat="48.38142" lon="2.53546">
        <ele>72.400001525879</ele>
        <time>2013-12-01T08:22:16Z</time>
      </trkpt>
      <trkpt lat="48.38137" lon="2.53539">
        <ele>72</ele>
        <time>2013-12-01T08:22:17Z</time>
      </trkpt>
      <trkpt lat="48.38134" lon="2.53532">
        <ele>71.400001525879</ele>
        <time>2013-12-01T08:22:18Z</time>
      </trkpt>
      <trkpt lat="48.38132" lon="2.53524">
        <ele>71</ele>
        <time>2013-12-01T08:22:19Z</time>
      </trkpt>
      <trkpt lat="48.38131" lon="2.53516">
        <ele>70.599998474121</ele>
        <time>2013-12-01T08:22:20Z</time>
      </trkpt>
      <trkpt lat="48.3813" lon="2.53508">
        <ele>70.599998474121</ele>
        <time>2013-12-01T08:22:21Z</time>
      </trkpt>
      <trkpt lat="48.38124" lon="2.53477">
        <ele>70.599998474121</ele>
        <time>2013-12-01T08:22:25Z</time>
      </trkpt>
      <trkpt lat="48.38122" lon="2.53469">
        <ele>70.599998474121</ele>
        <time>2013-12-01T08:22:26Z</time>
      </trkpt>
      <trkpt lat="48.38105" lon="2.53427">
        <ele>70.599998474121</ele>
        <time>2013-12-01T08:22:32Z</time>
      </trkpt>
      <trkpt lat="48.38101" lon="2.53421">
        <ele>70.599998474121</ele>
        <time>2013-12-01T08:22:33Z</time>
      </trkpt>
      <trkpt lat="48.38076" lon="2.53385">
        <ele>70.599998474121</ele>
        <time>2013-12-01T08:22:39Z</time>
      </trkpt>
      <trkpt lat="48.38047" lon="2.53345">
        <ele>70.599998474121</ele>
        <time>2013-12-01T08:22:46Z</time>
      </trkpt>
      <trkpt lat="48.38022" lon="2.53312">
        <ele>70.599998474121</ele>
        <time>2013-12-01T08:22:52Z</time>
      </trkpt>
      <trkpt lat="48.3801" lon="2.53295">
        <ele>70.599998474121</ele>
        <time>2013-12-01T08:22:55Z</time>
      </trkpt>
      <trkpt lat="48.37999" lon="2.53276">
        <ele>70.599998474121</ele>
        <time>2013-12-01T08:22:58Z</time>
      </trkpt>
      <trkpt lat="48.37981" lon="2.53248">
        <ele>70.599998474121</ele>
        <time>2013-12-01T08:23:03Z</time>
      </trkpt>
      <trkpt lat="48.37976" lon="2.53244">
        <ele>70.599998474121</ele>
        <time>2013-12-01T08:23:04Z</time>
      </trkpt>
      <trkpt lat="48.37962" lon="2.53234">
        <ele>70.599998474121</ele>
        <time>2013-12-01T08:23:07Z</time>
      </trkpt>
      <trkpt lat="48.37957" lon="2.53228">
        <ele>70.599998474121</ele>
        <time>2013-12-01T08:23:08Z</time>
      </trkpt>
      <trkpt lat="48.37941" lon="2.53204">
        <ele>70.599998474121</ele>
        <time>2013-12-01T08:23:12Z</time>
      </trkpt>
      <trkpt lat="48.37937" lon="2.532">
        <ele>70.599998474121</ele>
        <time>2013-12-01T08:23:13Z</time>
      </trkpt>
      <trkpt lat="48.37923" lon="2.53195">
        <ele>70.599998474121</ele>
        <time>2013-12-01T08:23:16Z</time>
      </trkpt>
      <trkpt lat="48.37918" lon="2.5321">
        <ele>70.599998474121</ele>
        <time>2013-12-01T08:23:19Z</time>
      </trkpt>
      <trkpt lat="48.37916" lon="2.53218">
        <ele>70.599998474121</ele>
        <time>2013-12-01T08:23:21Z</time>
      </trkpt>
      <trkpt lat="48.37906" lon="2.53239">
        <ele>70.599998474121</ele>
        <time>2013-12-01T08:23:25Z</time>
      </trkpt>
      <trkpt lat="48.37904" lon="2.53244">
        <ele>70.599998474121</ele>
        <time>2013-12-01T08:23:26Z</time>
      </trkpt>
      <trkpt lat="48.37891" lon="2.53269">
        <ele>70.599998474121</ele>
        <time>2013-12-01T08:23:31Z</time>
      </trkpt>
      <trkpt lat="48.37881" lon="2.53284">
        <ele>70.599998474121</ele>
        <time>2013-12-01T08:23:35Z</time>
      </trkpt>
      <trkpt lat="48.37865" lon="2.53306">
        <ele>70.599998474121</ele>
        <time>2013-12-01T08:23:42Z</time>
      </trkpt>
      <trkpt lat="48.37854" lon="2.53328">
        <ele>70.599998474121</ele>
        <time>2013-12-01T08:23:47Z</time>
      </trkpt>
      <trkpt lat="48.37843" lon="2.53357">
        <ele>70.599998474121</ele>
        <time>2013-12-01T08:23:54Z</time>
      </trkpt>
      <trkpt lat="48.37842" lon="2.5336">
        <ele>71</ele>
        <time>2013-12-01T08:23:55Z</time>
      </trkpt>
      <trkpt lat="48.37841" lon="2.53365">
        <ele>71.400001525879</ele>
        <time>2013-12-01T08:23:56Z</time>
      </trkpt>
      <trkpt lat="48.3784" lon="2.53369">
        <ele>71.800003051758</ele>
        <time>2013-12-01T08:23:57Z</time>
      </trkpt>
      <trkpt lat="48.3784" lon="2.53373">
        <ele>72.199996948242</ele>
        <time>2013-12-01T08:23:58Z</time>
      </trkpt>
      <trkpt lat="48.37839" lon="2.53377">
        <ele>72.800003051758</ele>
        <time>2013-12-01T08:23:59Z</time>
      </trkpt>
      <trkpt lat="48.37833" lon="2.53395">
        <ele>73.199996948242</ele>
        <time>2013-12-01T08:24:03Z</time>
      </trkpt>
      <trkpt lat="48.37832" lon="2.53397">
        <ele>73.599998474121</ele>
        <time>2013-12-01T08:24:04Z</time>
      </trkpt>
      <trkpt lat="48.37831" lon="2.534">
        <ele>74</ele>
        <time>2013-12-01T08:24:05Z</time>
      </trkpt>
      <trkpt lat="48.3783" lon="2.53403">
        <ele>74.400001525879</ele>
        <time>2013-12-01T08:24:06Z</time>
      </trkpt>
      <trkpt lat="48.37828" lon="2.53405">
        <ele>74.800003051758</ele>
        <time>2013-12-01T08:24:07Z</time>
      </trkpt>
      <trkpt lat="48.3782" lon="2.53429">
        <ele>75.400001525879</ele>
        <time>2013-12-01T08:24:14Z</time>
      </trkpt>
      <trkpt lat="48.3782" lon="2.53433">
        <ele>75.800003051758</ele>
        <time>2013-12-01T08:24:15Z</time>
      </trkpt>
      <trkpt lat="48.3782" lon="2.53437">
        <ele>76.199996948242</ele>
        <time>2013-12-01T08:24:17Z</time>
      </trkpt>
      <trkpt lat="48.3782" lon="2.53441">
        <ele>76.800003051758</ele>
        <time>2013-12-01T08:24:18Z</time>
      </trkpt>
      <trkpt lat="48.3782" lon="2.53443">
        <ele>77.199996948242</ele>
        <time>2013-12-01T08:24:19Z</time>
      </trkpt>
      <trkpt lat="48.37819" lon="2.53448">
        <ele>77.199996948242</ele>
        <time>2013-12-01T08:24:21Z</time>
      </trkpt>
      <trkpt lat="48.37814" lon="2.53458">
        <ele>77.599998474121</ele>
        <time>2013-12-01T08:24:25Z</time>
      </trkpt>
      <trkpt lat="48.37813" lon="2.5346">
        <ele>78</ele>
        <time>2013-12-01T08:24:26Z</time>
      </trkpt>
      <trkpt lat="48.37812" lon="2.53462">
        <ele>78.400001525879</ele>
        <time>2013-12-01T08:24:27Z</time>
      </trkpt>
      <trkpt lat="48.37811" lon="2.53465">
        <ele>79</ele>
        <time>2013-12-01T08:24:28Z</time>
      </trkpt>
      <trkpt lat="48.37811" lon="2.53467">
        <ele>79.400001525879</ele>
        <time>2013-12-01T08:24:29Z</time>
      </trkpt>
      <trkpt lat="48.3781" lon="2.53472">
        <ele>79.400001525879</ele>
        <time>2013-12-01T08:24:36Z</time>
      </trkpt>
      <trkpt lat="48.37809" lon="2.53474">
        <ele>79.800003051758</ele>
        <time>2013-12-01T08:24:37Z</time>
      </trkpt>
      <trkpt lat="48.37807" lon="2.53476">
        <ele>80.199996948242</ele>
        <time>2013-12-01T08:24:38Z</time>
      </trkpt>
      <trkpt lat="48.37805" lon="2.53477">
        <ele>80.599998474121</ele>
        <time>2013-12-01T08:24:39Z</time>
      </trkpt>
      <trkpt lat="48.37805" lon="2.53478">
        <ele>81.199996948242</ele>
        <time>2013-12-01T08:24:40Z</time>
      </trkpt>
      <trkpt lat="48.37804" lon="2.5348">
        <ele>81.599998474121</ele>
        <time>2013-12-01T08:24:41Z</time>
      </trkpt>
      <trkpt lat="48.37803" lon="2.53481">
        <ele>81.599998474121</ele>
        <time>2013-12-01T08:24:42Z</time>
      </trkpt>
      <trkpt lat="48.37796" lon="2.5349">
        <ele>82</ele>
        <time>2013-12-01T08:24:46Z</time>
      </trkpt>
      <trkpt lat="48.37795" lon="2.53493">
        <ele>82.400001525879</ele>
        <time>2013-12-01T08:24:47Z</time>
      </trkpt>
      <trkpt lat="48.37794" lon="2.53494">
        <ele>83</ele>
        <time>2013-12-01T08:24:48Z</time>
      </trkpt>
      <trkpt lat="48.37793" lon="2.53496">
        <ele>83.400001525879</ele>
        <time>2013-12-01T08:24:49Z</time>
      </trkpt>
      <trkpt lat="48.37793" lon="2.53498">
        <ele>83.800003051758</ele>
        <time>2013-12-01T08:24:50Z</time>
      </trkpt>
      <trkpt lat="48.37788" lon="2.5351">
        <ele>84.400001525879</ele>
        <time>2013-12-01T08:24:57Z</time>
      </trkpt>
      <trkpt lat="48.37788" lon="2.53511">
        <ele>84.800003051758</ele>
        <time>2013-12-01T08:24:58Z</time>
      </trkpt>
      <trkpt lat="48.37788" lon="2.53513">
        <ele>85.199996948242</ele>
        <time>2013-12-01T08:24:59Z</time>
      </trkpt>
      <trkpt lat="48.37788" lon="2.53514">
        <ele>85.599998474121</ele>
        <time>2013-12-01T08:25:00Z</time>
      </trkpt>
      <trkpt lat="48.37788" lon="2.53517">
        <ele>86</ele>
        <time>2013-12-01T08:25:01Z</time>
      </trkpt>
      <trkpt lat="48.37787" lon="2.53522">
        <ele>86</ele>
        <time>2013-12-01T08:25:03Z</time>
      </trkpt>
      <trkpt lat="48.37786" lon="2.53529">
        <ele>86.400001525879</ele>
        <time>2013-12-01T08:25:08Z</time>
      </trkpt>
      <trkpt lat="48.37786" lon="2.5353">
        <ele>87</ele>
        <time>2013-12-01T08:25:09Z</time>
      </trkpt>
      <trkpt lat="48.37786" lon="2.5353">
        <ele>87.400001525879</ele>
        <time>2013-12-01T08:25:10Z</time>
      </trkpt>
      <trkpt lat="48.37786" lon="2.53531">
        <ele>87.800003051758</ele>
        <time>2013-12-01T08:25:11Z</time>
      </trkpt>
      <trkpt lat="48.37786" lon="2.53531">
        <ele>88.199996948242</ele>
        <time>2013-12-01T08:25:12Z</time>
      </trkpt>
      <trkpt lat="48.37786" lon="2.53531">
        <ele>88.199996948242</ele>
        <time>2013-12-01T08:25:15Z</time>
      </trkpt>
      <trkpt lat="48.37786" lon="2.53531">
        <ele>88.199996948242</ele>
        <time>2013-12-01T08:25:16Z</time>
      </trkpt>
      <trkpt lat="48.37789" lon="2.5354">
        <ele>88.199996948242</ele>
        <time>2013-12-01T08:25:21Z</time>
      </trkpt>
      <trkpt lat="48.37788" lon="2.53546">
        <ele>88.199996948242</ele>
        <time>2013-12-01T08:25:25Z</time>
      </trkpt>
      <trkpt lat="48.37787" lon="2.53547">
        <ele>88.199996948242</ele>
        <time>2013-12-01T08:25:26Z</time>
      </trkpt>
      <trkpt lat="48.37787" lon="2.53548">
        <ele>88.199996948242</ele>
        <time>2013-12-01T08:25:27Z</time>
      </trkpt>
      <trkpt lat="48.37786" lon="2.53551">
        <ele>88.199996948242</ele>
        <time>2013-12-01T08:25:29Z</time>
      </trkpt>
      <trkpt lat="48.37787" lon="2.53554">
        <ele>88.199996948242</ele>
        <time>2013-12-01T08:25:32Z</time>
      </trkpt>
      <trkpt lat="48.37788" lon="2.53555">
        <ele>88.599998474121</ele>
        <time>2013-12-01T08:25:33Z</time>
      </trkpt>
      <trkpt lat="48.37789" lon="2.53555">
        <ele>89</ele>
        <time>2013-12-01T08:25:34Z</time>
      </trkpt>
      <trkpt lat="48.37789" lon="2.53556">
        <ele>89.400001525879</ele>
        <time>2013-12-01T08:25:35Z</time>
      </trkpt>
      <trkpt lat="48.3779" lon="2.53557">
        <ele>89.800003051758</ele>
        <time>2013-12-01T08:25:36Z</time>
      </trkpt>
      <trkpt lat="48.3779" lon="2.53559">
        <ele>90.199996948242</ele>
        <time>2013-12-01T08:25:37Z</time>
      </trkpt>
      <trkpt lat="48.3779" lon="2.5356">
        <ele>90.199996948242</ele>
        <time>2013-12-01T08:25:38Z</time>
      </trkpt>
      <trkpt lat="48.37786" lon="2.53568">
        <ele>90.199996948242</ele>
        <time>2013-12-01T08:25:48Z</time>
      </trkpt>
      <trkpt lat="48.37786" lon="2.53569">
        <ele>90.199996948242</ele>
        <time>2013-12-01T08:25:49Z</time>
      </trkpt>
      <trkpt lat="48.37786" lon="2.5357">
        <ele>90.199996948242</ele>
        <time>2013-12-01T08:25:50Z</time>
      </trkpt>
      <trkpt lat="48.37786" lon="2.53571">
        <ele>90.599998474121</ele>
        <time>2013-12-01T08:25:51Z</time>
      </trkpt>
      <trkpt lat="48.37786" lon="2.53572">
        <ele>91.199996948242</ele>
        <time>2013-12-01T08:25:52Z</time>
      </trkpt>
      <trkpt lat="48.37786" lon="2.53573">
        <ele>91.599998474121</ele>
        <time>2013-12-01T08:25:53Z</time>
      </trkpt>
      <trkpt lat="48.37786" lon="2.53572">
        <ele>92.199996948242</ele>
        <time>2013-12-01T08:25:54Z</time>
      </trkpt>
      <trkpt lat="48.37786" lon="2.53573">
        <ele>92.599998474121</ele>
        <time>2013-12-01T08:25:55Z</time>
      </trkpt>
      <trkpt lat="48.37785" lon="2.53577">
        <ele>92.599998474121</ele>
        <time>2013-12-01T08:25:58Z</time>
      </trkpt>
      <trkpt lat="48.37781" lon="2.5359">
        <ele>92.599998474121</ele>
        <time>2013-12-01T08:26:02Z</time>
      </trkpt>
      <trkpt lat="48.3778" lon="2.53593">
        <ele>92.599998474121</ele>
        <time>2013-12-01T08:26:03Z</time>
      </trkpt>
      <trkpt lat="48.37777" lon="2.53602">
        <ele>92.599998474121</ele>
        <time>2013-12-01T08:26:06Z</time>
      </trkpt>
      <trkpt lat="48.37774" lon="2.5362">
        <ele>92.599998474121</ele>
        <time>2013-12-01T08:26:09Z</time>
      </trkpt>
      <trkpt lat="48.3777" lon="2.53625">
        <ele>92</ele>
        <time>2013-12-01T08:26:10Z</time>
      </trkpt>
      <trkpt lat="48.37767" lon="2.5363">
        <ele>91.599998474121</ele>
        <time>2013-12-01T08:26:11Z</time>
      </trkpt>
      <trkpt lat="48.37762" lon="2.53634">
        <ele>91.199996948242</ele>
        <time>2013-12-01T08:26:12Z</time>
      </trkpt>
      <trkpt lat="48.37756" lon="2.53639">
        <ele>90.599998474121</ele>
        <time>2013-12-01T08:26:13Z</time>
      </trkpt>
      <trkpt lat="48.37751" lon="2.53645">
        <ele>90</ele>
        <time>2013-12-01T08:26:14Z</time>
      </trkpt>
      <trkpt lat="48.37746" lon="2.5365">
        <ele>89.599998474121</ele>
        <time>2013-12-01T08:26:15Z</time>
      </trkpt>
      <trkpt lat="48.37741" lon="2.53656">
        <ele>89</ele>
        <time>2013-12-01T08:26:16Z</time>
      </trkpt>
      <trkpt lat="48.37737" lon="2.53662">
        <ele>88.199996948242</ele>
        <time>2013-12-01T08:26:17Z</time>
      </trkpt>
      <trkpt lat="48.37733" lon="2.5367">
        <ele>87.400001525879</ele>
        <time>2013-12-01T08:26:18Z</time>
      </trkpt>
      <trkpt lat="48.37729" lon="2.53676">
        <ele>86.400001525879</ele>
        <time>2013-12-01T08:26:19Z</time>
      </trkpt>
      <trkpt lat="48.37724" lon="2.53681">
        <ele>85.599998474121</ele>
        <time>2013-12-01T08:26:20Z</time>
      </trkpt>
      <trkpt lat="48.37721" lon="2.53685">
        <ele>84.599998474121</ele>
        <time>2013-12-01T08:26:21Z</time>
      </trkpt>
      <trkpt lat="48.37719" lon="2.53691">
        <ele>83.800003051758</ele>
        <time>2013-12-01T08:26:22Z</time>
      </trkpt>
      <trkpt lat="48.37715" lon="2.53695">
        <ele>82.800003051758</ele>
        <time>2013-12-01T08:26:23Z</time>
      </trkpt>
      <trkpt lat="48.3771" lon="2.53699">
        <ele>82</ele>
        <time>2013-12-01T08:26:24Z</time>
      </trkpt>
      <trkpt lat="48.37706" lon="2.53703">
        <ele>81.199996948242</ele>
        <time>2013-12-01T08:26:25Z</time>
      </trkpt>
      <trkpt lat="48.37703" lon="2.53708">
        <ele>80.400001525879</ele>
        <time>2013-12-01T08:26:26Z</time>
      </trkpt>
      <trkpt lat="48.37699" lon="2.53714">
        <ele>79.599998474121</ele>
        <time>2013-12-01T08:26:27Z</time>
      </trkpt>
      <trkpt lat="48.37695" lon="2.53719">
        <ele>78.800003051758</ele>
        <time>2013-12-01T08:26:28Z</time>
      </trkpt>
      <trkpt lat="48.37692" lon="2.53725">
        <ele>78</ele>
        <time>2013-12-01T08:26:29Z</time>
      </trkpt>
      <trkpt lat="48.37682" lon="2.53745">
        <ele>78</ele>
        <time>2013-12-01T08:26:32Z</time>
      </trkpt>
      <trkpt lat="48.37679" lon="2.53751">
        <ele>78</ele>
        <time>2013-12-01T08:26:33Z</time>
      </trkpt>
      <trkpt lat="48.37671" lon="2.53763">
        <ele>78</ele>
        <time>2013-12-01T08:26:35Z</time>
      </trkpt>
      <trkpt lat="48.37666" lon="2.53767">
        <ele>77.599998474121</ele>
        <time>2013-12-01T08:26:36Z</time>
      </trkpt>
      <trkpt lat="48.37661" lon="2.53772">
        <ele>77.199996948242</ele>
        <time>2013-12-01T08:26:37Z</time>
      </trkpt>
      <trkpt lat="48.37657" lon="2.53778">
        <ele>76.599998474121</ele>
        <time>2013-12-01T08:26:38Z</time>
      </trkpt>
      <trkpt lat="48.37653" lon="2.53786">
        <ele>76.199996948242</ele>
        <time>2013-12-01T08:26:39Z</time>
      </trkpt>
      <trkpt lat="48.3765" lon="2.53795">
        <ele>75.800003051758</ele>
        <time>2013-12-01T08:26:40Z</time>
      </trkpt>
      <trkpt lat="48.37648" lon="2.53802">
        <ele>75.800003051758</ele>
        <time>2013-12-01T08:26:41Z</time>
      </trkpt>
      <trkpt lat="48.37642" lon="2.53811">
        <ele>75.800003051758</ele>
        <time>2013-12-01T08:26:43Z</time>
      </trkpt>
      <trkpt lat="48.37619" lon="2.53812">
        <ele>75.800003051758</ele>
        <time>2013-12-01T08:26:48Z</time>
      </trkpt>
      <trkpt lat="48.37598" lon="2.53797">
        <ele>75.800003051758</ele>
        <time>2013-12-01T08:26:53Z</time>
      </trkpt>
      <trkpt lat="48.37586" lon="2.5379">
        <ele>75.800003051758</ele>
        <time>2013-12-01T08:26:56Z</time>
      </trkpt>
      <trkpt lat="48.37575" lon="2.53784">
        <ele>75.800003051758</ele>
        <time>2013-12-01T08:26:59Z</time>
      </trkpt>
      <trkpt lat="48.37551" lon="2.53768">
        <ele>75.800003051758</ele>
        <time>2013-12-01T08:27:04Z</time>
      </trkpt>
      <trkpt lat="48.3752" lon="2.53742">
        <ele>75.800003051758</ele>
        <time>2013-12-01T08:27:11Z</time>
      </trkpt>
      <trkpt lat="48.37496" lon="2.53724">
        <ele>75.800003051758</ele>
        <time>2013-12-01T08:27:16Z</time>
      </trkpt>
      <trkpt lat="48.37471" lon="2.53703">
        <ele>75.199996948242</ele>
        <time>2013-12-01T08:27:21Z</time>
      </trkpt>
      <trkpt lat="48.37466" lon="2.537">
        <ele>74.800003051758</ele>
        <time>2013-12-01T08:27:22Z</time>
      </trkpt>
      <trkpt lat="48.37461" lon="2.53697">
        <ele>74.199996948242</ele>
        <time>2013-12-01T08:27:23Z</time>
      </trkpt>
      <trkpt lat="48.37455" lon="2.53693">
        <ele>73.800003051758</ele>
        <time>2013-12-01T08:27:24Z</time>
      </trkpt>
      <trkpt lat="48.3745" lon="2.53687">
        <ele>73.199996948242</ele>
        <time>2013-12-01T08:27:25Z</time>
      </trkpt>
      <trkpt lat="48.37437" lon="2.53675">
        <ele>73.199996948242</ele>
        <time>2013-12-01T08:27:28Z</time>
      </trkpt>
      <trkpt lat="48.37427" lon="2.53668">
        <ele>73.199996948242</ele>
        <time>2013-12-01T08:27:30Z</time>
      </trkpt>
      <trkpt lat="48.37408" lon="2.53656">
        <ele>73.199996948242</ele>
        <time>2013-12-01T08:27:34Z</time>
      </trkpt>
      <trkpt lat="48.3738" lon="2.53635">
        <ele>73.199996948242</ele>
        <time>2013-12-01T08:27:40Z</time>
      </trkpt>
      <trkpt lat="48.37372" lon="2.5363">
        <ele>73.199996948242</ele>
        <time>2013-12-01T08:27:42Z</time>
      </trkpt>
      <trkpt lat="48.37344" lon="2.53602">
        <ele>73.199996948242</ele>
        <time>2013-12-01T08:27:49Z</time>
      </trkpt>
      <trkpt lat="48.37335" lon="2.53595">
        <ele>73.199996948242</ele>
        <time>2013-12-01T08:27:51Z</time>
      </trkpt>
      <trkpt lat="48.37322" lon="2.53592">
        <ele>73.199996948242</ele>
        <time>2013-12-01T08:27:54Z</time>
      </trkpt>
      <trkpt lat="48.37317" lon="2.53591">
        <ele>73.199996948242</ele>
        <time>2013-12-01T08:27:55Z</time>
      </trkpt>
      <trkpt lat="48.37289" lon="2.53568">
        <ele>73.199996948242</ele>
        <time>2013-12-01T08:28:02Z</time>
      </trkpt>
      <trkpt lat="48.37276" lon="2.53557">
        <ele>73.199996948242</ele>
        <time>2013-12-01T08:28:05Z</time>
      </trkpt>
      <trkpt lat="48.37268" lon="2.53549">
        <ele>73.199996948242</ele>
        <time>2013-12-01T08:28:07Z</time>
      </trkpt>
      <trkpt lat="48.3724" lon="2.53529">
        <ele>73.199996948242</ele>
        <time>2013-12-01T08:28:13Z</time>
      </trkpt>
      <trkpt lat="48.3723" lon="2.53522">
        <ele>73.199996948242</ele>
        <time>2013-12-01T08:28:15Z</time>
      </trkpt>
      <trkpt lat="48.37207" lon="2.53509">
        <ele>73.199996948242</ele>
        <time>2013-12-01T08:28:19Z</time>
      </trkpt>
      <trkpt lat="48.37203" lon="2.53505">
        <ele>73.199996948242</ele>
        <time>2013-12-01T08:28:20Z</time>
      </trkpt>
      <trkpt lat="48.37187" lon="2.53484">
        <ele>73.199996948242</ele>
        <time>2013-12-01T08:28:24Z</time>
      </trkpt>
      <trkpt lat="48.37182" lon="2.5348">
        <ele>73.199996948242</ele>
        <time>2013-12-01T08:28:25Z</time>
      </trkpt>
      <trkpt lat="48.37168" lon="2.53467">
        <ele>73.199996948242</ele>
        <time>2013-12-01T08:28:28Z</time>
      </trkpt>
      <trkpt lat="48.37149" lon="2.53449">
        <ele>72.800003051758</ele>
        <time>2013-12-01T08:28:32Z</time>
      </trkpt>
      <trkpt lat="48.37144" lon="2.53446">
        <ele>72.400001525879</ele>
        <time>2013-12-01T08:28:33Z</time>
      </trkpt>
      <trkpt lat="48.37139" lon="2.53442">
        <ele>72</ele>
        <time>2013-12-01T08:28:34Z</time>
      </trkpt>
      <trkpt lat="48.37133" lon="2.53439">
        <ele>71.599998474121</ele>
        <time>2013-12-01T08:28:35Z</time>
      </trkpt>
      <trkpt lat="48.37128" lon="2.53437">
        <ele>71.199996948242</ele>
        <time>2013-12-01T08:28:36Z</time>
      </trkpt>
      <trkpt lat="48.37107" lon="2.53425">
        <ele>71.199996948242</ele>
        <time>2013-12-01T08:28:41Z</time>
      </trkpt>
      <trkpt lat="48.37083" lon="2.53405">
        <ele>71.199996948242</ele>
        <time>2013-12-01T08:28:47Z</time>
      </trkpt>
      <trkpt lat="48.37054" lon="2.53378">
        <ele>71.199996948242</ele>
        <time>2013-12-01T08:28:54Z</time>
      </trkpt>
      <trkpt lat="48.37044" lon="2.53371">
        <ele>71.199996948242</ele>
        <time>2013-12-01T08:28:56Z</time>
      </trkpt>
      <trkpt lat="48.37031" lon="2.5336">
        <ele>71.199996948242</ele>
        <time>2013-12-01T08:28:59Z</time>
      </trkpt>
      <trkpt lat="48.37023" lon="2.53352">
        <ele>71.199996948242</ele>
        <time>2013-12-01T08:29:01Z</time>
      </trkpt>
      <trkpt lat="48.37005" lon="2.53336">
        <ele>71.199996948242</ele>
        <time>2013-12-01T08:29:05Z</time>
      </trkpt>
      <trkpt lat="48.3698" lon="2.53313">
        <ele>71.199996948242</ele>
        <time>2013-12-01T08:29:10Z</time>
      </trkpt>
      <trkpt lat="48.36955" lon="2.5329">
        <ele>71.199996948242</ele>
        <time>2013-12-01T08:29:15Z</time>
      </trkpt>
      <trkpt lat="48.36932" lon="2.53269">
        <ele>71.199996948242</ele>
        <time>2013-12-01T08:29:20Z</time>
      </trkpt>
      <trkpt lat="48.36904" lon="2.53242">
        <ele>71.199996948242</ele>
        <time>2013-12-01T08:29:26Z</time>
      </trkpt>
      <trkpt lat="48.36876" lon="2.53209">
        <ele>71.199996948242</ele>
        <time>2013-12-01T08:29:32Z</time>
      </trkpt>
      <trkpt lat="48.36853" lon="2.53181">
        <ele>71.199996948242</ele>
        <time>2013-12-01T08:29:37Z</time>
      </trkpt>
      <trkpt lat="48.36828" lon="2.53152">
        <ele>70.800003051758</ele>
        <time>2013-12-01T08:29:42Z</time>
      </trkpt>
      <trkpt lat="48.36824" lon="2.53145">
        <ele>70.400001525879</ele>
        <time>2013-12-01T08:29:43Z</time>
      </trkpt>
      <trkpt lat="48.36821" lon="2.53138">
        <ele>69.800003051758</ele>
        <time>2013-12-01T08:29:44Z</time>
      </trkpt>
      <trkpt lat="48.36817" lon="2.53131">
        <ele>69.400001525879</ele>
        <time>2013-12-01T08:29:45Z</time>
      </trkpt>
      <trkpt lat="48.36813" lon="2.53125">
        <ele>69</ele>
        <time>2013-12-01T08:29:46Z</time>
      </trkpt>
      <trkpt lat="48.36809" lon="2.53119">
        <ele>69</ele>
        <time>2013-12-01T08:29:47Z</time>
      </trkpt>
      <trkpt lat="48.36794" lon="2.53102">
        <ele>69</ele>
        <time>2013-12-01T08:29:50Z</time>
      </trkpt>
      <trkpt lat="48.36764" lon="2.53064">
        <ele>69</ele>
        <time>2013-12-01T08:29:56Z</time>
      </trkpt>
      <trkpt lat="48.36725" lon="2.53019">
        <ele>69</ele>
        <time>2013-12-01T08:30:03Z</time>
      </trkpt>
      <trkpt lat="48.3669" lon="2.52985">
        <ele>69</ele>
        <time>2013-12-01T08:30:09Z</time>
      </trkpt>
      <trkpt lat="48.36671" lon="2.52967">
        <ele>69</ele>
        <time>2013-12-01T08:30:12Z</time>
      </trkpt>
      <trkpt lat="48.36661" lon="2.52955">
        <ele>69</ele>
        <time>2013-12-01T08:30:14Z</time>
      </trkpt>
      <trkpt lat="48.36634" lon="2.52931">
        <ele>69</ele>
        <time>2013-12-01T08:30:19Z</time>
      </trkpt>
      <trkpt lat="48.36623" lon="2.52922">
        <ele>69</ele>
        <time>2013-12-01T08:30:21Z</time>
      </trkpt>
      <trkpt lat="48.36618" lon="2.52918">
        <ele>69</ele>
        <time>2013-12-01T08:30:22Z</time>
      </trkpt>
      <trkpt lat="48.36598" lon="2.52901">
        <ele>69</ele>
        <time>2013-12-01T08:30:25Z</time>
      </trkpt>
      <trkpt lat="48.36592" lon="2.52896">
        <ele>69</ele>
        <time>2013-12-01T08:30:26Z</time>
      </trkpt>
      <trkpt lat="48.36565" lon="2.5287">
        <ele>69</ele>
        <time>2013-12-01T08:30:31Z</time>
      </trkpt>
      <trkpt lat="48.36538" lon="2.52847">
        <ele>69</ele>
        <time>2013-12-01T08:30:36Z</time>
      </trkpt>
      <trkpt lat="48.365" lon="2.52813">
        <ele>69</ele>
        <time>2013-12-01T08:30:43Z</time>
      </trkpt>
      <trkpt lat="48.36479" lon="2.5279">
        <ele>69</ele>
        <time>2013-12-01T08:30:48Z</time>
      </trkpt>
      <trkpt lat="48.36455" lon="2.52765">
        <ele>69</ele>
        <time>2013-12-01T08:30:53Z</time>
      </trkpt>
      <trkpt lat="48.36429" lon="2.5274">
        <ele>69</ele>
        <time>2013-12-01T08:30:59Z</time>
      </trkpt>
      <trkpt lat="48.36421" lon="2.52733">
        <ele>69</ele>
        <time>2013-12-01T08:31:01Z</time>
      </trkpt>
      <trkpt lat="48.36408" lon="2.52729">
        <ele>69</ele>
        <time>2013-12-01T08:31:04Z</time>
      </trkpt>
      <trkpt lat="48.36396" lon="2.52734">
        <ele>69</ele>
        <time>2013-12-01T08:31:07Z</time>
      </trkpt>
      <trkpt lat="48.36392" lon="2.52739">
        <ele>69</ele>
        <time>2013-12-01T08:31:08Z</time>
      </trkpt>
      <trkpt lat="48.36374" lon="2.52756">
        <ele>69</ele>
        <time>2013-12-01T08:31:12Z</time>
      </trkpt>
      <trkpt lat="48.36369" lon="2.52755">
        <ele>69</ele>
        <time>2013-12-01T08:31:13Z</time>
      </trkpt>
      <trkpt lat="48.36346" lon="2.52758">
        <ele>69</ele>
        <time>2013-12-01T08:31:18Z</time>
      </trkpt>
      <trkpt lat="48.36326" lon="2.5277">
        <ele>69</ele>
        <time>2013-12-01T08:31:23Z</time>
      </trkpt>
      <trkpt lat="48.36304" lon="2.52781">
        <ele>69</ele>
        <time>2013-12-01T08:31:28Z</time>
      </trkpt>
      <trkpt lat="48.36272" lon="2.52793">
        <ele>69</ele>
        <time>2013-12-01T08:31:35Z</time>
      </trkpt>
      <trkpt lat="48.36266" lon="2.52794">
        <ele>69</ele>
        <time>2013-12-01T08:31:36Z</time>
      </trkpt>
      <trkpt lat="48.36248" lon="2.52801">
        <ele>69</ele>
        <time>2013-12-01T08:31:40Z</time>
      </trkpt>
      <trkpt lat="48.36242" lon="2.52814">
        <ele>69</ele>
        <time>2013-12-01T08:31:42Z</time>
      </trkpt>
      <trkpt lat="48.3624" lon="2.52838">
        <ele>69</ele>
        <time>2013-12-01T08:31:45Z</time>
      </trkpt>
      <trkpt lat="48.36245" lon="2.52869">
        <ele>69</ele>
        <time>2013-12-01T08:31:49Z</time>
      </trkpt>
      <trkpt lat="48.36254" lon="2.52906">
        <ele>69</ele>
        <time>2013-12-01T08:31:54Z</time>
      </trkpt>
      <trkpt lat="48.36265" lon="2.52933">
        <ele>69</ele>
        <time>2013-12-01T08:31:58Z</time>
      </trkpt>
      <trkpt lat="48.36268" lon="2.52939">
        <ele>69</ele>
        <time>2013-12-01T08:31:59Z</time>
      </trkpt>
      <trkpt lat="48.3629" lon="2.52986">
        <ele>69</ele>
        <time>2013-12-01T08:32:06Z</time>
      </trkpt>
      <trkpt lat="48.36316" lon="2.53039">
        <ele>69</ele>
        <time>2013-12-01T08:32:14Z</time>
      </trkpt>
      <trkpt lat="48.36329" lon="2.53071">
        <ele>69</ele>
        <time>2013-12-01T08:32:19Z</time>
      </trkpt>
      <trkpt lat="48.36345" lon="2.53095">
        <ele>69</ele>
        <time>2013-12-01T08:32:25Z</time>
      </trkpt>
      <trkpt lat="48.36357" lon="2.53119">
        <ele>69</ele>
        <time>2013-12-01T08:32:31Z</time>
      </trkpt>
      <trkpt lat="48.3636" lon="2.53149">
        <ele>69.400001525879</ele>
        <time>2013-12-01T08:32:36Z</time>
      </trkpt>
      <trkpt lat="48.36362" lon="2.53155">
        <ele>70</ele>
        <time>2013-12-01T08:32:37Z</time>
      </trkpt>
      <trkpt lat="48.36363" lon="2.5316">
        <ele>70.400001525879</ele>
        <time>2013-12-01T08:32:38Z</time>
      </trkpt>
      <trkpt lat="48.36366" lon="2.53165">
        <ele>70.800003051758</ele>
        <time>2013-12-01T08:32:39Z</time>
      </trkpt>
      <trkpt lat="48.36368" lon="2.53171">
        <ele>71.400001525879</ele>
        <time>2013-12-01T08:32:40Z</time>
      </trkpt>
      <trkpt lat="48.36369" lon="2.53176">
        <ele>71.400001525879</ele>
        <time>2013-12-01T08:32:41Z</time>
      </trkpt>
      <trkpt lat="48.36376" lon="2.53216">
        <ele>71.400001525879</ele>
        <time>2013-12-01T08:32:48Z</time>
      </trkpt>
      <trkpt lat="48.36378" lon="2.5323">
        <ele>71.800003051758</ele>
        <time>2013-12-01T08:32:51Z</time>
      </trkpt>
      <trkpt lat="48.36378" lon="2.53233">
        <ele>72.199996948242</ele>
        <time>2013-12-01T08:32:52Z</time>
      </trkpt>
      <trkpt lat="48.36379" lon="2.53238">
        <ele>72.800003051758</ele>
        <time>2013-12-01T08:32:53Z</time>
      </trkpt>
      <trkpt lat="48.3638" lon="2.53243">
        <ele>73.199996948242</ele>
        <time>2013-12-01T08:32:54Z</time>
      </trkpt>
      <trkpt lat="48.3638" lon="2.53247">
        <ele>73.599998474121</ele>
        <time>2013-12-01T08:32:55Z</time>
      </trkpt>
      <trkpt lat="48.3638" lon="2.53274">
        <ele>73.599998474121</ele>
        <time>2013-12-01T08:33:02Z</time>
      </trkpt>
      <trkpt lat="48.36378" lon="2.53282">
        <ele>74</ele>
        <time>2013-12-01T08:33:04Z</time>
      </trkpt>
      <trkpt lat="48.36377" lon="2.53285">
        <ele>74.599998474121</ele>
        <time>2013-12-01T08:33:05Z</time>
      </trkpt>
      <trkpt lat="48.36377" lon="2.53288">
        <ele>75</ele>
        <time>2013-12-01T08:33:06Z</time>
      </trkpt>
      <trkpt lat="48.36376" lon="2.53291">
        <ele>75.400001525879</ele>
        <time>2013-12-01T08:33:07Z</time>
      </trkpt>
      <trkpt lat="48.36375" lon="2.53294">
        <ele>75.800003051758</ele>
        <time>2013-12-01T08:33:08Z</time>
      </trkpt>
      <trkpt lat="48.36371" lon="2.53307">
        <ele>76.199996948242</ele>
        <time>2013-12-01T08:33:12Z</time>
      </trkpt>
      <trkpt lat="48.3637" lon="2.5331">
        <ele>76.599998474121</ele>
        <time>2013-12-01T08:33:13Z</time>
      </trkpt>
      <trkpt lat="48.36369" lon="2.53313">
        <ele>77</ele>
        <time>2013-12-01T08:33:14Z</time>
      </trkpt>
      <trkpt lat="48.36367" lon="2.53318">
        <ele>77.400001525879</ele>
        <time>2013-12-01T08:33:15Z</time>
      </trkpt>
      <trkpt lat="48.36367" lon="2.53322">
        <ele>77.800003051758</ele>
        <time>2013-12-01T08:33:16Z</time>
      </trkpt>
      <trkpt lat="48.36364" lon="2.53337">
        <ele>77.800003051758</ele>
        <time>2013-12-01T08:33:20Z</time>
      </trkpt>
      <trkpt lat="48.36362" lon="2.53346">
        <ele>78.400001525879</ele>
        <time>2013-12-01T08:33:22Z</time>
      </trkpt>
      <trkpt lat="48.3636" lon="2.53349">
        <ele>78.800003051758</ele>
        <time>2013-12-01T08:33:23Z</time>
      </trkpt>
      <trkpt lat="48.36358" lon="2.53352">
        <ele>79.199996948242</ele>
        <time>2013-12-01T08:33:24Z</time>
      </trkpt>
      <trkpt lat="48.36355" lon="2.53359">
        <ele>80</ele>
        <time>2013-12-01T08:33:26Z</time>
      </trkpt>
      <trkpt lat="48.36353" lon="2.53363">
        <ele>80</ele>
        <time>2013-12-01T08:33:27Z</time>
      </trkpt>
      <trkpt lat="48.36344" lon="2.53393">
        <ele>80</ele>
        <time>2013-12-01T08:33:34Z</time>
      </trkpt>
      <trkpt lat="48.36332" lon="2.53415">
        <ele>80</ele>
        <time>2013-12-01T08:33:40Z</time>
      </trkpt>
      <trkpt lat="48.36331" lon="2.53418">
        <ele>80</ele>
        <time>2013-12-01T08:33:41Z</time>
      </trkpt>
      <trkpt lat="48.36329" lon="2.53421">
        <ele>80.599998474121</ele>
        <time>2013-12-01T08:33:42Z</time>
      </trkpt>
      <trkpt lat="48.36329" lon="2.53425">
        <ele>81</ele>
        <time>2013-12-01T08:33:43Z</time>
      </trkpt>
      <trkpt lat="48.36328" lon="2.53429">
        <ele>81.400001525879</ele>
        <time>2013-12-01T08:33:44Z</time>
      </trkpt>
      <trkpt lat="48.36326" lon="2.53433">
        <ele>81.800003051758</ele>
        <time>2013-12-01T08:33:45Z</time>
      </trkpt>
      <trkpt lat="48.36323" lon="2.5344">
        <ele>82.199996948242</ele>
        <time>2013-12-01T08:33:46Z</time>
      </trkpt>
      <trkpt lat="48.36321" lon="2.53447">
        <ele>82.199996948242</ele>
        <time>2013-12-01T08:33:47Z</time>
      </trkpt>
      <trkpt lat="48.36319" lon="2.53477">
        <ele>82.199996948242</ele>
        <time>2013-12-01T08:33:53Z</time>
      </trkpt>
      <trkpt lat="48.36319" lon="2.53527">
        <ele>82.199996948242</ele>
        <time>2013-12-01T08:34:02Z</time>
      </trkpt>
      <trkpt lat="48.36321" lon="2.53549">
        <ele>82.599998474121</ele>
        <time>2013-12-01T08:34:07Z</time>
      </trkpt>
      <trkpt lat="48.36322" lon="2.53554">
        <ele>83</ele>
        <time>2013-12-01T08:34:08Z</time>
      </trkpt>
      <trkpt lat="48.36323" lon="2.53558">
        <ele>83.400001525879</ele>
        <time>2013-12-01T08:34:09Z</time>
      </trkpt>
      <trkpt lat="48.36324" lon="2.53562">
        <ele>83.800003051758</ele>
        <time>2013-12-01T08:34:10Z</time>
      </trkpt>
      <trkpt lat="48.36327" lon="2.53572">
        <ele>84.199996948242</ele>
        <time>2013-12-01T08:34:12Z</time>
      </trkpt>
      <trkpt lat="48.3633" lon="2.5358">
        <ele>84.199996948242</ele>
        <time>2013-12-01T08:34:14Z</time>
      </trkpt>
      <trkpt lat="48.36339" lon="2.53594">
        <ele>84.199996948242</ele>
        <time>2013-12-01T08:34:18Z</time>
      </trkpt>
      <trkpt lat="48.36342" lon="2.53597">
        <ele>84.199996948242</ele>
        <time>2013-12-01T08:34:19Z</time>
      </trkpt>
      <trkpt lat="48.36357" lon="2.53621">
        <ele>84.199996948242</ele>
        <time>2013-12-01T08:34:26Z</time>
      </trkpt>
      <trkpt lat="48.3637" lon="2.53639">
        <ele>84.199996948242</ele>
        <time>2013-12-01T08:34:31Z</time>
      </trkpt>
      <trkpt lat="48.36383" lon="2.53652">
        <ele>84.800003051758</ele>
        <time>2013-12-01T08:34:36Z</time>
      </trkpt>
      <trkpt lat="48.36385" lon="2.53654">
        <ele>85.199996948242</ele>
        <time>2013-12-01T08:34:37Z</time>
      </trkpt>
      <trkpt lat="48.36388" lon="2.53656">
        <ele>85.599998474121</ele>
        <time>2013-12-01T08:34:38Z</time>
      </trkpt>
      <trkpt lat="48.36391" lon="2.53658">
        <ele>86.199996948242</ele>
        <time>2013-12-01T08:34:39Z</time>
      </trkpt>
      <trkpt lat="48.36393" lon="2.53659">
        <ele>86.599998474121</ele>
        <time>2013-12-01T08:34:40Z</time>
      </trkpt>
      <trkpt lat="48.36403" lon="2.53655">
        <ele>86.599998474121</ele>
        <time>2013-12-01T08:34:44Z</time>
      </trkpt>
      <trkpt lat="48.36412" lon="2.53646">
        <ele>87</ele>
        <time>2013-12-01T08:34:49Z</time>
      </trkpt>
      <trkpt lat="48.36415" lon="2.53645">
        <ele>87.400001525879</ele>
        <time>2013-12-01T08:34:50Z</time>
      </trkpt>
      <trkpt lat="48.36418" lon="2.53644">
        <ele>87.800003051758</ele>
        <time>2013-12-01T08:34:51Z</time>
      </trkpt>
      <trkpt lat="48.36421" lon="2.53643">
        <ele>88.400001525879</ele>
        <time>2013-12-01T08:34:52Z</time>
      </trkpt>
      <trkpt lat="48.36424" lon="2.53642">
        <ele>88.800003051758</ele>
        <time>2013-12-01T08:34:53Z</time>
      </trkpt>
      <trkpt lat="48.36443" lon="2.53636">
        <ele>88.800003051758</ele>
        <time>2013-12-01T08:35:01Z</time>
      </trkpt>
      <trkpt lat="48.36449" lon="2.53638">
        <ele>89.199996948242</ele>
        <time>2013-12-01T08:35:03Z</time>
      </trkpt>
      <trkpt lat="48.36452" lon="2.53638">
        <ele>89.599998474121</ele>
        <time>2013-12-01T08:35:04Z</time>
      </trkpt>
      <trkpt lat="48.36454" lon="2.53638">
        <ele>90</ele>
        <time>2013-12-01T08:35:05Z</time>
      </trkpt>
      <trkpt lat="48.36456" lon="2.53637">
        <ele>90.599998474121</ele>
        <time>2013-12-01T08:35:06Z</time>
      </trkpt>
      <trkpt lat="48.36458" lon="2.53636">
        <ele>91</ele>
        <time>2013-12-01T08:35:07Z</time>
      </trkpt>
      <trkpt lat="48.36462" lon="2.53632">
        <ele>91</ele>
        <time>2013-12-01T08:35:09Z</time>
      </trkpt>
      <trkpt lat="48.36473" lon="2.53625">
        <ele>91</ele>
        <time>2013-12-01T08:35:13Z</time>
      </trkpt>
      <trkpt lat="48.36495" lon="2.53611">
        <ele>91</ele>
        <time>2013-12-01T08:35:18Z</time>
      </trkpt>
      <trkpt lat="48.36501" lon="2.53613">
        <ele>91</ele>
        <time>2013-12-01T08:35:19Z</time>
      </trkpt>
      <trkpt lat="48.36509" lon="2.53616">
        <ele>91</ele>
        <time>2013-12-01T08:35:21Z</time>
      </trkpt>
      <trkpt lat="48.36523" lon="2.53624">
        <ele>91</ele>
        <time>2013-12-01T08:35:26Z</time>
      </trkpt>
      <trkpt lat="48.36525" lon="2.53623">
        <ele>91</ele>
        <time>2013-12-01T08:35:27Z</time>
      </trkpt>
      <trkpt lat="48.36533" lon="2.53618">
        <ele>91</ele>
        <time>2013-12-01T08:35:30Z</time>
      </trkpt>
      <trkpt lat="48.36544" lon="2.53619">
        <ele>91</ele>
        <time>2013-12-01T08:35:33Z</time>
      </trkpt>
      <trkpt lat="48.36547" lon="2.53623">
        <ele>91</ele>
        <time>2013-12-01T08:35:34Z</time>
      </trkpt>
      <trkpt lat="48.36557" lon="2.53634">
        <ele>91</ele>
        <time>2013-12-01T08:35:37Z</time>
      </trkpt>
      <trkpt lat="48.36569" lon="2.53649">
        <ele>91</ele>
        <time>2013-12-01T08:35:41Z</time>
      </trkpt>
      <trkpt lat="48.36581" lon="2.53673">
        <ele>91</ele>
        <time>2013-12-01T08:35:46Z</time>
      </trkpt>
      <trkpt lat="48.36591" lon="2.53693">
        <ele>91</ele>
        <time>2013-12-01T08:35:50Z</time>
      </trkpt>
      <trkpt lat="48.36591" lon="2.53699">
        <ele>91</ele>
        <time>2013-12-01T08:35:51Z</time>
      </trkpt>
      <trkpt lat="48.36591" lon="2.53705">
        <ele>91</ele>
        <time>2013-12-01T08:35:52Z</time>
      </trkpt>
      <trkpt lat="48.36591" lon="2.53717">
        <ele>91</ele>
        <time>2013-12-01T08:35:54Z</time>
      </trkpt>
      <trkpt lat="48.36597" lon="2.53738">
        <ele>91</ele>
        <time>2013-12-01T08:35:58Z</time>
      </trkpt>
      <trkpt lat="48.366" lon="2.5376">
        <ele>91</ele>
        <time>2013-12-01T08:36:02Z</time>
      </trkpt>
      <trkpt lat="48.36602" lon="2.5377">
        <ele>91</ele>
        <time>2013-12-01T08:36:04Z</time>
      </trkpt>
      <trkpt lat="48.36607" lon="2.53789">
        <ele>91</ele>
        <time>2013-12-01T08:36:08Z</time>
      </trkpt>
      <trkpt lat="48.36616" lon="2.5381">
        <ele>91</ele>
        <time>2013-12-01T08:36:12Z</time>
      </trkpt>
      <trkpt lat="48.36626" lon="2.53837">
        <ele>91.400001525879</ele>
        <time>2013-12-01T08:36:18Z</time>
      </trkpt>
      <trkpt lat="48.36627" lon="2.53841">
        <ele>91.800003051758</ele>
        <time>2013-12-01T08:36:19Z</time>
      </trkpt>
      <trkpt lat="48.36629" lon="2.53847">
        <ele>92.199996948242</ele>
        <time>2013-12-01T08:36:20Z</time>
      </trkpt>
      <trkpt lat="48.3663" lon="2.53852">
        <ele>92.599998474121</ele>
        <time>2013-12-01T08:36:21Z</time>
      </trkpt>
      <trkpt lat="48.36631" lon="2.53857">
        <ele>93</ele>
        <time>2013-12-01T08:36:22Z</time>
      </trkpt>
      <trkpt lat="48.36634" lon="2.53867">
        <ele>93</ele>
        <time>2013-12-01T08:36:24Z</time>
      </trkpt>
      <trkpt lat="48.36634" lon="2.53907">
        <ele>93</ele>
        <time>2013-12-01T08:36:32Z</time>
      </trkpt>
      <trkpt lat="48.36626" lon="2.53928">
        <ele>93.599998474121</ele>
        <time>2013-12-01T08:36:37Z</time>
      </trkpt>
      <trkpt lat="48.36623" lon="2.53932">
        <ele>94</ele>
        <time>2013-12-01T08:36:38Z</time>
      </trkpt>
      <trkpt lat="48.36621" lon="2.53935">
        <ele>94.400001525879</ele>
        <time>2013-12-01T08:36:39Z</time>
      </trkpt>
      <trkpt lat="48.36619" lon="2.53939">
        <ele>94.800003051758</ele>
        <time>2013-12-01T08:36:40Z</time>
      </trkpt>
      <trkpt lat="48.36618" lon="2.53943">
        <ele>95.199996948242</ele>
        <time>2013-12-01T08:36:41Z</time>
      </trkpt>
      <trkpt lat="48.36615" lon="2.5395">
        <ele>95.199996948242</ele>
        <time>2013-12-01T08:36:43Z</time>
      </trkpt>
      <trkpt lat="48.36611" lon="2.53965">
        <ele>95.599998474121</ele>
        <time>2013-12-01T08:36:47Z</time>
      </trkpt>
      <trkpt lat="48.3661" lon="2.53967">
        <ele>96.199996948242</ele>
        <time>2013-12-01T08:36:48Z</time>
      </trkpt>
      <trkpt lat="48.36609" lon="2.53971">
        <ele>96.599998474121</ele>
        <time>2013-12-01T08:36:49Z</time>
      </trkpt>
      <trkpt lat="48.36609" lon="2.53974">
        <ele>97</ele>
        <time>2013-12-01T08:36:50Z</time>
      </trkpt>
      <trkpt lat="48.36607" lon="2.53978">
        <ele>97.400001525879</ele>
        <time>2013-12-01T08:36:51Z</time>
      </trkpt>
      <trkpt lat="48.36604" lon="2.54003">
        <ele>97.400001525879</ele>
        <time>2013-12-01T08:36:57Z</time>
      </trkpt>
      <trkpt lat="48.36602" lon="2.5401">
        <ele>97.800003051758</ele>
        <time>2013-12-01T08:36:59Z</time>
      </trkpt>
      <trkpt lat="48.36602" lon="2.54013">
        <ele>98.400001525879</ele>
        <time>2013-12-01T08:37:00Z</time>
      </trkpt>
      <trkpt lat="48.36601" lon="2.54016">
        <ele>98.800003051758</ele>
        <time>2013-12-01T08:37:01Z</time>
      </trkpt>
      <trkpt lat="48.366" lon="2.54019">
        <ele>99.199996948242</ele>
        <time>2013-12-01T08:37:02Z</time>
      </trkpt>
      <trkpt lat="48.366" lon="2.54021">
        <ele>99.599998474121</ele>
        <time>2013-12-01T08:37:03Z</time>
      </trkpt>
      <trkpt lat="48.36599" lon="2.54026">
        <ele>99.599998474121</ele>
        <time>2013-12-01T08:37:05Z</time>
      </trkpt>
      <trkpt lat="48.36597" lon="2.54041">
        <ele>99.599998474121</ele>
        <time>2013-12-01T08:37:11Z</time>
      </trkpt>
      <trkpt lat="48.36598" lon="2.54043">
        <ele>100.19999694824</ele>
        <time>2013-12-01T08:37:12Z</time>
      </trkpt>
      <trkpt lat="48.36598" lon="2.54046">
        <ele>100.59999847412</ele>
        <time>2013-12-01T08:37:13Z</time>
      </trkpt>
      <trkpt lat="48.36598" lon="2.54048">
        <ele>101</ele>
        <time>2013-12-01T08:37:14Z</time>
      </trkpt>
      <trkpt lat="48.36597" lon="2.5405">
        <ele>101.40000152588</ele>
        <time>2013-12-01T08:37:15Z</time>
      </trkpt>
      <trkpt lat="48.36597" lon="2.54051">
        <ele>101.80000305176</ele>
        <time>2013-12-01T08:37:16Z</time>
      </trkpt>
      <trkpt lat="48.36597" lon="2.54053">
        <ele>101.80000305176</ele>
        <time>2013-12-01T08:37:17Z</time>
      </trkpt>
      <trkpt lat="48.36594" lon="2.54069">
        <ele>102.19999694824</ele>
        <time>2013-12-01T08:37:24Z</time>
      </trkpt>
      <trkpt lat="48.36594" lon="2.54071">
        <ele>102.59999847412</ele>
        <time>2013-12-01T08:37:25Z</time>
      </trkpt>
      <trkpt lat="48.36594" lon="2.54074">
        <ele>103</ele>
        <time>2013-12-01T08:37:26Z</time>
      </trkpt>
      <trkpt lat="48.36594" lon="2.54075">
        <ele>103.40000152588</ele>
        <time>2013-12-01T08:37:27Z</time>
      </trkpt>
      <trkpt lat="48.36593" lon="2.54077">
        <ele>103.80000305176</ele>
        <time>2013-12-01T08:37:28Z</time>
      </trkpt>
      <trkpt lat="48.36592" lon="2.54078">
        <ele>103.80000305176</ele>
        <time>2013-12-01T08:37:29Z</time>
      </trkpt>
      <trkpt lat="48.3659" lon="2.54086">
        <ele>104.19999694824</ele>
        <time>2013-12-01T08:37:34Z</time>
      </trkpt>
      <trkpt lat="48.3659" lon="2.54088">
        <ele>104.59999847412</ele>
        <time>2013-12-01T08:37:35Z</time>
      </trkpt>
      <trkpt lat="48.3659" lon="2.54089">
        <ele>105</ele>
        <time>2013-12-01T08:37:36Z</time>
      </trkpt>
      <trkpt lat="48.3659" lon="2.54091">
        <ele>105.40000152588</ele>
        <time>2013-12-01T08:37:37Z</time>
      </trkpt>
      <trkpt lat="48.3659" lon="2.54094">
        <ele>106</ele>
        <time>2013-12-01T08:37:39Z</time>
      </trkpt>
      <trkpt lat="48.3659" lon="2.54096">
        <ele>106.40000152588</ele>
        <time>2013-12-01T08:37:40Z</time>
      </trkpt>
      <trkpt lat="48.3659" lon="2.54097">
        <ele>106.80000305176</ele>
        <time>2013-12-01T08:37:41Z</time>
      </trkpt>
      <trkpt lat="48.36589" lon="2.54098">
        <ele>107.40000152588</ele>
        <time>2013-12-01T08:37:42Z</time>
      </trkpt>
      <trkpt lat="48.36589" lon="2.54098">
        <ele>107.80000305176</ele>
        <time>2013-12-01T08:37:43Z</time>
      </trkpt>
      <trkpt lat="48.36589" lon="2.54098">
        <ele>108.19999694824</ele>
        <time>2013-12-01T08:37:44Z</time>
      </trkpt>
      <trkpt lat="48.36589" lon="2.54098">
        <ele>108.80000305176</ele>
        <time>2013-12-01T08:37:49Z</time>
      </trkpt>
      <trkpt lat="48.36589" lon="2.54098">
        <ele>109.19999694824</ele>
        <time>2013-12-01T08:37:50Z</time>
      </trkpt>
      <trkpt lat="48.36589" lon="2.54098">
        <ele>109.59999847412</ele>
        <time>2013-12-01T08:37:51Z</time>
      </trkpt>
      <trkpt lat="48.36589" lon="2.54098">
        <ele>110</ele>
        <time>2013-12-01T08:37:52Z</time>
      </trkpt>
      <trkpt lat="48.36589" lon="2.54098">
        <ele>110.59999847412</ele>
        <time>2013-12-01T08:37:53Z</time>
      </trkpt>
      <trkpt lat="48.36591" lon="2.54104">
        <ele>110.59999847412</ele>
        <time>2013-12-01T08:38:05Z</time>
      </trkpt>
      <trkpt lat="48.36592" lon="2.54112">
        <ele>110.59999847412</ele>
        <time>2013-12-01T08:38:06Z</time>
      </trkpt>
      <trkpt lat="48.366" lon="2.54133">
        <ele>111</ele>
        <time>2013-12-01T08:38:11Z</time>
      </trkpt>
      <trkpt lat="48.36601" lon="2.54136">
        <ele>111.40000152588</ele>
        <time>2013-12-01T08:38:12Z</time>
      </trkpt>
      <trkpt lat="48.36602" lon="2.5414">
        <ele>111.80000305176</ele>
        <time>2013-12-01T08:38:13Z</time>
      </trkpt>
      <trkpt lat="48.36602" lon="2.54143">
        <ele>112.19999694824</ele>
        <time>2013-12-01T08:38:14Z</time>
      </trkpt>
      <trkpt lat="48.36602" lon="2.54146">
        <ele>112.59999847412</ele>
        <time>2013-12-01T08:38:15Z</time>
      </trkpt>
      <trkpt lat="48.36604" lon="2.54164">
        <ele>112.59999847412</ele>
        <time>2013-12-01T08:38:21Z</time>
      </trkpt>
      <trkpt lat="48.36612" lon="2.54188">
        <ele>112.59999847412</ele>
        <time>2013-12-01T08:38:28Z</time>
      </trkpt>
      <trkpt lat="48.36611" lon="2.54194">
        <ele>112.59999847412</ele>
        <time>2013-12-01T08:38:30Z</time>
      </trkpt>
      <trkpt lat="48.36609" lon="2.54201">
        <ele>112.59999847412</ele>
        <time>2013-12-01T08:38:33Z</time>
      </trkpt>
      <trkpt lat="48.36607" lon="2.54204">
        <ele>112.59999847412</ele>
        <time>2013-12-01T08:38:34Z</time>
      </trkpt>
      <trkpt lat="48.36604" lon="2.54219">
        <ele>112.59999847412</ele>
        <time>2013-12-01T08:38:40Z</time>
      </trkpt>
      <trkpt lat="48.36597" lon="2.54235">
        <ele>113</ele>
        <time>2013-12-01T08:38:46Z</time>
      </trkpt>
      <trkpt lat="48.36596" lon="2.54238">
        <ele>113.40000152588</ele>
        <time>2013-12-01T08:38:47Z</time>
      </trkpt>
      <trkpt lat="48.36595" lon="2.54241">
        <ele>113.80000305176</ele>
        <time>2013-12-01T08:38:48Z</time>
      </trkpt>
      <trkpt lat="48.36594" lon="2.54244">
        <ele>114.19999694824</ele>
        <time>2013-12-01T08:38:49Z</time>
      </trkpt>
      <trkpt lat="48.36592" lon="2.54246">
        <ele>114.59999847412</ele>
        <time>2013-12-01T08:38:50Z</time>
      </trkpt>
      <trkpt lat="48.36586" lon="2.54261">
        <ele>114.59999847412</ele>
        <time>2013-12-01T08:38:56Z</time>
      </trkpt>
      <trkpt lat="48.36586" lon="2.54264">
        <ele>114.59999847412</ele>
        <time>2013-12-01T08:38:57Z</time>
      </trkpt>
      <trkpt lat="48.36582" lon="2.54273">
        <ele>114.59999847412</ele>
        <time>2013-12-01T08:39:00Z</time>
      </trkpt>
      <trkpt lat="48.36577" lon="2.54282">
        <ele>114.59999847412</ele>
        <time>2013-12-01T08:39:04Z</time>
      </trkpt>
      <trkpt lat="48.36575" lon="2.54286">
        <ele>115</ele>
        <time>2013-12-01T08:39:06Z</time>
      </trkpt>
      <trkpt lat="48.36573" lon="2.54288">
        <ele>115.40000152588</ele>
        <time>2013-12-01T08:39:07Z</time>
      </trkpt>
      <trkpt lat="48.36572" lon="2.54291">
        <ele>115.80000305176</ele>
        <time>2013-12-01T08:39:08Z</time>
      </trkpt>
      <trkpt lat="48.36569" lon="2.54294">
        <ele>116.19999694824</ele>
        <time>2013-12-01T08:39:09Z</time>
      </trkpt>
      <trkpt lat="48.36568" lon="2.54296">
        <ele>116.59999847412</ele>
        <time>2013-12-01T08:39:10Z</time>
      </trkpt>
      <trkpt lat="48.36564" lon="2.54303">
        <ele>116.59999847412</ele>
        <time>2013-12-01T08:39:12Z</time>
      </trkpt>
      <trkpt lat="48.36552" lon="2.54318">
        <ele>116.59999847412</ele>
        <time>2013-12-01T08:39:18Z</time>
      </trkpt>
      <trkpt lat="48.36535" lon="2.54331">
        <ele>116.59999847412</ele>
        <time>2013-12-01T08:39:24Z</time>
      </trkpt>
      <trkpt lat="48.36521" lon="2.54343">
        <ele>116.59999847412</ele>
        <time>2013-12-01T08:39:29Z</time>
      </trkpt>
      <trkpt lat="48.36508" lon="2.54377">
        <ele>116.59999847412</ele>
        <time>2013-12-01T08:39:37Z</time>
      </trkpt>
      <trkpt lat="48.3651" lon="2.54408">
        <ele>116.59999847412</ele>
        <time>2013-12-01T08:39:42Z</time>
      </trkpt>
      <trkpt lat="48.36515" lon="2.54436">
        <ele>116.59999847412</ele>
        <time>2013-12-01T08:39:46Z</time>
      </trkpt>
      <trkpt lat="48.36516" lon="2.54458">
        <ele>116.59999847412</ele>
        <time>2013-12-01T08:39:49Z</time>
      </trkpt>
      <trkpt lat="48.36517" lon="2.54472">
        <ele>116.59999847412</ele>
        <time>2013-12-01T08:39:51Z</time>
      </trkpt>
      <trkpt lat="48.36517" lon="2.54479">
        <ele>116.59999847412</ele>
        <time>2013-12-01T08:39:52Z</time>
      </trkpt>
      <trkpt lat="48.36517" lon="2.54507">
        <ele>116.59999847412</ele>
        <time>2013-12-01T08:39:56Z</time>
      </trkpt>
      <trkpt lat="48.36518" lon="2.54546">
        <ele>116.59999847412</ele>
        <time>2013-12-01T08:40:01Z</time>
      </trkpt>
      <trkpt lat="48.36518" lon="2.54552">
        <ele>116.59999847412</ele>
        <time>2013-12-01T08:40:02Z</time>
      </trkpt>
      <trkpt lat="48.36519" lon="2.54609">
        <ele>116.59999847412</ele>
        <time>2013-12-01T08:40:10Z</time>
      </trkpt>
      <trkpt lat="48.36528" lon="2.54645">
        <ele>116.59999847412</ele>
        <time>2013-12-01T08:40:14Z</time>
      </trkpt>
      <trkpt lat="48.36536" lon="2.54673">
        <ele>116.59999847412</ele>
        <time>2013-12-01T08:40:18Z</time>
      </trkpt>
      <trkpt lat="48.36541" lon="2.54687">
        <ele>116.59999847412</ele>
        <time>2013-12-01T08:40:20Z</time>
      </trkpt>
      <trkpt lat="48.3655" lon="2.54715">
        <ele>116.59999847412</ele>
        <time>2013-12-01T08:40:25Z</time>
      </trkpt>
      <trkpt lat="48.36543" lon="2.54744">
        <ele>116.59999847412</ele>
        <time>2013-12-01T08:40:30Z</time>
      </trkpt>
      <trkpt lat="48.36536" lon="2.54765">
        <ele>116.59999847412</ele>
        <time>2013-12-01T08:40:33Z</time>
      </trkpt>
      <trkpt lat="48.36534" lon="2.5478">
        <ele>116.59999847412</ele>
        <time>2013-12-01T08:40:35Z</time>
      </trkpt>
      <trkpt lat="48.3653" lon="2.54794">
        <ele>116.59999847412</ele>
        <time>2013-12-01T08:40:37Z</time>
      </trkpt>
      <trkpt lat="48.3652" lon="2.54811">
        <ele>116.59999847412</ele>
        <time>2013-12-01T08:40:40Z</time>
      </trkpt>
      <trkpt lat="48.36501" lon="2.5483">
        <ele>116.59999847412</ele>
        <time>2013-12-01T08:40:44Z</time>
      </trkpt>
      <trkpt lat="48.36496" lon="2.54833">
        <ele>116.59999847412</ele>
        <time>2013-12-01T08:40:45Z</time>
      </trkpt>
      <trkpt lat="48.36485" lon="2.5484">
        <ele>116.59999847412</ele>
        <time>2013-12-01T08:40:47Z</time>
      </trkpt>
      <trkpt lat="48.36476" lon="2.54851">
        <ele>116.59999847412</ele>
        <time>2013-12-01T08:40:49Z</time>
      </trkpt>
      <trkpt lat="48.3644" lon="2.54894">
        <ele>116.59999847412</ele>
        <time>2013-12-01T08:40:56Z</time>
      </trkpt>
      <trkpt lat="48.36435" lon="2.549">
        <ele>116.19999694824</ele>
        <time>2013-12-01T08:40:57Z</time>
      </trkpt>
      <trkpt lat="48.36433" lon="2.54908">
        <ele>115.80000305176</ele>
        <time>2013-12-01T08:40:58Z</time>
      </trkpt>
      <trkpt lat="48.3643" lon="2.54916">
        <ele>115.19999694824</ele>
        <time>2013-12-01T08:40:59Z</time>
      </trkpt>
      <trkpt lat="48.36429" lon="2.54924">
        <ele>114.80000305176</ele>
        <time>2013-12-01T08:41:00Z</time>
      </trkpt>
      <trkpt lat="48.36427" lon="2.54933">
        <ele>114.19999694824</ele>
        <time>2013-12-01T08:41:01Z</time>
      </trkpt>
      <trkpt lat="48.36421" lon="2.5497">
        <ele>114.19999694824</ele>
        <time>2013-12-01T08:41:05Z</time>
      </trkpt>
      <trkpt lat="48.36417" lon="2.54979">
        <ele>114.19999694824</ele>
        <time>2013-12-01T08:41:06Z</time>
      </trkpt>
      <trkpt lat="48.36411" lon="2.54996">
        <ele>114.19999694824</ele>
        <time>2013-12-01T08:41:08Z</time>
      </trkpt>
      <trkpt lat="48.36407" lon="2.55004">
        <ele>113.80000305176</ele>
        <time>2013-12-01T08:41:09Z</time>
      </trkpt>
      <trkpt lat="48.36402" lon="2.55013">
        <ele>113.40000152588</ele>
        <time>2013-12-01T08:41:10Z</time>
      </trkpt>
      <trkpt lat="48.36396" lon="2.55021">
        <ele>113</ele>
        <time>2013-12-01T08:41:11Z</time>
      </trkpt>
      <trkpt lat="48.3639" lon="2.5503">
        <ele>112.40000152588</ele>
        <time>2013-12-01T08:41:12Z</time>
      </trkpt>
      <trkpt lat="48.36383" lon="2.55037">
        <ele>112</ele>
        <time>2013-12-01T08:41:13Z</time>
      </trkpt>
      <trkpt lat="48.36366" lon="2.5506">
        <ele>111.59999847412</ele>
        <time>2013-12-01T08:41:16Z</time>
      </trkpt>
      <trkpt lat="48.36362" lon="2.5507">
        <ele>111.19999694824</ele>
        <time>2013-12-01T08:41:17Z</time>
      </trkpt>
      <trkpt lat="48.3636" lon="2.55082">
        <ele>110.80000305176</ele>
        <time>2013-12-01T08:41:18Z</time>
      </trkpt>
      <trkpt lat="48.36359" lon="2.55094">
        <ele>110.40000152588</ele>
        <time>2013-12-01T08:41:19Z</time>
      </trkpt>
      <trkpt lat="48.36361" lon="2.55106">
        <ele>110</ele>
        <time>2013-12-01T08:41:20Z</time>
      </trkpt>
      <trkpt lat="48.36361" lon="2.55118">
        <ele>109.40000152588</ele>
        <time>2013-12-01T08:41:21Z</time>
      </trkpt>
      <trkpt lat="48.36362" lon="2.55129">
        <ele>109</ele>
        <time>2013-12-01T08:41:22Z</time>
      </trkpt>
      <trkpt lat="48.36362" lon="2.5514">
        <ele>108.40000152588</ele>
        <time>2013-12-01T08:41:23Z</time>
      </trkpt>
      <trkpt lat="48.36361" lon="2.5515">
        <ele>108</ele>
        <time>2013-12-01T08:41:24Z</time>
      </trkpt>
      <trkpt lat="48.36358" lon="2.55171">
        <ele>108</ele>
        <time>2013-12-01T08:41:26Z</time>
      </trkpt>
      <trkpt lat="48.36351" lon="2.55229">
        <ele>108</ele>
        <time>2013-12-01T08:41:32Z</time>
      </trkpt>
      <trkpt lat="48.36344" lon="2.55279">
        <ele>108</ele>
        <time>2013-12-01T08:41:37Z</time>
      </trkpt>
      <trkpt lat="48.36348" lon="2.55319">
        <ele>108</ele>
        <time>2013-12-01T08:41:41Z</time>
      </trkpt>
      <trkpt lat="48.36349" lon="2.55359">
        <ele>108</ele>
        <time>2013-12-01T08:41:45Z</time>
      </trkpt>
      <trkpt lat="48.3635" lon="2.55386">
        <ele>108</ele>
        <time>2013-12-01T08:41:48Z</time>
      </trkpt>
      <trkpt lat="48.36349" lon="2.55395">
        <ele>108</ele>
        <time>2013-12-01T08:41:49Z</time>
      </trkpt>
      <trkpt lat="48.36343" lon="2.55418">
        <ele>108</ele>
        <time>2013-12-01T08:41:52Z</time>
      </trkpt>
      <trkpt lat="48.3634" lon="2.55425">
        <ele>108</ele>
        <time>2013-12-01T08:41:53Z</time>
      </trkpt>
      <trkpt lat="48.36325" lon="2.55458">
        <ele>108</ele>
        <time>2013-12-01T08:41:58Z</time>
      </trkpt>
      <trkpt lat="48.36314" lon="2.55497">
        <ele>108</ele>
        <time>2013-12-01T08:42:04Z</time>
      </trkpt>
      <trkpt lat="48.36312" lon="2.55512">
        <ele>108</ele>
        <time>2013-12-01T08:42:06Z</time>
      </trkpt>
      <trkpt lat="48.36311" lon="2.55526">
        <ele>108</ele>
        <time>2013-12-01T08:42:08Z</time>
      </trkpt>
      <trkpt lat="48.36314" lon="2.55546">
        <ele>108</ele>
        <time>2013-12-01T08:42:11Z</time>
      </trkpt>
      <trkpt lat="48.36316" lon="2.55551">
        <ele>108</ele>
        <time>2013-12-01T08:42:12Z</time>
      </trkpt>
      <trkpt lat="48.36329" lon="2.55572">
        <ele>108</ele>
        <time>2013-12-01T08:42:16Z</time>
      </trkpt>
      <trkpt lat="48.3634" lon="2.55599">
        <ele>108</ele>
        <time>2013-12-01T08:42:20Z</time>
      </trkpt>
      <trkpt lat="48.36347" lon="2.5561">
        <ele>108</ele>
        <time>2013-12-01T08:42:22Z</time>
      </trkpt>
      <trkpt lat="48.36358" lon="2.55622">
        <ele>108</ele>
        <time>2013-12-01T08:42:25Z</time>
      </trkpt>
      <trkpt lat="48.36366" lon="2.55628">
        <ele>108</ele>
        <time>2013-12-01T08:42:27Z</time>
      </trkpt>
      <trkpt lat="48.36383" lon="2.55643">
        <ele>108</ele>
        <time>2013-12-01T08:42:31Z</time>
      </trkpt>
      <trkpt lat="48.36391" lon="2.55655">
        <ele>108</ele>
        <time>2013-12-01T08:42:33Z</time>
      </trkpt>
      <trkpt lat="48.36409" lon="2.55684">
        <ele>108</ele>
        <time>2013-12-01T08:42:38Z</time>
      </trkpt>
      <trkpt lat="48.36414" lon="2.55684">
        <ele>108</ele>
        <time>2013-12-01T08:42:39Z</time>
      </trkpt>
      <trkpt lat="48.36427" lon="2.55682">
        <ele>108</ele>
        <time>2013-12-01T08:42:42Z</time>
      </trkpt>
      <trkpt lat="48.3643" lon="2.55682">
        <ele>108</ele>
        <time>2013-12-01T08:42:43Z</time>
      </trkpt>
      <trkpt lat="48.36437" lon="2.55693">
        <ele>108</ele>
        <time>2013-12-01T08:42:45Z</time>
      </trkpt>
      <trkpt lat="48.36439" lon="2.55701">
        <ele>108</ele>
        <time>2013-12-01T08:42:46Z</time>
      </trkpt>
      <trkpt lat="48.36441" lon="2.55725">
        <ele>108</ele>
        <time>2013-12-01T08:42:49Z</time>
      </trkpt>
      <trkpt lat="48.36442" lon="2.55732">
        <ele>108</ele>
        <time>2013-12-01T08:42:50Z</time>
      </trkpt>
      <trkpt lat="48.36443" lon="2.55752">
        <ele>108</ele>
        <time>2013-12-01T08:42:53Z</time>
      </trkpt>
      <trkpt lat="48.36443" lon="2.55774">
        <ele>108</ele>
        <time>2013-12-01T08:42:56Z</time>
      </trkpt>
      <trkpt lat="48.36443" lon="2.55808">
        <ele>108</ele>
        <time>2013-12-01T08:43:01Z</time>
      </trkpt>
      <trkpt lat="48.3644" lon="2.55846">
        <ele>108</ele>
        <time>2013-12-01T08:43:07Z</time>
      </trkpt>
      <trkpt lat="48.36439" lon="2.55869">
        <ele>108.40000152588</ele>
        <time>2013-12-01T08:43:11Z</time>
      </trkpt>
      <trkpt lat="48.36438" lon="2.55875">
        <ele>108.80000305176</ele>
        <time>2013-12-01T08:43:12Z</time>
      </trkpt>
      <trkpt lat="48.36438" lon="2.5588">
        <ele>109.19999694824</ele>
        <time>2013-12-01T08:43:13Z</time>
      </trkpt>
      <trkpt lat="48.36438" lon="2.55885">
        <ele>109.80000305176</ele>
        <time>2013-12-01T08:43:14Z</time>
      </trkpt>
      <trkpt lat="48.36437" lon="2.5589">
        <ele>110.19999694824</ele>
        <time>2013-12-01T08:43:15Z</time>
      </trkpt>
      <trkpt lat="48.36435" lon="2.55912">
        <ele>110.19999694824</ele>
        <time>2013-12-01T08:43:19Z</time>
      </trkpt>
      <trkpt lat="48.36436" lon="2.55922">
        <ele>110.19999694824</ele>
        <time>2013-12-01T08:43:21Z</time>
      </trkpt>
      <trkpt lat="48.36441" lon="2.55929">
        <ele>110.59999847412</ele>
        <time>2013-12-01T08:43:23Z</time>
      </trkpt>
      <trkpt lat="48.36443" lon="2.55933">
        <ele>111</ele>
        <time>2013-12-01T08:43:24Z</time>
      </trkpt>
      <trkpt lat="48.36446" lon="2.55934">
        <ele>111.40000152588</ele>
        <time>2013-12-01T08:43:25Z</time>
      </trkpt>
      <trkpt lat="48.36448" lon="2.55934">
        <ele>111.80000305176</ele>
        <time>2013-12-01T08:43:26Z</time>
      </trkpt>
      <trkpt lat="48.36451" lon="2.55933">
        <ele>112.19999694824</ele>
        <time>2013-12-01T08:43:27Z</time>
      </trkpt>
      <trkpt lat="48.36464" lon="2.55915">
        <ele>112.19999694824</ele>
        <time>2013-12-01T08:43:31Z</time>
      </trkpt>
      <trkpt lat="48.36472" lon="2.55905">
        <ele>112.19999694824</ele>
        <time>2013-12-01T08:43:33Z</time>
      </trkpt>
      <trkpt lat="48.36483" lon="2.55889">
        <ele>111.80000305176</ele>
        <time>2013-12-01T08:43:36Z</time>
      </trkpt>
      <trkpt lat="48.36487" lon="2.55885">
        <ele>111.40000152588</ele>
        <time>2013-12-01T08:43:37Z</time>
      </trkpt>
      <trkpt lat="48.36491" lon="2.5588">
        <ele>111</ele>
        <time>2013-12-01T08:43:38Z</time>
      </trkpt>
      <trkpt lat="48.36494" lon="2.55875">
        <ele>110.59999847412</ele>
        <time>2013-12-01T08:43:39Z</time>
      </trkpt>
      <trkpt lat="48.36497" lon="2.55871">
        <ele>110.19999694824</ele>
        <time>2013-12-01T08:43:40Z</time>
      </trkpt>
      <trkpt lat="48.36513" lon="2.55853">
        <ele>110.19999694824</ele>
        <time>2013-12-01T08:43:44Z</time>
      </trkpt>
      <trkpt lat="48.36534" lon="2.55824">
        <ele>110.19999694824</ele>
        <time>2013-12-01T08:43:50Z</time>
      </trkpt>
      <trkpt lat="48.36546" lon="2.55799">
        <ele>110.19999694824</ele>
        <time>2013-12-01T08:43:55Z</time>
      </trkpt>
      <trkpt lat="48.36556" lon="2.55776">
        <ele>110.19999694824</ele>
        <time>2013-12-01T08:43:59Z</time>
      </trkpt>
      <trkpt lat="48.36559" lon="2.55772">
        <ele>110.19999694824</ele>
        <time>2013-12-01T08:44:00Z</time>
      </trkpt>
      <trkpt lat="48.36562" lon="2.55767">
        <ele>110.59999847412</ele>
        <time>2013-12-01T08:44:01Z</time>
      </trkpt>
      <trkpt lat="48.36565" lon="2.55764">
        <ele>111</ele>
        <time>2013-12-01T08:44:02Z</time>
      </trkpt>
      <trkpt lat="48.36569" lon="2.55758">
        <ele>111.40000152588</ele>
        <time>2013-12-01T08:44:03Z</time>
      </trkpt>
      <trkpt lat="48.36571" lon="2.55751">
        <ele>112</ele>
        <time>2013-12-01T08:44:04Z</time>
      </trkpt>
      <trkpt lat="48.36573" lon="2.55745">
        <ele>112.40000152588</ele>
        <time>2013-12-01T08:44:05Z</time>
      </trkpt>
      <trkpt lat="48.36592" lon="2.55713">
        <ele>112.40000152588</ele>
        <time>2013-12-01T08:44:11Z</time>
      </trkpt>
      <trkpt lat="48.3662" lon="2.55679">
        <ele>112.40000152588</ele>
        <time>2013-12-01T08:44:18Z</time>
      </trkpt>
      <trkpt lat="48.36638" lon="2.55656">
        <ele>112.40000152588</ele>
        <time>2013-12-01T08:44:23Z</time>
      </trkpt>
      <trkpt lat="48.36661" lon="2.55644">
        <ele>112.40000152588</ele>
        <time>2013-12-01T08:44:29Z</time>
      </trkpt>
      <trkpt lat="48.36666" lon="2.55639">
        <ele>112.40000152588</ele>
        <time>2013-12-01T08:44:31Z</time>
      </trkpt>
      <trkpt lat="48.36672" lon="2.55632">
        <ele>112.40000152588</ele>
        <time>2013-12-01T08:44:33Z</time>
      </trkpt>
      <trkpt lat="48.36674" lon="2.55628">
        <ele>112.80000305176</ele>
        <time>2013-12-01T08:44:34Z</time>
      </trkpt>
      <trkpt lat="48.36677" lon="2.55625">
        <ele>113.19999694824</ele>
        <time>2013-12-01T08:44:35Z</time>
      </trkpt>
      <trkpt lat="48.3668" lon="2.55622">
        <ele>113.59999847412</ele>
        <time>2013-12-01T08:44:36Z</time>
      </trkpt>
      <trkpt lat="48.36682" lon="2.55617">
        <ele>114</ele>
        <time>2013-12-01T08:44:37Z</time>
      </trkpt>
      <trkpt lat="48.36685" lon="2.55614">
        <ele>114.40000152588</ele>
        <time>2013-12-01T08:44:38Z</time>
      </trkpt>
      <trkpt lat="48.36691" lon="2.55606">
        <ele>114.40000152588</ele>
        <time>2013-12-01T08:44:40Z</time>
      </trkpt>
      <trkpt lat="48.36706" lon="2.55583">
        <ele>114.40000152588</ele>
        <time>2013-12-01T08:44:46Z</time>
      </trkpt>
      <trkpt lat="48.36723" lon="2.55562">
        <ele>114.40000152588</ele>
        <time>2013-12-01T08:44:51Z</time>
      </trkpt>
      <trkpt lat="48.36736" lon="2.55543">
        <ele>114.40000152588</ele>
        <time>2013-12-01T08:44:57Z</time>
      </trkpt>
      <trkpt lat="48.36751" lon="2.55529">
        <ele>114.40000152588</ele>
        <time>2013-12-01T08:45:03Z</time>
      </trkpt>
      <trkpt lat="48.36767" lon="2.55518">
        <ele>114.40000152588</ele>
        <time>2013-12-01T08:45:08Z</time>
      </trkpt>
      <trkpt lat="48.36786" lon="2.55503">
        <ele>114.40000152588</ele>
        <time>2013-12-01T08:45:14Z</time>
      </trkpt>
      <trkpt lat="48.36798" lon="2.55492">
        <ele>114.80000305176</ele>
        <time>2013-12-01T08:45:18Z</time>
      </trkpt>
      <trkpt lat="48.36802" lon="2.55489">
        <ele>115.19999694824</ele>
        <time>2013-12-01T08:45:19Z</time>
      </trkpt>
      <trkpt lat="48.36808" lon="2.55484">
        <ele>115.59999847412</ele>
        <time>2013-12-01T08:45:20Z</time>
      </trkpt>
      <trkpt lat="48.36813" lon="2.55481">
        <ele>116</ele>
        <time>2013-12-01T08:45:21Z</time>
      </trkpt>
      <trkpt lat="48.36817" lon="2.55478">
        <ele>116.40000152588</ele>
        <time>2013-12-01T08:45:22Z</time>
      </trkpt>
      <trkpt lat="48.36832" lon="2.55473">
        <ele>116.40000152588</ele>
        <time>2013-12-01T08:45:26Z</time>
      </trkpt>
      <trkpt lat="48.36852" lon="2.55481">
        <ele>116.40000152588</ele>
        <time>2013-12-01T08:45:31Z</time>
      </trkpt>
      <trkpt lat="48.3687" lon="2.55492">
        <ele>116.40000152588</ele>
        <time>2013-12-01T08:45:37Z</time>
      </trkpt>
      <trkpt lat="48.3688" lon="2.55514">
        <ele>116.40000152588</ele>
        <time>2013-12-01T08:45:42Z</time>
      </trkpt>
      <trkpt lat="48.36902" lon="2.55537">
        <ele>116.40000152588</ele>
        <time>2013-12-01T08:45:49Z</time>
      </trkpt>
      <trkpt lat="48.36918" lon="2.55557">
        <ele>117</ele>
        <time>2013-12-01T08:45:55Z</time>
      </trkpt>
      <trkpt lat="48.36921" lon="2.5556">
        <ele>117.40000152588</ele>
        <time>2013-12-01T08:45:56Z</time>
      </trkpt>
      <trkpt lat="48.36925" lon="2.55563">
        <ele>117.80000305176</ele>
        <time>2013-12-01T08:45:57Z</time>
      </trkpt>
      <trkpt lat="48.36928" lon="2.55566">
        <ele>118.40000152588</ele>
        <time>2013-12-01T08:45:58Z</time>
      </trkpt>
      <trkpt lat="48.36931" lon="2.5557">
        <ele>118.80000305176</ele>
        <time>2013-12-01T08:45:59Z</time>
      </trkpt>
      <trkpt lat="48.3694" lon="2.5558">
        <ele>118.80000305176</ele>
        <time>2013-12-01T08:46:02Z</time>
      </trkpt>
      <trkpt lat="48.36958" lon="2.55601">
        <ele>118.80000305176</ele>
        <time>2013-12-01T08:46:08Z</time>
      </trkpt>
      <trkpt lat="48.36956" lon="2.55629">
        <ele>118.80000305176</ele>
        <time>2013-12-01T08:46:14Z</time>
      </trkpt>
      <trkpt lat="48.36953" lon="2.55632">
        <ele>118.80000305176</ele>
        <time>2013-12-01T08:46:15Z</time>
      </trkpt>
      <trkpt lat="48.36949" lon="2.55641">
        <ele>118.80000305176</ele>
        <time>2013-12-01T08:46:17Z</time>
      </trkpt>
      <trkpt lat="48.36934" lon="2.55687">
        <ele>118.80000305176</ele>
        <time>2013-12-01T08:46:25Z</time>
      </trkpt>
      <trkpt lat="48.36922" lon="2.55708">
        <ele>118.80000305176</ele>
        <time>2013-12-01T08:46:30Z</time>
      </trkpt>
      <trkpt lat="48.36908" lon="2.5575">
        <ele>118.80000305176</ele>
        <time>2013-12-01T08:46:37Z</time>
      </trkpt>
      <trkpt lat="48.36894" lon="2.55786">
        <ele>118.80000305176</ele>
        <time>2013-12-01T08:46:43Z</time>
      </trkpt>
      <trkpt lat="48.36879" lon="2.55818">
        <ele>118.80000305176</ele>
        <time>2013-12-01T08:46:49Z</time>
      </trkpt>
      <trkpt lat="48.36871" lon="2.55836">
        <ele>118.80000305176</ele>
        <time>2013-12-01T08:46:52Z</time>
      </trkpt>
      <trkpt lat="48.36863" lon="2.55861">
        <ele>118.80000305176</ele>
        <time>2013-12-01T08:46:55Z</time>
      </trkpt>
      <trkpt lat="48.36856" lon="2.55909">
        <ele>118.80000305176</ele>
        <time>2013-12-01T08:47:02Z</time>
      </trkpt>
      <trkpt lat="48.36858" lon="2.55924">
        <ele>118.80000305176</ele>
        <time>2013-12-01T08:47:04Z</time>
      </trkpt>
      <trkpt lat="48.3686" lon="2.55945">
        <ele>118.80000305176</ele>
        <time>2013-12-01T08:47:07Z</time>
      </trkpt>
      <trkpt lat="48.3686" lon="2.55952">
        <ele>118.80000305176</ele>
        <time>2013-12-01T08:47:08Z</time>
      </trkpt>
      <trkpt lat="48.36859" lon="2.55988">
        <ele>118.40000152588</ele>
        <time>2013-12-01T08:47:13Z</time>
      </trkpt>
      <trkpt lat="48.36858" lon="2.55994">
        <ele>118</ele>
        <time>2013-12-01T08:47:14Z</time>
      </trkpt>
      <trkpt lat="48.36858" lon="2.56001">
        <ele>117.59999847412</ele>
        <time>2013-12-01T08:47:15Z</time>
      </trkpt>
      <trkpt lat="48.36859" lon="2.56007">
        <ele>117.19999694824</ele>
        <time>2013-12-01T08:47:16Z</time>
      </trkpt>
      <trkpt lat="48.36864" lon="2.56019">
        <ele>116.80000305176</ele>
        <time>2013-12-01T08:47:18Z</time>
      </trkpt>
      <trkpt lat="48.36871" lon="2.56029">
        <ele>116.80000305176</ele>
        <time>2013-12-01T08:47:21Z</time>
      </trkpt>
      <trkpt lat="48.36876" lon="2.56031">
        <ele>116.80000305176</ele>
        <time>2013-12-01T08:47:22Z</time>
      </trkpt>
      <trkpt lat="48.36896" lon="2.56052">
        <ele>116.80000305176</ele>
        <time>2013-12-01T08:47:27Z</time>
      </trkpt>
      <trkpt lat="48.3692" lon="2.56077">
        <ele>116.80000305176</ele>
        <time>2013-12-01T08:47:33Z</time>
      </trkpt>
      <trkpt lat="48.3695" lon="2.56094">
        <ele>116.80000305176</ele>
        <time>2013-12-01T08:47:40Z</time>
      </trkpt>
      <trkpt lat="48.36963" lon="2.56089">
        <ele>116.80000305176</ele>
        <time>2013-12-01T08:47:43Z</time>
      </trkpt>
      <trkpt lat="48.36967" lon="2.56085">
        <ele>116.80000305176</ele>
        <time>2013-12-01T08:47:44Z</time>
      </trkpt>
      <trkpt lat="48.3697" lon="2.56079">
        <ele>116.80000305176</ele>
        <time>2013-12-01T08:47:45Z</time>
      </trkpt>
      <trkpt lat="48.36971" lon="2.56071">
        <ele>116.40000152588</ele>
        <time>2013-12-01T08:47:46Z</time>
      </trkpt>
      <trkpt lat="48.36973" lon="2.56064">
        <ele>116</ele>
        <time>2013-12-01T08:47:47Z</time>
      </trkpt>
      <trkpt lat="48.36974" lon="2.56057">
        <ele>115.59999847412</ele>
        <time>2013-12-01T08:47:48Z</time>
      </trkpt>
      <trkpt lat="48.36975" lon="2.5605">
        <ele>115.19999694824</ele>
        <time>2013-12-01T08:47:49Z</time>
      </trkpt>
      <trkpt lat="48.36977" lon="2.56043">
        <ele>114.80000305176</ele>
        <time>2013-12-01T08:47:50Z</time>
      </trkpt>
      <trkpt lat="48.36981" lon="2.56029">
        <ele>114.80000305176</ele>
        <time>2013-12-01T08:47:52Z</time>
      </trkpt>
      <trkpt lat="48.36985" lon="2.56014">
        <ele>114.80000305176</ele>
        <time>2013-12-01T08:47:54Z</time>
      </trkpt>
      <trkpt lat="48.37002" lon="2.55957">
        <ele>114.80000305176</ele>
        <time>2013-12-01T08:48:02Z</time>
      </trkpt>
      <trkpt lat="48.37019" lon="2.55927">
        <ele>114.80000305176</ele>
        <time>2013-12-01T08:48:07Z</time>
      </trkpt>
      <trkpt lat="48.37045" lon="2.55879">
        <ele>114.80000305176</ele>
        <time>2013-12-01T08:48:15Z</time>
      </trkpt>
      <trkpt lat="48.37059" lon="2.55855">
        <ele>114.80000305176</ele>
        <time>2013-12-01T08:48:19Z</time>
      </trkpt>
      <trkpt lat="48.3707" lon="2.55838">
        <ele>114.80000305176</ele>
        <time>2013-12-01T08:48:22Z</time>
      </trkpt>
      <trkpt lat="48.37077" lon="2.55828">
        <ele>114.80000305176</ele>
        <time>2013-12-01T08:48:24Z</time>
      </trkpt>
      <trkpt lat="48.37089" lon="2.55815">
        <ele>114.80000305176</ele>
        <time>2013-12-01T08:48:27Z</time>
      </trkpt>
      <trkpt lat="48.37097" lon="2.55805">
        <ele>114.19999694824</ele>
        <time>2013-12-01T08:48:29Z</time>
      </trkpt>
      <trkpt lat="48.37101" lon="2.55801">
        <ele>113.80000305176</ele>
        <time>2013-12-01T08:48:30Z</time>
      </trkpt>
      <trkpt lat="48.37106" lon="2.55797">
        <ele>113.40000152588</ele>
        <time>2013-12-01T08:48:31Z</time>
      </trkpt>
      <trkpt lat="48.37111" lon="2.55793">
        <ele>113</ele>
        <time>2013-12-01T08:48:32Z</time>
      </trkpt>
      <trkpt lat="48.37115" lon="2.55788">
        <ele>112.40000152588</ele>
        <time>2013-12-01T08:48:33Z</time>
      </trkpt>
      <trkpt lat="48.37127" lon="2.55773">
        <ele>112.40000152588</ele>
        <time>2013-12-01T08:48:36Z</time>
      </trkpt>
      <trkpt lat="48.37134" lon="2.5576">
        <ele>112</ele>
        <time>2013-12-01T08:48:38Z</time>
      </trkpt>
      <trkpt lat="48.37138" lon="2.55754">
        <ele>111.59999847412</ele>
        <time>2013-12-01T08:48:39Z</time>
      </trkpt>
      <trkpt lat="48.37142" lon="2.55747">
        <ele>111.19999694824</ele>
        <time>2013-12-01T08:48:40Z</time>
      </trkpt>
      <trkpt lat="48.37147" lon="2.5574">
        <ele>110.80000305176</ele>
        <time>2013-12-01T08:48:41Z</time>
      </trkpt>
      <trkpt lat="48.37152" lon="2.55734">
        <ele>110.40000152588</ele>
        <time>2013-12-01T08:48:42Z</time>
      </trkpt>
      <trkpt lat="48.37167" lon="2.55715">
        <ele>110</ele>
        <time>2013-12-01T08:48:45Z</time>
      </trkpt>
      <trkpt lat="48.37172" lon="2.55708">
        <ele>109.59999847412</ele>
        <time>2013-12-01T08:48:46Z</time>
      </trkpt>
      <trkpt lat="48.37178" lon="2.55702">
        <ele>109</ele>
        <time>2013-12-01T08:48:47Z</time>
      </trkpt>
      <trkpt lat="48.37183" lon="2.55695">
        <ele>108.59999847412</ele>
        <time>2013-12-01T08:48:48Z</time>
      </trkpt>
      <trkpt lat="48.37188" lon="2.55691">
        <ele>108</ele>
        <time>2013-12-01T08:48:49Z</time>
      </trkpt>
      <trkpt lat="48.37203" lon="2.55675">
        <ele>107.59999847412</ele>
        <time>2013-12-01T08:48:52Z</time>
      </trkpt>
      <trkpt lat="48.37207" lon="2.55668">
        <ele>107.19999694824</ele>
        <time>2013-12-01T08:48:53Z</time>
      </trkpt>
      <trkpt lat="48.37211" lon="2.5566">
        <ele>106.80000305176</ele>
        <time>2013-12-01T08:48:54Z</time>
      </trkpt>
      <trkpt lat="48.37215" lon="2.55653">
        <ele>106.40000152588</ele>
        <time>2013-12-01T08:48:55Z</time>
      </trkpt>
      <trkpt lat="48.37219" lon="2.55645">
        <ele>106</ele>
        <time>2013-12-01T08:48:56Z</time>
      </trkpt>
      <trkpt lat="48.3723" lon="2.5562">
        <ele>106</ele>
        <time>2013-12-01T08:48:59Z</time>
      </trkpt>
      <trkpt lat="48.37235" lon="2.55602">
        <ele>105.59999847412</ele>
        <time>2013-12-01T08:49:01Z</time>
      </trkpt>
      <trkpt lat="48.37237" lon="2.55593">
        <ele>105.19999694824</ele>
        <time>2013-12-01T08:49:02Z</time>
      </trkpt>
      <trkpt lat="48.37239" lon="2.55585">
        <ele>104.80000305176</ele>
        <time>2013-12-01T08:49:03Z</time>
      </trkpt>
      <trkpt lat="48.3724" lon="2.55575">
        <ele>104.40000152588</ele>
        <time>2013-12-01T08:49:04Z</time>
      </trkpt>
      <trkpt lat="48.37241" lon="2.55566">
        <ele>104</ele>
        <time>2013-12-01T08:49:05Z</time>
      </trkpt>
      <trkpt lat="48.37244" lon="2.55548">
        <ele>104</ele>
        <time>2013-12-01T08:49:07Z</time>
      </trkpt>
      <trkpt lat="48.37243" lon="2.55538">
        <ele>104</ele>
        <time>2013-12-01T08:49:09Z</time>
      </trkpt>
      <trkpt lat="48.37241" lon="2.55535">
        <ele>104</ele>
        <time>2013-12-01T08:49:10Z</time>
      </trkpt>
      <trkpt lat="48.37236" lon="2.55534">
        <ele>104</ele>
        <time>2013-12-01T08:49:13Z</time>
      </trkpt>
      <trkpt lat="48.37237" lon="2.55534">
        <ele>104</ele>
        <time>2013-12-01T08:49:14Z</time>
      </trkpt>
      <trkpt lat="48.37238" lon="2.55535">
        <ele>104</ele>
        <time>2013-12-01T08:49:19Z</time>
      </trkpt>
      <trkpt lat="48.37237" lon="2.55535">
        <ele>104</ele>
        <time>2013-12-01T08:49:29Z</time>
      </trkpt>
      <trkpt lat="48.37235" lon="2.55536">
        <ele>104</ele>
        <time>2013-12-01T08:49:35Z</time>
      </trkpt>
      <trkpt lat="48.3723" lon="2.55535">
        <ele>104</ele>
        <time>2013-12-01T08:49:37Z</time>
      </trkpt>
      <trkpt lat="48.3722" lon="2.55534">
        <ele>104.40000152588</ele>
        <time>2013-12-01T08:49:41Z</time>
      </trkpt>
      <trkpt lat="48.37217" lon="2.55533">
        <ele>104.80000305176</ele>
        <time>2013-12-01T08:49:42Z</time>
      </trkpt>
      <trkpt lat="48.37215" lon="2.55532">
        <ele>105.19999694824</ele>
        <time>2013-12-01T08:49:43Z</time>
      </trkpt>
      <trkpt lat="48.37213" lon="2.55531">
        <ele>105.59999847412</ele>
        <time>2013-12-01T08:49:44Z</time>
      </trkpt>
      <trkpt lat="48.37211" lon="2.55531">
        <ele>106</ele>
        <time>2013-12-01T08:49:45Z</time>
      </trkpt>
      <trkpt lat="48.37209" lon="2.5553">
        <ele>106.40000152588</ele>
        <time>2013-12-01T08:49:46Z</time>
      </trkpt>
      <trkpt lat="48.37207" lon="2.5553">
        <ele>106.80000305176</ele>
        <time>2013-12-01T08:49:47Z</time>
      </trkpt>
      <trkpt lat="48.37202" lon="2.5553">
        <ele>107.19999694824</ele>
        <time>2013-12-01T08:49:49Z</time>
      </trkpt>
      <trkpt lat="48.372" lon="2.5553">
        <ele>107.59999847412</ele>
        <time>2013-12-01T08:49:50Z</time>
      </trkpt>
      <trkpt lat="48.37198" lon="2.55531">
        <ele>108</ele>
        <time>2013-12-01T08:49:51Z</time>
      </trkpt>
      <trkpt lat="48.37194" lon="2.55529">
        <ele>108</ele>
        <time>2013-12-01T08:49:53Z</time>
      </trkpt>
      <trkpt lat="48.37191" lon="2.55525">
        <ele>108.40000152588</ele>
        <time>2013-12-01T08:49:56Z</time>
      </trkpt>
      <trkpt lat="48.37189" lon="2.55523">
        <ele>108.80000305176</ele>
        <time>2013-12-01T08:49:57Z</time>
      </trkpt>
      <trkpt lat="48.37188" lon="2.55522">
        <ele>109.19999694824</ele>
        <time>2013-12-01T08:49:58Z</time>
      </trkpt>
      <trkpt lat="48.37186" lon="2.55521">
        <ele>109.80000305176</ele>
        <time>2013-12-01T08:49:59Z</time>
      </trkpt>
      <trkpt lat="48.37185" lon="2.55521">
        <ele>110.19999694824</ele>
        <time>2013-12-01T08:50:00Z</time>
      </trkpt>
      <trkpt lat="48.37174" lon="2.55519">
        <ele>110.19999694824</ele>
        <time>2013-12-01T08:50:06Z</time>
      </trkpt>
      <trkpt lat="48.37172" lon="2.55519">
        <ele>110.59999847412</ele>
        <time>2013-12-01T08:50:07Z</time>
      </trkpt>
      <trkpt lat="48.3717" lon="2.5552">
        <ele>111.19999694824</ele>
        <time>2013-12-01T08:50:08Z</time>
      </trkpt>
      <trkpt lat="48.37169" lon="2.5552">
        <ele>111.59999847412</ele>
        <time>2013-12-01T08:50:09Z</time>
      </trkpt>
      <trkpt lat="48.37167" lon="2.55521">
        <ele>112.19999694824</ele>
        <time>2013-12-01T08:50:10Z</time>
      </trkpt>
      <trkpt lat="48.37164" lon="2.55518">
        <ele>112.59999847412</ele>
        <time>2013-12-01T08:50:11Z</time>
      </trkpt>
      <trkpt lat="48.37157" lon="2.5551">
        <ele>113.19999694824</ele>
        <time>2013-12-01T08:50:15Z</time>
      </trkpt>
      <trkpt lat="48.37156" lon="2.55508">
        <ele>113.59999847412</ele>
        <time>2013-12-01T08:50:16Z</time>
      </trkpt>
      <trkpt lat="48.37154" lon="2.55507">
        <ele>114</ele>
        <time>2013-12-01T08:50:17Z</time>
      </trkpt>
      <trkpt lat="48.37153" lon="2.55506">
        <ele>114.40000152588</ele>
        <time>2013-12-01T08:50:18Z</time>
      </trkpt>
      <trkpt lat="48.37152" lon="2.55504">
        <ele>114.80000305176</ele>
        <time>2013-12-01T08:50:19Z</time>
      </trkpt>
      <trkpt lat="48.37148" lon="2.55496">
        <ele>114.80000305176</ele>
        <time>2013-12-01T08:50:23Z</time>
      </trkpt>
      <trkpt lat="48.37142" lon="2.55483">
        <ele>114.80000305176</ele>
        <time>2013-12-01T08:50:29Z</time>
      </trkpt>
      <trkpt lat="48.37134" lon="2.5547">
        <ele>115.19999694824</ele>
        <time>2013-12-01T08:50:34Z</time>
      </trkpt>
      <trkpt lat="48.37133" lon="2.55467">
        <ele>115.59999847412</ele>
        <time>2013-12-01T08:50:35Z</time>
      </trkpt>
      <trkpt lat="48.3713" lon="2.55464">
        <ele>116</ele>
        <time>2013-12-01T08:50:36Z</time>
      </trkpt>
      <trkpt lat="48.37128" lon="2.55461">
        <ele>116.40000152588</ele>
        <time>2013-12-01T08:50:37Z</time>
      </trkpt>
      <trkpt lat="48.37126" lon="2.55458">
        <ele>116.80000305176</ele>
        <time>2013-12-01T08:50:38Z</time>
      </trkpt>
      <trkpt lat="48.37111" lon="2.55438">
        <ele>116.80000305176</ele>
        <time>2013-12-01T08:50:43Z</time>
      </trkpt>
      <trkpt lat="48.37089" lon="2.55409">
        <ele>116.80000305176</ele>
        <time>2013-12-01T08:50:50Z</time>
      </trkpt>
      <trkpt lat="48.37076" lon="2.55386">
        <ele>116.80000305176</ele>
        <time>2013-12-01T08:50:55Z</time>
      </trkpt>
      <trkpt lat="48.37057" lon="2.55355">
        <ele>116.80000305176</ele>
        <time>2013-12-01T08:51:01Z</time>
      </trkpt>
      <trkpt lat="48.37035" lon="2.55321">
        <ele>116.80000305176</ele>
        <time>2013-12-01T08:51:08Z</time>
      </trkpt>
      <trkpt lat="48.37009" lon="2.55284">
        <ele>116.80000305176</ele>
        <time>2013-12-01T08:51:15Z</time>
      </trkpt>
      <trkpt lat="48.36992" lon="2.55258">
        <ele>116.80000305176</ele>
        <time>2013-12-01T08:51:20Z</time>
      </trkpt>
      <trkpt lat="48.36978" lon="2.55235">
        <ele>116.80000305176</ele>
        <time>2013-12-01T08:51:25Z</time>
      </trkpt>
      <trkpt lat="48.36985" lon="2.55215">
        <ele>116.80000305176</ele>
        <time>2013-12-01T08:51:29Z</time>
      </trkpt>
      <trkpt lat="48.36993" lon="2.55202">
        <ele>116.80000305176</ele>
        <time>2013-12-01T08:51:31Z</time>
      </trkpt>
      <trkpt lat="48.37001" lon="2.55189">
        <ele>116.80000305176</ele>
        <time>2013-12-01T08:51:33Z</time>
      </trkpt>
      <trkpt lat="48.37022" lon="2.55151">
        <ele>116.80000305176</ele>
        <time>2013-12-01T08:51:39Z</time>
      </trkpt>
      <trkpt lat="48.37025" lon="2.55143">
        <ele>116.80000305176</ele>
        <time>2013-12-01T08:51:40Z</time>
      </trkpt>
      <trkpt lat="48.37033" lon="2.55125">
        <ele>116.80000305176</ele>
        <time>2013-12-01T08:51:42Z</time>
      </trkpt>
      <trkpt lat="48.3704" lon="2.55111">
        <ele>116.40000152588</ele>
        <time>2013-12-01T08:51:44Z</time>
      </trkpt>
      <trkpt lat="48.37043" lon="2.55105">
        <ele>116</ele>
        <time>2013-12-01T08:51:45Z</time>
      </trkpt>
      <trkpt lat="48.37046" lon="2.55098">
        <ele>115.59999847412</ele>
        <time>2013-12-01T08:51:46Z</time>
      </trkpt>
      <trkpt lat="48.37049" lon="2.55093">
        <ele>115.19999694824</ele>
        <time>2013-12-01T08:51:47Z</time>
      </trkpt>
      <trkpt lat="48.37052" lon="2.55087">
        <ele>114.80000305176</ele>
        <time>2013-12-01T08:51:48Z</time>
      </trkpt>
      <trkpt lat="48.37062" lon="2.55069">
        <ele>115.19999694824</ele>
        <time>2013-12-01T08:51:52Z</time>
      </trkpt>
      <trkpt lat="48.37066" lon="2.55065">
        <ele>115.59999847412</ele>
        <time>2013-12-01T08:51:53Z</time>
      </trkpt>
      <trkpt lat="48.37069" lon="2.55062">
        <ele>116</ele>
        <time>2013-12-01T08:51:54Z</time>
      </trkpt>
      <trkpt lat="48.37073" lon="2.55059">
        <ele>116.40000152588</ele>
        <time>2013-12-01T08:51:55Z</time>
      </trkpt>
      <trkpt lat="48.37076" lon="2.55055">
        <ele>116.80000305176</ele>
        <time>2013-12-01T08:51:56Z</time>
      </trkpt>
      <trkpt lat="48.37086" lon="2.55038">
        <ele>116.80000305176</ele>
        <time>2013-12-01T08:52:00Z</time>
      </trkpt>
      <trkpt lat="48.37099" lon="2.55023">
        <ele>116.80000305176</ele>
        <time>2013-12-01T08:52:04Z</time>
      </trkpt>
      <trkpt lat="48.37109" lon="2.55011">
        <ele>116.80000305176</ele>
        <time>2013-12-01T08:52:07Z</time>
      </trkpt>
      <trkpt lat="48.37125" lon="2.54983">
        <ele>116.80000305176</ele>
        <time>2013-12-01T08:52:12Z</time>
      </trkpt>
      <trkpt lat="48.37143" lon="2.54948">
        <ele>116.80000305176</ele>
        <time>2013-12-01T08:52:18Z</time>
      </trkpt>
      <trkpt lat="48.37149" lon="2.54937">
        <ele>116.80000305176</ele>
        <time>2013-12-01T08:52:20Z</time>
      </trkpt>
      <trkpt lat="48.37166" lon="2.54911">
        <ele>116.80000305176</ele>
        <time>2013-12-01T08:52:25Z</time>
      </trkpt>
      <trkpt lat="48.37174" lon="2.54899">
        <ele>116.80000305176</ele>
        <time>2013-12-01T08:52:27Z</time>
      </trkpt>
      <trkpt lat="48.37198" lon="2.54863">
        <ele>116.80000305176</ele>
        <time>2013-12-01T08:52:33Z</time>
      </trkpt>
      <trkpt lat="48.37206" lon="2.54851">
        <ele>116.80000305176</ele>
        <time>2013-12-01T08:52:35Z</time>
      </trkpt>
      <trkpt lat="48.37217" lon="2.54832">
        <ele>116.80000305176</ele>
        <time>2013-12-01T08:52:38Z</time>
      </trkpt>
      <trkpt lat="48.37223" lon="2.54821">
        <ele>116.80000305176</ele>
        <time>2013-12-01T08:52:40Z</time>
      </trkpt>
      <trkpt lat="48.37235" lon="2.54803">
        <ele>116.40000152588</ele>
        <time>2013-12-01T08:52:43Z</time>
      </trkpt>
      <trkpt lat="48.37241" lon="2.54796">
        <ele>115.80000305176</ele>
        <time>2013-12-01T08:52:44Z</time>
      </trkpt>
      <trkpt lat="48.37246" lon="2.54789">
        <ele>115.40000152588</ele>
        <time>2013-12-01T08:52:45Z</time>
      </trkpt>
      <trkpt lat="48.37251" lon="2.54784">
        <ele>114.80000305176</ele>
        <time>2013-12-01T08:52:46Z</time>
      </trkpt>
      <trkpt lat="48.37255" lon="2.54778">
        <ele>114.19999694824</ele>
        <time>2013-12-01T08:52:47Z</time>
      </trkpt>
      <trkpt lat="48.37259" lon="2.5477">
        <ele>113.80000305176</ele>
        <time>2013-12-01T08:52:48Z</time>
      </trkpt>
      <trkpt lat="48.37263" lon="2.5476">
        <ele>113.19999694824</ele>
        <time>2013-12-01T08:52:49Z</time>
      </trkpt>
      <trkpt lat="48.37269" lon="2.5475">
        <ele>112.40000152588</ele>
        <time>2013-12-01T08:52:50Z</time>
      </trkpt>
      <trkpt lat="48.37273" lon="2.54741">
        <ele>111.59999847412</ele>
        <time>2013-12-01T08:52:51Z</time>
      </trkpt>
      <trkpt lat="48.37276" lon="2.54733">
        <ele>110.40000152588</ele>
        <time>2013-12-01T08:52:52Z</time>
      </trkpt>
      <trkpt lat="48.37278" lon="2.54725">
        <ele>109.19999694824</ele>
        <time>2013-12-01T08:52:53Z</time>
      </trkpt>
      <trkpt lat="48.3728" lon="2.54717">
        <ele>108</ele>
        <time>2013-12-01T08:52:54Z</time>
      </trkpt>
      <trkpt lat="48.37272" lon="2.54712">
        <ele>106.80000305176</ele>
        <time>2013-12-01T08:52:55Z</time>
      </trkpt>
      <trkpt lat="48.37268" lon="2.54707">
        <ele>105.59999847412</ele>
        <time>2013-12-01T08:52:56Z</time>
      </trkpt>
      <trkpt lat="48.37264" lon="2.54703">
        <ele>105.59999847412</ele>
        <time>2013-12-01T08:52:57Z</time>
      </trkpt>
      <trkpt lat="48.37261" lon="2.54699">
        <ele>105.59999847412</ele>
        <time>2013-12-01T08:52:58Z</time>
      </trkpt>
      <trkpt lat="48.37257" lon="2.54694">
        <ele>105.59999847412</ele>
        <time>2013-12-01T08:52:59Z</time>
      </trkpt>
      <trkpt lat="48.37246" lon="2.54677">
        <ele>105.59999847412</ele>
        <time>2013-12-01T08:53:04Z</time>
      </trkpt>
      <trkpt lat="48.37241" lon="2.54671">
        <ele>106</ele>
        <time>2013-12-01T08:53:06Z</time>
      </trkpt>
      <trkpt lat="48.3724" lon="2.54668">
        <ele>106.40000152588</ele>
        <time>2013-12-01T08:53:07Z</time>
      </trkpt>
      <trkpt lat="48.37238" lon="2.54664">
        <ele>107</ele>
        <time>2013-12-01T08:53:08Z</time>
      </trkpt>
      <trkpt lat="48.37237" lon="2.54661">
        <ele>107.40000152588</ele>
        <time>2013-12-01T08:53:09Z</time>
      </trkpt>
      <trkpt lat="48.37235" lon="2.54659">
        <ele>107.80000305176</ele>
        <time>2013-12-01T08:53:10Z</time>
      </trkpt>
      <trkpt lat="48.37234" lon="2.54657">
        <ele>107.80000305176</ele>
        <time>2013-12-01T08:53:11Z</time>
      </trkpt>
      <trkpt lat="48.37233" lon="2.54654">
        <ele>108.19999694824</ele>
        <time>2013-12-01T08:53:12Z</time>
      </trkpt>
      <trkpt lat="48.37231" lon="2.54651">
        <ele>108.59999847412</ele>
        <time>2013-12-01T08:53:13Z</time>
      </trkpt>
      <trkpt lat="48.37229" lon="2.54648">
        <ele>109</ele>
        <time>2013-12-01T08:53:14Z</time>
      </trkpt>
      <trkpt lat="48.37228" lon="2.54645">
        <ele>109.40000152588</ele>
        <time>2013-12-01T08:53:15Z</time>
      </trkpt>
      <trkpt lat="48.37226" lon="2.54643">
        <ele>109.80000305176</ele>
        <time>2013-12-01T08:53:16Z</time>
      </trkpt>
      <trkpt lat="48.37221" lon="2.54636">
        <ele>110.19999694824</ele>
        <time>2013-12-01T08:53:19Z</time>
      </trkpt>
      <trkpt lat="48.37219" lon="2.54633">
        <ele>110.80000305176</ele>
        <time>2013-12-01T08:53:20Z</time>
      </trkpt>
      <trkpt lat="48.37217" lon="2.54631">
        <ele>111.19999694824</ele>
        <time>2013-12-01T08:53:21Z</time>
      </trkpt>
      <trkpt lat="48.37215" lon="2.54627">
        <ele>111.59999847412</ele>
        <time>2013-12-01T08:53:22Z</time>
      </trkpt>
      <trkpt lat="48.37212" lon="2.54624">
        <ele>112</ele>
        <time>2013-12-01T08:53:23Z</time>
      </trkpt>
      <trkpt lat="48.3721" lon="2.54622">
        <ele>112</ele>
        <time>2013-12-01T08:53:24Z</time>
      </trkpt>
      <trkpt lat="48.37206" lon="2.54614">
        <ele>112.40000152588</ele>
        <time>2013-12-01T08:53:27Z</time>
      </trkpt>
      <trkpt lat="48.37204" lon="2.54611">
        <ele>112.80000305176</ele>
        <time>2013-12-01T08:53:28Z</time>
      </trkpt>
      <trkpt lat="48.37202" lon="2.54609">
        <ele>113.19999694824</ele>
        <time>2013-12-01T08:53:29Z</time>
      </trkpt>
      <trkpt lat="48.37201" lon="2.54606">
        <ele>113.80000305176</ele>
        <time>2013-12-01T08:53:30Z</time>
      </trkpt>
      <trkpt lat="48.37199" lon="2.54604">
        <ele>114.19999694824</ele>
        <time>2013-12-01T08:53:31Z</time>
      </trkpt>
      <trkpt lat="48.37186" lon="2.54586">
        <ele>114.19999694824</ele>
        <time>2013-12-01T08:53:38Z</time>
      </trkpt>
      <trkpt lat="48.37173" lon="2.54562">
        <ele>114.19999694824</ele>
        <time>2013-12-01T08:53:45Z</time>
      </trkpt>
      <trkpt lat="48.37162" lon="2.54544">
        <ele>114.19999694824</ele>
        <time>2013-12-01T08:53:49Z</time>
      </trkpt>
      <trkpt lat="48.37148" lon="2.54528">
        <ele>114.19999694824</ele>
        <time>2013-12-01T08:53:53Z</time>
      </trkpt>
      <trkpt lat="48.37142" lon="2.54524">
        <ele>114.19999694824</ele>
        <time>2013-12-01T08:53:54Z</time>
      </trkpt>
      <trkpt lat="48.37132" lon="2.54517">
        <ele>114.19999694824</ele>
        <time>2013-12-01T08:53:56Z</time>
      </trkpt>
      <trkpt lat="48.37125" lon="2.54505">
        <ele>114.19999694824</ele>
        <time>2013-12-01T08:53:58Z</time>
      </trkpt>
      <trkpt lat="48.37117" lon="2.54486">
        <ele>113.59999847412</ele>
        <time>2013-12-01T08:54:00Z</time>
      </trkpt>
      <trkpt lat="48.37112" lon="2.54479">
        <ele>113</ele>
        <time>2013-12-01T08:54:01Z</time>
      </trkpt>
      <trkpt lat="48.37109" lon="2.54472">
        <ele>112.59999847412</ele>
        <time>2013-12-01T08:54:02Z</time>
      </trkpt>
      <trkpt lat="48.37105" lon="2.54466">
        <ele>112</ele>
        <time>2013-12-01T08:54:03Z</time>
      </trkpt>
      <trkpt lat="48.37102" lon="2.5446">
        <ele>111.40000152588</ele>
        <time>2013-12-01T08:54:04Z</time>
      </trkpt>
      <trkpt lat="48.37096" lon="2.54452">
        <ele>112</ele>
        <time>2013-12-01T08:54:06Z</time>
      </trkpt>
      <trkpt lat="48.37094" lon="2.54449">
        <ele>112.40000152588</ele>
        <time>2013-12-01T08:54:07Z</time>
      </trkpt>
      <trkpt lat="48.37092" lon="2.54446">
        <ele>112.80000305176</ele>
        <time>2013-12-01T08:54:08Z</time>
      </trkpt>
      <trkpt lat="48.3709" lon="2.54444">
        <ele>113.19999694824</ele>
        <time>2013-12-01T08:54:09Z</time>
      </trkpt>
      <trkpt lat="48.37089" lon="2.54442">
        <ele>113.80000305176</ele>
        <time>2013-12-01T08:54:10Z</time>
      </trkpt>
      <trkpt lat="48.37087" lon="2.54439">
        <ele>114.19999694824</ele>
        <time>2013-12-01T08:54:11Z</time>
      </trkpt>
      <trkpt lat="48.37085" lon="2.54436">
        <ele>114.80000305176</ele>
        <time>2013-12-01T08:54:12Z</time>
      </trkpt>
      <trkpt lat="48.37083" lon="2.54433">
        <ele>115.19999694824</ele>
        <time>2013-12-01T08:54:13Z</time>
      </trkpt>
      <trkpt lat="48.37081" lon="2.54431">
        <ele>115.80000305176</ele>
        <time>2013-12-01T08:54:14Z</time>
      </trkpt>
      <trkpt lat="48.37075" lon="2.54423">
        <ele>115.80000305176</ele>
        <time>2013-12-01T08:54:17Z</time>
      </trkpt>
      <trkpt lat="48.37064" lon="2.544">
        <ele>115.80000305176</ele>
        <time>2013-12-01T08:54:23Z</time>
      </trkpt>
      <trkpt lat="48.37051" lon="2.54383">
        <ele>115.80000305176</ele>
        <time>2013-12-01T08:54:28Z</time>
      </trkpt>
      <trkpt lat="48.37038" lon="2.54365">
        <ele>115.80000305176</ele>
        <time>2013-12-01T08:54:33Z</time>
      </trkpt>
      <trkpt lat="48.37024" lon="2.54341">
        <ele>115.80000305176</ele>
        <time>2013-12-01T08:54:38Z</time>
      </trkpt>
      <trkpt lat="48.37002" lon="2.5431">
        <ele>116.19999694824</ele>
        <time>2013-12-01T08:54:46Z</time>
      </trkpt>
      <trkpt lat="48.36999" lon="2.54305">
        <ele>116.59999847412</ele>
        <time>2013-12-01T08:54:47Z</time>
      </trkpt>
      <trkpt lat="48.36996" lon="2.54301">
        <ele>117</ele>
        <time>2013-12-01T08:54:48Z</time>
      </trkpt>
      <trkpt lat="48.36993" lon="2.54295">
        <ele>117.40000152588</ele>
        <time>2013-12-01T08:54:49Z</time>
      </trkpt>
      <trkpt lat="48.36989" lon="2.54291">
        <ele>117.80000305176</ele>
        <time>2013-12-01T08:54:50Z</time>
      </trkpt>
      <trkpt lat="48.36984" lon="2.54284">
        <ele>117.80000305176</ele>
        <time>2013-12-01T08:54:52Z</time>
      </trkpt>
      <trkpt lat="48.36968" lon="2.54272">
        <ele>117.80000305176</ele>
        <time>2013-12-01T08:54:56Z</time>
      </trkpt>
      <trkpt lat="48.36934" lon="2.54257">
        <ele>117.80000305176</ele>
        <time>2013-12-01T08:55:03Z</time>
      </trkpt>
      <trkpt lat="48.36893" lon="2.54242">
        <ele>117.80000305176</ele>
        <time>2013-12-01T08:55:11Z</time>
      </trkpt>
      <trkpt lat="48.36866" lon="2.54229">
        <ele>117.80000305176</ele>
        <time>2013-12-01T08:55:16Z</time>
      </trkpt>
      <trkpt lat="48.36864" lon="2.54223">
        <ele>117.80000305176</ele>
        <time>2013-12-01T08:55:17Z</time>
      </trkpt>
      <trkpt lat="48.36862" lon="2.54216">
        <ele>117.80000305176</ele>
        <time>2013-12-01T08:55:18Z</time>
      </trkpt>
      <trkpt lat="48.36861" lon="2.5421">
        <ele>117.80000305176</ele>
        <time>2013-12-01T08:55:19Z</time>
      </trkpt>
      <trkpt lat="48.36858" lon="2.54188">
        <ele>117.80000305176</ele>
        <time>2013-12-01T08:55:22Z</time>
      </trkpt>
      <trkpt lat="48.36854" lon="2.54147">
        <ele>117.80000305176</ele>
        <time>2013-12-01T08:55:28Z</time>
      </trkpt>
      <trkpt lat="48.36851" lon="2.5413">
        <ele>117.40000152588</ele>
        <time>2013-12-01T08:55:30Z</time>
      </trkpt>
      <trkpt lat="48.36849" lon="2.54122">
        <ele>117</ele>
        <time>2013-12-01T08:55:31Z</time>
      </trkpt>
      <trkpt lat="48.36847" lon="2.54116">
        <ele>116.59999847412</ele>
        <time>2013-12-01T08:55:32Z</time>
      </trkpt>
      <trkpt lat="48.36845" lon="2.5411">
        <ele>116.19999694824</ele>
        <time>2013-12-01T08:55:33Z</time>
      </trkpt>
      <trkpt lat="48.36842" lon="2.54104">
        <ele>115.80000305176</ele>
        <time>2013-12-01T08:55:34Z</time>
      </trkpt>
      <trkpt lat="48.36838" lon="2.54094">
        <ele>115.80000305176</ele>
        <time>2013-12-01T08:55:36Z</time>
      </trkpt>
      <trkpt lat="48.36836" lon="2.54088">
        <ele>115.80000305176</ele>
        <time>2013-12-01T08:55:37Z</time>
      </trkpt>
      <trkpt lat="48.36831" lon="2.54068">
        <ele>115.80000305176</ele>
        <time>2013-12-01T08:55:40Z</time>
      </trkpt>
      <trkpt lat="48.36829" lon="2.54054">
        <ele>115.80000305176</ele>
        <time>2013-12-01T08:55:42Z</time>
      </trkpt>
      <trkpt lat="48.36827" lon="2.54046">
        <ele>115.80000305176</ele>
        <time>2013-12-01T08:55:43Z</time>
      </trkpt>
      <trkpt lat="48.36822" lon="2.54022">
        <ele>115.80000305176</ele>
        <time>2013-12-01T08:55:46Z</time>
      </trkpt>
      <trkpt lat="48.3682" lon="2.54015">
        <ele>115.80000305176</ele>
        <time>2013-12-01T08:55:47Z</time>
      </trkpt>
      <trkpt lat="48.36811" lon="2.53962">
        <ele>115.80000305176</ele>
        <time>2013-12-01T08:55:54Z</time>
      </trkpt>
      <trkpt lat="48.36811" lon="2.53931">
        <ele>115.80000305176</ele>
        <time>2013-12-01T08:55:58Z</time>
      </trkpt>
      <trkpt lat="48.36814" lon="2.53917">
        <ele>115.80000305176</ele>
        <time>2013-12-01T08:56:00Z</time>
      </trkpt>
      <trkpt lat="48.36819" lon="2.53885">
        <ele>115.40000152588</ele>
        <time>2013-12-01T08:56:04Z</time>
      </trkpt>
      <trkpt lat="48.36821" lon="2.53876">
        <ele>114.80000305176</ele>
        <time>2013-12-01T08:56:05Z</time>
      </trkpt>
      <trkpt lat="48.36822" lon="2.53868">
        <ele>114.40000152588</ele>
        <time>2013-12-01T08:56:06Z</time>
      </trkpt>
      <trkpt lat="48.36826" lon="2.53859">
        <ele>113.80000305176</ele>
        <time>2013-12-01T08:56:07Z</time>
      </trkpt>
      <trkpt lat="48.36833" lon="2.5384">
        <ele>113.40000152588</ele>
        <time>2013-12-01T08:56:09Z</time>
      </trkpt>
      <trkpt lat="48.36835" lon="2.5383">
        <ele>112.80000305176</ele>
        <time>2013-12-01T08:56:10Z</time>
      </trkpt>
      <trkpt lat="48.36836" lon="2.53818">
        <ele>112.40000152588</ele>
        <time>2013-12-01T08:56:11Z</time>
      </trkpt>
      <trkpt lat="48.36839" lon="2.53804">
        <ele>111.59999847412</ele>
        <time>2013-12-01T08:56:12Z</time>
      </trkpt>
      <trkpt lat="48.3684" lon="2.53792">
        <ele>111</ele>
        <time>2013-12-01T08:56:13Z</time>
      </trkpt>
      <trkpt lat="48.36842" lon="2.5378">
        <ele>110.19999694824</ele>
        <time>2013-12-01T08:56:14Z</time>
      </trkpt>
      <trkpt lat="48.36841" lon="2.53767">
        <ele>109.40000152588</ele>
        <time>2013-12-01T08:56:15Z</time>
      </trkpt>
      <trkpt lat="48.36842" lon="2.53754">
        <ele>108.59999847412</ele>
        <time>2013-12-01T08:56:16Z</time>
      </trkpt>
      <trkpt lat="48.36844" lon="2.5374">
        <ele>107.80000305176</ele>
        <time>2013-12-01T08:56:17Z</time>
      </trkpt>
      <trkpt lat="48.36848" lon="2.53726">
        <ele>107</ele>
        <time>2013-12-01T08:56:18Z</time>
      </trkpt>
      <trkpt lat="48.36853" lon="2.53714">
        <ele>106.19999694824</ele>
        <time>2013-12-01T08:56:19Z</time>
      </trkpt>
      <trkpt lat="48.3686" lon="2.53703">
        <ele>105.40000152588</ele>
        <time>2013-12-01T08:56:20Z</time>
      </trkpt>
      <trkpt lat="48.36866" lon="2.53689">
        <ele>104.40000152588</ele>
        <time>2013-12-01T08:56:21Z</time>
      </trkpt>
      <trkpt lat="48.36871" lon="2.53676">
        <ele>103.40000152588</ele>
        <time>2013-12-01T08:56:22Z</time>
      </trkpt>
      <trkpt lat="48.36874" lon="2.53661">
        <ele>102.19999694824</ele>
        <time>2013-12-01T08:56:23Z</time>
      </trkpt>
      <trkpt lat="48.36876" lon="2.53647">
        <ele>100.80000305176</ele>
        <time>2013-12-01T08:56:24Z</time>
      </trkpt>
      <trkpt lat="48.36877" lon="2.53631">
        <ele>99.400001525879</ele>
        <time>2013-12-01T08:56:25Z</time>
      </trkpt>
      <trkpt lat="48.36877" lon="2.53614">
        <ele>98.199996948242</ele>
        <time>2013-12-01T08:56:26Z</time>
      </trkpt>
      <trkpt lat="48.36876" lon="2.53597">
        <ele>96.800003051758</ele>
        <time>2013-12-01T08:56:27Z</time>
      </trkpt>
      <trkpt lat="48.36875" lon="2.53582">
        <ele>95.400001525879</ele>
        <time>2013-12-01T08:56:28Z</time>
      </trkpt>
      <trkpt lat="48.36874" lon="2.53567">
        <ele>94</ele>
        <time>2013-12-01T08:56:29Z</time>
      </trkpt>
      <trkpt lat="48.36876" lon="2.53553">
        <ele>92.599998474121</ele>
        <time>2013-12-01T08:56:30Z</time>
      </trkpt>
      <trkpt lat="48.36879" lon="2.53537">
        <ele>91</ele>
        <time>2013-12-01T08:56:31Z</time>
      </trkpt>
      <trkpt lat="48.36883" lon="2.53523">
        <ele>89.199996948242</ele>
        <time>2013-12-01T08:56:32Z</time>
      </trkpt>
      <trkpt lat="48.36885" lon="2.53508">
        <ele>87.400001525879</ele>
        <time>2013-12-01T08:56:33Z</time>
      </trkpt>
      <trkpt lat="48.36888" lon="2.53494">
        <ele>85.800003051758</ele>
        <time>2013-12-01T08:56:34Z</time>
      </trkpt>
      <trkpt lat="48.36892" lon="2.53481">
        <ele>84</ele>
        <time>2013-12-01T08:56:35Z</time>
      </trkpt>
      <trkpt lat="48.36896" lon="2.53469">
        <ele>82.599998474121</ele>
        <time>2013-12-01T08:56:36Z</time>
      </trkpt>
      <trkpt lat="48.36903" lon="2.53459">
        <ele>81</ele>
        <time>2013-12-01T08:56:37Z</time>
      </trkpt>
      <trkpt lat="48.36909" lon="2.53451">
        <ele>79.599998474121</ele>
        <time>2013-12-01T08:56:38Z</time>
      </trkpt>
      <trkpt lat="48.36914" lon="2.53446">
        <ele>78.199996948242</ele>
        <time>2013-12-01T08:56:39Z</time>
      </trkpt>
      <trkpt lat="48.36919" lon="2.53441">
        <ele>76.599998474121</ele>
        <time>2013-12-01T08:56:40Z</time>
      </trkpt>
      <trkpt lat="48.36925" lon="2.53441">
        <ele>75.199996948242</ele>
        <time>2013-12-01T08:56:41Z</time>
      </trkpt>
      <trkpt lat="48.36928" lon="2.53443">
        <ele>73.599998474121</ele>
        <time>2013-12-01T08:56:42Z</time>
      </trkpt>
      <trkpt lat="48.3693" lon="2.53449">
        <ele>73.599998474121</ele>
        <time>2013-12-01T08:56:45Z</time>
      </trkpt>
      <trkpt lat="48.3693" lon="2.53451">
        <ele>73.599998474121</ele>
        <time>2013-12-01T08:56:46Z</time>
      </trkpt>
      <trkpt lat="48.36935" lon="2.53456">
        <ele>73.599998474121</ele>
        <time>2013-12-01T08:56:50Z</time>
      </trkpt>
      <trkpt lat="48.36938" lon="2.5346">
        <ele>73.599998474121</ele>
        <time>2013-12-01T08:56:52Z</time>
      </trkpt>
      <trkpt lat="48.3694" lon="2.53463">
        <ele>73.599998474121</ele>
        <time>2013-12-01T08:56:53Z</time>
      </trkpt>
      <trkpt lat="48.36945" lon="2.53469">
        <ele>73.599998474121</ele>
        <time>2013-12-01T08:56:55Z</time>
      </trkpt>
      <trkpt lat="48.36962" lon="2.53483">
        <ele>73.599998474121</ele>
        <time>2013-12-01T08:57:01Z</time>
      </trkpt>
      <trkpt lat="48.36975" lon="2.53484">
        <ele>73.599998474121</ele>
        <time>2013-12-01T08:57:05Z</time>
      </trkpt>
      <trkpt lat="48.3699" lon="2.53499">
        <ele>73.599998474121</ele>
        <time>2013-12-01T08:57:10Z</time>
      </trkpt>
      <trkpt lat="48.37006" lon="2.53512">
        <ele>73.599998474121</ele>
        <time>2013-12-01T08:57:15Z</time>
      </trkpt>
      <trkpt lat="48.37029" lon="2.53523">
        <ele>73.599998474121</ele>
        <time>2013-12-01T08:57:22Z</time>
      </trkpt>
      <trkpt lat="48.37053" lon="2.53521">
        <ele>73.599998474121</ele>
        <time>2013-12-01T08:57:27Z</time>
      </trkpt>
      <trkpt lat="48.37062" lon="2.53523">
        <ele>73.199996948242</ele>
        <time>2013-12-01T08:57:29Z</time>
      </trkpt>
      <trkpt lat="48.37068" lon="2.53524">
        <ele>72.800003051758</ele>
        <time>2013-12-01T08:57:30Z</time>
      </trkpt>
      <trkpt lat="48.37073" lon="2.53525">
        <ele>72.400001525879</ele>
        <time>2013-12-01T08:57:31Z</time>
      </trkpt>
      <trkpt lat="48.37079" lon="2.53527">
        <ele>71.800003051758</ele>
        <time>2013-12-01T08:57:32Z</time>
      </trkpt>
      <trkpt lat="48.37085" lon="2.53527">
        <ele>71.400001525879</ele>
        <time>2013-12-01T08:57:33Z</time>
      </trkpt>
      <trkpt lat="48.371" lon="2.53526">
        <ele>71.400001525879</ele>
        <time>2013-12-01T08:57:36Z</time>
      </trkpt>
      <trkpt lat="48.3711" lon="2.53516">
        <ele>71.400001525879</ele>
        <time>2013-12-01T08:57:39Z</time>
      </trkpt>
      <trkpt lat="48.37114" lon="2.53514">
        <ele>71.400001525879</ele>
        <time>2013-12-01T08:57:40Z</time>
      </trkpt>
      <trkpt lat="48.37117" lon="2.53516">
        <ele>71.400001525879</ele>
        <time>2013-12-01T08:57:41Z</time>
      </trkpt>
      <trkpt lat="48.3712" lon="2.53517">
        <ele>71.400001525879</ele>
        <time>2013-12-01T08:57:42Z</time>
      </trkpt>
      <trkpt lat="48.37126" lon="2.5354">
        <ele>71.400001525879</ele>
        <time>2013-12-01T08:57:47Z</time>
      </trkpt>
      <trkpt lat="48.3715" lon="2.53562">
        <ele>71.400001525879</ele>
        <time>2013-12-01T08:57:54Z</time>
      </trkpt>
      <trkpt lat="48.3717" lon="2.53596">
        <ele>71.400001525879</ele>
        <time>2013-12-01T08:58:02Z</time>
      </trkpt>
      <trkpt lat="48.37176" lon="2.53603">
        <ele>71.400001525879</ele>
        <time>2013-12-01T08:58:04Z</time>
      </trkpt>
      <trkpt lat="48.37183" lon="2.53609">
        <ele>71.400001525879</ele>
        <time>2013-12-01T08:58:06Z</time>
      </trkpt>
      <trkpt lat="48.372" lon="2.53639">
        <ele>71.400001525879</ele>
        <time>2013-12-01T08:58:13Z</time>
      </trkpt>
      <trkpt lat="48.37222" lon="2.53682">
        <ele>71.400001525879</ele>
        <time>2013-12-01T08:58:23Z</time>
      </trkpt>
      <trkpt lat="48.37233" lon="2.53705">
        <ele>71.400001525879</ele>
        <time>2013-12-01T08:58:29Z</time>
      </trkpt>
      <trkpt lat="48.37247" lon="2.5373">
        <ele>71.800003051758</ele>
        <time>2013-12-01T08:58:35Z</time>
      </trkpt>
      <trkpt lat="48.37249" lon="2.53735">
        <ele>72.400001525879</ele>
        <time>2013-12-01T08:58:36Z</time>
      </trkpt>
      <trkpt lat="48.37252" lon="2.53739">
        <ele>72.800003051758</ele>
        <time>2013-12-01T08:58:37Z</time>
      </trkpt>
      <trkpt lat="48.37254" lon="2.53743">
        <ele>73.199996948242</ele>
        <time>2013-12-01T08:58:38Z</time>
      </trkpt>
      <trkpt lat="48.37257" lon="2.53746">
        <ele>73.599998474121</ele>
        <time>2013-12-01T08:58:39Z</time>
      </trkpt>
      <trkpt lat="48.37261" lon="2.53756">
        <ele>73.599998474121</ele>
        <time>2013-12-01T08:58:41Z</time>
      </trkpt>
      <trkpt lat="48.37276" lon="2.53781">
        <ele>73.599998474121</ele>
        <time>2013-12-01T08:58:47Z</time>
      </trkpt>
      <trkpt lat="48.3729" lon="2.53807">
        <ele>73.599998474121</ele>
        <time>2013-12-01T08:58:53Z</time>
      </trkpt>
      <trkpt lat="48.37305" lon="2.53835">
        <ele>73.599998474121</ele>
        <time>2013-12-01T08:58:59Z</time>
      </trkpt>
      <trkpt lat="48.37312" lon="2.53843">
        <ele>73.599998474121</ele>
        <time>2013-12-01T08:59:01Z</time>
      </trkpt>
      <trkpt lat="48.37319" lon="2.53853">
        <ele>73.599998474121</ele>
        <time>2013-12-01T08:59:03Z</time>
      </trkpt>
      <trkpt lat="48.37341" lon="2.53886">
        <ele>73.599998474121</ele>
        <time>2013-12-01T08:59:10Z</time>
      </trkpt>
      <trkpt lat="48.3736" lon="2.53913">
        <ele>73.599998474121</ele>
        <time>2013-12-01T08:59:16Z</time>
      </trkpt>
      <trkpt lat="48.37383" lon="2.53953">
        <ele>73.599998474121</ele>
        <time>2013-12-01T08:59:23Z</time>
      </trkpt>
      <trkpt lat="48.37395" lon="2.53994">
        <ele>73.599998474121</ele>
        <time>2013-12-01T08:59:29Z</time>
      </trkpt>
      <trkpt lat="48.37403" lon="2.54023">
        <ele>73.599998474121</ele>
        <time>2013-12-01T08:59:33Z</time>
      </trkpt>
      <trkpt lat="48.37409" lon="2.54036">
        <ele>73.599998474121</ele>
        <time>2013-12-01T08:59:35Z</time>
      </trkpt>
      <trkpt lat="48.37426" lon="2.54081">
        <ele>73.599998474121</ele>
        <time>2013-12-01T08:59:42Z</time>
      </trkpt>
      <trkpt lat="48.37437" lon="2.54116">
        <ele>74</ele>
        <time>2013-12-01T08:59:47Z</time>
      </trkpt>
      <trkpt lat="48.37439" lon="2.54123">
        <ele>74.400001525879</ele>
        <time>2013-12-01T08:59:48Z</time>
      </trkpt>
      <trkpt lat="48.37442" lon="2.54129">
        <ele>74.800003051758</ele>
        <time>2013-12-01T08:59:49Z</time>
      </trkpt>
      <trkpt lat="48.37445" lon="2.54135">
        <ele>75.199996948242</ele>
        <time>2013-12-01T08:59:50Z</time>
      </trkpt>
      <trkpt lat="48.3745" lon="2.54146">
        <ele>75.599998474121</ele>
        <time>2013-12-01T08:59:52Z</time>
      </trkpt>
      <trkpt lat="48.37452" lon="2.54152">
        <ele>75.599998474121</ele>
        <time>2013-12-01T08:59:53Z</time>
      </trkpt>
      <trkpt lat="48.37454" lon="2.54158">
        <ele>75.599998474121</ele>
        <time>2013-12-01T08:59:54Z</time>
      </trkpt>
      <trkpt lat="48.37458" lon="2.5417">
        <ele>75.599998474121</ele>
        <time>2013-12-01T08:59:56Z</time>
      </trkpt>
      <trkpt lat="48.3746" lon="2.54176">
        <ele>75.599998474121</ele>
        <time>2013-12-01T08:59:57Z</time>
      </trkpt>
      <trkpt lat="48.37462" lon="2.54183">
        <ele>75.599998474121</ele>
        <time>2013-12-01T08:59:58Z</time>
      </trkpt>
      <trkpt lat="48.37465" lon="2.54201">
        <ele>75.599998474121</ele>
        <time>2013-12-01T09:00:01Z</time>
      </trkpt>
      <trkpt lat="48.37468" lon="2.54243">
        <ele>75.599998474121</ele>
        <time>2013-12-01T09:00:08Z</time>
      </trkpt>
      <trkpt lat="48.37464" lon="2.54265">
        <ele>75.599998474121</ele>
        <time>2013-12-01T09:00:12Z</time>
      </trkpt>
      <trkpt lat="48.37461" lon="2.54294">
        <ele>75.599998474121</ele>
        <time>2013-12-01T09:00:17Z</time>
      </trkpt>
      <trkpt lat="48.37456" lon="2.54327">
        <ele>75.599998474121</ele>
        <time>2013-12-01T09:00:23Z</time>
      </trkpt>
      <trkpt lat="48.37457" lon="2.54358">
        <ele>76.199996948242</ele>
        <time>2013-12-01T09:00:29Z</time>
      </trkpt>
      <trkpt lat="48.37458" lon="2.54362">
        <ele>76.599998474121</ele>
        <time>2013-12-01T09:00:30Z</time>
      </trkpt>
      <trkpt lat="48.37458" lon="2.54367">
        <ele>77</ele>
        <time>2013-12-01T09:00:31Z</time>
      </trkpt>
      <trkpt lat="48.3746" lon="2.54372">
        <ele>77.400001525879</ele>
        <time>2013-12-01T09:00:32Z</time>
      </trkpt>
      <trkpt lat="48.3746" lon="2.54377">
        <ele>77.800003051758</ele>
        <time>2013-12-01T09:00:33Z</time>
      </trkpt>
      <trkpt lat="48.37464" lon="2.54394">
        <ele>77.800003051758</ele>
        <time>2013-12-01T09:00:36Z</time>
      </trkpt>
      <trkpt lat="48.37468" lon="2.5443">
        <ele>77.800003051758</ele>
        <time>2013-12-01T09:00:43Z</time>
      </trkpt>
      <trkpt lat="48.37471" lon="2.54469">
        <ele>77.800003051758</ele>
        <time>2013-12-01T09:00:50Z</time>
      </trkpt>
      <trkpt lat="48.37474" lon="2.54503">
        <ele>77.800003051758</ele>
        <time>2013-12-01T09:00:55Z</time>
      </trkpt>
      <trkpt lat="48.37476" lon="2.54521">
        <ele>78.199996948242</ele>
        <time>2013-12-01T09:00:58Z</time>
      </trkpt>
      <trkpt lat="48.37476" lon="2.54527">
        <ele>78.599998474121</ele>
        <time>2013-12-01T09:00:59Z</time>
      </trkpt>
      <trkpt lat="48.37477" lon="2.54533">
        <ele>79.199996948242</ele>
        <time>2013-12-01T09:01:00Z</time>
      </trkpt>
      <trkpt lat="48.37477" lon="2.54539">
        <ele>79.599998474121</ele>
        <time>2013-12-01T09:01:01Z</time>
      </trkpt>
      <trkpt lat="48.37477" lon="2.54544">
        <ele>80</ele>
        <time>2013-12-01T09:01:02Z</time>
      </trkpt>
      <trkpt lat="48.37478" lon="2.54554">
        <ele>80</ele>
        <time>2013-12-01T09:01:04Z</time>
      </trkpt>
      <trkpt lat="48.3748" lon="2.54593">
        <ele>80</ele>
        <time>2013-12-01T09:01:10Z</time>
      </trkpt>
      <trkpt lat="48.37481" lon="2.54599">
        <ele>80</ele>
        <time>2013-12-01T09:01:11Z</time>
      </trkpt>
      <trkpt lat="48.37484" lon="2.54643">
        <ele>80</ele>
        <time>2013-12-01T09:01:18Z</time>
      </trkpt>
      <trkpt lat="48.37486" lon="2.5466">
        <ele>80</ele>
        <time>2013-12-01T09:01:20Z</time>
      </trkpt>
      <trkpt lat="48.37485" lon="2.54673">
        <ele>80</ele>
        <time>2013-12-01T09:01:22Z</time>
      </trkpt>
      <trkpt lat="48.37485" lon="2.54687">
        <ele>80</ele>
        <time>2013-12-01T09:01:24Z</time>
      </trkpt>
      <trkpt lat="48.3749" lon="2.54713">
        <ele>80</ele>
        <time>2013-12-01T09:01:28Z</time>
      </trkpt>
      <trkpt lat="48.37493" lon="2.54769">
        <ele>80</ele>
        <time>2013-12-01T09:01:37Z</time>
      </trkpt>
      <trkpt lat="48.37496" lon="2.54811">
        <ele>80</ele>
        <time>2013-12-01T09:01:45Z</time>
      </trkpt>
      <trkpt lat="48.37497" lon="2.54821">
        <ele>80.400001525879</ele>
        <time>2013-12-01T09:01:47Z</time>
      </trkpt>
      <trkpt lat="48.37497" lon="2.54827">
        <ele>80.800003051758</ele>
        <time>2013-12-01T09:01:48Z</time>
      </trkpt>
      <trkpt lat="48.37498" lon="2.54832">
        <ele>81.199996948242</ele>
        <time>2013-12-01T09:01:49Z</time>
      </trkpt>
      <trkpt lat="48.37498" lon="2.54837">
        <ele>81.599998474121</ele>
        <time>2013-12-01T09:01:50Z</time>
      </trkpt>
      <trkpt lat="48.37499" lon="2.54842">
        <ele>82</ele>
        <time>2013-12-01T09:01:51Z</time>
      </trkpt>
      <trkpt lat="48.37502" lon="2.54863">
        <ele>82</ele>
        <time>2013-12-01T09:01:55Z</time>
      </trkpt>
      <trkpt lat="48.37498" lon="2.54898">
        <ele>82</ele>
        <time>2013-12-01T09:02:02Z</time>
      </trkpt>
      <trkpt lat="48.37495" lon="2.54928">
        <ele>82</ele>
        <time>2013-12-01T09:02:08Z</time>
      </trkpt>
      <trkpt lat="48.37498" lon="2.54957">
        <ele>82.400001525879</ele>
        <time>2013-12-01T09:02:15Z</time>
      </trkpt>
      <trkpt lat="48.37496" lon="2.54961">
        <ele>82.800003051758</ele>
        <time>2013-12-01T09:02:16Z</time>
      </trkpt>
      <trkpt lat="48.37494" lon="2.54963">
        <ele>83.199996948242</ele>
        <time>2013-12-01T09:02:17Z</time>
      </trkpt>
      <trkpt lat="48.37491" lon="2.54967">
        <ele>83.599998474121</ele>
        <time>2013-12-01T09:02:18Z</time>
      </trkpt>
      <trkpt lat="48.3749" lon="2.54971">
        <ele>84</ele>
        <time>2013-12-01T09:02:19Z</time>
      </trkpt>
      <trkpt lat="48.37489" lon="2.54976">
        <ele>84</ele>
        <time>2013-12-01T09:02:20Z</time>
      </trkpt>
      <trkpt lat="48.37489" lon="2.54991">
        <ele>84</ele>
        <time>2013-12-01T09:02:23Z</time>
      </trkpt>
      <trkpt lat="48.37487" lon="2.55">
        <ele>84</ele>
        <time>2013-12-01T09:02:25Z</time>
      </trkpt>
      <trkpt lat="48.37484" lon="2.55034">
        <ele>84</ele>
        <time>2013-12-01T09:02:33Z</time>
      </trkpt>
      <trkpt lat="48.37487" lon="2.55076">
        <ele>84</ele>
        <time>2013-12-01T09:02:41Z</time>
      </trkpt>
      <trkpt lat="48.37486" lon="2.55109">
        <ele>84.599998474121</ele>
        <time>2013-12-01T09:02:48Z</time>
      </trkpt>
      <trkpt lat="48.37485" lon="2.55115">
        <ele>85</ele>
        <time>2013-12-01T09:02:49Z</time>
      </trkpt>
      <trkpt lat="48.37486" lon="2.55121">
        <ele>85.400001525879</ele>
        <time>2013-12-01T09:02:50Z</time>
      </trkpt>
      <trkpt lat="48.37486" lon="2.55126">
        <ele>86</ele>
        <time>2013-12-01T09:02:51Z</time>
      </trkpt>
      <trkpt lat="48.37486" lon="2.55133">
        <ele>86.400001525879</ele>
        <time>2013-12-01T09:02:52Z</time>
      </trkpt>
      <trkpt lat="48.37486" lon="2.55144">
        <ele>86.400001525879</ele>
        <time>2013-12-01T09:02:54Z</time>
      </trkpt>
      <trkpt lat="48.3749" lon="2.55187">
        <ele>86.400001525879</ele>
        <time>2013-12-01T09:03:02Z</time>
      </trkpt>
      <trkpt lat="48.37498" lon="2.55216">
        <ele>86.400001525879</ele>
        <time>2013-12-01T09:03:08Z</time>
      </trkpt>
      <trkpt lat="48.37511" lon="2.55219">
        <ele>86.400001525879</ele>
        <time>2013-12-01T09:03:12Z</time>
      </trkpt>
      <trkpt lat="48.37522" lon="2.55219">
        <ele>86.400001525879</ele>
        <time>2013-12-01T09:03:15Z</time>
      </trkpt>
      <trkpt lat="48.37531" lon="2.55228">
        <ele>86.400001525879</ele>
        <time>2013-12-01T09:03:18Z</time>
      </trkpt>
      <trkpt lat="48.37535" lon="2.55239">
        <ele>86.400001525879</ele>
        <time>2013-12-01T09:03:20Z</time>
      </trkpt>
      <trkpt lat="48.37541" lon="2.5525">
        <ele>86.800003051758</ele>
        <time>2013-12-01T09:03:22Z</time>
      </trkpt>
      <trkpt lat="48.37543" lon="2.55254">
        <ele>87.199996948242</ele>
        <time>2013-12-01T09:03:23Z</time>
      </trkpt>
      <trkpt lat="48.37545" lon="2.55259">
        <ele>87.599998474121</ele>
        <time>2013-12-01T09:03:24Z</time>
      </trkpt>
      <trkpt lat="48.37547" lon="2.55264">
        <ele>88</ele>
        <time>2013-12-01T09:03:25Z</time>
      </trkpt>
      <trkpt lat="48.3755" lon="2.55269">
        <ele>88.400001525879</ele>
        <time>2013-12-01T09:03:26Z</time>
      </trkpt>
      <trkpt lat="48.37554" lon="2.55285">
        <ele>88.400001525879</ele>
        <time>2013-12-01T09:03:29Z</time>
      </trkpt>
      <trkpt lat="48.3756" lon="2.55315">
        <ele>88.400001525879</ele>
        <time>2013-12-01T09:03:36Z</time>
      </trkpt>
      <trkpt lat="48.37563" lon="2.55357">
        <ele>88.400001525879</ele>
        <time>2013-12-01T09:03:45Z</time>
      </trkpt>
      <trkpt lat="48.37564" lon="2.55394">
        <ele>88.400001525879</ele>
        <time>2013-12-01T09:03:52Z</time>
      </trkpt>
      <trkpt lat="48.37564" lon="2.55412">
        <ele>88.800003051758</ele>
        <time>2013-12-01T09:03:55Z</time>
      </trkpt>
      <trkpt lat="48.37564" lon="2.55417">
        <ele>89.199996948242</ele>
        <time>2013-12-01T09:03:56Z</time>
      </trkpt>
      <trkpt lat="48.37564" lon="2.55423">
        <ele>89.599998474121</ele>
        <time>2013-12-01T09:03:57Z</time>
      </trkpt>
      <trkpt lat="48.37563" lon="2.55428">
        <ele>90.199996948242</ele>
        <time>2013-12-01T09:03:58Z</time>
      </trkpt>
      <trkpt lat="48.37563" lon="2.55432">
        <ele>90.599998474121</ele>
        <time>2013-12-01T09:03:59Z</time>
      </trkpt>
      <trkpt lat="48.37566" lon="2.55457">
        <ele>90.599998474121</ele>
        <time>2013-12-01T09:04:04Z</time>
      </trkpt>
      <trkpt lat="48.37571" lon="2.55485">
        <ele>90.599998474121</ele>
        <time>2013-12-01T09:04:10Z</time>
      </trkpt>
      <trkpt lat="48.37567" lon="2.55517">
        <ele>90.599998474121</ele>
        <time>2013-12-01T09:04:16Z</time>
      </trkpt>
      <trkpt lat="48.37582" lon="2.55558">
        <ele>90.599998474121</ele>
        <time>2013-12-01T09:04:24Z</time>
      </trkpt>
      <trkpt lat="48.37596" lon="2.55585">
        <ele>90.599998474121</ele>
        <time>2013-12-01T09:04:30Z</time>
      </trkpt>
      <trkpt lat="48.37607" lon="2.55612">
        <ele>90.599998474121</ele>
        <time>2013-12-01T09:04:36Z</time>
      </trkpt>
      <trkpt lat="48.37616" lon="2.55633">
        <ele>90.599998474121</ele>
        <time>2013-12-01T09:04:42Z</time>
      </trkpt>
      <trkpt lat="48.37619" lon="2.55639">
        <ele>91</ele>
        <time>2013-12-01T09:04:44Z</time>
      </trkpt>
      <trkpt lat="48.37621" lon="2.55642">
        <ele>91.400001525879</ele>
        <time>2013-12-01T09:04:45Z</time>
      </trkpt>
      <trkpt lat="48.37623" lon="2.55645">
        <ele>91.800003051758</ele>
        <time>2013-12-01T09:04:46Z</time>
      </trkpt>
      <trkpt lat="48.37625" lon="2.55647">
        <ele>92.400001525879</ele>
        <time>2013-12-01T09:04:47Z</time>
      </trkpt>
      <trkpt lat="48.37626" lon="2.5565">
        <ele>92.800003051758</ele>
        <time>2013-12-01T09:04:48Z</time>
      </trkpt>
      <trkpt lat="48.37631" lon="2.55663">
        <ele>92.800003051758</ele>
        <time>2013-12-01T09:04:53Z</time>
      </trkpt>
      <trkpt lat="48.37632" lon="2.55666">
        <ele>92.800003051758</ele>
        <time>2013-12-01T09:04:54Z</time>
      </trkpt>
      <trkpt lat="48.37635" lon="2.5567">
        <ele>93.199996948242</ele>
        <time>2013-12-01T09:04:56Z</time>
      </trkpt>
      <trkpt lat="48.37636" lon="2.5567">
        <ele>93.599998474121</ele>
        <time>2013-12-01T09:04:57Z</time>
      </trkpt>
      <trkpt lat="48.37638" lon="2.55672">
        <ele>94</ele>
        <time>2013-12-01T09:04:58Z</time>
      </trkpt>
      <trkpt lat="48.3764" lon="2.55674">
        <ele>94.400001525879</ele>
        <time>2013-12-01T09:04:59Z</time>
      </trkpt>
      <trkpt lat="48.37641" lon="2.55676">
        <ele>94.800003051758</ele>
        <time>2013-12-01T09:05:00Z</time>
      </trkpt>
      <trkpt lat="48.37644" lon="2.55682">
        <ele>94.800003051758</ele>
        <time>2013-12-01T09:05:02Z</time>
      </trkpt>
      <trkpt lat="48.37651" lon="2.55694">
        <ele>94.800003051758</ele>
        <time>2013-12-01T09:05:07Z</time>
      </trkpt>
      <trkpt lat="48.37652" lon="2.55698">
        <ele>95.199996948242</ele>
        <time>2013-12-01T09:05:08Z</time>
      </trkpt>
      <trkpt lat="48.37653" lon="2.55702">
        <ele>95.599998474121</ele>
        <time>2013-12-01T09:05:09Z</time>
      </trkpt>
      <trkpt lat="48.37654" lon="2.55705">
        <ele>96</ele>
        <time>2013-12-01T09:05:10Z</time>
      </trkpt>
      <trkpt lat="48.37655" lon="2.55708">
        <ele>96.400001525879</ele>
        <time>2013-12-01T09:05:11Z</time>
      </trkpt>
      <trkpt lat="48.37656" lon="2.55711">
        <ele>96.800003051758</ele>
        <time>2013-12-01T09:05:12Z</time>
      </trkpt>
      <trkpt lat="48.37659" lon="2.55716">
        <ele>96.800003051758</ele>
        <time>2013-12-01T09:05:14Z</time>
      </trkpt>
      <trkpt lat="48.37662" lon="2.5572">
        <ele>96.800003051758</ele>
        <time>2013-12-01T09:05:16Z</time>
      </trkpt>
      <trkpt lat="48.37664" lon="2.55723">
        <ele>96.800003051758</ele>
        <time>2013-12-01T09:05:17Z</time>
      </trkpt>
      <trkpt lat="48.37666" lon="2.55725">
        <ele>96.800003051758</ele>
        <time>2013-12-01T09:05:18Z</time>
      </trkpt>
      <trkpt lat="48.37669" lon="2.55729">
        <ele>96.800003051758</ele>
        <time>2013-12-01T09:05:20Z</time>
      </trkpt>
      <trkpt lat="48.37671" lon="2.55732">
        <ele>96.800003051758</ele>
        <time>2013-12-01T09:05:21Z</time>
      </trkpt>
      <trkpt lat="48.37672" lon="2.55736">
        <ele>96.800003051758</ele>
        <time>2013-12-01T09:05:22Z</time>
      </trkpt>
      <trkpt lat="48.37679" lon="2.55748">
        <ele>96.800003051758</ele>
        <time>2013-12-01T09:05:26Z</time>
      </trkpt>
      <trkpt lat="48.37684" lon="2.55758">
        <ele>96.800003051758</ele>
        <time>2013-12-01T09:05:29Z</time>
      </trkpt>
      <trkpt lat="48.37697" lon="2.55773">
        <ele>96.800003051758</ele>
        <time>2013-12-01T09:05:34Z</time>
      </trkpt>
      <trkpt lat="48.37714" lon="2.55794">
        <ele>96.800003051758</ele>
        <time>2013-12-01T09:05:40Z</time>
      </trkpt>
      <trkpt lat="48.37737" lon="2.55824">
        <ele>96.800003051758</ele>
        <time>2013-12-01T09:05:49Z</time>
      </trkpt>
      <trkpt lat="48.37739" lon="2.55828">
        <ele>97.199996948242</ele>
        <time>2013-12-01T09:05:50Z</time>
      </trkpt>
      <trkpt lat="48.37741" lon="2.55831">
        <ele>97.599998474121</ele>
        <time>2013-12-01T09:05:51Z</time>
      </trkpt>
      <trkpt lat="48.37744" lon="2.55835">
        <ele>98</ele>
        <time>2013-12-01T09:05:52Z</time>
      </trkpt>
      <trkpt lat="48.37746" lon="2.55838">
        <ele>98.400001525879</ele>
        <time>2013-12-01T09:05:53Z</time>
      </trkpt>
      <trkpt lat="48.37748" lon="2.55841">
        <ele>98.800003051758</ele>
        <time>2013-12-01T09:05:54Z</time>
      </trkpt>
      <trkpt lat="48.37755" lon="2.55854">
        <ele>98.800003051758</ele>
        <time>2013-12-01T09:05:58Z</time>
      </trkpt>
      <trkpt lat="48.37769" lon="2.5589">
        <ele>98.800003051758</ele>
        <time>2013-12-01T09:06:07Z</time>
      </trkpt>
      <trkpt lat="48.37777" lon="2.55915">
        <ele>99.199996948242</ele>
        <time>2013-12-01T09:06:13Z</time>
      </trkpt>
      <trkpt lat="48.37778" lon="2.55919">
        <ele>99.800003051758</ele>
        <time>2013-12-01T09:06:14Z</time>
      </trkpt>
      <trkpt lat="48.3778" lon="2.55923">
        <ele>100.19999694824</ele>
        <time>2013-12-01T09:06:15Z</time>
      </trkpt>
      <trkpt lat="48.37781" lon="2.55927">
        <ele>100.59999847412</ele>
        <time>2013-12-01T09:06:16Z</time>
      </trkpt>
      <trkpt lat="48.37783" lon="2.5593">
        <ele>101</ele>
        <time>2013-12-01T09:06:17Z</time>
      </trkpt>
      <trkpt lat="48.37788" lon="2.55951">
        <ele>101.40000152588</ele>
        <time>2013-12-01T09:06:23Z</time>
      </trkpt>
      <trkpt lat="48.37789" lon="2.55954">
        <ele>102</ele>
        <time>2013-12-01T09:06:24Z</time>
      </trkpt>
      <trkpt lat="48.3779" lon="2.55957">
        <ele>102.40000152588</ele>
        <time>2013-12-01T09:06:25Z</time>
      </trkpt>
      <trkpt lat="48.37791" lon="2.55961">
        <ele>102.80000305176</ele>
        <time>2013-12-01T09:06:26Z</time>
      </trkpt>
      <trkpt lat="48.37792" lon="2.55964">
        <ele>103.19999694824</ele>
        <time>2013-12-01T09:06:27Z</time>
      </trkpt>
      <trkpt lat="48.37795" lon="2.55978">
        <ele>103.19999694824</ele>
        <time>2013-12-01T09:06:31Z</time>
      </trkpt>
      <trkpt lat="48.37804" lon="2.56006">
        <ele>103.19999694824</ele>
        <time>2013-12-01T09:06:39Z</time>
      </trkpt>
      <trkpt lat="48.37807" lon="2.5601">
        <ele>103.80000305176</ele>
        <time>2013-12-01T09:06:41Z</time>
      </trkpt>
      <trkpt lat="48.37808" lon="2.56013">
        <ele>104.19999694824</ele>
        <time>2013-12-01T09:06:42Z</time>
      </trkpt>
      <trkpt lat="48.3781" lon="2.56017">
        <ele>104.59999847412</ele>
        <time>2013-12-01T09:06:43Z</time>
      </trkpt>
      <trkpt lat="48.37812" lon="2.56021">
        <ele>105</ele>
        <time>2013-12-01T09:06:44Z</time>
      </trkpt>
      <trkpt lat="48.37812" lon="2.56024">
        <ele>105.40000152588</ele>
        <time>2013-12-01T09:06:45Z</time>
      </trkpt>
      <trkpt lat="48.37823" lon="2.56053">
        <ele>105.40000152588</ele>
        <time>2013-12-01T09:06:53Z</time>
      </trkpt>
      <trkpt lat="48.3784" lon="2.56078">
        <ele>105.40000152588</ele>
        <time>2013-12-01T09:07:00Z</time>
      </trkpt>
      <trkpt lat="48.37852" lon="2.56109">
        <ele>105.40000152588</ele>
        <time>2013-12-01T09:07:07Z</time>
      </trkpt>
      <trkpt lat="48.37853" lon="2.56111">
        <ele>105.80000305176</ele>
        <time>2013-12-01T09:07:08Z</time>
      </trkpt>
      <trkpt lat="48.37854" lon="2.56115">
        <ele>106.19999694824</ele>
        <time>2013-12-01T09:07:09Z</time>
      </trkpt>
      <trkpt lat="48.37854" lon="2.56119">
        <ele>106.59999847412</ele>
        <time>2013-12-01T09:07:10Z</time>
      </trkpt>
      <trkpt lat="48.37855" lon="2.56126">
        <ele>107</ele>
        <time>2013-12-01T09:07:11Z</time>
      </trkpt>
      <trkpt lat="48.37855" lon="2.5613">
        <ele>107.40000152588</ele>
        <time>2013-12-01T09:07:12Z</time>
      </trkpt>
      <trkpt lat="48.37854" lon="2.56134">
        <ele>107.40000152588</ele>
        <time>2013-12-01T09:07:13Z</time>
      </trkpt>
      <trkpt lat="48.37854" lon="2.56174">
        <ele>107.40000152588</ele>
        <time>2013-12-01T09:07:20Z</time>
      </trkpt>
      <trkpt lat="48.37853" lon="2.56206">
        <ele>107.40000152588</ele>
        <time>2013-12-01T09:07:26Z</time>
      </trkpt>
      <trkpt lat="48.37854" lon="2.56232">
        <ele>108</ele>
        <time>2013-12-01T09:07:31Z</time>
      </trkpt>
      <trkpt lat="48.37853" lon="2.56236">
        <ele>108.40000152588</ele>
        <time>2013-12-01T09:07:32Z</time>
      </trkpt>
      <trkpt lat="48.37853" lon="2.56242">
        <ele>108.80000305176</ele>
        <time>2013-12-01T09:07:33Z</time>
      </trkpt>
      <trkpt lat="48.37851" lon="2.56247">
        <ele>109.19999694824</ele>
        <time>2013-12-01T09:07:34Z</time>
      </trkpt>
      <trkpt lat="48.37851" lon="2.56252">
        <ele>109.59999847412</ele>
        <time>2013-12-01T09:07:35Z</time>
      </trkpt>
      <trkpt lat="48.37843" lon="2.56269">
        <ele>109.59999847412</ele>
        <time>2013-12-01T09:07:39Z</time>
      </trkpt>
      <trkpt lat="48.37834" lon="2.56296">
        <ele>109.59999847412</ele>
        <time>2013-12-01T09:07:46Z</time>
      </trkpt>
      <trkpt lat="48.37828" lon="2.56313">
        <ele>110</ele>
        <time>2013-12-01T09:07:50Z</time>
      </trkpt>
      <trkpt lat="48.37827" lon="2.56318">
        <ele>110.59999847412</ele>
        <time>2013-12-01T09:07:51Z</time>
      </trkpt>
      <trkpt lat="48.37824" lon="2.56321">
        <ele>111</ele>
        <time>2013-12-01T09:07:52Z</time>
      </trkpt>
      <trkpt lat="48.37822" lon="2.56324">
        <ele>111.40000152588</ele>
        <time>2013-12-01T09:07:53Z</time>
      </trkpt>
      <trkpt lat="48.37819" lon="2.56327">
        <ele>111.80000305176</ele>
        <time>2013-12-01T09:07:54Z</time>
      </trkpt>
      <trkpt lat="48.37806" lon="2.56337">
        <ele>111.80000305176</ele>
        <time>2013-12-01T09:07:59Z</time>
      </trkpt>
      <trkpt lat="48.37788" lon="2.56341">
        <ele>111.80000305176</ele>
        <time>2013-12-01T09:08:05Z</time>
      </trkpt>
      <trkpt lat="48.37779" lon="2.56336">
        <ele>111.80000305176</ele>
        <time>2013-12-01T09:08:08Z</time>
      </trkpt>
      <trkpt lat="48.37775" lon="2.56333">
        <ele>111.80000305176</ele>
        <time>2013-12-01T09:08:10Z</time>
      </trkpt>
      <trkpt lat="48.37768" lon="2.56338">
        <ele>112.19999694824</ele>
        <time>2013-12-01T09:08:13Z</time>
      </trkpt>
      <trkpt lat="48.37766" lon="2.5634">
        <ele>112.59999847412</ele>
        <time>2013-12-01T09:08:14Z</time>
      </trkpt>
      <trkpt lat="48.37763" lon="2.56341">
        <ele>113</ele>
        <time>2013-12-01T09:08:15Z</time>
      </trkpt>
      <trkpt lat="48.3776" lon="2.56341">
        <ele>113.40000152588</ele>
        <time>2013-12-01T09:08:16Z</time>
      </trkpt>
      <trkpt lat="48.37757" lon="2.56342">
        <ele>113.80000305176</ele>
        <time>2013-12-01T09:08:17Z</time>
      </trkpt>
      <trkpt lat="48.37734" lon="2.56352">
        <ele>113.80000305176</ele>
        <time>2013-12-01T09:08:24Z</time>
      </trkpt>
      <trkpt lat="48.37722" lon="2.56359">
        <ele>113.80000305176</ele>
        <time>2013-12-01T09:08:27Z</time>
      </trkpt>
      <trkpt lat="48.37723" lon="2.56367">
        <ele>113.80000305176</ele>
        <time>2013-12-01T09:08:29Z</time>
      </trkpt>
      <trkpt lat="48.37725" lon="2.5639">
        <ele>113.80000305176</ele>
        <time>2013-12-01T09:08:33Z</time>
      </trkpt>
      <trkpt lat="48.37729" lon="2.56419">
        <ele>113.80000305176</ele>
        <time>2013-12-01T09:08:37Z</time>
      </trkpt>
      <trkpt lat="48.37729" lon="2.56425">
        <ele>113.80000305176</ele>
        <time>2013-12-01T09:08:38Z</time>
      </trkpt>
      <trkpt lat="48.3772" lon="2.56476">
        <ele>113.80000305176</ele>
        <time>2013-12-01T09:08:46Z</time>
      </trkpt>
      <trkpt lat="48.37718" lon="2.56483">
        <ele>113.80000305176</ele>
        <time>2013-12-01T09:08:47Z</time>
      </trkpt>
      <trkpt lat="48.37712" lon="2.56503">
        <ele>113.80000305176</ele>
        <time>2013-12-01T09:08:50Z</time>
      </trkpt>
      <trkpt lat="48.37711" lon="2.56511">
        <ele>113.80000305176</ele>
        <time>2013-12-01T09:08:51Z</time>
      </trkpt>
      <trkpt lat="48.37704" lon="2.56543">
        <ele>113.80000305176</ele>
        <time>2013-12-01T09:08:56Z</time>
      </trkpt>
      <trkpt lat="48.37702" lon="2.56549">
        <ele>113.80000305176</ele>
        <time>2013-12-01T09:08:57Z</time>
      </trkpt>
      <trkpt lat="48.37699" lon="2.56561">
        <ele>113.80000305176</ele>
        <time>2013-12-01T09:09:00Z</time>
      </trkpt>
      <trkpt lat="48.37696" lon="2.56573">
        <ele>113.80000305176</ele>
        <time>2013-12-01T09:09:02Z</time>
      </trkpt>
      <trkpt lat="48.37695" lon="2.56579">
        <ele>113.80000305176</ele>
        <time>2013-12-01T09:09:03Z</time>
      </trkpt>
      <trkpt lat="48.37693" lon="2.56587">
        <ele>113.80000305176</ele>
        <time>2013-12-01T09:09:04Z</time>
      </trkpt>
      <trkpt lat="48.37692" lon="2.566">
        <ele>113.80000305176</ele>
        <time>2013-12-01T09:09:06Z</time>
      </trkpt>
      <trkpt lat="48.37687" lon="2.56636">
        <ele>113.80000305176</ele>
        <time>2013-12-01T09:09:12Z</time>
      </trkpt>
      <trkpt lat="48.37685" lon="2.5664">
        <ele>113.80000305176</ele>
        <time>2013-12-01T09:09:13Z</time>
      </trkpt>
      <trkpt lat="48.37674" lon="2.56659">
        <ele>113.80000305176</ele>
        <time>2013-12-01T09:09:19Z</time>
      </trkpt>
      <trkpt lat="48.37661" lon="2.56663">
        <ele>113.80000305176</ele>
        <time>2013-12-01T09:09:25Z</time>
      </trkpt>
      <trkpt lat="48.37646" lon="2.56646">
        <ele>113.80000305176</ele>
        <time>2013-12-01T09:09:30Z</time>
      </trkpt>
      <trkpt lat="48.37624" lon="2.56623">
        <ele>113.80000305176</ele>
        <time>2013-12-01T09:09:36Z</time>
      </trkpt>
      <trkpt lat="48.37611" lon="2.56611">
        <ele>113.80000305176</ele>
        <time>2013-12-01T09:09:39Z</time>
      </trkpt>
      <trkpt lat="48.37603" lon="2.56601">
        <ele>113.80000305176</ele>
        <time>2013-12-01T09:09:41Z</time>
      </trkpt>
      <trkpt lat="48.37586" lon="2.56584">
        <ele>113.80000305176</ele>
        <time>2013-12-01T09:09:45Z</time>
      </trkpt>
      <trkpt lat="48.37578" lon="2.56577">
        <ele>113.80000305176</ele>
        <time>2013-12-01T09:09:47Z</time>
      </trkpt>
      <trkpt lat="48.37569" lon="2.56568">
        <ele>113.40000152588</ele>
        <time>2013-12-01T09:09:49Z</time>
      </trkpt>
      <trkpt lat="48.37565" lon="2.56564">
        <ele>112.80000305176</ele>
        <time>2013-12-01T09:09:50Z</time>
      </trkpt>
      <trkpt lat="48.37561" lon="2.56559">
        <ele>112.40000152588</ele>
        <time>2013-12-01T09:09:51Z</time>
      </trkpt>
      <trkpt lat="48.37556" lon="2.56555">
        <ele>112</ele>
        <time>2013-12-01T09:09:52Z</time>
      </trkpt>
      <trkpt lat="48.37552" lon="2.56551">
        <ele>111.40000152588</ele>
        <time>2013-12-01T09:09:53Z</time>
      </trkpt>
      <trkpt lat="48.37544" lon="2.56542">
        <ele>111.40000152588</ele>
        <time>2013-12-01T09:09:55Z</time>
      </trkpt>
      <trkpt lat="48.37516" lon="2.56514">
        <ele>111.40000152588</ele>
        <time>2013-12-01T09:10:02Z</time>
      </trkpt>
      <trkpt lat="48.37486" lon="2.56483">
        <ele>111.40000152588</ele>
        <time>2013-12-01T09:10:09Z</time>
      </trkpt>
      <trkpt lat="48.37456" lon="2.56454">
        <ele>111.40000152588</ele>
        <time>2013-12-01T09:10:16Z</time>
      </trkpt>
      <trkpt lat="48.37431" lon="2.56426">
        <ele>111.40000152588</ele>
        <time>2013-12-01T09:10:22Z</time>
      </trkpt>
      <trkpt lat="48.37407" lon="2.56401">
        <ele>111.40000152588</ele>
        <time>2013-12-01T09:10:28Z</time>
      </trkpt>
      <trkpt lat="48.37376" lon="2.56371">
        <ele>111.40000152588</ele>
        <time>2013-12-01T09:10:37Z</time>
      </trkpt>
      <trkpt lat="48.37358" lon="2.56352">
        <ele>111.40000152588</ele>
        <time>2013-12-01T09:10:43Z</time>
      </trkpt>
      <trkpt lat="48.37353" lon="2.56346">
        <ele>111.40000152588</ele>
        <time>2013-12-01T09:10:45Z</time>
      </trkpt>
      <trkpt lat="48.37339" lon="2.56337">
        <ele>111.40000152588</ele>
        <time>2013-12-01T09:10:49Z</time>
      </trkpt>
      <trkpt lat="48.37315" lon="2.56348">
        <ele>111.40000152588</ele>
        <time>2013-12-01T09:10:55Z</time>
      </trkpt>
      <trkpt lat="48.37307" lon="2.56354">
        <ele>111.40000152588</ele>
        <time>2013-12-01T09:10:57Z</time>
      </trkpt>
      <trkpt lat="48.373" lon="2.56358">
        <ele>111.40000152588</ele>
        <time>2013-12-01T09:10:59Z</time>
      </trkpt>
      <trkpt lat="48.37278" lon="2.56375">
        <ele>111.40000152588</ele>
        <time>2013-12-01T09:11:06Z</time>
      </trkpt>
      <trkpt lat="48.37257" lon="2.56389">
        <ele>111.40000152588</ele>
        <time>2013-12-01T09:11:11Z</time>
      </trkpt>
      <trkpt lat="48.37252" lon="2.56392">
        <ele>111.40000152588</ele>
        <time>2013-12-01T09:11:12Z</time>
      </trkpt>
      <trkpt lat="48.37241" lon="2.56395">
        <ele>111.40000152588</ele>
        <time>2013-12-01T09:11:15Z</time>
      </trkpt>
      <trkpt lat="48.37233" lon="2.56392">
        <ele>111.40000152588</ele>
        <time>2013-12-01T09:11:17Z</time>
      </trkpt>
      <trkpt lat="48.3723" lon="2.56391">
        <ele>111.80000305176</ele>
        <time>2013-12-01T09:11:18Z</time>
      </trkpt>
      <trkpt lat="48.37226" lon="2.56388">
        <ele>112.40000152588</ele>
        <time>2013-12-01T09:11:19Z</time>
      </trkpt>
      <trkpt lat="48.37224" lon="2.56386">
        <ele>112.80000305176</ele>
        <time>2013-12-01T09:11:20Z</time>
      </trkpt>
      <trkpt lat="48.3722" lon="2.56384">
        <ele>113.19999694824</ele>
        <time>2013-12-01T09:11:21Z</time>
      </trkpt>
      <trkpt lat="48.37217" lon="2.5638">
        <ele>113.59999847412</ele>
        <time>2013-12-01T09:11:22Z</time>
      </trkpt>
      <trkpt lat="48.37214" lon="2.56378">
        <ele>113.59999847412</ele>
        <time>2013-12-01T09:11:23Z</time>
      </trkpt>
      <trkpt lat="48.3719" lon="2.5636">
        <ele>114</ele>
        <time>2013-12-01T09:11:30Z</time>
      </trkpt>
      <trkpt lat="48.37187" lon="2.56357">
        <ele>114.40000152588</ele>
        <time>2013-12-01T09:11:31Z</time>
      </trkpt>
      <trkpt lat="48.37184" lon="2.56355">
        <ele>114.80000305176</ele>
        <time>2013-12-01T09:11:32Z</time>
      </trkpt>
      <trkpt lat="48.37182" lon="2.56353">
        <ele>115.19999694824</ele>
        <time>2013-12-01T09:11:33Z</time>
      </trkpt>
      <trkpt lat="48.37178" lon="2.5635">
        <ele>115.59999847412</ele>
        <time>2013-12-01T09:11:34Z</time>
      </trkpt>
      <trkpt lat="48.37165" lon="2.56343">
        <ele>115.59999847412</ele>
        <time>2013-12-01T09:11:38Z</time>
      </trkpt>
      <trkpt lat="48.37155" lon="2.56341">
        <ele>115.59999847412</ele>
        <time>2013-12-01T09:11:43Z</time>
      </trkpt>
      <trkpt lat="48.37153" lon="2.56342">
        <ele>116.19999694824</ele>
        <time>2013-12-01T09:11:44Z</time>
      </trkpt>
      <trkpt lat="48.3715" lon="2.56342">
        <ele>116.59999847412</ele>
        <time>2013-12-01T09:11:45Z</time>
      </trkpt>
      <trkpt lat="48.37148" lon="2.56342">
        <ele>117</ele>
        <time>2013-12-01T09:11:46Z</time>
      </trkpt>
      <trkpt lat="48.37146" lon="2.56341">
        <ele>117.40000152588</ele>
        <time>2013-12-01T09:11:47Z</time>
      </trkpt>
      <trkpt lat="48.37143" lon="2.56342">
        <ele>117.80000305176</ele>
        <time>2013-12-01T09:11:48Z</time>
      </trkpt>
      <trkpt lat="48.37137" lon="2.56345">
        <ele>117.80000305176</ele>
        <time>2013-12-01T09:11:51Z</time>
      </trkpt>
      <trkpt lat="48.37135" lon="2.56345">
        <ele>118.19999694824</ele>
        <time>2013-12-01T09:11:52Z</time>
      </trkpt>
      <trkpt lat="48.37133" lon="2.56346">
        <ele>118.59999847412</ele>
        <time>2013-12-01T09:11:53Z</time>
      </trkpt>
      <trkpt lat="48.37131" lon="2.56347">
        <ele>119</ele>
        <time>2013-12-01T09:11:54Z</time>
      </trkpt>
      <trkpt lat="48.37128" lon="2.56347">
        <ele>119.40000152588</ele>
        <time>2013-12-01T09:11:55Z</time>
      </trkpt>
      <trkpt lat="48.37127" lon="2.56348">
        <ele>119.80000305176</ele>
        <time>2013-12-01T09:11:56Z</time>
      </trkpt>
      <trkpt lat="48.37119" lon="2.56354">
        <ele>119.80000305176</ele>
        <time>2013-12-01T09:12:00Z</time>
      </trkpt>
      <trkpt lat="48.37117" lon="2.56355">
        <ele>120.19999694824</ele>
        <time>2013-12-01T09:12:01Z</time>
      </trkpt>
      <trkpt lat="48.37115" lon="2.56357">
        <ele>120.80000305176</ele>
        <time>2013-12-01T09:12:02Z</time>
      </trkpt>
      <trkpt lat="48.37114" lon="2.5636">
        <ele>121.19999694824</ele>
        <time>2013-12-01T09:12:03Z</time>
      </trkpt>
      <trkpt lat="48.37112" lon="2.56362">
        <ele>121.59999847412</ele>
        <time>2013-12-01T09:12:04Z</time>
      </trkpt>
      <trkpt lat="48.3711" lon="2.56364">
        <ele>122</ele>
        <time>2013-12-01T09:12:05Z</time>
      </trkpt>
      <trkpt lat="48.37104" lon="2.56372">
        <ele>122</ele>
        <time>2013-12-01T09:12:08Z</time>
      </trkpt>
      <trkpt lat="48.37092" lon="2.56389">
        <ele>122</ele>
        <time>2013-12-01T09:12:13Z</time>
      </trkpt>
      <trkpt lat="48.37076" lon="2.56405">
        <ele>122</ele>
        <time>2013-12-01T09:12:18Z</time>
      </trkpt>
      <trkpt lat="48.37064" lon="2.56409">
        <ele>122</ele>
        <time>2013-12-01T09:12:21Z</time>
      </trkpt>
      <trkpt lat="48.3706" lon="2.56411">
        <ele>121.59999847412</ele>
        <time>2013-12-01T09:12:22Z</time>
      </trkpt>
      <trkpt lat="48.37055" lon="2.56408">
        <ele>121.19999694824</ele>
        <time>2013-12-01T09:12:23Z</time>
      </trkpt>
      <trkpt lat="48.37051" lon="2.56405">
        <ele>120.80000305176</ele>
        <time>2013-12-01T09:12:24Z</time>
      </trkpt>
      <trkpt lat="48.37047" lon="2.56402">
        <ele>120.40000152588</ele>
        <time>2013-12-01T09:12:25Z</time>
      </trkpt>
      <trkpt lat="48.37043" lon="2.56401">
        <ele>120</ele>
        <time>2013-12-01T09:12:26Z</time>
      </trkpt>
      <trkpt lat="48.37035" lon="2.564">
        <ele>120</ele>
        <time>2013-12-01T09:12:28Z</time>
      </trkpt>
      <trkpt lat="48.37032" lon="2.56402">
        <ele>120</ele>
        <time>2013-12-01T09:12:29Z</time>
      </trkpt>
      <trkpt lat="48.37018" lon="2.56411">
        <ele>120</ele>
        <time>2013-12-01T09:12:34Z</time>
      </trkpt>
      <trkpt lat="48.37012" lon="2.56417">
        <ele>120</ele>
        <time>2013-12-01T09:12:36Z</time>
      </trkpt>
      <trkpt lat="48.37008" lon="2.56432">
        <ele>120</ele>
        <time>2013-12-01T09:12:39Z</time>
      </trkpt>
      <trkpt lat="48.37007" lon="2.56437">
        <ele>120</ele>
        <time>2013-12-01T09:12:40Z</time>
      </trkpt>
      <trkpt lat="48.37009" lon="2.56443">
        <ele>120</ele>
        <time>2013-12-01T09:12:41Z</time>
      </trkpt>
      <trkpt lat="48.3701" lon="2.56465">
        <ele>120</ele>
        <time>2013-12-01T09:12:44Z</time>
      </trkpt>
      <trkpt lat="48.37014" lon="2.56486">
        <ele>120</ele>
        <time>2013-12-01T09:12:48Z</time>
      </trkpt>
      <trkpt lat="48.37019" lon="2.565">
        <ele>120</ele>
        <time>2013-12-01T09:12:51Z</time>
      </trkpt>
      <trkpt lat="48.37026" lon="2.5652">
        <ele>120</ele>
        <time>2013-12-01T09:12:56Z</time>
      </trkpt>
      <trkpt lat="48.37018" lon="2.56564">
        <ele>120</ele>
        <time>2013-12-01T09:13:05Z</time>
      </trkpt>
      <trkpt lat="48.37011" lon="2.56599">
        <ele>120</ele>
        <time>2013-12-01T09:13:11Z</time>
      </trkpt>
      <trkpt lat="48.37006" lon="2.5662">
        <ele>120</ele>
        <time>2013-12-01T09:13:14Z</time>
      </trkpt>
      <trkpt lat="48.37004" lon="2.56626">
        <ele>120</ele>
        <time>2013-12-01T09:13:15Z</time>
      </trkpt>
      <trkpt lat="48.37001" lon="2.56644">
        <ele>120</ele>
        <time>2013-12-01T09:13:18Z</time>
      </trkpt>
      <trkpt lat="48.37" lon="2.56649">
        <ele>120</ele>
        <time>2013-12-01T09:13:19Z</time>
      </trkpt>
      <trkpt lat="48.36993" lon="2.56685">
        <ele>120</ele>
        <time>2013-12-01T09:13:25Z</time>
      </trkpt>
      <trkpt lat="48.36984" lon="2.56724">
        <ele>120</ele>
        <time>2013-12-01T09:13:32Z</time>
      </trkpt>
      <trkpt lat="48.36976" lon="2.56766">
        <ele>120</ele>
        <time>2013-12-01T09:13:39Z</time>
      </trkpt>
      <trkpt lat="48.36972" lon="2.56779">
        <ele>120</ele>
        <time>2013-12-01T09:13:41Z</time>
      </trkpt>
      <trkpt lat="48.36965" lon="2.56806">
        <ele>120</ele>
        <time>2013-12-01T09:13:45Z</time>
      </trkpt>
      <trkpt lat="48.36958" lon="2.56836">
        <ele>120</ele>
        <time>2013-12-01T09:13:50Z</time>
      </trkpt>
      <trkpt lat="48.36957" lon="2.56842">
        <ele>120</ele>
        <time>2013-12-01T09:13:51Z</time>
      </trkpt>
      <trkpt lat="48.36945" lon="2.56883">
        <ele>120</ele>
        <time>2013-12-01T09:13:57Z</time>
      </trkpt>
      <trkpt lat="48.3693" lon="2.56929">
        <ele>120</ele>
        <time>2013-12-01T09:14:04Z</time>
      </trkpt>
      <trkpt lat="48.36926" lon="2.56941">
        <ele>119.59999847412</ele>
        <time>2013-12-01T09:14:06Z</time>
      </trkpt>
      <trkpt lat="48.36924" lon="2.56947">
        <ele>119.19999694824</ele>
        <time>2013-12-01T09:14:07Z</time>
      </trkpt>
      <trkpt lat="48.36922" lon="2.56953">
        <ele>118.80000305176</ele>
        <time>2013-12-01T09:14:08Z</time>
      </trkpt>
      <trkpt lat="48.36921" lon="2.56958">
        <ele>118.40000152588</ele>
        <time>2013-12-01T09:14:09Z</time>
      </trkpt>
      <trkpt lat="48.36919" lon="2.56964">
        <ele>118</ele>
        <time>2013-12-01T09:14:10Z</time>
      </trkpt>
      <trkpt lat="48.3691" lon="2.57003">
        <ele>118</ele>
        <time>2013-12-01T09:14:16Z</time>
      </trkpt>
      <trkpt lat="48.36903" lon="2.57024">
        <ele>117.59999847412</ele>
        <time>2013-12-01T09:14:19Z</time>
      </trkpt>
      <trkpt lat="48.36901" lon="2.57033">
        <ele>117.19999694824</ele>
        <time>2013-12-01T09:14:20Z</time>
      </trkpt>
      <trkpt lat="48.36899" lon="2.5704">
        <ele>116.80000305176</ele>
        <time>2013-12-01T09:14:21Z</time>
      </trkpt>
      <trkpt lat="48.36898" lon="2.57047">
        <ele>116.40000152588</ele>
        <time>2013-12-01T09:14:22Z</time>
      </trkpt>
      <trkpt lat="48.36896" lon="2.57054">
        <ele>116</ele>
        <time>2013-12-01T09:14:23Z</time>
      </trkpt>
      <trkpt lat="48.36892" lon="2.57069">
        <ele>116</ele>
        <time>2013-12-01T09:14:25Z</time>
      </trkpt>
      <trkpt lat="48.36891" lon="2.57076">
        <ele>116</ele>
        <time>2013-12-01T09:14:26Z</time>
      </trkpt>
      <trkpt lat="48.36881" lon="2.57113">
        <ele>116</ele>
        <time>2013-12-01T09:14:32Z</time>
      </trkpt>
      <trkpt lat="48.36879" lon="2.5712">
        <ele>116</ele>
        <time>2013-12-01T09:14:33Z</time>
      </trkpt>
      <trkpt lat="48.36874" lon="2.57146">
        <ele>115.59999847412</ele>
        <time>2013-12-01T09:14:37Z</time>
      </trkpt>
      <trkpt lat="48.36872" lon="2.57153">
        <ele>115.19999694824</ele>
        <time>2013-12-01T09:14:38Z</time>
      </trkpt>
      <trkpt lat="48.3687" lon="2.5716">
        <ele>114.80000305176</ele>
        <time>2013-12-01T09:14:39Z</time>
      </trkpt>
      <trkpt lat="48.36868" lon="2.57169">
        <ele>114.40000152588</ele>
        <time>2013-12-01T09:14:40Z</time>
      </trkpt>
      <trkpt lat="48.36865" lon="2.57177">
        <ele>114</ele>
        <time>2013-12-01T09:14:41Z</time>
      </trkpt>
      <trkpt lat="48.36863" lon="2.57185">
        <ele>114</ele>
        <time>2013-12-01T09:14:42Z</time>
      </trkpt>
      <trkpt lat="48.36856" lon="2.57209">
        <ele>113.59999847412</ele>
        <time>2013-12-01T09:14:45Z</time>
      </trkpt>
      <trkpt lat="48.36853" lon="2.57219">
        <ele>113</ele>
        <time>2013-12-01T09:14:46Z</time>
      </trkpt>
      <trkpt lat="48.36851" lon="2.57227">
        <ele>112.59999847412</ele>
        <time>2013-12-01T09:14:47Z</time>
      </trkpt>
      <trkpt lat="48.36848" lon="2.57234">
        <ele>112.19999694824</ele>
        <time>2013-12-01T09:14:48Z</time>
      </trkpt>
      <trkpt lat="48.36846" lon="2.5724">
        <ele>111.80000305176</ele>
        <time>2013-12-01T09:14:49Z</time>
      </trkpt>
      <trkpt lat="48.36831" lon="2.5728">
        <ele>111.80000305176</ele>
        <time>2013-12-01T09:14:56Z</time>
      </trkpt>
      <trkpt lat="48.36821" lon="2.57311">
        <ele>111.80000305176</ele>
        <time>2013-12-01T09:15:02Z</time>
      </trkpt>
      <trkpt lat="48.36812" lon="2.57331">
        <ele>112.19999694824</ele>
        <time>2013-12-01T09:15:06Z</time>
      </trkpt>
      <trkpt lat="48.36811" lon="2.57335">
        <ele>112.59999847412</ele>
        <time>2013-12-01T09:15:07Z</time>
      </trkpt>
      <trkpt lat="48.36809" lon="2.57339">
        <ele>113</ele>
        <time>2013-12-01T09:15:08Z</time>
      </trkpt>
      <trkpt lat="48.36807" lon="2.57342">
        <ele>113.40000152588</ele>
        <time>2013-12-01T09:15:09Z</time>
      </trkpt>
      <trkpt lat="48.36806" lon="2.57346">
        <ele>114</ele>
        <time>2013-12-01T09:15:10Z</time>
      </trkpt>
      <trkpt lat="48.36802" lon="2.57355">
        <ele>114</ele>
        <time>2013-12-01T09:15:12Z</time>
      </trkpt>
      <trkpt lat="48.36786" lon="2.57386">
        <ele>114.40000152588</ele>
        <time>2013-12-01T09:15:19Z</time>
      </trkpt>
      <trkpt lat="48.36784" lon="2.5739">
        <ele>114.80000305176</ele>
        <time>2013-12-01T09:15:20Z</time>
      </trkpt>
      <trkpt lat="48.36781" lon="2.57395">
        <ele>115.19999694824</ele>
        <time>2013-12-01T09:15:21Z</time>
      </trkpt>
      <trkpt lat="48.36779" lon="2.574">
        <ele>115.59999847412</ele>
        <time>2013-12-01T09:15:22Z</time>
      </trkpt>
      <trkpt lat="48.36777" lon="2.57404">
        <ele>116</ele>
        <time>2013-12-01T09:15:23Z</time>
      </trkpt>
      <trkpt lat="48.36768" lon="2.57421">
        <ele>116</ele>
        <time>2013-12-01T09:15:27Z</time>
      </trkpt>
      <trkpt lat="48.36756" lon="2.57442">
        <ele>116</ele>
        <time>2013-12-01T09:15:32Z</time>
      </trkpt>
      <trkpt lat="48.36744" lon="2.5747">
        <ele>116</ele>
        <time>2013-12-01T09:15:38Z</time>
      </trkpt>
      <trkpt lat="48.36738" lon="2.57484">
        <ele>116.40000152588</ele>
        <time>2013-12-01T09:15:41Z</time>
      </trkpt>
      <trkpt lat="48.36736" lon="2.57489">
        <ele>116.80000305176</ele>
        <time>2013-12-01T09:15:42Z</time>
      </trkpt>
      <trkpt lat="48.36734" lon="2.57493">
        <ele>117.19999694824</ele>
        <time>2013-12-01T09:15:43Z</time>
      </trkpt>
      <trkpt lat="48.36732" lon="2.57498">
        <ele>117.59999847412</ele>
        <time>2013-12-01T09:15:44Z</time>
      </trkpt>
      <trkpt lat="48.3673" lon="2.57502">
        <ele>118</ele>
        <time>2013-12-01T09:15:45Z</time>
      </trkpt>
      <trkpt lat="48.3672" lon="2.57531">
        <ele>118</ele>
        <time>2013-12-01T09:15:51Z</time>
      </trkpt>
      <trkpt lat="48.36707" lon="2.57567">
        <ele>118.40000152588</ele>
        <time>2013-12-01T09:15:59Z</time>
      </trkpt>
      <trkpt lat="48.36705" lon="2.57572">
        <ele>118.80000305176</ele>
        <time>2013-12-01T09:16:00Z</time>
      </trkpt>
      <trkpt lat="48.36703" lon="2.57577">
        <ele>119.19999694824</ele>
        <time>2013-12-01T09:16:01Z</time>
      </trkpt>
      <trkpt lat="48.36702" lon="2.57582">
        <ele>119.59999847412</ele>
        <time>2013-12-01T09:16:02Z</time>
      </trkpt>
      <trkpt lat="48.36702" lon="2.57587">
        <ele>120</ele>
        <time>2013-12-01T09:16:03Z</time>
      </trkpt>
      <trkpt lat="48.367" lon="2.57597">
        <ele>120</ele>
        <time>2013-12-01T09:16:05Z</time>
      </trkpt>
      <trkpt lat="48.3669" lon="2.57625">
        <ele>120</ele>
        <time>2013-12-01T09:16:11Z</time>
      </trkpt>
      <trkpt lat="48.3668" lon="2.57655">
        <ele>120</ele>
        <time>2013-12-01T09:16:17Z</time>
      </trkpt>
      <trkpt lat="48.36671" lon="2.57689">
        <ele>120.40000152588</ele>
        <time>2013-12-01T09:16:23Z</time>
      </trkpt>
      <trkpt lat="48.3667" lon="2.57694">
        <ele>120.80000305176</ele>
        <time>2013-12-01T09:16:24Z</time>
      </trkpt>
      <trkpt lat="48.36668" lon="2.57698">
        <ele>121.19999694824</ele>
        <time>2013-12-01T09:16:25Z</time>
      </trkpt>
      <trkpt lat="48.36667" lon="2.57703">
        <ele>121.59999847412</ele>
        <time>2013-12-01T09:16:26Z</time>
      </trkpt>
      <trkpt lat="48.36665" lon="2.57707">
        <ele>122</ele>
        <time>2013-12-01T09:16:27Z</time>
      </trkpt>
      <trkpt lat="48.3666" lon="2.57723">
        <ele>122</ele>
        <time>2013-12-01T09:16:31Z</time>
      </trkpt>
      <trkpt lat="48.36653" lon="2.57756">
        <ele>122</ele>
        <time>2013-12-01T09:16:37Z</time>
      </trkpt>
      <trkpt lat="48.36645" lon="2.57795">
        <ele>122</ele>
        <time>2013-12-01T09:16:44Z</time>
      </trkpt>
      <trkpt lat="48.36641" lon="2.5783">
        <ele>122</ele>
        <time>2013-12-01T09:16:50Z</time>
      </trkpt>
      <trkpt lat="48.36634" lon="2.57867">
        <ele>122</ele>
        <time>2013-12-01T09:16:56Z</time>
      </trkpt>
      <trkpt lat="48.36633" lon="2.57902">
        <ele>122</ele>
        <time>2013-12-01T09:17:02Z</time>
      </trkpt>
      <trkpt lat="48.3663" lon="2.57937">
        <ele>122</ele>
        <time>2013-12-01T09:17:08Z</time>
      </trkpt>
      <trkpt lat="48.36631" lon="2.57976">
        <ele>122</ele>
        <time>2013-12-01T09:17:14Z</time>
      </trkpt>
      <trkpt lat="48.3663" lon="2.57989">
        <ele>122</ele>
        <time>2013-12-01T09:17:16Z</time>
      </trkpt>
      <trkpt lat="48.36628" lon="2.58001">
        <ele>122</ele>
        <time>2013-12-01T09:17:18Z</time>
      </trkpt>
      <trkpt lat="48.36617" lon="2.58041">
        <ele>122</ele>
        <time>2013-12-01T09:17:24Z</time>
      </trkpt>
      <trkpt lat="48.36604" lon="2.58095">
        <ele>122</ele>
        <time>2013-12-01T09:17:31Z</time>
      </trkpt>
      <trkpt lat="48.36602" lon="2.58101">
        <ele>122</ele>
        <time>2013-12-01T09:17:32Z</time>
      </trkpt>
      <trkpt lat="48.366" lon="2.58107">
        <ele>122</ele>
        <time>2013-12-01T09:17:33Z</time>
      </trkpt>
      <trkpt lat="48.36594" lon="2.58123">
        <ele>122</ele>
        <time>2013-12-01T09:17:36Z</time>
      </trkpt>
      <trkpt lat="48.36592" lon="2.58128">
        <ele>122</ele>
        <time>2013-12-01T09:17:37Z</time>
      </trkpt>
      <trkpt lat="48.36588" lon="2.58138">
        <ele>122</ele>
        <time>2013-12-01T09:17:39Z</time>
      </trkpt>
      <trkpt lat="48.36574" lon="2.58168">
        <ele>122</ele>
        <time>2013-12-01T09:17:45Z</time>
      </trkpt>
      <trkpt lat="48.36569" lon="2.5818">
        <ele>122.40000152588</ele>
        <time>2013-12-01T09:17:47Z</time>
      </trkpt>
      <trkpt lat="48.36567" lon="2.58186">
        <ele>122.80000305176</ele>
        <time>2013-12-01T09:17:48Z</time>
      </trkpt>
      <trkpt lat="48.36565" lon="2.58193">
        <ele>123.40000152588</ele>
        <time>2013-12-01T09:17:49Z</time>
      </trkpt>
      <trkpt lat="48.36562" lon="2.582">
        <ele>123.80000305176</ele>
        <time>2013-12-01T09:17:50Z</time>
      </trkpt>
      <trkpt lat="48.3656" lon="2.58207">
        <ele>124.19999694824</ele>
        <time>2013-12-01T09:17:51Z</time>
      </trkpt>
      <trkpt lat="48.36558" lon="2.58215">
        <ele>124.19999694824</ele>
        <time>2013-12-01T09:17:52Z</time>
      </trkpt>
      <trkpt lat="48.36542" lon="2.5826">
        <ele>124.19999694824</ele>
        <time>2013-12-01T09:17:59Z</time>
      </trkpt>
      <trkpt lat="48.36536" lon="2.58277">
        <ele>124.19999694824</ele>
        <time>2013-12-01T09:18:02Z</time>
      </trkpt>
      <trkpt lat="48.36532" lon="2.58297">
        <ele>124.19999694824</ele>
        <time>2013-12-01T09:18:05Z</time>
      </trkpt>
      <trkpt lat="48.36524" lon="2.58324">
        <ele>124.19999694824</ele>
        <time>2013-12-01T09:18:10Z</time>
      </trkpt>
      <trkpt lat="48.36515" lon="2.58357">
        <ele>124.19999694824</ele>
        <time>2013-12-01T09:18:15Z</time>
      </trkpt>
      <trkpt lat="48.36504" lon="2.58396">
        <ele>124.19999694824</ele>
        <time>2013-12-01T09:18:21Z</time>
      </trkpt>
      <trkpt lat="48.36503" lon="2.58405">
        <ele>124.19999694824</ele>
        <time>2013-12-01T09:18:22Z</time>
      </trkpt>
      <trkpt lat="48.36501" lon="2.58413">
        <ele>123.59999847412</ele>
        <time>2013-12-01T09:18:23Z</time>
      </trkpt>
      <trkpt lat="48.365" lon="2.5842">
        <ele>123.19999694824</ele>
        <time>2013-12-01T09:18:24Z</time>
      </trkpt>
      <trkpt lat="48.36498" lon="2.58426">
        <ele>122.80000305176</ele>
        <time>2013-12-01T09:18:25Z</time>
      </trkpt>
      <trkpt lat="48.36496" lon="2.58432">
        <ele>122.40000152588</ele>
        <time>2013-12-01T09:18:26Z</time>
      </trkpt>
      <trkpt lat="48.36494" lon="2.58439">
        <ele>122</ele>
        <time>2013-12-01T09:18:27Z</time>
      </trkpt>
      <trkpt lat="48.36479" lon="2.58479">
        <ele>122</ele>
        <time>2013-12-01T09:18:33Z</time>
      </trkpt>
      <trkpt lat="48.36467" lon="2.58513">
        <ele>122</ele>
        <time>2013-12-01T09:18:39Z</time>
      </trkpt>
      <trkpt lat="48.36457" lon="2.58543">
        <ele>122</ele>
        <time>2013-12-01T09:18:44Z</time>
      </trkpt>
      <trkpt lat="48.36439" lon="2.58603">
        <ele>122</ele>
        <time>2013-12-01T09:18:52Z</time>
      </trkpt>
      <trkpt lat="48.36425" lon="2.58639">
        <ele>122</ele>
        <time>2013-12-01T09:18:56Z</time>
      </trkpt>
      <trkpt lat="48.36422" lon="2.58645">
        <ele>122</ele>
        <time>2013-12-01T09:18:57Z</time>
      </trkpt>
      <trkpt lat="48.36404" lon="2.5867">
        <ele>122</ele>
        <time>2013-12-01T09:19:02Z</time>
      </trkpt>
      <trkpt lat="48.36398" lon="2.58674">
        <ele>122</ele>
        <time>2013-12-01T09:19:04Z</time>
      </trkpt>
      <trkpt lat="48.36378" lon="2.58687">
        <ele>122</ele>
        <time>2013-12-01T09:19:10Z</time>
      </trkpt>
      <trkpt lat="48.3637" lon="2.5869">
        <ele>122.40000152588</ele>
        <time>2013-12-01T09:19:12Z</time>
      </trkpt>
      <trkpt lat="48.36366" lon="2.58692">
        <ele>123</ele>
        <time>2013-12-01T09:19:13Z</time>
      </trkpt>
      <trkpt lat="48.36363" lon="2.58694">
        <ele>123.40000152588</ele>
        <time>2013-12-01T09:19:14Z</time>
      </trkpt>
      <trkpt lat="48.36359" lon="2.58695">
        <ele>123.80000305176</ele>
        <time>2013-12-01T09:19:15Z</time>
      </trkpt>
      <trkpt lat="48.36355" lon="2.58697">
        <ele>124.19999694824</ele>
        <time>2013-12-01T09:19:16Z</time>
      </trkpt>
      <trkpt lat="48.36337" lon="2.58707">
        <ele>124.19999694824</ele>
        <time>2013-12-01T09:19:21Z</time>
      </trkpt>
      <trkpt lat="48.36326" lon="2.58726">
        <ele>124.19999694824</ele>
        <time>2013-12-01T09:19:25Z</time>
      </trkpt>
      <trkpt lat="48.36312" lon="2.58764">
        <ele>124.19999694824</ele>
        <time>2013-12-01T09:19:32Z</time>
      </trkpt>
      <trkpt lat="48.36285" lon="2.58816">
        <ele>124.19999694824</ele>
        <time>2013-12-01T09:19:42Z</time>
      </trkpt>
      <trkpt lat="48.36279" lon="2.58825">
        <ele>124.19999694824</ele>
        <time>2013-12-01T09:19:44Z</time>
      </trkpt>
      <trkpt lat="48.36266" lon="2.58843">
        <ele>124.19999694824</ele>
        <time>2013-12-01T09:19:48Z</time>
      </trkpt>
      <trkpt lat="48.36261" lon="2.58855">
        <ele>124.19999694824</ele>
        <time>2013-12-01T09:19:50Z</time>
      </trkpt>
      <trkpt lat="48.36256" lon="2.58872">
        <ele>124.19999694824</ele>
        <time>2013-12-01T09:19:53Z</time>
      </trkpt>
      <trkpt lat="48.36256" lon="2.58905">
        <ele>124.19999694824</ele>
        <time>2013-12-01T09:19:58Z</time>
      </trkpt>
      <trkpt lat="48.36259" lon="2.58936">
        <ele>124.19999694824</ele>
        <time>2013-12-01T09:20:05Z</time>
      </trkpt>
      <trkpt lat="48.36258" lon="2.58965">
        <ele>124.19999694824</ele>
        <time>2013-12-01T09:20:12Z</time>
      </trkpt>
      <trkpt lat="48.36258" lon="2.59012">
        <ele>124.19999694824</ele>
        <time>2013-12-01T09:20:20Z</time>
      </trkpt>
      <trkpt lat="48.3626" lon="2.5904">
        <ele>124.19999694824</ele>
        <time>2013-12-01T09:20:25Z</time>
      </trkpt>
      <trkpt lat="48.36263" lon="2.5908">
        <ele>124.19999694824</ele>
        <time>2013-12-01T09:20:30Z</time>
      </trkpt>
      <trkpt lat="48.36266" lon="2.5914">
        <ele>124.19999694824</ele>
        <time>2013-12-01T09:20:38Z</time>
      </trkpt>
      <trkpt lat="48.36266" lon="2.5917">
        <ele>124.19999694824</ele>
        <time>2013-12-01T09:20:43Z</time>
      </trkpt>
      <trkpt lat="48.36268" lon="2.59207">
        <ele>124.19999694824</ele>
        <time>2013-12-01T09:20:49Z</time>
      </trkpt>
      <trkpt lat="48.36266" lon="2.59248">
        <ele>124.19999694824</ele>
        <time>2013-12-01T09:20:55Z</time>
      </trkpt>
      <trkpt lat="48.36272" lon="2.5931">
        <ele>124.19999694824</ele>
        <time>2013-12-01T09:21:03Z</time>
      </trkpt>
      <trkpt lat="48.36275" lon="2.59343">
        <ele>124.19999694824</ele>
        <time>2013-12-01T09:21:08Z</time>
      </trkpt>
      <trkpt lat="48.36277" lon="2.59358">
        <ele>124.19999694824</ele>
        <time>2013-12-01T09:21:10Z</time>
      </trkpt>
      <trkpt lat="48.36276" lon="2.59373">
        <ele>123.80000305176</ele>
        <time>2013-12-01T09:21:12Z</time>
      </trkpt>
      <trkpt lat="48.36276" lon="2.59381">
        <ele>123.40000152588</ele>
        <time>2013-12-01T09:21:13Z</time>
      </trkpt>
      <trkpt lat="48.36276" lon="2.59388">
        <ele>123</ele>
        <time>2013-12-01T09:21:14Z</time>
      </trkpt>
      <trkpt lat="48.36276" lon="2.59395">
        <ele>122.59999847412</ele>
        <time>2013-12-01T09:21:15Z</time>
      </trkpt>
      <trkpt lat="48.36277" lon="2.59401">
        <ele>122.19999694824</ele>
        <time>2013-12-01T09:21:16Z</time>
      </trkpt>
      <trkpt lat="48.36278" lon="2.59414">
        <ele>122.19999694824</ele>
        <time>2013-12-01T09:21:18Z</time>
      </trkpt>
      <trkpt lat="48.36278" lon="2.59436">
        <ele>122.19999694824</ele>
        <time>2013-12-01T09:21:21Z</time>
      </trkpt>
      <trkpt lat="48.36277" lon="2.59459">
        <ele>122.19999694824</ele>
        <time>2013-12-01T09:21:24Z</time>
      </trkpt>
      <trkpt lat="48.36277" lon="2.59513">
        <ele>122.19999694824</ele>
        <time>2013-12-01T09:21:30Z</time>
      </trkpt>
      <trkpt lat="48.36279" lon="2.5952">
        <ele>122.19999694824</ele>
        <time>2013-12-01T09:21:31Z</time>
      </trkpt>
      <trkpt lat="48.36281" lon="2.5955">
        <ele>122.19999694824</ele>
        <time>2013-12-01T09:21:35Z</time>
      </trkpt>
      <trkpt lat="48.3628" lon="2.5958">
        <ele>122.19999694824</ele>
        <time>2013-12-01T09:21:40Z</time>
      </trkpt>
      <trkpt lat="48.36284" lon="2.59623">
        <ele>122.19999694824</ele>
        <time>2013-12-01T09:21:47Z</time>
      </trkpt>
      <trkpt lat="48.36285" lon="2.59651">
        <ele>122.19999694824</ele>
        <time>2013-12-01T09:21:52Z</time>
      </trkpt>
      <trkpt lat="48.36287" lon="2.59693">
        <ele>122.19999694824</ele>
        <time>2013-12-01T09:21:59Z</time>
      </trkpt>
      <trkpt lat="48.36287" lon="2.59731">
        <ele>122.19999694824</ele>
        <time>2013-12-01T09:22:05Z</time>
      </trkpt>
      <trkpt lat="48.3629" lon="2.59778">
        <ele>122.19999694824</ele>
        <time>2013-12-01T09:22:12Z</time>
      </trkpt>
      <trkpt lat="48.3629" lon="2.5983">
        <ele>122.19999694824</ele>
        <time>2013-12-01T09:22:21Z</time>
      </trkpt>
      <trkpt lat="48.36289" lon="2.59855">
        <ele>122.19999694824</ele>
        <time>2013-12-01T09:22:25Z</time>
      </trkpt>
      <trkpt lat="48.36293" lon="2.59906">
        <ele>122.19999694824</ele>
        <time>2013-12-01T09:22:33Z</time>
      </trkpt>
      <trkpt lat="48.36295" lon="2.59949">
        <ele>122.19999694824</ele>
        <time>2013-12-01T09:22:40Z</time>
      </trkpt>
      <trkpt lat="48.36295" lon="2.59989">
        <ele>122.19999694824</ele>
        <time>2013-12-01T09:22:47Z</time>
      </trkpt>
      <trkpt lat="48.36297" lon="2.60036">
        <ele>122.19999694824</ele>
        <time>2013-12-01T09:22:55Z</time>
      </trkpt>
      <trkpt lat="48.363" lon="2.60078">
        <ele>122.19999694824</ele>
        <time>2013-12-01T09:23:02Z</time>
      </trkpt>
      <trkpt lat="48.36301" lon="2.60091">
        <ele>122.19999694824</ele>
        <time>2013-12-01T09:23:04Z</time>
      </trkpt>
      <trkpt lat="48.36301" lon="2.60115">
        <ele>122.19999694824</ele>
        <time>2013-12-01T09:23:08Z</time>
      </trkpt>
      <trkpt lat="48.36302" lon="2.60127">
        <ele>122.19999694824</ele>
        <time>2013-12-01T09:23:10Z</time>
      </trkpt>
      <trkpt lat="48.36301" lon="2.60144">
        <ele>122.19999694824</ele>
        <time>2013-12-01T09:23:13Z</time>
      </trkpt>
      <trkpt lat="48.36303" lon="2.60183">
        <ele>122.19999694824</ele>
        <time>2013-12-01T09:23:20Z</time>
      </trkpt>
      <trkpt lat="48.36304" lon="2.60189">
        <ele>122.19999694824</ele>
        <time>2013-12-01T09:23:21Z</time>
      </trkpt>
      <trkpt lat="48.36305" lon="2.60221">
        <ele>122.19999694824</ele>
        <time>2013-12-01T09:23:27Z</time>
      </trkpt>
      <trkpt lat="48.36306" lon="2.60251">
        <ele>122.59999847412</ele>
        <time>2013-12-01T09:23:32Z</time>
      </trkpt>
      <trkpt lat="48.36306" lon="2.60256">
        <ele>123</ele>
        <time>2013-12-01T09:23:33Z</time>
      </trkpt>
      <trkpt lat="48.36307" lon="2.60261">
        <ele>123.40000152588</ele>
        <time>2013-12-01T09:23:34Z</time>
      </trkpt>
      <trkpt lat="48.36308" lon="2.60266">
        <ele>123.80000305176</ele>
        <time>2013-12-01T09:23:35Z</time>
      </trkpt>
      <trkpt lat="48.36309" lon="2.6027">
        <ele>124.19999694824</ele>
        <time>2013-12-01T09:23:36Z</time>
      </trkpt>
      <trkpt lat="48.36311" lon="2.60309">
        <ele>124.19999694824</ele>
        <time>2013-12-01T09:23:43Z</time>
      </trkpt>
      <trkpt lat="48.36313" lon="2.60346">
        <ele>124.19999694824</ele>
        <time>2013-12-01T09:23:50Z</time>
      </trkpt>
      <trkpt lat="48.36316" lon="2.60382">
        <ele>124.19999694824</ele>
        <time>2013-12-01T09:23:56Z</time>
      </trkpt>
      <trkpt lat="48.36317" lon="2.60423">
        <ele>124.19999694824</ele>
        <time>2013-12-01T09:24:03Z</time>
      </trkpt>
      <trkpt lat="48.3632" lon="2.60468">
        <ele>124.19999694824</ele>
        <time>2013-12-01T09:24:10Z</time>
      </trkpt>
      <trkpt lat="48.36321" lon="2.60504">
        <ele>124.19999694824</ele>
        <time>2013-12-01T09:24:16Z</time>
      </trkpt>
      <trkpt lat="48.36324" lon="2.60536">
        <ele>124.19999694824</ele>
        <time>2013-12-01T09:24:22Z</time>
      </trkpt>
      <trkpt lat="48.36329" lon="2.60573">
        <ele>124.19999694824</ele>
        <time>2013-12-01T09:24:29Z</time>
      </trkpt>
      <trkpt lat="48.36332" lon="2.60617">
        <ele>124.19999694824</ele>
        <time>2013-12-01T09:24:37Z</time>
      </trkpt>
      <trkpt lat="48.36333" lon="2.60635">
        <ele>124.59999847412</ele>
        <time>2013-12-01T09:24:40Z</time>
      </trkpt>
      <trkpt lat="48.36334" lon="2.60641">
        <ele>125</ele>
        <time>2013-12-01T09:24:41Z</time>
      </trkpt>
      <trkpt lat="48.36334" lon="2.60648">
        <ele>125.59999847412</ele>
        <time>2013-12-01T09:24:42Z</time>
      </trkpt>
      <trkpt lat="48.36334" lon="2.60654">
        <ele>126</ele>
        <time>2013-12-01T09:24:43Z</time>
      </trkpt>
      <trkpt lat="48.36334" lon="2.60661">
        <ele>126.40000152588</ele>
        <time>2013-12-01T09:24:44Z</time>
      </trkpt>
      <trkpt lat="48.36343" lon="2.60691">
        <ele>126.40000152588</ele>
        <time>2013-12-01T09:24:50Z</time>
      </trkpt>
      <trkpt lat="48.36354" lon="2.6069">
        <ele>126.40000152588</ele>
        <time>2013-12-01T09:24:53Z</time>
      </trkpt>
      <trkpt lat="48.36358" lon="2.6069">
        <ele>126.40000152588</ele>
        <time>2013-12-01T09:24:54Z</time>
      </trkpt>
      <trkpt lat="48.36378" lon="2.60686">
        <ele>126.40000152588</ele>
        <time>2013-12-01T09:25:00Z</time>
      </trkpt>
      <trkpt lat="48.36414" lon="2.60677">
        <ele>126.40000152588</ele>
        <time>2013-12-01T09:25:10Z</time>
      </trkpt>
      <trkpt lat="48.3644" lon="2.60673">
        <ele>126.40000152588</ele>
        <time>2013-12-01T09:25:17Z</time>
      </trkpt>
      <trkpt lat="48.36461" lon="2.60668">
        <ele>126.40000152588</ele>
        <time>2013-12-01T09:25:23Z</time>
      </trkpt>
      <trkpt lat="48.36479" lon="2.60667">
        <ele>126.40000152588</ele>
        <time>2013-12-01T09:25:28Z</time>
      </trkpt>
      <trkpt lat="48.365" lon="2.60665">
        <ele>126.40000152588</ele>
        <time>2013-12-01T09:25:34Z</time>
      </trkpt>
      <trkpt lat="48.36527" lon="2.60661">
        <ele>126.40000152588</ele>
        <time>2013-12-01T09:25:39Z</time>
      </trkpt>
      <trkpt lat="48.36552" lon="2.60656">
        <ele>126.40000152588</ele>
        <time>2013-12-01T09:25:45Z</time>
      </trkpt>
      <trkpt lat="48.36575" lon="2.60652">
        <ele>126.40000152588</ele>
        <time>2013-12-01T09:25:51Z</time>
      </trkpt>
      <trkpt lat="48.36604" lon="2.60647">
        <ele>126.40000152588</ele>
        <time>2013-12-01T09:25:58Z</time>
      </trkpt>
      <trkpt lat="48.36623" lon="2.60644">
        <ele>126</ele>
        <time>2013-12-01T09:26:03Z</time>
      </trkpt>
      <trkpt lat="48.36626" lon="2.60643">
        <ele>125.59999847412</ele>
        <time>2013-12-01T09:26:04Z</time>
      </trkpt>
      <trkpt lat="48.36631" lon="2.60641">
        <ele>125.19999694824</ele>
        <time>2013-12-01T09:26:05Z</time>
      </trkpt>
      <trkpt lat="48.36634" lon="2.60638">
        <ele>124.80000305176</ele>
        <time>2013-12-01T09:26:06Z</time>
      </trkpt>
      <trkpt lat="48.36639" lon="2.60635">
        <ele>124.19999694824</ele>
        <time>2013-12-01T09:26:07Z</time>
      </trkpt>
      <trkpt lat="48.36646" lon="2.60626">
        <ele>124.19999694824</ele>
        <time>2013-12-01T09:26:09Z</time>
      </trkpt>
      <trkpt lat="48.36652" lon="2.60616">
        <ele>124.19999694824</ele>
        <time>2013-12-01T09:26:11Z</time>
      </trkpt>
      <trkpt lat="48.36661" lon="2.60592">
        <ele>124.19999694824</ele>
        <time>2013-12-01T09:26:15Z</time>
      </trkpt>
      <trkpt lat="48.36666" lon="2.6058">
        <ele>124.19999694824</ele>
        <time>2013-12-01T09:26:17Z</time>
      </trkpt>
      <trkpt lat="48.36675" lon="2.60563">
        <ele>124.19999694824</ele>
        <time>2013-12-01T09:26:20Z</time>
      </trkpt>
      <trkpt lat="48.36697" lon="2.60525">
        <ele>124.19999694824</ele>
        <time>2013-12-01T09:26:27Z</time>
      </trkpt>
      <trkpt lat="48.367" lon="2.60521">
        <ele>124.19999694824</ele>
        <time>2013-12-01T09:26:28Z</time>
      </trkpt>
      <trkpt lat="48.3671" lon="2.60507">
        <ele>123.80000305176</ele>
        <time>2013-12-01T09:26:31Z</time>
      </trkpt>
      <trkpt lat="48.36713" lon="2.60501">
        <ele>123.40000152588</ele>
        <time>2013-12-01T09:26:32Z</time>
      </trkpt>
      <trkpt lat="48.36715" lon="2.60497">
        <ele>123</ele>
        <time>2013-12-01T09:26:33Z</time>
      </trkpt>
      <trkpt lat="48.36718" lon="2.60493">
        <ele>122.59999847412</ele>
        <time>2013-12-01T09:26:34Z</time>
      </trkpt>
      <trkpt lat="48.36721" lon="2.6049">
        <ele>122.19999694824</ele>
        <time>2013-12-01T09:26:35Z</time>
      </trkpt>
      <trkpt lat="48.36733" lon="2.6047">
        <ele>122.19999694824</ele>
        <time>2013-12-01T09:26:39Z</time>
      </trkpt>
      <trkpt lat="48.36762" lon="2.60434">
        <ele>122.19999694824</ele>
        <time>2013-12-01T09:26:47Z</time>
      </trkpt>
      <trkpt lat="48.36784" lon="2.60399">
        <ele>122.19999694824</ele>
        <time>2013-12-01T09:26:54Z</time>
      </trkpt>
      <trkpt lat="48.36797" lon="2.60377">
        <ele>122.19999694824</ele>
        <time>2013-12-01T09:26:59Z</time>
      </trkpt>
      <trkpt lat="48.368" lon="2.60373">
        <ele>122.19999694824</ele>
        <time>2013-12-01T09:27:00Z</time>
      </trkpt>
      <trkpt lat="48.36809" lon="2.60361">
        <ele>122.19999694824</ele>
        <time>2013-12-01T09:27:03Z</time>
      </trkpt>
      <trkpt lat="48.36817" lon="2.60349">
        <ele>122.19999694824</ele>
        <time>2013-12-01T09:27:06Z</time>
      </trkpt>
      <trkpt lat="48.3682" lon="2.60344">
        <ele>122.19999694824</ele>
        <time>2013-12-01T09:27:07Z</time>
      </trkpt>
      <trkpt lat="48.36832" lon="2.60331">
        <ele>122.19999694824</ele>
        <time>2013-12-01T09:27:10Z</time>
      </trkpt>
      <trkpt lat="48.36835" lon="2.60331">
        <ele>122.19999694824</ele>
        <time>2013-12-01T09:27:11Z</time>
      </trkpt>
      <trkpt lat="48.36838" lon="2.60342">
        <ele>122.19999694824</ele>
        <time>2013-12-01T09:27:14Z</time>
      </trkpt>
      <trkpt lat="48.36838" lon="2.60346">
        <ele>122.19999694824</ele>
        <time>2013-12-01T09:27:15Z</time>
      </trkpt>
      <trkpt lat="48.36838" lon="2.60361">
        <ele>122.19999694824</ele>
        <time>2013-12-01T09:27:18Z</time>
      </trkpt>
      <trkpt lat="48.36838" lon="2.6037">
        <ele>122.19999694824</ele>
        <time>2013-12-01T09:27:20Z</time>
      </trkpt>
      <trkpt lat="48.36842" lon="2.60394">
        <ele>122.19999694824</ele>
        <time>2013-12-01T09:27:25Z</time>
      </trkpt>
      <trkpt lat="48.36847" lon="2.60417">
        <ele>122.19999694824</ele>
        <time>2013-12-01T09:27:30Z</time>
      </trkpt>
      <trkpt lat="48.36847" lon="2.60421">
        <ele>122.19999694824</ele>
        <time>2013-12-01T09:27:31Z</time>
      </trkpt>
      <trkpt lat="48.36855" lon="2.60441">
        <ele>122.19999694824</ele>
        <time>2013-12-01T09:27:36Z</time>
      </trkpt>
      <trkpt lat="48.36868" lon="2.60461">
        <ele>122.19999694824</ele>
        <time>2013-12-01T09:27:41Z</time>
      </trkpt>
      <trkpt lat="48.36871" lon="2.60464">
        <ele>122.19999694824</ele>
        <time>2013-12-01T09:27:42Z</time>
      </trkpt>
      <trkpt lat="48.36873" lon="2.60469">
        <ele>122.59999847412</ele>
        <time>2013-12-01T09:27:43Z</time>
      </trkpt>
      <trkpt lat="48.36874" lon="2.60473">
        <ele>123</ele>
        <time>2013-12-01T09:27:44Z</time>
      </trkpt>
      <trkpt lat="48.36876" lon="2.60476">
        <ele>123.40000152588</ele>
        <time>2013-12-01T09:27:45Z</time>
      </trkpt>
      <trkpt lat="48.36877" lon="2.60481">
        <ele>123.80000305176</ele>
        <time>2013-12-01T09:27:46Z</time>
      </trkpt>
      <trkpt lat="48.36876" lon="2.60484">
        <ele>124.19999694824</ele>
        <time>2013-12-01T09:27:47Z</time>
      </trkpt>
      <trkpt lat="48.3688" lon="2.60509">
        <ele>124.19999694824</ele>
        <time>2013-12-01T09:27:53Z</time>
      </trkpt>
      <trkpt lat="48.36888" lon="2.60532">
        <ele>124.19999694824</ele>
        <time>2013-12-01T09:27:59Z</time>
      </trkpt>
      <trkpt lat="48.36893" lon="2.60552">
        <ele>124.59999847412</ele>
        <time>2013-12-01T09:28:04Z</time>
      </trkpt>
      <trkpt lat="48.36893" lon="2.60556">
        <ele>125.19999694824</ele>
        <time>2013-12-01T09:28:05Z</time>
      </trkpt>
      <trkpt lat="48.36895" lon="2.6056">
        <ele>125.59999847412</ele>
        <time>2013-12-01T09:28:06Z</time>
      </trkpt>
      <trkpt lat="48.36896" lon="2.60563">
        <ele>126</ele>
        <time>2013-12-01T09:28:07Z</time>
      </trkpt>
      <trkpt lat="48.36897" lon="2.60566">
        <ele>126.40000152588</ele>
        <time>2013-12-01T09:28:08Z</time>
      </trkpt>
      <trkpt lat="48.36906" lon="2.60592">
        <ele>126.40000152588</ele>
        <time>2013-12-01T09:28:14Z</time>
      </trkpt>
      <trkpt lat="48.3691" lon="2.60612">
        <ele>126.40000152588</ele>
        <time>2013-12-01T09:28:18Z</time>
      </trkpt>
      <trkpt lat="48.36916" lon="2.60628">
        <ele>126.40000152588</ele>
        <time>2013-12-01T09:28:21Z</time>
      </trkpt>
      <trkpt lat="48.3692" lon="2.60657">
        <ele>126.40000152588</ele>
        <time>2013-12-01T09:28:26Z</time>
      </trkpt>
      <trkpt lat="48.36924" lon="2.60666">
        <ele>126.40000152588</ele>
        <time>2013-12-01T09:28:28Z</time>
      </trkpt>
      <trkpt lat="48.36936" lon="2.6067">
        <ele>126.40000152588</ele>
        <time>2013-12-01T09:28:31Z</time>
      </trkpt>
      <trkpt lat="48.36961" lon="2.60675">
        <ele>126.40000152588</ele>
        <time>2013-12-01T09:28:37Z</time>
      </trkpt>
      <trkpt lat="48.36985" lon="2.60686">
        <ele>126.40000152588</ele>
        <time>2013-12-01T09:28:43Z</time>
      </trkpt>
      <trkpt lat="48.37015" lon="2.60698">
        <ele>126</ele>
        <time>2013-12-01T09:28:50Z</time>
      </trkpt>
      <trkpt lat="48.3702" lon="2.60701">
        <ele>125.59999847412</ele>
        <time>2013-12-01T09:28:51Z</time>
      </trkpt>
      <trkpt lat="48.37024" lon="2.60703">
        <ele>125.19999694824</ele>
        <time>2013-12-01T09:28:52Z</time>
      </trkpt>
      <trkpt lat="48.37028" lon="2.60705">
        <ele>124.59999847412</ele>
        <time>2013-12-01T09:28:53Z</time>
      </trkpt>
      <trkpt lat="48.37032" lon="2.60706">
        <ele>124.19999694824</ele>
        <time>2013-12-01T09:28:54Z</time>
      </trkpt>
      <trkpt lat="48.37041" lon="2.6071">
        <ele>124.19999694824</ele>
        <time>2013-12-01T09:28:56Z</time>
      </trkpt>
      <trkpt lat="48.37064" lon="2.60721">
        <ele>124.19999694824</ele>
        <time>2013-12-01T09:29:02Z</time>
      </trkpt>
      <trkpt lat="48.37088" lon="2.60729">
        <ele>124.19999694824</ele>
        <time>2013-12-01T09:29:09Z</time>
      </trkpt>
      <trkpt lat="48.37114" lon="2.60739">
        <ele>124.19999694824</ele>
        <time>2013-12-01T09:29:15Z</time>
      </trkpt>
      <trkpt lat="48.37139" lon="2.60739">
        <ele>124.19999694824</ele>
        <time>2013-12-01T09:29:21Z</time>
      </trkpt>
      <trkpt lat="48.37152" lon="2.60728">
        <ele>124.19999694824</ele>
        <time>2013-12-01T09:29:26Z</time>
      </trkpt>
      <trkpt lat="48.3716" lon="2.60719">
        <ele>124.19999694824</ele>
        <time>2013-12-01T09:29:32Z</time>
      </trkpt>
      <trkpt lat="48.37162" lon="2.60716">
        <ele>124.19999694824</ele>
        <time>2013-12-01T09:29:40Z</time>
      </trkpt>
      <trkpt lat="48.3717" lon="2.60704">
        <ele>124.19999694824</ele>
        <time>2013-12-01T09:29:50Z</time>
      </trkpt>
      <trkpt lat="48.37173" lon="2.607">
        <ele>124.19999694824</ele>
        <time>2013-12-01T09:29:51Z</time>
      </trkpt>
      <trkpt lat="48.37184" lon="2.60685">
        <ele>124.19999694824</ele>
        <time>2013-12-01T09:29:55Z</time>
      </trkpt>
      <trkpt lat="48.37186" lon="2.60681">
        <ele>124.19999694824</ele>
        <time>2013-12-01T09:29:56Z</time>
      </trkpt>
      <trkpt lat="48.37188" lon="2.60677">
        <ele>124.19999694824</ele>
        <time>2013-12-01T09:29:57Z</time>
      </trkpt>
      <trkpt lat="48.37196" lon="2.60662">
        <ele>124.19999694824</ele>
        <time>2013-12-01T09:30:01Z</time>
      </trkpt>
      <trkpt lat="48.37201" lon="2.60648">
        <ele>124.19999694824</ele>
        <time>2013-12-01T09:30:04Z</time>
      </trkpt>
      <trkpt lat="48.37209" lon="2.60627">
        <ele>124.19999694824</ele>
        <time>2013-12-01T09:30:08Z</time>
      </trkpt>
      <trkpt lat="48.37212" lon="2.60622">
        <ele>124.19999694824</ele>
        <time>2013-12-01T09:30:09Z</time>
      </trkpt>
      <trkpt lat="48.37221" lon="2.60585">
        <ele>124.19999694824</ele>
        <time>2013-12-01T09:30:15Z</time>
      </trkpt>
      <trkpt lat="48.37231" lon="2.60564">
        <ele>124.19999694824</ele>
        <time>2013-12-01T09:30:19Z</time>
      </trkpt>
      <trkpt lat="48.37234" lon="2.6056">
        <ele>124.19999694824</ele>
        <time>2013-12-01T09:30:20Z</time>
      </trkpt>
      <trkpt lat="48.3725" lon="2.60534">
        <ele>124.19999694824</ele>
        <time>2013-12-01T09:30:25Z</time>
      </trkpt>
      <trkpt lat="48.37252" lon="2.60529">
        <ele>124.19999694824</ele>
        <time>2013-12-01T09:30:26Z</time>
      </trkpt>
      <trkpt lat="48.37276" lon="2.60491">
        <ele>124.19999694824</ele>
        <time>2013-12-01T09:30:34Z</time>
      </trkpt>
      <trkpt lat="48.37292" lon="2.60482">
        <ele>124.19999694824</ele>
        <time>2013-12-01T09:30:39Z</time>
      </trkpt>
      <trkpt lat="48.3731" lon="2.60472">
        <ele>124.19999694824</ele>
        <time>2013-12-01T09:30:44Z</time>
      </trkpt>
      <trkpt lat="48.37329" lon="2.60463">
        <ele>124.19999694824</ele>
        <time>2013-12-01T09:30:49Z</time>
      </trkpt>
      <trkpt lat="48.37351" lon="2.60453">
        <ele>124.19999694824</ele>
        <time>2013-12-01T09:30:54Z</time>
      </trkpt>
      <trkpt lat="48.3738" lon="2.60439">
        <ele>124.19999694824</ele>
        <time>2013-12-01T09:31:01Z</time>
      </trkpt>
      <trkpt lat="48.37405" lon="2.60429">
        <ele>124.19999694824</ele>
        <time>2013-12-01T09:31:07Z</time>
      </trkpt>
      <trkpt lat="48.37425" lon="2.60417">
        <ele>124.19999694824</ele>
        <time>2013-12-01T09:31:12Z</time>
      </trkpt>
      <trkpt lat="48.37439" lon="2.60411">
        <ele>124.19999694824</ele>
        <time>2013-12-01T09:31:15Z</time>
      </trkpt>
      <trkpt lat="48.37442" lon="2.60409">
        <ele>124.19999694824</ele>
        <time>2013-12-01T09:31:16Z</time>
      </trkpt>
      <trkpt lat="48.37451" lon="2.60405">
        <ele>124.19999694824</ele>
        <time>2013-12-01T09:31:18Z</time>
      </trkpt>
      <trkpt lat="48.37484" lon="2.60388">
        <ele>124.19999694824</ele>
        <time>2013-12-01T09:31:25Z</time>
      </trkpt>
      <trkpt lat="48.37509" lon="2.60376">
        <ele>124.19999694824</ele>
        <time>2013-12-01T09:31:30Z</time>
      </trkpt>
      <trkpt lat="48.37514" lon="2.60374">
        <ele>124.19999694824</ele>
        <time>2013-12-01T09:31:31Z</time>
      </trkpt>
      <trkpt lat="48.37528" lon="2.6036">
        <ele>124.19999694824</ele>
        <time>2013-12-01T09:31:35Z</time>
      </trkpt>
      <trkpt lat="48.37534" lon="2.60342">
        <ele>124.19999694824</ele>
        <time>2013-12-01T09:31:38Z</time>
      </trkpt>
      <trkpt lat="48.37535" lon="2.60328">
        <ele>124.19999694824</ele>
        <time>2013-12-01T09:31:40Z</time>
      </trkpt>
      <trkpt lat="48.37541" lon="2.60275">
        <ele>124.19999694824</ele>
        <time>2013-12-01T09:31:47Z</time>
      </trkpt>
      <trkpt lat="48.37544" lon="2.60215">
        <ele>124.19999694824</ele>
        <time>2013-12-01T09:31:55Z</time>
      </trkpt>
      <trkpt lat="48.37537" lon="2.60146">
        <ele>124.19999694824</ele>
        <time>2013-12-01T09:32:03Z</time>
      </trkpt>
      <trkpt lat="48.37535" lon="2.60085">
        <ele>124.19999694824</ele>
        <time>2013-12-01T09:32:10Z</time>
      </trkpt>
      <trkpt lat="48.37535" lon="2.60039">
        <ele>124.19999694824</ele>
        <time>2013-12-01T09:32:16Z</time>
      </trkpt>
      <trkpt lat="48.37535" lon="2.59986">
        <ele>124.19999694824</ele>
        <time>2013-12-01T09:32:22Z</time>
      </trkpt>
      <trkpt lat="48.37536" lon="2.59938">
        <ele>124.19999694824</ele>
        <time>2013-12-01T09:32:28Z</time>
      </trkpt>
      <trkpt lat="48.37536" lon="2.59931">
        <ele>124.19999694824</ele>
        <time>2013-12-01T09:32:29Z</time>
      </trkpt>
      <trkpt lat="48.37535" lon="2.59896">
        <ele>124.80000305176</ele>
        <time>2013-12-01T09:32:34Z</time>
      </trkpt>
      <trkpt lat="48.37534" lon="2.59882">
        <ele>125.19999694824</ele>
        <time>2013-12-01T09:32:36Z</time>
      </trkpt>
      <trkpt lat="48.37534" lon="2.59875">
        <ele>125.59999847412</ele>
        <time>2013-12-01T09:32:37Z</time>
      </trkpt>
      <trkpt lat="48.37534" lon="2.59868">
        <ele>126</ele>
        <time>2013-12-01T09:32:38Z</time>
      </trkpt>
      <trkpt lat="48.37534" lon="2.59861">
        <ele>126.40000152588</ele>
        <time>2013-12-01T09:32:39Z</time>
      </trkpt>
      <trkpt lat="48.37533" lon="2.59841">
        <ele>126.40000152588</ele>
        <time>2013-12-01T09:32:42Z</time>
      </trkpt>
      <trkpt lat="48.37533" lon="2.59797">
        <ele>126.40000152588</ele>
        <time>2013-12-01T09:32:48Z</time>
      </trkpt>
      <trkpt lat="48.37533" lon="2.59777">
        <ele>126.40000152588</ele>
        <time>2013-12-01T09:32:51Z</time>
      </trkpt>
      <trkpt lat="48.37533" lon="2.59742">
        <ele>126.40000152588</ele>
        <time>2013-12-01T09:32:56Z</time>
      </trkpt>
      <trkpt lat="48.37533" lon="2.59691">
        <ele>126.40000152588</ele>
        <time>2013-12-01T09:33:03Z</time>
      </trkpt>
      <trkpt lat="48.37534" lon="2.59627">
        <ele>126.40000152588</ele>
        <time>2013-12-01T09:33:11Z</time>
      </trkpt>
      <trkpt lat="48.37534" lon="2.59575">
        <ele>126.40000152588</ele>
        <time>2013-12-01T09:33:18Z</time>
      </trkpt>
      <trkpt lat="48.37534" lon="2.59568">
        <ele>126.40000152588</ele>
        <time>2013-12-01T09:33:19Z</time>
      </trkpt>
      <trkpt lat="48.37533" lon="2.59539">
        <ele>126.40000152588</ele>
        <time>2013-12-01T09:33:23Z</time>
      </trkpt>
      <trkpt lat="48.37535" lon="2.59513">
        <ele>127</ele>
        <time>2013-12-01T09:33:27Z</time>
      </trkpt>
      <trkpt lat="48.37536" lon="2.59505">
        <ele>127.40000152588</ele>
        <time>2013-12-01T09:33:28Z</time>
      </trkpt>
      <trkpt lat="48.37536" lon="2.59498">
        <ele>127.40000152588</ele>
        <time>2013-12-01T09:33:29Z</time>
      </trkpt>
      <trkpt lat="48.37537" lon="2.5949">
        <ele>127.80000305176</ele>
        <time>2013-12-01T09:33:30Z</time>
      </trkpt>
      <trkpt lat="48.37537" lon="2.59483">
        <ele>128.19999694824</ele>
        <time>2013-12-01T09:33:31Z</time>
      </trkpt>
      <trkpt lat="48.37541" lon="2.59476">
        <ele>128.60000610352</ele>
        <time>2013-12-01T09:33:32Z</time>
      </trkpt>
      <trkpt lat="48.37544" lon="2.5947">
        <ele>128.60000610352</ele>
        <time>2013-12-01T09:33:33Z</time>
      </trkpt>
      <trkpt lat="48.37554" lon="2.59458">
        <ele>128.60000610352</ele>
        <time>2013-12-01T09:33:36Z</time>
      </trkpt>
      <trkpt lat="48.37557" lon="2.59454">
        <ele>128.60000610352</ele>
        <time>2013-12-01T09:33:37Z</time>
      </trkpt>
      <trkpt lat="48.37561" lon="2.5945">
        <ele>128.60000610352</ele>
        <time>2013-12-01T09:33:38Z</time>
      </trkpt>
      <trkpt lat="48.37577" lon="2.59436">
        <ele>128.60000610352</ele>
        <time>2013-12-01T09:33:42Z</time>
      </trkpt>
      <trkpt lat="48.37586" lon="2.59428">
        <ele>128.60000610352</ele>
        <time>2013-12-01T09:33:44Z</time>
      </trkpt>
      <trkpt lat="48.37602" lon="2.59415">
        <ele>128.60000610352</ele>
        <time>2013-12-01T09:33:48Z</time>
      </trkpt>
      <trkpt lat="48.3761" lon="2.59407">
        <ele>128.19999694824</ele>
        <time>2013-12-01T09:33:50Z</time>
      </trkpt>
      <trkpt lat="48.37615" lon="2.59403">
        <ele>127.80000305176</ele>
        <time>2013-12-01T09:33:51Z</time>
      </trkpt>
      <trkpt lat="48.37619" lon="2.594">
        <ele>127.40000152588</ele>
        <time>2013-12-01T09:33:52Z</time>
      </trkpt>
      <trkpt lat="48.37624" lon="2.59396">
        <ele>127</ele>
        <time>2013-12-01T09:33:53Z</time>
      </trkpt>
      <trkpt lat="48.37629" lon="2.59393">
        <ele>126.40000152588</ele>
        <time>2013-12-01T09:33:54Z</time>
      </trkpt>
      <trkpt lat="48.3765" lon="2.59377">
        <ele>126.40000152588</ele>
        <time>2013-12-01T09:33:58Z</time>
      </trkpt>
      <trkpt lat="48.37658" lon="2.59369">
        <ele>126.40000152588</ele>
        <time>2013-12-01T09:34:00Z</time>
      </trkpt>
      <trkpt lat="48.37683" lon="2.59348">
        <ele>126.40000152588</ele>
        <time>2013-12-01T09:34:05Z</time>
      </trkpt>
      <trkpt lat="48.37711" lon="2.59323">
        <ele>126.40000152588</ele>
        <time>2013-12-01T09:34:12Z</time>
      </trkpt>
      <trkpt lat="48.37722" lon="2.59315">
        <ele>126.40000152588</ele>
        <time>2013-12-01T09:34:14Z</time>
      </trkpt>
      <trkpt lat="48.37727" lon="2.59311">
        <ele>126.40000152588</ele>
        <time>2013-12-01T09:34:15Z</time>
      </trkpt>
      <trkpt lat="48.37746" lon="2.59298">
        <ele>126.40000152588</ele>
        <time>2013-12-01T09:34:19Z</time>
      </trkpt>
      <trkpt lat="48.37751" lon="2.59295">
        <ele>126.40000152588</ele>
        <time>2013-12-01T09:34:20Z</time>
      </trkpt>
      <trkpt lat="48.3776" lon="2.59288">
        <ele>126</ele>
        <time>2013-12-01T09:34:22Z</time>
      </trkpt>
      <trkpt lat="48.37764" lon="2.59284">
        <ele>125.59999847412</ele>
        <time>2013-12-01T09:34:23Z</time>
      </trkpt>
      <trkpt lat="48.37769" lon="2.59281">
        <ele>125.19999694824</ele>
        <time>2013-12-01T09:34:24Z</time>
      </trkpt>
      <trkpt lat="48.37773" lon="2.59277">
        <ele>124.80000305176</ele>
        <time>2013-12-01T09:34:25Z</time>
      </trkpt>
      <trkpt lat="48.37778" lon="2.59273">
        <ele>124.40000152588</ele>
        <time>2013-12-01T09:34:26Z</time>
      </trkpt>
      <trkpt lat="48.37791" lon="2.59261">
        <ele>124.40000152588</ele>
        <time>2013-12-01T09:34:30Z</time>
      </trkpt>
      <trkpt lat="48.3781" lon="2.59245">
        <ele>124.40000152588</ele>
        <time>2013-12-01T09:34:35Z</time>
      </trkpt>
      <trkpt lat="48.37839" lon="2.59224">
        <ele>124.40000152588</ele>
        <time>2013-12-01T09:34:42Z</time>
      </trkpt>
      <trkpt lat="48.37866" lon="2.59206">
        <ele>124</ele>
        <time>2013-12-01T09:34:47Z</time>
      </trkpt>
      <trkpt lat="48.37871" lon="2.59201">
        <ele>123.59999847412</ele>
        <time>2013-12-01T09:34:48Z</time>
      </trkpt>
      <trkpt lat="48.37877" lon="2.59198">
        <ele>123.19999694824</ele>
        <time>2013-12-01T09:34:49Z</time>
      </trkpt>
      <trkpt lat="48.37884" lon="2.59191">
        <ele>122.80000305176</ele>
        <time>2013-12-01T09:34:51Z</time>
      </trkpt>
      <trkpt lat="48.37889" lon="2.59188">
        <ele>122.40000152588</ele>
        <time>2013-12-01T09:34:52Z</time>
      </trkpt>
      <trkpt lat="48.37914" lon="2.59167">
        <ele>122.40000152588</ele>
        <time>2013-12-01T09:34:57Z</time>
      </trkpt>
      <trkpt lat="48.37945" lon="2.5914">
        <ele>122.40000152588</ele>
        <time>2013-12-01T09:35:03Z</time>
      </trkpt>
      <trkpt lat="48.37949" lon="2.59137">
        <ele>122</ele>
        <time>2013-12-01T09:35:04Z</time>
      </trkpt>
      <trkpt lat="48.37954" lon="2.59133">
        <ele>121.59999847412</ele>
        <time>2013-12-01T09:35:05Z</time>
      </trkpt>
      <trkpt lat="48.3796" lon="2.59129">
        <ele>121.19999694824</ele>
        <time>2013-12-01T09:35:06Z</time>
      </trkpt>
      <trkpt lat="48.37965" lon="2.59125">
        <ele>120.80000305176</ele>
        <time>2013-12-01T09:35:07Z</time>
      </trkpt>
      <trkpt lat="48.3797" lon="2.59121">
        <ele>120.40000152588</ele>
        <time>2013-12-01T09:35:08Z</time>
      </trkpt>
      <trkpt lat="48.37982" lon="2.59113">
        <ele>120.40000152588</ele>
        <time>2013-12-01T09:35:10Z</time>
      </trkpt>
      <trkpt lat="48.37992" lon="2.59104">
        <ele>120.40000152588</ele>
        <time>2013-12-01T09:35:12Z</time>
      </trkpt>
      <trkpt lat="48.38002" lon="2.59087">
        <ele>120.40000152588</ele>
        <time>2013-12-01T09:35:15Z</time>
      </trkpt>
      <trkpt lat="48.38006" lon="2.59072">
        <ele>120.40000152588</ele>
        <time>2013-12-01T09:35:17Z</time>
      </trkpt>
      <trkpt lat="48.38009" lon="2.59057">
        <ele>120.40000152588</ele>
        <time>2013-12-01T09:35:19Z</time>
      </trkpt>
      <trkpt lat="48.38014" lon="2.59014">
        <ele>120.40000152588</ele>
        <time>2013-12-01T09:35:25Z</time>
      </trkpt>
      <trkpt lat="48.38018" lon="2.58979">
        <ele>120.40000152588</ele>
        <time>2013-12-01T09:35:31Z</time>
      </trkpt>
      <trkpt lat="48.38024" lon="2.58933">
        <ele>120.40000152588</ele>
        <time>2013-12-01T09:35:38Z</time>
      </trkpt>
      <trkpt lat="48.38029" lon="2.58898">
        <ele>120.40000152588</ele>
        <time>2013-12-01T09:35:44Z</time>
      </trkpt>
      <trkpt lat="48.38032" lon="2.58864">
        <ele>120.40000152588</ele>
        <time>2013-12-01T09:35:50Z</time>
      </trkpt>
      <trkpt lat="48.38033" lon="2.58849">
        <ele>120.40000152588</ele>
        <time>2013-12-01T09:35:52Z</time>
      </trkpt>
      <trkpt lat="48.38033" lon="2.58835">
        <ele>120.40000152588</ele>
        <time>2013-12-01T09:35:54Z</time>
      </trkpt>
      <trkpt lat="48.38032" lon="2.58791">
        <ele>120.40000152588</ele>
        <time>2013-12-01T09:36:01Z</time>
      </trkpt>
      <trkpt lat="48.38029" lon="2.58758">
        <ele>120.40000152588</ele>
        <time>2013-12-01T09:36:07Z</time>
      </trkpt>
      <trkpt lat="48.38029" lon="2.58724">
        <ele>120.40000152588</ele>
        <time>2013-12-01T09:36:13Z</time>
      </trkpt>
      <trkpt lat="48.38033" lon="2.58683">
        <ele>120.40000152588</ele>
        <time>2013-12-01T09:36:20Z</time>
      </trkpt>
      <trkpt lat="48.38041" lon="2.58642">
        <ele>120.40000152588</ele>
        <time>2013-12-01T09:36:27Z</time>
      </trkpt>
      <trkpt lat="48.38049" lon="2.58594">
        <ele>120.40000152588</ele>
        <time>2013-12-01T09:36:34Z</time>
      </trkpt>
      <trkpt lat="48.38056" lon="2.58555">
        <ele>120.40000152588</ele>
        <time>2013-12-01T09:36:40Z</time>
      </trkpt>
      <trkpt lat="48.38057" lon="2.58549">
        <ele>120.40000152588</ele>
        <time>2013-12-01T09:36:41Z</time>
      </trkpt>
      <trkpt lat="48.38062" lon="2.58511">
        <ele>120.40000152588</ele>
        <time>2013-12-01T09:36:47Z</time>
      </trkpt>
      <trkpt lat="48.38067" lon="2.58478">
        <ele>120.40000152588</ele>
        <time>2013-12-01T09:36:53Z</time>
      </trkpt>
      <trkpt lat="48.38069" lon="2.58455">
        <ele>120.40000152588</ele>
        <time>2013-12-01T09:36:58Z</time>
      </trkpt>
      <trkpt lat="48.38071" lon="2.58437">
        <ele>120.40000152588</ele>
        <time>2013-12-01T09:37:01Z</time>
      </trkpt>
      <trkpt lat="48.38073" lon="2.58424">
        <ele>120.40000152588</ele>
        <time>2013-12-01T09:37:03Z</time>
      </trkpt>
      <trkpt lat="48.3808" lon="2.58382">
        <ele>120.40000152588</ele>
        <time>2013-12-01T09:37:09Z</time>
      </trkpt>
      <trkpt lat="48.38089" lon="2.58334">
        <ele>120.40000152588</ele>
        <time>2013-12-01T09:37:16Z</time>
      </trkpt>
      <trkpt lat="48.38089" lon="2.58327">
        <ele>120.40000152588</ele>
        <time>2013-12-01T09:37:17Z</time>
      </trkpt>
      <trkpt lat="48.38095" lon="2.58298">
        <ele>120.40000152588</ele>
        <time>2013-12-01T09:37:21Z</time>
      </trkpt>
      <trkpt lat="48.38097" lon="2.58291">
        <ele>120.40000152588</ele>
        <time>2013-12-01T09:37:22Z</time>
      </trkpt>
      <trkpt lat="48.38104" lon="2.58231">
        <ele>120.40000152588</ele>
        <time>2013-12-01T09:37:30Z</time>
      </trkpt>
      <trkpt lat="48.38112" lon="2.58178">
        <ele>120.40000152588</ele>
        <time>2013-12-01T09:37:37Z</time>
      </trkpt>
      <trkpt lat="48.38121" lon="2.58122">
        <ele>120.40000152588</ele>
        <time>2013-12-01T09:37:44Z</time>
      </trkpt>
      <trkpt lat="48.38126" lon="2.58085">
        <ele>120.40000152588</ele>
        <time>2013-12-01T09:37:49Z</time>
      </trkpt>
      <trkpt lat="48.38128" lon="2.58077">
        <ele>120.40000152588</ele>
        <time>2013-12-01T09:37:50Z</time>
      </trkpt>
      <trkpt lat="48.38132" lon="2.58048">
        <ele>120.40000152588</ele>
        <time>2013-12-01T09:37:54Z</time>
      </trkpt>
      <trkpt lat="48.38133" lon="2.5804">
        <ele>120.40000152588</ele>
        <time>2013-12-01T09:37:55Z</time>
      </trkpt>
      <trkpt lat="48.38137" lon="2.57999">
        <ele>120.40000152588</ele>
        <time>2013-12-01T09:38:01Z</time>
      </trkpt>
      <trkpt lat="48.38142" lon="2.57965">
        <ele>120.40000152588</ele>
        <time>2013-12-01T09:38:06Z</time>
      </trkpt>
      <trkpt lat="48.38143" lon="2.57958">
        <ele>120.40000152588</ele>
        <time>2013-12-01T09:38:07Z</time>
      </trkpt>
      <trkpt lat="48.38152" lon="2.57919">
        <ele>120.40000152588</ele>
        <time>2013-12-01T09:38:13Z</time>
      </trkpt>
      <trkpt lat="48.38153" lon="2.57913">
        <ele>120.40000152588</ele>
        <time>2013-12-01T09:38:14Z</time>
      </trkpt>
      <trkpt lat="48.38158" lon="2.57885">
        <ele>119.80000305176</ele>
        <time>2013-12-01T09:38:18Z</time>
      </trkpt>
      <trkpt lat="48.3816" lon="2.57879">
        <ele>119.40000152588</ele>
        <time>2013-12-01T09:38:19Z</time>
      </trkpt>
      <trkpt lat="48.38161" lon="2.57873">
        <ele>119</ele>
        <time>2013-12-01T09:38:20Z</time>
      </trkpt>
      <trkpt lat="48.38165" lon="2.5786">
        <ele>118.40000152588</ele>
        <time>2013-12-01T09:38:22Z</time>
      </trkpt>
      <trkpt lat="48.38165" lon="2.57854">
        <ele>118</ele>
        <time>2013-12-01T09:38:23Z</time>
      </trkpt>
      <trkpt lat="48.3817" lon="2.57835">
        <ele>118</ele>
        <time>2013-12-01T09:38:26Z</time>
      </trkpt>
      <trkpt lat="48.38177" lon="2.57799">
        <ele>118</ele>
        <time>2013-12-01T09:38:31Z</time>
      </trkpt>
      <trkpt lat="48.38186" lon="2.57742">
        <ele>118</ele>
        <time>2013-12-01T09:38:38Z</time>
      </trkpt>
      <trkpt lat="48.38189" lon="2.57728">
        <ele>118</ele>
        <time>2013-12-01T09:38:40Z</time>
      </trkpt>
      <trkpt lat="48.38194" lon="2.57707">
        <ele>118</ele>
        <time>2013-12-01T09:38:43Z</time>
      </trkpt>
      <trkpt lat="48.38196" lon="2.57691">
        <ele>118</ele>
        <time>2013-12-01T09:38:45Z</time>
      </trkpt>
      <trkpt lat="48.382" lon="2.57667">
        <ele>118</ele>
        <time>2013-12-01T09:38:48Z</time>
      </trkpt>
      <trkpt lat="48.38205" lon="2.57646">
        <ele>117.59999847412</ele>
        <time>2013-12-01T09:38:51Z</time>
      </trkpt>
      <trkpt lat="48.38205" lon="2.57637">
        <ele>117.19999694824</ele>
        <time>2013-12-01T09:38:52Z</time>
      </trkpt>
      <trkpt lat="48.38205" lon="2.57628">
        <ele>116.59999847412</ele>
        <time>2013-12-01T09:38:53Z</time>
      </trkpt>
      <trkpt lat="48.38205" lon="2.57618">
        <ele>116.19999694824</ele>
        <time>2013-12-01T09:38:54Z</time>
      </trkpt>
      <trkpt lat="48.38205" lon="2.57609">
        <ele>115.80000305176</ele>
        <time>2013-12-01T09:38:55Z</time>
      </trkpt>
      <trkpt lat="48.38203" lon="2.57592">
        <ele>115.80000305176</ele>
        <time>2013-12-01T09:38:57Z</time>
      </trkpt>
      <trkpt lat="48.38202" lon="2.57567">
        <ele>115.80000305176</ele>
        <time>2013-12-01T09:39:00Z</time>
      </trkpt>
      <trkpt lat="48.38204" lon="2.57542">
        <ele>115.40000152588</ele>
        <time>2013-12-01T09:39:03Z</time>
      </trkpt>
      <trkpt lat="48.38206" lon="2.57533">
        <ele>115</ele>
        <time>2013-12-01T09:39:04Z</time>
      </trkpt>
      <trkpt lat="48.38208" lon="2.57525">
        <ele>114.59999847412</ele>
        <time>2013-12-01T09:39:05Z</time>
      </trkpt>
      <trkpt lat="48.38211" lon="2.57517">
        <ele>114.19999694824</ele>
        <time>2013-12-01T09:39:06Z</time>
      </trkpt>
      <trkpt lat="48.38214" lon="2.57509">
        <ele>113.80000305176</ele>
        <time>2013-12-01T09:39:07Z</time>
      </trkpt>
      <trkpt lat="48.38217" lon="2.57499">
        <ele>113.80000305176</ele>
        <time>2013-12-01T09:39:08Z</time>
      </trkpt>
      <trkpt lat="48.38229" lon="2.57457">
        <ele>113.80000305176</ele>
        <time>2013-12-01T09:39:13Z</time>
      </trkpt>
      <trkpt lat="48.38229" lon="2.57449">
        <ele>113.80000305176</ele>
        <time>2013-12-01T09:39:14Z</time>
      </trkpt>
      <trkpt lat="48.38229" lon="2.5744">
        <ele>113.40000152588</ele>
        <time>2013-12-01T09:39:15Z</time>
      </trkpt>
      <trkpt lat="48.38229" lon="2.57431">
        <ele>113</ele>
        <time>2013-12-01T09:39:16Z</time>
      </trkpt>
      <trkpt lat="48.38229" lon="2.57423">
        <ele>112.59999847412</ele>
        <time>2013-12-01T09:39:17Z</time>
      </trkpt>
      <trkpt lat="48.38229" lon="2.57415">
        <ele>112.19999694824</ele>
        <time>2013-12-01T09:39:18Z</time>
      </trkpt>
      <trkpt lat="48.38229" lon="2.57406">
        <ele>111.80000305176</ele>
        <time>2013-12-01T09:39:19Z</time>
      </trkpt>
      <trkpt lat="48.38226" lon="2.57357">
        <ele>111.80000305176</ele>
        <time>2013-12-01T09:39:25Z</time>
      </trkpt>
      <trkpt lat="48.38224" lon="2.57336">
        <ele>111.80000305176</ele>
        <time>2013-12-01T09:39:28Z</time>
      </trkpt>
      <trkpt lat="48.38229" lon="2.5732">
        <ele>111.19999694824</ele>
        <time>2013-12-01T09:39:30Z</time>
      </trkpt>
      <trkpt lat="48.38231" lon="2.57312">
        <ele>110.80000305176</ele>
        <time>2013-12-01T09:39:31Z</time>
      </trkpt>
      <trkpt lat="48.38234" lon="2.57303">
        <ele>110.19999694824</ele>
        <time>2013-12-01T09:39:32Z</time>
      </trkpt>
      <trkpt lat="48.38236" lon="2.57293">
        <ele>110.19999694824</ele>
        <time>2013-12-01T09:39:33Z</time>
      </trkpt>
      <trkpt lat="48.38237" lon="2.57283">
        <ele>109.80000305176</ele>
        <time>2013-12-01T09:39:34Z</time>
      </trkpt>
      <trkpt lat="48.38237" lon="2.57274">
        <ele>109.40000152588</ele>
        <time>2013-12-01T09:39:35Z</time>
      </trkpt>
      <trkpt lat="48.38233" lon="2.57248">
        <ele>109.40000152588</ele>
        <time>2013-12-01T09:39:38Z</time>
      </trkpt>
      <trkpt lat="48.38232" lon="2.57235">
        <ele>109.40000152588</ele>
        <time>2013-12-01T09:39:39Z</time>
      </trkpt>
      <trkpt lat="48.38231" lon="2.57225">
        <ele>108.80000305176</ele>
        <time>2013-12-01T09:39:40Z</time>
      </trkpt>
      <trkpt lat="48.3823" lon="2.57215">
        <ele>108.40000152588</ele>
        <time>2013-12-01T09:39:41Z</time>
      </trkpt>
      <trkpt lat="48.3823" lon="2.57204">
        <ele>108</ele>
        <time>2013-12-01T09:39:42Z</time>
      </trkpt>
      <trkpt lat="48.38231" lon="2.57194">
        <ele>107.40000152588</ele>
        <time>2013-12-01T09:39:43Z</time>
      </trkpt>
      <trkpt lat="48.38231" lon="2.57183">
        <ele>106.80000305176</ele>
        <time>2013-12-01T09:39:44Z</time>
      </trkpt>
      <trkpt lat="48.3823" lon="2.57174">
        <ele>106.19999694824</ele>
        <time>2013-12-01T09:39:45Z</time>
      </trkpt>
      <trkpt lat="48.3823" lon="2.57164">
        <ele>105.59999847412</ele>
        <time>2013-12-01T09:39:46Z</time>
      </trkpt>
      <trkpt lat="48.3823" lon="2.57155">
        <ele>105.19999694824</ele>
        <time>2013-12-01T09:39:47Z</time>
      </trkpt>
      <trkpt lat="48.38231" lon="2.57122">
        <ele>105.19999694824</ele>
        <time>2013-12-01T09:39:51Z</time>
      </trkpt>
      <trkpt lat="48.38233" lon="2.57106">
        <ele>104.59999847412</ele>
        <time>2013-12-01T09:39:53Z</time>
      </trkpt>
      <trkpt lat="48.38234" lon="2.57098">
        <ele>104.19999694824</ele>
        <time>2013-12-01T09:39:54Z</time>
      </trkpt>
      <trkpt lat="48.38237" lon="2.57091">
        <ele>103.80000305176</ele>
        <time>2013-12-01T09:39:55Z</time>
      </trkpt>
      <trkpt lat="48.38239" lon="2.57084">
        <ele>103.19999694824</ele>
        <time>2013-12-01T09:39:56Z</time>
      </trkpt>
      <trkpt lat="48.38243" lon="2.57077">
        <ele>102.80000305176</ele>
        <time>2013-12-01T09:39:57Z</time>
      </trkpt>
      <trkpt lat="48.3825" lon="2.57065">
        <ele>102.80000305176</ele>
        <time>2013-12-01T09:39:59Z</time>
      </trkpt>
      <trkpt lat="48.3826" lon="2.57044">
        <ele>102.80000305176</ele>
        <time>2013-12-01T09:40:02Z</time>
      </trkpt>
      <trkpt lat="48.38264" lon="2.5703">
        <ele>102.80000305176</ele>
        <time>2013-12-01T09:40:04Z</time>
      </trkpt>
      <trkpt lat="48.38266" lon="2.57013">
        <ele>102.80000305176</ele>
        <time>2013-12-01T09:40:06Z</time>
      </trkpt>
      <trkpt lat="48.38267" lon="2.56998">
        <ele>102.40000152588</ele>
        <time>2013-12-01T09:40:08Z</time>
      </trkpt>
      <trkpt lat="48.38267" lon="2.5699">
        <ele>102</ele>
        <time>2013-12-01T09:40:09Z</time>
      </trkpt>
      <trkpt lat="48.38266" lon="2.5698">
        <ele>101.59999847412</ele>
        <time>2013-12-01T09:40:10Z</time>
      </trkpt>
      <trkpt lat="48.38264" lon="2.56971">
        <ele>101.19999694824</ele>
        <time>2013-12-01T09:40:11Z</time>
      </trkpt>
      <trkpt lat="48.38262" lon="2.56963">
        <ele>100.80000305176</ele>
        <time>2013-12-01T09:40:12Z</time>
      </trkpt>
      <trkpt lat="48.38261" lon="2.56956">
        <ele>100.80000305176</ele>
        <time>2013-12-01T09:40:13Z</time>
      </trkpt>
      <trkpt lat="48.38256" lon="2.56946">
        <ele>100.80000305176</ele>
        <time>2013-12-01T09:40:15Z</time>
      </trkpt>
      <trkpt lat="48.38246" lon="2.56943">
        <ele>100.80000305176</ele>
        <time>2013-12-01T09:40:19Z</time>
      </trkpt>
      <trkpt lat="48.38245" lon="2.56943">
        <ele>101.19999694824</ele>
        <time>2013-12-01T09:40:20Z</time>
      </trkpt>
      <trkpt lat="48.38243" lon="2.56944">
        <ele>101.59999847412</ele>
        <time>2013-12-01T09:40:21Z</time>
      </trkpt>
      <trkpt lat="48.3824" lon="2.56944">
        <ele>102</ele>
        <time>2013-12-01T09:40:23Z</time>
      </trkpt>
      <trkpt lat="48.38239" lon="2.56943">
        <ele>102.40000152588</ele>
        <time>2013-12-01T09:40:24Z</time>
      </trkpt>
      <trkpt lat="48.38238" lon="2.56943">
        <ele>102.80000305176</ele>
        <time>2013-12-01T09:40:25Z</time>
      </trkpt>
      <trkpt lat="48.38234" lon="2.56941">
        <ele>102.80000305176</ele>
        <time>2013-12-01T09:40:28Z</time>
      </trkpt>
      <trkpt lat="48.38233" lon="2.56941">
        <ele>103.19999694824</ele>
        <time>2013-12-01T09:40:29Z</time>
      </trkpt>
      <trkpt lat="48.38232" lon="2.56941">
        <ele>103.59999847412</ele>
        <time>2013-12-01T09:40:30Z</time>
      </trkpt>
      <trkpt lat="48.38231" lon="2.56941">
        <ele>104</ele>
        <time>2013-12-01T09:40:31Z</time>
      </trkpt>
      <trkpt lat="48.38229" lon="2.56941">
        <ele>104.40000152588</ele>
        <time>2013-12-01T09:40:32Z</time>
      </trkpt>
      <trkpt lat="48.38227" lon="2.56941">
        <ele>104.80000305176</ele>
        <time>2013-12-01T09:40:33Z</time>
      </trkpt>
      <trkpt lat="48.38223" lon="2.56941">
        <ele>104.80000305176</ele>
        <time>2013-12-01T09:40:36Z</time>
      </trkpt>
      <trkpt lat="48.38222" lon="2.56941">
        <ele>105.19999694824</ele>
        <time>2013-12-01T09:40:37Z</time>
      </trkpt>
      <trkpt lat="48.38221" lon="2.56941">
        <ele>105.59999847412</ele>
        <time>2013-12-01T09:40:38Z</time>
      </trkpt>
      <trkpt lat="48.38221" lon="2.5694">
        <ele>106.19999694824</ele>
        <time>2013-12-01T09:40:39Z</time>
      </trkpt>
      <trkpt lat="48.38221" lon="2.5694">
        <ele>106.59999847412</ele>
        <time>2013-12-01T09:40:40Z</time>
      </trkpt>
      <trkpt lat="48.3822" lon="2.5694">
        <ele>107</ele>
        <time>2013-12-01T09:40:41Z</time>
      </trkpt>
      <trkpt lat="48.3822" lon="2.5694">
        <ele>107</ele>
        <time>2013-12-01T09:40:49Z</time>
      </trkpt>
      <trkpt lat="48.3822" lon="2.5694">
        <ele>107</ele>
        <time>2013-12-01T09:40:50Z</time>
      </trkpt>
      <trkpt lat="48.3822" lon="2.5694">
        <ele>107</ele>
        <time>2013-12-01T09:40:58Z</time>
      </trkpt>
      <trkpt lat="48.3822" lon="2.5694">
        <ele>107</ele>
        <time>2013-12-01T09:41:02Z</time>
      </trkpt>
      <trkpt lat="48.3822" lon="2.5694">
        <ele>107</ele>
        <time>2013-12-01T09:41:03Z</time>
      </trkpt>
      <trkpt lat="48.3822" lon="2.5694">
        <ele>107</ele>
        <time>2013-12-01T09:41:04Z</time>
      </trkpt>
      <trkpt lat="48.38218" lon="2.56939">
        <ele>107.40000152588</ele>
        <time>2013-12-01T09:41:19Z</time>
      </trkpt>
      <trkpt lat="48.38214" lon="2.56939">
        <ele>107.80000305176</ele>
        <time>2013-12-01T09:41:20Z</time>
      </trkpt>
      <trkpt lat="48.38211" lon="2.56937">
        <ele>108.19999694824</ele>
        <time>2013-12-01T09:41:21Z</time>
      </trkpt>
      <trkpt lat="48.38207" lon="2.56937">
        <ele>108.59999847412</ele>
        <time>2013-12-01T09:41:22Z</time>
      </trkpt>
      <trkpt lat="48.38205" lon="2.56936">
        <ele>109</ele>
        <time>2013-12-01T09:41:23Z</time>
      </trkpt>
      <trkpt lat="48.382" lon="2.56934">
        <ele>109</ele>
        <time>2013-12-01T09:41:25Z</time>
      </trkpt>
      <trkpt lat="48.38198" lon="2.56934">
        <ele>109</ele>
        <time>2013-12-01T09:41:26Z</time>
      </trkpt>
      <trkpt lat="48.38193" lon="2.56932">
        <ele>109</ele>
        <time>2013-12-01T09:41:29Z</time>
      </trkpt>
      <trkpt lat="48.38185" lon="2.56928">
        <ele>109.40000152588</ele>
        <time>2013-12-01T09:41:34Z</time>
      </trkpt>
      <trkpt lat="48.38184" lon="2.56927">
        <ele>109.80000305176</ele>
        <time>2013-12-01T09:41:35Z</time>
      </trkpt>
      <trkpt lat="48.38183" lon="2.56925">
        <ele>110.19999694824</ele>
        <time>2013-12-01T09:41:36Z</time>
      </trkpt>
      <trkpt lat="48.38182" lon="2.56924">
        <ele>110.59999847412</ele>
        <time>2013-12-01T09:41:37Z</time>
      </trkpt>
      <trkpt lat="48.38182" lon="2.56922">
        <ele>111</ele>
        <time>2013-12-01T09:41:38Z</time>
      </trkpt>
      <trkpt lat="48.38179" lon="2.56918">
        <ele>111</ele>
        <time>2013-12-01T09:41:43Z</time>
      </trkpt>
      <trkpt lat="48.38177" lon="2.56914">
        <ele>111.40000152588</ele>
        <time>2013-12-01T09:41:47Z</time>
      </trkpt>
      <trkpt lat="48.38176" lon="2.56913">
        <ele>111.80000305176</ele>
        <time>2013-12-01T09:41:48Z</time>
      </trkpt>
      <trkpt lat="48.38176" lon="2.56912">
        <ele>112.40000152588</ele>
        <time>2013-12-01T09:41:49Z</time>
      </trkpt>
      <trkpt lat="48.38175" lon="2.56912">
        <ele>112.80000305176</ele>
        <time>2013-12-01T09:41:50Z</time>
      </trkpt>
      <trkpt lat="48.38174" lon="2.56911">
        <ele>113.19999694824</ele>
        <time>2013-12-01T09:41:51Z</time>
      </trkpt>
      <trkpt lat="48.38174" lon="2.56909">
        <ele>113.19999694824</ele>
        <time>2013-12-01T09:41:53Z</time>
      </trkpt>
      <trkpt lat="48.38173" lon="2.56908">
        <ele>113.19999694824</ele>
        <time>2013-12-01T09:41:54Z</time>
      </trkpt>
      <trkpt lat="48.38171" lon="2.56905">
        <ele>113.19999694824</ele>
        <time>2013-12-01T09:41:57Z</time>
      </trkpt>
      <trkpt lat="48.38171" lon="2.56904">
        <ele>113.59999847412</ele>
        <time>2013-12-01T09:41:58Z</time>
      </trkpt>
      <trkpt lat="48.3817" lon="2.56902">
        <ele>114</ele>
        <time>2013-12-01T09:42:00Z</time>
      </trkpt>
      <trkpt lat="48.3817" lon="2.569">
        <ele>114.40000152588</ele>
        <time>2013-12-01T09:42:01Z</time>
      </trkpt>
      <trkpt lat="48.3817" lon="2.56899">
        <ele>114.80000305176</ele>
        <time>2013-12-01T09:42:02Z</time>
      </trkpt>
      <trkpt lat="48.38169" lon="2.56897">
        <ele>115.19999694824</ele>
        <time>2013-12-01T09:42:03Z</time>
      </trkpt>
      <trkpt lat="48.38169" lon="2.56896">
        <ele>115.19999694824</ele>
        <time>2013-12-01T09:42:04Z</time>
      </trkpt>
      <trkpt lat="48.38169" lon="2.56895">
        <ele>115.19999694824</ele>
        <time>2013-12-01T09:42:05Z</time>
      </trkpt>
      <trkpt lat="48.38169" lon="2.56892">
        <ele>115.19999694824</ele>
        <time>2013-12-01T09:42:10Z</time>
      </trkpt>
      <trkpt lat="48.38166" lon="2.56877">
        <ele>115.19999694824</ele>
        <time>2013-12-01T09:42:18Z</time>
      </trkpt>
      <trkpt lat="48.3816" lon="2.56865">
        <ele>115.19999694824</ele>
        <time>2013-12-01T09:42:22Z</time>
      </trkpt>
      <trkpt lat="48.38158" lon="2.56862">
        <ele>115.19999694824</ele>
        <time>2013-12-01T09:42:23Z</time>
      </trkpt>
      <trkpt lat="48.38157" lon="2.56859">
        <ele>115.19999694824</ele>
        <time>2013-12-01T09:42:24Z</time>
      </trkpt>
      <trkpt lat="48.38151" lon="2.56848">
        <ele>115.19999694824</ele>
        <time>2013-12-01T09:42:28Z</time>
      </trkpt>
      <trkpt lat="48.3815" lon="2.56843">
        <ele>115.59999847412</ele>
        <time>2013-12-01T09:42:30Z</time>
      </trkpt>
      <trkpt lat="48.38149" lon="2.56841">
        <ele>116</ele>
        <time>2013-12-01T09:42:31Z</time>
      </trkpt>
      <trkpt lat="48.38149" lon="2.56839">
        <ele>116.40000152588</ele>
        <time>2013-12-01T09:42:32Z</time>
      </trkpt>
      <trkpt lat="48.38148" lon="2.56837">
        <ele>116.80000305176</ele>
        <time>2013-12-01T09:42:33Z</time>
      </trkpt>
      <trkpt lat="48.38148" lon="2.56834">
        <ele>117.19999694824</ele>
        <time>2013-12-01T09:42:34Z</time>
      </trkpt>
      <trkpt lat="48.38147" lon="2.5683">
        <ele>117.19999694824</ele>
        <time>2013-12-01T09:42:35Z</time>
      </trkpt>
      <trkpt lat="48.38141" lon="2.56804">
        <ele>117.19999694824</ele>
        <time>2013-12-01T09:42:42Z</time>
      </trkpt>
      <trkpt lat="48.38141" lon="2.568">
        <ele>117.19999694824</ele>
        <time>2013-12-01T09:42:43Z</time>
      </trkpt>
      <trkpt lat="48.38144" lon="2.56776">
        <ele>117.19999694824</ele>
        <time>2013-12-01T09:42:48Z</time>
      </trkpt>
      <trkpt lat="48.3815" lon="2.5675">
        <ele>117.19999694824</ele>
        <time>2013-12-01T09:42:53Z</time>
      </trkpt>
      <trkpt lat="48.3816" lon="2.56717">
        <ele>117.19999694824</ele>
        <time>2013-12-01T09:42:59Z</time>
      </trkpt>
      <trkpt lat="48.38163" lon="2.56697">
        <ele>117.19999694824</ele>
        <time>2013-12-01T09:43:02Z</time>
      </trkpt>
      <trkpt lat="48.38169" lon="2.5667">
        <ele>117.19999694824</ele>
        <time>2013-12-01T09:43:06Z</time>
      </trkpt>
      <trkpt lat="48.38171" lon="2.56663">
        <ele>117.19999694824</ele>
        <time>2013-12-01T09:43:07Z</time>
      </trkpt>
      <trkpt lat="48.38176" lon="2.56635">
        <ele>117.19999694824</ele>
        <time>2013-12-01T09:43:11Z</time>
      </trkpt>
      <trkpt lat="48.38176" lon="2.56628">
        <ele>116.80000305176</ele>
        <time>2013-12-01T09:43:12Z</time>
      </trkpt>
      <trkpt lat="48.38176" lon="2.5662">
        <ele>116.40000152588</ele>
        <time>2013-12-01T09:43:13Z</time>
      </trkpt>
      <trkpt lat="48.38174" lon="2.56612">
        <ele>116</ele>
        <time>2013-12-01T09:43:14Z</time>
      </trkpt>
      <trkpt lat="48.38174" lon="2.56603">
        <ele>115.59999847412</ele>
        <time>2013-12-01T09:43:15Z</time>
      </trkpt>
      <trkpt lat="48.38171" lon="2.56594">
        <ele>115.19999694824</ele>
        <time>2013-12-01T09:43:16Z</time>
      </trkpt>
      <trkpt lat="48.38168" lon="2.56585">
        <ele>114.59999847412</ele>
        <time>2013-12-01T09:43:17Z</time>
      </trkpt>
      <trkpt lat="48.38165" lon="2.5658">
        <ele>114</ele>
        <time>2013-12-01T09:43:18Z</time>
      </trkpt>
      <trkpt lat="48.38162" lon="2.56574">
        <ele>113.59999847412</ele>
        <time>2013-12-01T09:43:19Z</time>
      </trkpt>
      <trkpt lat="48.38158" lon="2.56569">
        <ele>113</ele>
        <time>2013-12-01T09:43:20Z</time>
      </trkpt>
      <trkpt lat="48.38157" lon="2.56566">
        <ele>113</ele>
        <time>2013-12-01T09:43:21Z</time>
      </trkpt>
      <trkpt lat="48.38155" lon="2.56562">
        <ele>113</ele>
        <time>2013-12-01T09:43:22Z</time>
      </trkpt>
      <trkpt lat="48.38152" lon="2.56547">
        <ele>113</ele>
        <time>2013-12-01T09:43:25Z</time>
      </trkpt>
      <trkpt lat="48.3815" lon="2.56536">
        <ele>113</ele>
        <time>2013-12-01T09:43:30Z</time>
      </trkpt>
      <trkpt lat="48.3815" lon="2.56535">
        <ele>113</ele>
        <time>2013-12-01T09:43:31Z</time>
      </trkpt>
      <trkpt lat="48.3815" lon="2.56534">
        <ele>113</ele>
        <time>2013-12-01T09:43:37Z</time>
      </trkpt>
      <trkpt lat="48.3815" lon="2.56534">
        <ele>113</ele>
        <time>2013-12-01T09:43:38Z</time>
      </trkpt>
      <trkpt lat="48.38161" lon="2.56477">
        <ele>113.19999694824</ele>
        <time>2013-12-01T09:51:42Z</time>
      </trkpt>
      <trkpt lat="48.38159" lon="2.56462">
        <ele>113.19999694824</ele>
        <time>2013-12-01T09:51:51Z</time>
      </trkpt>
      <trkpt lat="48.38165" lon="2.56442">
        <ele>113.19999694824</ele>
        <time>2013-12-01T09:51:57Z</time>
      </trkpt>
      <trkpt lat="48.38168" lon="2.5644">
        <ele>113.19999694824</ele>
        <time>2013-12-01T09:51:58Z</time>
      </trkpt>
      <trkpt lat="48.3817" lon="2.56439">
        <ele>113.19999694824</ele>
        <time>2013-12-01T09:51:59Z</time>
      </trkpt>
      <trkpt lat="48.38172" lon="2.56438">
        <ele>113.19999694824</ele>
        <time>2013-12-01T09:52:00Z</time>
      </trkpt>
      <trkpt lat="48.38179" lon="2.56432">
        <ele>113.19999694824</ele>
        <time>2013-12-01T09:52:03Z</time>
      </trkpt>
      <trkpt lat="48.38187" lon="2.56399">
        <ele>113.19999694824</ele>
        <time>2013-12-01T09:52:11Z</time>
      </trkpt>
      <trkpt lat="48.38188" lon="2.56395">
        <ele>113.19999694824</ele>
        <time>2013-12-01T09:52:12Z</time>
      </trkpt>
      <trkpt lat="48.38189" lon="2.5639">
        <ele>113.59999847412</ele>
        <time>2013-12-01T09:52:13Z</time>
      </trkpt>
      <trkpt lat="48.3819" lon="2.56386">
        <ele>114</ele>
        <time>2013-12-01T09:52:14Z</time>
      </trkpt>
      <trkpt lat="48.38192" lon="2.56382">
        <ele>114.40000152588</ele>
        <time>2013-12-01T09:52:15Z</time>
      </trkpt>
      <trkpt lat="48.38193" lon="2.56377">
        <ele>114.80000305176</ele>
        <time>2013-12-01T09:52:16Z</time>
      </trkpt>
      <trkpt lat="48.38195" lon="2.56373">
        <ele>115.40000152588</ele>
        <time>2013-12-01T09:52:17Z</time>
      </trkpt>
      <trkpt lat="48.38203" lon="2.56352">
        <ele>115.40000152588</ele>
        <time>2013-12-01T09:52:21Z</time>
      </trkpt>
      <trkpt lat="48.38214" lon="2.56316">
        <ele>115.40000152588</ele>
        <time>2013-12-01T09:52:27Z</time>
      </trkpt>
      <trkpt lat="48.38216" lon="2.56311">
        <ele>114.80000305176</ele>
        <time>2013-12-01T09:52:28Z</time>
      </trkpt>
      <trkpt lat="48.38217" lon="2.56305">
        <ele>114.40000152588</ele>
        <time>2013-12-01T09:52:29Z</time>
      </trkpt>
      <trkpt lat="48.38219" lon="2.563">
        <ele>114</ele>
        <time>2013-12-01T09:52:30Z</time>
      </trkpt>
      <trkpt lat="48.38221" lon="2.56295">
        <ele>113.59999847412</ele>
        <time>2013-12-01T09:52:31Z</time>
      </trkpt>
      <trkpt lat="48.38222" lon="2.5629">
        <ele>113.19999694824</ele>
        <time>2013-12-01T09:52:32Z</time>
      </trkpt>
      <trkpt lat="48.38229" lon="2.56281">
        <ele>113.19999694824</ele>
        <time>2013-12-01T09:52:34Z</time>
      </trkpt>
      <trkpt lat="48.38239" lon="2.56273">
        <ele>112.59999847412</ele>
        <time>2013-12-01T09:52:36Z</time>
      </trkpt>
      <trkpt lat="48.38244" lon="2.56269">
        <ele>112.19999694824</ele>
        <time>2013-12-01T09:52:37Z</time>
      </trkpt>
      <trkpt lat="48.3825" lon="2.56265">
        <ele>111.59999847412</ele>
        <time>2013-12-01T09:52:38Z</time>
      </trkpt>
      <trkpt lat="48.38257" lon="2.56264">
        <ele>111.19999694824</ele>
        <time>2013-12-01T09:52:39Z</time>
      </trkpt>
      <trkpt lat="48.38262" lon="2.56261">
        <ele>110.59999847412</ele>
        <time>2013-12-01T09:52:40Z</time>
      </trkpt>
      <trkpt lat="48.38268" lon="2.56257">
        <ele>110.59999847412</ele>
        <time>2013-12-01T09:52:41Z</time>
      </trkpt>
      <trkpt lat="48.38274" lon="2.56252">
        <ele>110.59999847412</ele>
        <time>2013-12-01T09:52:42Z</time>
      </trkpt>
      <trkpt lat="48.38279" lon="2.56246">
        <ele>110.19999694824</ele>
        <time>2013-12-01T09:52:43Z</time>
      </trkpt>
      <trkpt lat="48.38284" lon="2.56239">
        <ele>109.80000305176</ele>
        <time>2013-12-01T09:52:44Z</time>
      </trkpt>
      <trkpt lat="48.38289" lon="2.56231">
        <ele>109.19999694824</ele>
        <time>2013-12-01T09:52:45Z</time>
      </trkpt>
      <trkpt lat="48.38292" lon="2.56221">
        <ele>108.80000305176</ele>
        <time>2013-12-01T09:52:46Z</time>
      </trkpt>
      <trkpt lat="48.38295" lon="2.56211">
        <ele>108.40000152588</ele>
        <time>2013-12-01T09:52:47Z</time>
      </trkpt>
      <trkpt lat="48.38299" lon="2.5619">
        <ele>108.40000152588</ele>
        <time>2013-12-01T09:52:49Z</time>
      </trkpt>
      <trkpt lat="48.38305" lon="2.56174">
        <ele>108</ele>
        <time>2013-12-01T09:52:51Z</time>
      </trkpt>
      <trkpt lat="48.38309" lon="2.56169">
        <ele>107.59999847412</ele>
        <time>2013-12-01T09:52:52Z</time>
      </trkpt>
      <trkpt lat="48.38325" lon="2.56157">
        <ele>106.59999847412</ele>
        <time>2013-12-01T09:52:55Z</time>
      </trkpt>
      <trkpt lat="48.3833" lon="2.56156">
        <ele>106.19999694824</ele>
        <time>2013-12-01T09:52:56Z</time>
      </trkpt>
      <trkpt lat="48.38335" lon="2.56155">
        <ele>105.80000305176</ele>
        <time>2013-12-01T09:52:57Z</time>
      </trkpt>
      <trkpt lat="48.38341" lon="2.56151">
        <ele>105.19999694824</ele>
        <time>2013-12-01T09:52:58Z</time>
      </trkpt>
      <trkpt lat="48.38347" lon="2.56146">
        <ele>104.80000305176</ele>
        <time>2013-12-01T09:52:59Z</time>
      </trkpt>
      <trkpt lat="48.38351" lon="2.56141">
        <ele>104.40000152588</ele>
        <time>2013-12-01T09:53:00Z</time>
      </trkpt>
      <trkpt lat="48.38356" lon="2.56135">
        <ele>103.80000305176</ele>
        <time>2013-12-01T09:53:01Z</time>
      </trkpt>
      <trkpt lat="48.3838" lon="2.56099">
        <ele>103.80000305176</ele>
        <time>2013-12-01T09:53:06Z</time>
      </trkpt>
      <trkpt lat="48.38383" lon="2.56092">
        <ele>102.80000305176</ele>
        <time>2013-12-01T09:53:07Z</time>
      </trkpt>
      <trkpt lat="48.38385" lon="2.56084">
        <ele>102.40000152588</ele>
        <time>2013-12-01T09:53:08Z</time>
      </trkpt>
      <trkpt lat="48.38387" lon="2.56074">
        <ele>102</ele>
        <time>2013-12-01T09:53:09Z</time>
      </trkpt>
      <trkpt lat="48.38388" lon="2.56064">
        <ele>101.40000152588</ele>
        <time>2013-12-01T09:53:10Z</time>
      </trkpt>
      <trkpt lat="48.38389" lon="2.56053">
        <ele>101</ele>
        <time>2013-12-01T09:53:11Z</time>
      </trkpt>
      <trkpt lat="48.38391" lon="2.56043">
        <ele>100.59999847412</ele>
        <time>2013-12-01T09:53:12Z</time>
      </trkpt>
      <trkpt lat="48.38392" lon="2.56032">
        <ele>100.19999694824</ele>
        <time>2013-12-01T09:53:13Z</time>
      </trkpt>
      <trkpt lat="48.38393" lon="2.56023">
        <ele>99.800003051758</ele>
        <time>2013-12-01T09:53:14Z</time>
      </trkpt>
      <trkpt lat="48.38393" lon="2.56013">
        <ele>99.400001525879</ele>
        <time>2013-12-01T09:53:15Z</time>
      </trkpt>
      <trkpt lat="48.38396" lon="2.55971">
        <ele>99</ele>
        <time>2013-12-01T09:53:19Z</time>
      </trkpt>
      <trkpt lat="48.38398" lon="2.55959">
        <ele>98.599998474121</ele>
        <time>2013-12-01T09:53:20Z</time>
      </trkpt>
      <trkpt lat="48.38399" lon="2.5595">
        <ele>98</ele>
        <time>2013-12-01T09:53:21Z</time>
      </trkpt>
      <trkpt lat="48.384" lon="2.55942">
        <ele>97.599998474121</ele>
        <time>2013-12-01T09:53:22Z</time>
      </trkpt>
      <trkpt lat="48.384" lon="2.55938">
        <ele>97.199996948242</ele>
        <time>2013-12-01T09:53:23Z</time>
      </trkpt>
      <trkpt lat="48.38401" lon="2.55932">
        <ele>97.199996948242</ele>
        <time>2013-12-01T09:53:24Z</time>
      </trkpt>
      <trkpt lat="48.38409" lon="2.55934">
        <ele>97.199996948242</ele>
        <time>2013-12-01T09:53:28Z</time>
      </trkpt>
      <trkpt lat="48.38412" lon="2.55938">
        <ele>97.199996948242</ele>
        <time>2013-12-01T09:53:31Z</time>
      </trkpt>
      <trkpt lat="48.38416" lon="2.5594">
        <ele>97.199996948242</ele>
        <time>2013-12-01T09:53:35Z</time>
      </trkpt>
      <trkpt lat="48.38417" lon="2.5594">
        <ele>97.199996948242</ele>
        <time>2013-12-01T09:53:41Z</time>
      </trkpt>
      <trkpt lat="48.38417" lon="2.5594">
        <ele>97.199996948242</ele>
        <time>2013-12-01T09:53:42Z</time>
      </trkpt>
      <trkpt lat="48.38417" lon="2.5594">
        <ele>97.199996948242</ele>
        <time>2013-12-01T09:53:43Z</time>
      </trkpt>
      <trkpt lat="48.38417" lon="2.5594">
        <ele>97.599998474121</ele>
        <time>2013-12-01T09:53:50Z</time>
      </trkpt>
      <trkpt lat="48.38417" lon="2.5594">
        <ele>98.199996948242</ele>
        <time>2013-12-01T09:53:51Z</time>
      </trkpt>
      <trkpt lat="48.38417" lon="2.5594">
        <ele>98.599998474121</ele>
        <time>2013-12-01T09:53:52Z</time>
      </trkpt>
      <trkpt lat="48.38417" lon="2.5594">
        <ele>99</ele>
        <time>2013-12-01T09:53:53Z</time>
      </trkpt>
      <trkpt lat="48.38417" lon="2.5594">
        <ele>99.400001525879</ele>
        <time>2013-12-01T09:53:54Z</time>
      </trkpt>
      <trkpt lat="48.38417" lon="2.5594">
        <ele>99.400001525879</ele>
        <time>2013-12-01T09:53:56Z</time>
      </trkpt>
      <trkpt lat="48.38417" lon="2.5594">
        <ele>99.400001525879</ele>
        <time>2013-12-01T09:53:57Z</time>
      </trkpt>
      <trkpt lat="48.38417" lon="2.5594">
        <ele>99.400001525879</ele>
        <time>2013-12-01T09:53:58Z</time>
      </trkpt>
      <trkpt lat="48.38417" lon="2.5594">
        <ele>99.400001525879</ele>
        <time>2013-12-01T09:53:59Z</time>
      </trkpt>
      <trkpt lat="48.38417" lon="2.5594">
        <ele>99.800003051758</ele>
        <time>2013-12-01T09:54:01Z</time>
      </trkpt>
      <trkpt lat="48.38417" lon="2.5594">
        <ele>100.19999694824</ele>
        <time>2013-12-01T09:54:02Z</time>
      </trkpt>
      <trkpt lat="48.38417" lon="2.5594">
        <ele>100.80000305176</ele>
        <time>2013-12-01T09:54:03Z</time>
      </trkpt>
      <trkpt lat="48.38417" lon="2.5594">
        <ele>101.19999694824</ele>
        <time>2013-12-01T09:54:04Z</time>
      </trkpt>
      <trkpt lat="48.38417" lon="2.5594">
        <ele>101.59999847412</ele>
        <time>2013-12-01T09:54:05Z</time>
      </trkpt>
      <trkpt lat="48.38417" lon="2.5594">
        <ele>101.59999847412</ele>
        <time>2013-12-01T09:54:06Z</time>
      </trkpt>
      <trkpt lat="48.38417" lon="2.5594">
        <ele>101.59999847412</ele>
        <time>2013-12-01T09:54:07Z</time>
      </trkpt>
      <trkpt lat="48.38417" lon="2.5594">
        <ele>101.59999847412</ele>
        <time>2013-12-01T09:54:14Z</time>
      </trkpt>
      <trkpt lat="48.38417" lon="2.5594">
        <ele>102</ele>
        <time>2013-12-01T09:54:15Z</time>
      </trkpt>
      <trkpt lat="48.38417" lon="2.5594">
        <ele>102.40000152588</ele>
        <time>2013-12-01T09:54:16Z</time>
      </trkpt>
      <trkpt lat="48.38417" lon="2.5594">
        <ele>102.80000305176</ele>
        <time>2013-12-01T09:54:17Z</time>
      </trkpt>
      <trkpt lat="48.38417" lon="2.5594">
        <ele>103.19999694824</ele>
        <time>2013-12-01T09:54:18Z</time>
      </trkpt>
      <trkpt lat="48.38417" lon="2.5594">
        <ele>103.59999847412</ele>
        <time>2013-12-01T09:54:19Z</time>
      </trkpt>
      <trkpt lat="48.38417" lon="2.5594">
        <ele>103.59999847412</ele>
        <time>2013-12-01T09:54:20Z</time>
      </trkpt>
      <trkpt lat="48.38417" lon="2.5594">
        <ele>104</ele>
        <time>2013-12-01T09:54:28Z</time>
      </trkpt>
      <trkpt lat="48.38417" lon="2.5594">
        <ele>104.59999847412</ele>
        <time>2013-12-01T09:54:29Z</time>
      </trkpt>
      <trkpt lat="48.38417" lon="2.5594">
        <ele>105</ele>
        <time>2013-12-01T09:54:30Z</time>
      </trkpt>
      <trkpt lat="48.38417" lon="2.5594">
        <ele>105.40000152588</ele>
        <time>2013-12-01T09:54:31Z</time>
      </trkpt>
      <trkpt lat="48.38417" lon="2.55941">
        <ele>105.80000305176</ele>
        <time>2013-12-01T09:54:32Z</time>
      </trkpt>
      <trkpt lat="48.3842" lon="2.55939">
        <ele>105.80000305176</ele>
        <time>2013-12-01T09:54:34Z</time>
      </trkpt>
      <trkpt lat="48.38424" lon="2.5594">
        <ele>105.80000305176</ele>
        <time>2013-12-01T09:54:35Z</time>
      </trkpt>
      <trkpt lat="48.38449" lon="2.55929">
        <ele>105.80000305176</ele>
        <time>2013-12-01T09:54:39Z</time>
      </trkpt>
      <trkpt lat="48.38472" lon="2.55935">
        <ele>105.80000305176</ele>
        <time>2013-12-01T09:54:44Z</time>
      </trkpt>
      <trkpt lat="48.38478" lon="2.55936">
        <ele>105.80000305176</ele>
        <time>2013-12-01T09:54:49Z</time>
      </trkpt>
      <trkpt lat="48.38491" lon="2.5594">
        <ele>105.80000305176</ele>
        <time>2013-12-01T09:54:56Z</time>
      </trkpt>
      <trkpt lat="48.38498" lon="2.55943">
        <ele>105.40000152588</ele>
        <time>2013-12-01T09:54:59Z</time>
      </trkpt>
      <trkpt lat="48.385" lon="2.55943">
        <ele>105</ele>
        <time>2013-12-01T09:55:00Z</time>
      </trkpt>
      <trkpt lat="48.38505" lon="2.5594">
        <ele>104.40000152588</ele>
        <time>2013-12-01T09:55:01Z</time>
      </trkpt>
      <trkpt lat="48.38509" lon="2.55939">
        <ele>104</ele>
        <time>2013-12-01T09:55:02Z</time>
      </trkpt>
      <trkpt lat="48.38513" lon="2.55936">
        <ele>103.59999847412</ele>
        <time>2013-12-01T09:55:03Z</time>
      </trkpt>
      <trkpt lat="48.38527" lon="2.55932">
        <ele>103.59999847412</ele>
        <time>2013-12-01T09:55:06Z</time>
      </trkpt>
      <trkpt lat="48.38532" lon="2.55929">
        <ele>103.59999847412</ele>
        <time>2013-12-01T09:55:07Z</time>
      </trkpt>
      <trkpt lat="48.38537" lon="2.55929">
        <ele>103.59999847412</ele>
        <time>2013-12-01T09:55:08Z</time>
      </trkpt>
      <trkpt lat="48.38556" lon="2.55915">
        <ele>103.59999847412</ele>
        <time>2013-12-01T09:55:13Z</time>
      </trkpt>
      <trkpt lat="48.38559" lon="2.5591">
        <ele>103.59999847412</ele>
        <time>2013-12-01T09:55:14Z</time>
      </trkpt>
      <trkpt lat="48.38566" lon="2.55904">
        <ele>103.59999847412</ele>
        <time>2013-12-01T09:55:17Z</time>
      </trkpt>
      <trkpt lat="48.38575" lon="2.55897">
        <ele>103.59999847412</ele>
        <time>2013-12-01T09:55:22Z</time>
      </trkpt>
      <trkpt lat="48.38577" lon="2.55895">
        <ele>103.59999847412</ele>
        <time>2013-12-01T09:55:23Z</time>
      </trkpt>
      <trkpt lat="48.38577" lon="2.55894">
        <ele>103.19999694824</ele>
        <time>2013-12-01T09:55:24Z</time>
      </trkpt>
      <trkpt lat="48.38578" lon="2.55893">
        <ele>102.80000305176</ele>
        <time>2013-12-01T09:55:25Z</time>
      </trkpt>
      <trkpt lat="48.38579" lon="2.55891">
        <ele>102.40000152588</ele>
        <time>2013-12-01T09:55:26Z</time>
      </trkpt>
      <trkpt lat="48.3858" lon="2.5589">
        <ele>102</ele>
        <time>2013-12-01T09:55:27Z</time>
      </trkpt>
      <trkpt lat="48.38581" lon="2.5589">
        <ele>101.40000152588</ele>
        <time>2013-12-01T09:55:28Z</time>
      </trkpt>
      <trkpt lat="48.38582" lon="2.55889">
        <ele>101.40000152588</ele>
        <time>2013-12-01T09:55:29Z</time>
      </trkpt>
      <trkpt lat="48.38583" lon="2.55886">
        <ele>101.40000152588</ele>
        <time>2013-12-01T09:55:33Z</time>
      </trkpt>
      <trkpt lat="48.38583" lon="2.55886">
        <ele>101.40000152588</ele>
        <time>2013-12-01T09:55:36Z</time>
      </trkpt>
      <trkpt lat="48.38583" lon="2.55886">
        <ele>101.40000152588</ele>
        <time>2013-12-01T09:55:37Z</time>
      </trkpt>
      <trkpt lat="48.38583" lon="2.55886">
        <ele>101.40000152588</ele>
        <time>2013-12-01T09:55:48Z</time>
      </trkpt>
      <trkpt lat="48.38583" lon="2.55886">
        <ele>101.40000152588</ele>
        <time>2013-12-01T09:56:05Z</time>
      </trkpt>
      <trkpt lat="48.38583" lon="2.55886">
        <ele>101.40000152588</ele>
        <time>2013-12-01T09:56:14Z</time>
      </trkpt>
      <trkpt lat="48.38583" lon="2.55886">
        <ele>101.40000152588</ele>
        <time>2013-12-01T09:56:15Z</time>
      </trkpt>
      <trkpt lat="48.38583" lon="2.55886">
        <ele>101.40000152588</ele>
        <time>2013-12-01T09:56:20Z</time>
      </trkpt>
      <trkpt lat="48.38583" lon="2.55886">
        <ele>101</ele>
        <time>2013-12-01T09:56:22Z</time>
      </trkpt>
      <trkpt lat="48.38583" lon="2.55886">
        <ele>100.59999847412</ele>
        <time>2013-12-01T09:56:23Z</time>
      </trkpt>
      <trkpt lat="48.38583" lon="2.55886">
        <ele>100.19999694824</ele>
        <time>2013-12-01T09:56:24Z</time>
      </trkpt>
      <trkpt lat="48.38583" lon="2.55886">
        <ele>99.800003051758</ele>
        <time>2013-12-01T09:56:25Z</time>
      </trkpt>
      <trkpt lat="48.38583" lon="2.55886">
        <ele>99.400001525879</ele>
        <time>2013-12-01T09:56:26Z</time>
      </trkpt>
      <trkpt lat="48.38583" lon="2.55886">
        <ele>99.400001525879</ele>
        <time>2013-12-01T09:56:34Z</time>
      </trkpt>
      <trkpt lat="48.38583" lon="2.55886">
        <ele>99.400001525879</ele>
        <time>2013-12-01T09:56:35Z</time>
      </trkpt>
      <trkpt lat="48.38583" lon="2.55886">
        <ele>99.400001525879</ele>
        <time>2013-12-01T09:56:36Z</time>
      </trkpt>
      <trkpt lat="48.38583" lon="2.55886">
        <ele>99.400001525879</ele>
        <time>2013-12-01T09:56:37Z</time>
      </trkpt>
      <trkpt lat="48.38583" lon="2.55886">
        <ele>99.400001525879</ele>
        <time>2013-12-01T09:56:38Z</time>
      </trkpt>
      <trkpt lat="48.38583" lon="2.55886">
        <ele>99.400001525879</ele>
        <time>2013-12-01T09:56:40Z</time>
      </trkpt>
      <trkpt lat="48.38583" lon="2.55885">
        <ele>99.400001525879</ele>
        <time>2013-12-01T09:56:53Z</time>
      </trkpt>
      <trkpt lat="48.38583" lon="2.55885">
        <ele>99.400001525879</ele>
        <time>2013-12-01T09:57:10Z</time>
      </trkpt>
      <trkpt lat="48.38583" lon="2.55885">
        <ele>99.400001525879</ele>
        <time>2013-12-01T09:57:11Z</time>
      </trkpt>
      <trkpt lat="48.38583" lon="2.55885">
        <ele>99.400001525879</ele>
        <time>2013-12-01T09:57:24Z</time>
      </trkpt>
      <trkpt lat="48.38583" lon="2.55885">
        <ele>99.400001525879</ele>
        <time>2013-12-01T09:57:30Z</time>
      </trkpt>
      <trkpt lat="48.38583" lon="2.55884">
        <ele>99</ele>
        <time>2013-12-01T09:57:40Z</time>
      </trkpt>
      <trkpt lat="48.38584" lon="2.55884">
        <ele>98.599998474121</ele>
        <time>2013-12-01T09:57:41Z</time>
      </trkpt>
      <trkpt lat="48.38584" lon="2.55884">
        <ele>98.199996948242</ele>
        <time>2013-12-01T09:57:42Z</time>
      </trkpt>
      <trkpt lat="48.38584" lon="2.55884">
        <ele>97.800003051758</ele>
        <time>2013-12-01T09:57:43Z</time>
      </trkpt>
      <trkpt lat="48.38584" lon="2.55884">
        <ele>97.400001525879</ele>
        <time>2013-12-01T09:57:44Z</time>
      </trkpt>
      <trkpt lat="48.38584" lon="2.55884">
        <ele>97.400001525879</ele>
        <time>2013-12-01T09:57:48Z</time>
      </trkpt>
      <trkpt lat="48.38584" lon="2.55883">
        <ele>97.400001525879</ele>
        <time>2013-12-01T09:58:03Z</time>
      </trkpt>
      <trkpt lat="48.38584" lon="2.55883">
        <ele>97</ele>
        <time>2013-12-01T09:58:15Z</time>
      </trkpt>
      <trkpt lat="48.38584" lon="2.55883">
        <ele>96.599998474121</ele>
        <time>2013-12-01T09:58:16Z</time>
      </trkpt>
      <trkpt lat="48.38584" lon="2.55883">
        <ele>96</ele>
        <time>2013-12-01T09:58:17Z</time>
      </trkpt>
      <trkpt lat="48.38584" lon="2.55883">
        <ele>95.599998474121</ele>
        <time>2013-12-01T09:58:18Z</time>
      </trkpt>
      <trkpt lat="48.38584" lon="2.55883">
        <ele>95.199996948242</ele>
        <time>2013-12-01T09:58:19Z</time>
      </trkpt>
      <trkpt lat="48.38584" lon="2.55883">
        <ele>95.199996948242</ele>
        <time>2013-12-01T09:58:21Z</time>
      </trkpt>
      <trkpt lat="48.38584" lon="2.55883">
        <ele>95.199996948242</ele>
        <time>2013-12-01T09:58:22Z</time>
      </trkpt>
      <trkpt lat="48.38584" lon="2.55883">
        <ele>95.199996948242</ele>
        <time>2013-12-01T09:58:23Z</time>
      </trkpt>
      <trkpt lat="48.38584" lon="2.55883">
        <ele>95.199996948242</ele>
        <time>2013-12-01T09:58:24Z</time>
      </trkpt>
      <trkpt lat="48.38584" lon="2.55883">
        <ele>94.800003051758</ele>
        <time>2013-12-01T09:58:46Z</time>
      </trkpt>
      <trkpt lat="48.38584" lon="2.55883">
        <ele>94.400001525879</ele>
        <time>2013-12-01T09:58:47Z</time>
      </trkpt>
      <trkpt lat="48.38584" lon="2.55883">
        <ele>94</ele>
        <time>2013-12-01T09:58:48Z</time>
      </trkpt>
      <trkpt lat="48.38584" lon="2.55883">
        <ele>93.599998474121</ele>
        <time>2013-12-01T09:58:49Z</time>
      </trkpt>
      <trkpt lat="48.38584" lon="2.55883">
        <ele>93.199996948242</ele>
        <time>2013-12-01T09:58:50Z</time>
      </trkpt>
      <trkpt lat="48.38584" lon="2.55883">
        <ele>92.800003051758</ele>
        <time>2013-12-01T09:58:53Z</time>
      </trkpt>
      <trkpt lat="48.38584" lon="2.55883">
        <ele>92.400001525879</ele>
        <time>2013-12-01T09:58:54Z</time>
      </trkpt>
      <trkpt lat="48.38584" lon="2.55883">
        <ele>91.800003051758</ele>
        <time>2013-12-01T09:58:55Z</time>
      </trkpt>
      <trkpt lat="48.38584" lon="2.55883">
        <ele>91.400001525879</ele>
        <time>2013-12-01T09:58:56Z</time>
      </trkpt>
      <trkpt lat="48.38584" lon="2.55883">
        <ele>91</ele>
        <time>2013-12-01T09:58:57Z</time>
      </trkpt>
      <trkpt lat="48.38584" lon="2.55883">
        <ele>90.599998474121</ele>
        <time>2013-12-01T09:59:06Z</time>
      </trkpt>
      <trkpt lat="48.38584" lon="2.55883">
        <ele>90.199996948242</ele>
        <time>2013-12-01T09:59:07Z</time>
      </trkpt>
      <trkpt lat="48.38584" lon="2.55883">
        <ele>89.800003051758</ele>
        <time>2013-12-01T09:59:08Z</time>
      </trkpt>
      <trkpt lat="48.38584" lon="2.55883">
        <ele>89.400001525879</ele>
        <time>2013-12-01T09:59:09Z</time>
      </trkpt>
      <trkpt lat="48.38584" lon="2.55883">
        <ele>89</ele>
        <time>2013-12-01T09:59:10Z</time>
      </trkpt>
      <trkpt lat="48.38584" lon="2.55883">
        <ele>89</ele>
        <time>2013-12-01T09:59:18Z</time>
      </trkpt>
      <trkpt lat="48.38584" lon="2.55883">
        <ele>88.599998474121</ele>
        <time>2013-12-01T09:59:19Z</time>
      </trkpt>
      <trkpt lat="48.38584" lon="2.55883">
        <ele>88.199996948242</ele>
        <time>2013-12-01T09:59:20Z</time>
      </trkpt>
      <trkpt lat="48.38584" lon="2.55883">
        <ele>87.800003051758</ele>
        <time>2013-12-01T09:59:21Z</time>
      </trkpt>
      <trkpt lat="48.38584" lon="2.55883">
        <ele>87.400001525879</ele>
        <time>2013-12-01T09:59:22Z</time>
      </trkpt>
      <trkpt lat="48.38585" lon="2.55882">
        <ele>86.800003051758</ele>
        <time>2013-12-01T09:59:23Z</time>
      </trkpt>
      <trkpt lat="48.38588" lon="2.55882">
        <ele>86.400001525879</ele>
        <time>2013-12-01T09:59:24Z</time>
      </trkpt>
      <trkpt lat="48.38595" lon="2.55878">
        <ele>85.800003051758</ele>
        <time>2013-12-01T09:59:25Z</time>
      </trkpt>
      <trkpt lat="48.38603" lon="2.55876">
        <ele>85.199996948242</ele>
        <time>2013-12-01T09:59:26Z</time>
      </trkpt>
      <trkpt lat="48.3861" lon="2.55874">
        <ele>84.400001525879</ele>
        <time>2013-12-01T09:59:27Z</time>
      </trkpt>
      <trkpt lat="48.38618" lon="2.55876">
        <ele>83.800003051758</ele>
        <time>2013-12-01T09:59:28Z</time>
      </trkpt>
      <trkpt lat="48.38623" lon="2.55875">
        <ele>83</ele>
        <time>2013-12-01T09:59:29Z</time>
      </trkpt>
      <trkpt lat="48.38629" lon="2.55879">
        <ele>82.400001525879</ele>
        <time>2013-12-01T09:59:30Z</time>
      </trkpt>
      <trkpt lat="48.38638" lon="2.55881">
        <ele>81.800003051758</ele>
        <time>2013-12-01T09:59:31Z</time>
      </trkpt>
      <trkpt lat="48.38647" lon="2.55885">
        <ele>81</ele>
        <time>2013-12-01T09:59:32Z</time>
      </trkpt>
      <trkpt lat="48.38655" lon="2.55889">
        <ele>80.400001525879</ele>
        <time>2013-12-01T09:59:33Z</time>
      </trkpt>
      <trkpt lat="48.38663" lon="2.55896">
        <ele>79.599998474121</ele>
        <time>2013-12-01T09:59:34Z</time>
      </trkpt>
      <trkpt lat="48.3867" lon="2.55905">
        <ele>78.800003051758</ele>
        <time>2013-12-01T09:59:35Z</time>
      </trkpt>
      <trkpt lat="48.38675" lon="2.55915">
        <ele>78</ele>
        <time>2013-12-01T09:59:36Z</time>
      </trkpt>
      <trkpt lat="48.38678" lon="2.55926">
        <ele>77</ele>
        <time>2013-12-01T09:59:37Z</time>
      </trkpt>
      <trkpt lat="48.38684" lon="2.55933">
        <ele>76.199996948242</ele>
        <time>2013-12-01T09:59:38Z</time>
      </trkpt>
      <trkpt lat="48.38687" lon="2.55943">
        <ele>75.199996948242</ele>
        <time>2013-12-01T09:59:39Z</time>
      </trkpt>
      <trkpt lat="48.38691" lon="2.55951">
        <ele>74.400001525879</ele>
        <time>2013-12-01T09:59:40Z</time>
      </trkpt>
      <trkpt lat="48.38696" lon="2.55958">
        <ele>73.599998474121</ele>
        <time>2013-12-01T09:59:41Z</time>
      </trkpt>
      <trkpt lat="48.38701" lon="2.55962">
        <ele>72.800003051758</ele>
        <time>2013-12-01T09:59:42Z</time>
      </trkpt>
      <trkpt lat="48.38706" lon="2.55966">
        <ele>71.800003051758</ele>
        <time>2013-12-01T09:59:43Z</time>
      </trkpt>
      <trkpt lat="48.38711" lon="2.5597">
        <ele>71.800003051758</ele>
        <time>2013-12-01T09:59:44Z</time>
      </trkpt>
      <trkpt lat="48.3872" lon="2.5596">
        <ele>71.800003051758</ele>
        <time>2013-12-01T09:59:47Z</time>
      </trkpt>
      <trkpt lat="48.38728" lon="2.55931">
        <ele>71.800003051758</ele>
        <time>2013-12-01T09:59:52Z</time>
      </trkpt>
      <trkpt lat="48.3873" lon="2.55896">
        <ele>71.800003051758</ele>
        <time>2013-12-01T09:59:56Z</time>
      </trkpt>
      <trkpt lat="48.38732" lon="2.55888">
        <ele>71.800003051758</ele>
        <time>2013-12-01T09:59:57Z</time>
      </trkpt>
      <trkpt lat="48.38733" lon="2.55879">
        <ele>71.800003051758</ele>
        <time>2013-12-01T09:59:58Z</time>
      </trkpt>
      <trkpt lat="48.38737" lon="2.55841">
        <ele>71.800003051758</ele>
        <time>2013-12-01T10:00:02Z</time>
      </trkpt>
      <trkpt lat="48.3874" lon="2.55826">
        <ele>71.800003051758</ele>
        <time>2013-12-01T10:00:05Z</time>
      </trkpt>
      <trkpt lat="48.38745" lon="2.55796">
        <ele>71.800003051758</ele>
        <time>2013-12-01T10:00:09Z</time>
      </trkpt>
      <trkpt lat="48.38748" lon="2.55787">
        <ele>71.800003051758</ele>
        <time>2013-12-01T10:00:10Z</time>
      </trkpt>
      <trkpt lat="48.38768" lon="2.55739">
        <ele>71.800003051758</ele>
        <time>2013-12-01T10:00:17Z</time>
      </trkpt>
      <trkpt lat="48.38789" lon="2.55723">
        <ele>71.800003051758</ele>
        <time>2013-12-01T10:00:22Z</time>
      </trkpt>
      <trkpt lat="48.38798" lon="2.55716">
        <ele>71.800003051758</ele>
        <time>2013-12-01T10:00:24Z</time>
      </trkpt>
      <trkpt lat="48.38806" lon="2.55709">
        <ele>71.800003051758</ele>
        <time>2013-12-01T10:00:26Z</time>
      </trkpt>
      <trkpt lat="48.38832" lon="2.55687">
        <ele>71.800003051758</ele>
        <time>2013-12-01T10:00:33Z</time>
      </trkpt>
      <trkpt lat="48.38841" lon="2.55682">
        <ele>71.400001525879</ele>
        <time>2013-12-01T10:00:35Z</time>
      </trkpt>
      <trkpt lat="48.38845" lon="2.5568">
        <ele>71</ele>
        <time>2013-12-01T10:00:36Z</time>
      </trkpt>
      <trkpt lat="48.38848" lon="2.55677">
        <ele>70.599998474121</ele>
        <time>2013-12-01T10:00:37Z</time>
      </trkpt>
      <trkpt lat="48.38852" lon="2.55675">
        <ele>70.199996948242</ele>
        <time>2013-12-01T10:00:38Z</time>
      </trkpt>
      <trkpt lat="48.38856" lon="2.55672">
        <ele>69.800003051758</ele>
        <time>2013-12-01T10:00:39Z</time>
      </trkpt>
      <trkpt lat="48.38866" lon="2.55667">
        <ele>69.800003051758</ele>
        <time>2013-12-01T10:00:41Z</time>
      </trkpt>
      <trkpt lat="48.38876" lon="2.55662">
        <ele>69.800003051758</ele>
        <time>2013-12-01T10:00:43Z</time>
      </trkpt>
      <trkpt lat="48.38912" lon="2.55648">
        <ele>69.800003051758</ele>
        <time>2013-12-01T10:00:49Z</time>
      </trkpt>
      <trkpt lat="48.38927" lon="2.55644">
        <ele>69.400001525879</ele>
        <time>2013-12-01T10:00:52Z</time>
      </trkpt>
      <trkpt lat="48.38932" lon="2.55642">
        <ele>69</ele>
        <time>2013-12-01T10:00:53Z</time>
      </trkpt>
      <trkpt lat="48.38936" lon="2.5564">
        <ele>68.599998474121</ele>
        <time>2013-12-01T10:00:54Z</time>
      </trkpt>
      <trkpt lat="48.38941" lon="2.55638">
        <ele>68.199996948242</ele>
        <time>2013-12-01T10:00:55Z</time>
      </trkpt>
      <trkpt lat="48.38947" lon="2.55636">
        <ele>67.800003051758</ele>
        <time>2013-12-01T10:00:56Z</time>
      </trkpt>
      <trkpt lat="48.3895" lon="2.55634">
        <ele>67.800003051758</ele>
        <time>2013-12-01T10:00:57Z</time>
      </trkpt>
      <trkpt lat="48.38961" lon="2.55628">
        <ele>67.800003051758</ele>
        <time>2013-12-01T10:01:00Z</time>
      </trkpt>
      <trkpt lat="48.38968" lon="2.55613">
        <ele>67.800003051758</ele>
        <time>2013-12-01T10:01:04Z</time>
      </trkpt>
      <trkpt lat="48.38971" lon="2.5561">
        <ele>67.800003051758</ele>
        <time>2013-12-01T10:01:05Z</time>
      </trkpt>
      <trkpt lat="48.38987" lon="2.55589">
        <ele>67.800003051758</ele>
        <time>2013-12-01T10:01:10Z</time>
      </trkpt>
      <trkpt lat="48.38996" lon="2.55543">
        <ele>67.800003051758</ele>
        <time>2013-12-01T10:01:17Z</time>
      </trkpt>
      <trkpt lat="48.38995" lon="2.55504">
        <ele>67.800003051758</ele>
        <time>2013-12-01T10:01:22Z</time>
      </trkpt>
      <trkpt lat="48.3899" lon="2.5548">
        <ele>67.800003051758</ele>
        <time>2013-12-01T10:01:25Z</time>
      </trkpt>
      <trkpt lat="48.38985" lon="2.55468">
        <ele>67.800003051758</ele>
        <time>2013-12-01T10:01:27Z</time>
      </trkpt>
      <trkpt lat="48.38973" lon="2.55457">
        <ele>67.800003051758</ele>
        <time>2013-12-01T10:01:31Z</time>
      </trkpt>
      <trkpt lat="48.38965" lon="2.55463">
        <ele>67.800003051758</ele>
        <time>2013-12-01T10:01:34Z</time>
      </trkpt>
      <trkpt lat="48.38962" lon="2.55465">
        <ele>67.800003051758</ele>
        <time>2013-12-01T10:01:35Z</time>
      </trkpt>
      <trkpt lat="48.38947" lon="2.55471">
        <ele>67.800003051758</ele>
        <time>2013-12-01T10:01:40Z</time>
      </trkpt>
      <trkpt lat="48.38918" lon="2.55487">
        <ele>67.800003051758</ele>
        <time>2013-12-01T10:01:48Z</time>
      </trkpt>
      <trkpt lat="48.3891" lon="2.55489">
        <ele>67.800003051758</ele>
        <time>2013-12-01T10:01:50Z</time>
      </trkpt>
      <trkpt lat="48.38905" lon="2.5549">
        <ele>67.800003051758</ele>
        <time>2013-12-01T10:01:51Z</time>
      </trkpt>
      <trkpt lat="48.38901" lon="2.55491">
        <ele>67.800003051758</ele>
        <time>2013-12-01T10:01:52Z</time>
      </trkpt>
      <trkpt lat="48.38898" lon="2.55493">
        <ele>67.800003051758</ele>
        <time>2013-12-01T10:01:53Z</time>
      </trkpt>
      <trkpt lat="48.38894" lon="2.55494">
        <ele>67.800003051758</ele>
        <time>2013-12-01T10:01:54Z</time>
      </trkpt>
      <trkpt lat="48.3889" lon="2.55495">
        <ele>67.800003051758</ele>
        <time>2013-12-01T10:01:55Z</time>
      </trkpt>
      <trkpt lat="48.38885" lon="2.55497">
        <ele>67.800003051758</ele>
        <time>2013-12-01T10:01:56Z</time>
      </trkpt>
      <trkpt lat="48.38867" lon="2.55504">
        <ele>67.800003051758</ele>
        <time>2013-12-01T10:02:00Z</time>
      </trkpt>
      <trkpt lat="48.38863" lon="2.55506">
        <ele>67.800003051758</ele>
        <time>2013-12-01T10:02:01Z</time>
      </trkpt>
      <trkpt lat="48.38854" lon="2.55511">
        <ele>67.800003051758</ele>
        <time>2013-12-01T10:02:03Z</time>
      </trkpt>
      <trkpt lat="48.3885" lon="2.55513">
        <ele>67.800003051758</ele>
        <time>2013-12-01T10:02:04Z</time>
      </trkpt>
      <trkpt lat="48.38841" lon="2.55518">
        <ele>67.800003051758</ele>
        <time>2013-12-01T10:02:06Z</time>
      </trkpt>
      <trkpt lat="48.38827" lon="2.55521">
        <ele>67.800003051758</ele>
        <time>2013-12-01T10:02:09Z</time>
      </trkpt>
      <trkpt lat="48.38823" lon="2.55519">
        <ele>67.800003051758</ele>
        <time>2013-12-01T10:02:10Z</time>
      </trkpt>
      <trkpt lat="48.38814" lon="2.55505">
        <ele>67.800003051758</ele>
        <time>2013-12-01T10:02:13Z</time>
      </trkpt>
      <trkpt lat="48.38811" lon="2.55495">
        <ele>67.800003051758</ele>
        <time>2013-12-01T10:02:15Z</time>
      </trkpt>
      <trkpt lat="48.3881" lon="2.55491">
        <ele>67.800003051758</ele>
        <time>2013-12-01T10:02:16Z</time>
      </trkpt>
      <trkpt lat="48.3881" lon="2.55487">
        <ele>67.800003051758</ele>
        <time>2013-12-01T10:02:17Z</time>
      </trkpt>
      <trkpt lat="48.3881" lon="2.55483">
        <ele>68.199996948242</ele>
        <time>2013-12-01T10:02:18Z</time>
      </trkpt>
      <trkpt lat="48.38809" lon="2.55477">
        <ele>68.599998474121</ele>
        <time>2013-12-01T10:02:19Z</time>
      </trkpt>
      <trkpt lat="48.3881" lon="2.55468">
        <ele>69</ele>
        <time>2013-12-01T10:02:20Z</time>
      </trkpt>
      <trkpt lat="48.3881" lon="2.55461">
        <ele>69.400001525879</ele>
        <time>2013-12-01T10:02:21Z</time>
      </trkpt>
      <trkpt lat="48.3881" lon="2.55454">
        <ele>70</ele>
        <time>2013-12-01T10:02:22Z</time>
      </trkpt>
      <trkpt lat="48.38811" lon="2.55443">
        <ele>70</ele>
        <time>2013-12-01T10:02:24Z</time>
      </trkpt>
      <trkpt lat="48.38814" lon="2.55428">
        <ele>70</ele>
        <time>2013-12-01T10:02:27Z</time>
      </trkpt>
      <trkpt lat="48.38818" lon="2.55411">
        <ele>70</ele>
        <time>2013-12-01T10:02:30Z</time>
      </trkpt>
      <trkpt lat="48.38825" lon="2.55368">
        <ele>70</ele>
        <time>2013-12-01T10:02:36Z</time>
      </trkpt>
      <trkpt lat="48.38826" lon="2.5536">
        <ele>70</ele>
        <time>2013-12-01T10:02:37Z</time>
      </trkpt>
      <trkpt lat="48.38829" lon="2.55338">
        <ele>70</ele>
        <time>2013-12-01T10:02:40Z</time>
      </trkpt>
      <trkpt lat="48.38829" lon="2.5533">
        <ele>70</ele>
        <time>2013-12-01T10:02:41Z</time>
      </trkpt>
      <trkpt lat="48.38834" lon="2.55291">
        <ele>70</ele>
        <time>2013-12-01T10:02:47Z</time>
      </trkpt>
      <trkpt lat="48.38843" lon="2.55258">
        <ele>70</ele>
        <time>2013-12-01T10:02:52Z</time>
      </trkpt>
      <trkpt lat="48.38848" lon="2.55226">
        <ele>70</ele>
        <time>2013-12-01T10:02:57Z</time>
      </trkpt>
      <trkpt lat="48.38853" lon="2.55194">
        <ele>70</ele>
        <time>2013-12-01T10:03:03Z</time>
      </trkpt>
      <trkpt lat="48.38858" lon="2.55161">
        <ele>70</ele>
        <time>2013-12-01T10:03:09Z</time>
      </trkpt>
      <trkpt lat="48.38858" lon="2.55155">
        <ele>70</ele>
        <time>2013-12-01T10:03:10Z</time>
      </trkpt>
      <trkpt lat="48.38863" lon="2.55128">
        <ele>70</ele>
        <time>2013-12-01T10:03:15Z</time>
      </trkpt>
      <trkpt lat="48.38871" lon="2.55079">
        <ele>70</ele>
        <time>2013-12-01T10:03:22Z</time>
      </trkpt>
      <trkpt lat="48.38866" lon="2.55056">
        <ele>70</ele>
        <time>2013-12-01T10:03:24Z</time>
      </trkpt>
      <trkpt lat="48.38863" lon="2.55034">
        <ele>70</ele>
        <time>2013-12-01T10:03:27Z</time>
      </trkpt>
      <trkpt lat="48.3886" lon="2.55025">
        <ele>70.400001525879</ele>
        <time>2013-12-01T10:03:29Z</time>
      </trkpt>
      <trkpt lat="48.38859" lon="2.55021">
        <ele>70.800003051758</ele>
        <time>2013-12-01T10:03:30Z</time>
      </trkpt>
      <trkpt lat="48.38858" lon="2.55016">
        <ele>71.199996948242</ele>
        <time>2013-12-01T10:03:31Z</time>
      </trkpt>
      <trkpt lat="48.38858" lon="2.55011">
        <ele>71.599998474121</ele>
        <time>2013-12-01T10:03:32Z</time>
      </trkpt>
      <trkpt lat="48.38858" lon="2.55006">
        <ele>72</ele>
        <time>2013-12-01T10:03:33Z</time>
      </trkpt>
      <trkpt lat="48.38857" lon="2.54979">
        <ele>72</ele>
        <time>2013-12-01T10:03:40Z</time>
      </trkpt>
      <trkpt lat="48.38858" lon="2.54974">
        <ele>72</ele>
        <time>2013-12-01T10:03:41Z</time>
      </trkpt>
      <trkpt lat="48.38858" lon="2.54948">
        <ele>72</ele>
        <time>2013-12-01T10:03:45Z</time>
      </trkpt>
      <trkpt lat="48.38859" lon="2.54917">
        <ele>72.400001525879</ele>
        <time>2013-12-01T10:03:50Z</time>
      </trkpt>
      <trkpt lat="48.38858" lon="2.5491">
        <ele>72.800003051758</ele>
        <time>2013-12-01T10:03:51Z</time>
      </trkpt>
      <trkpt lat="48.38858" lon="2.54905">
        <ele>73.199996948242</ele>
        <time>2013-12-01T10:03:52Z</time>
      </trkpt>
      <trkpt lat="48.38858" lon="2.549">
        <ele>73.599998474121</ele>
        <time>2013-12-01T10:03:53Z</time>
      </trkpt>
      <trkpt lat="48.38858" lon="2.54896">
        <ele>74</ele>
        <time>2013-12-01T10:03:54Z</time>
      </trkpt>
      <trkpt lat="48.38859" lon="2.54885">
        <ele>74</ele>
        <time>2013-12-01T10:03:56Z</time>
      </trkpt>
      <trkpt lat="48.38863" lon="2.54862">
        <ele>74</ele>
        <time>2013-12-01T10:04:01Z</time>
      </trkpt>
      <trkpt lat="48.38863" lon="2.54857">
        <ele>74</ele>
        <time>2013-12-01T10:04:02Z</time>
      </trkpt>
      <trkpt lat="48.38865" lon="2.54835">
        <ele>74.400001525879</ele>
        <time>2013-12-01T10:04:07Z</time>
      </trkpt>
      <trkpt lat="48.38863" lon="2.54831">
        <ele>74.800003051758</ele>
        <time>2013-12-01T10:04:08Z</time>
      </trkpt>
      <trkpt lat="48.38864" lon="2.54827">
        <ele>75.199996948242</ele>
        <time>2013-12-01T10:04:09Z</time>
      </trkpt>
      <trkpt lat="48.38864" lon="2.54823">
        <ele>75.599998474121</ele>
        <time>2013-12-01T10:04:10Z</time>
      </trkpt>
      <trkpt lat="48.38864" lon="2.54818">
        <ele>76</ele>
        <time>2013-12-01T10:04:11Z</time>
      </trkpt>
      <trkpt lat="48.38865" lon="2.54808">
        <ele>76</ele>
        <time>2013-12-01T10:04:13Z</time>
      </trkpt>
      <trkpt lat="48.38865" lon="2.54803">
        <ele>76</ele>
        <time>2013-12-01T10:04:14Z</time>
      </trkpt>
      <trkpt lat="48.38868" lon="2.54782">
        <ele>76</ele>
        <time>2013-12-01T10:04:19Z</time>
      </trkpt>
      <trkpt lat="48.38874" lon="2.54778">
        <ele>76</ele>
        <time>2013-12-01T10:04:21Z</time>
      </trkpt>
      <trkpt lat="48.38878" lon="2.54778">
        <ele>76</ele>
        <time>2013-12-01T10:04:22Z</time>
      </trkpt>
      <trkpt lat="48.38898" lon="2.54782">
        <ele>75.599998474121</ele>
        <time>2013-12-01T10:04:26Z</time>
      </trkpt>
      <trkpt lat="48.38905" lon="2.54784">
        <ele>75.199996948242</ele>
        <time>2013-12-01T10:04:27Z</time>
      </trkpt>
      <trkpt lat="48.38911" lon="2.54785">
        <ele>74.800003051758</ele>
        <time>2013-12-01T10:04:28Z</time>
      </trkpt>
      <trkpt lat="48.38918" lon="2.54787">
        <ele>74.400001525879</ele>
        <time>2013-12-01T10:04:29Z</time>
      </trkpt>
      <trkpt lat="48.38924" lon="2.5479">
        <ele>74</ele>
        <time>2013-12-01T10:04:30Z</time>
      </trkpt>
      <trkpt lat="48.38945" lon="2.54801">
        <ele>73.599998474121</ele>
        <time>2013-12-01T10:04:33Z</time>
      </trkpt>
      <trkpt lat="48.3895" lon="2.54806">
        <ele>73.199996948242</ele>
        <time>2013-12-01T10:04:34Z</time>
      </trkpt>
      <trkpt lat="48.38956" lon="2.54811">
        <ele>72.800003051758</ele>
        <time>2013-12-01T10:04:35Z</time>
      </trkpt>
      <trkpt lat="48.3896" lon="2.54816">
        <ele>72.199996948242</ele>
        <time>2013-12-01T10:04:36Z</time>
      </trkpt>
      <trkpt lat="48.38966" lon="2.5482">
        <ele>71.800003051758</ele>
        <time>2013-12-01T10:04:37Z</time>
      </trkpt>
      <trkpt lat="48.38971" lon="2.54823">
        <ele>71.800003051758</ele>
        <time>2013-12-01T10:04:38Z</time>
      </trkpt>
      <trkpt lat="48.38976" lon="2.54825">
        <ele>71.800003051758</ele>
        <time>2013-12-01T10:04:39Z</time>
      </trkpt>
      <trkpt lat="48.38995" lon="2.54829">
        <ele>71.800003051758</ele>
        <time>2013-12-01T10:04:42Z</time>
      </trkpt>
      <trkpt lat="48.39005" lon="2.5483">
        <ele>71.800003051758</ele>
        <time>2013-12-01T10:04:44Z</time>
      </trkpt>
      <trkpt lat="48.3904" lon="2.5484">
        <ele>71.800003051758</ele>
        <time>2013-12-01T10:04:50Z</time>
      </trkpt>
      <trkpt lat="48.39072" lon="2.54855">
        <ele>71.400001525879</ele>
        <time>2013-12-01T10:04:56Z</time>
      </trkpt>
      <trkpt lat="48.39077" lon="2.54853">
        <ele>71</ele>
        <time>2013-12-01T10:04:57Z</time>
      </trkpt>
      <trkpt lat="48.39083" lon="2.54843">
        <ele>70.599998474121</ele>
        <time>2013-12-01T10:04:59Z</time>
      </trkpt>
      <trkpt lat="48.39084" lon="2.54838">
        <ele>70.199996948242</ele>
        <time>2013-12-01T10:05:00Z</time>
      </trkpt>
      <trkpt lat="48.39085" lon="2.54833">
        <ele>69.800003051758</ele>
        <time>2013-12-01T10:05:01Z</time>
      </trkpt>
      <trkpt lat="48.39082" lon="2.54798">
        <ele>69.800003051758</ele>
        <time>2013-12-01T10:05:07Z</time>
      </trkpt>
      <trkpt lat="48.39077" lon="2.54785">
        <ele>70.199996948242</ele>
        <time>2013-12-01T10:05:10Z</time>
      </trkpt>
      <trkpt lat="48.39076" lon="2.5478">
        <ele>70.599998474121</ele>
        <time>2013-12-01T10:05:11Z</time>
      </trkpt>
      <trkpt lat="48.39074" lon="2.54775">
        <ele>71</ele>
        <time>2013-12-01T10:05:12Z</time>
      </trkpt>
      <trkpt lat="48.39073" lon="2.54771">
        <ele>71.599998474121</ele>
        <time>2013-12-01T10:05:13Z</time>
      </trkpt>
      <trkpt lat="48.39071" lon="2.54766">
        <ele>72</ele>
        <time>2013-12-01T10:05:14Z</time>
      </trkpt>
      <trkpt lat="48.39067" lon="2.54753">
        <ele>72</ele>
        <time>2013-12-01T10:05:17Z</time>
      </trkpt>
      <trkpt lat="48.39066" lon="2.5475">
        <ele>72</ele>
        <time>2013-12-01T10:05:18Z</time>
      </trkpt>
      <trkpt lat="48.39063" lon="2.54735">
        <ele>72</ele>
        <time>2013-12-01T10:05:22Z</time>
      </trkpt>
      <trkpt lat="48.39063" lon="2.54729">
        <ele>72.400001525879</ele>
        <time>2013-12-01T10:05:23Z</time>
      </trkpt>
      <trkpt lat="48.39062" lon="2.54724">
        <ele>72.800003051758</ele>
        <time>2013-12-01T10:05:24Z</time>
      </trkpt>
      <trkpt lat="48.39061" lon="2.54718">
        <ele>73.199996948242</ele>
        <time>2013-12-01T10:05:25Z</time>
      </trkpt>
      <trkpt lat="48.39061" lon="2.54714">
        <ele>73.599998474121</ele>
        <time>2013-12-01T10:05:26Z</time>
      </trkpt>
      <trkpt lat="48.39061" lon="2.54708">
        <ele>74</ele>
        <time>2013-12-01T10:05:27Z</time>
      </trkpt>
      <trkpt lat="48.39059" lon="2.54693">
        <ele>74</ele>
        <time>2013-12-01T10:05:29Z</time>
      </trkpt>
      <trkpt lat="48.39059" lon="2.54683">
        <ele>74</ele>
        <time>2013-12-01T10:05:31Z</time>
      </trkpt>
      <trkpt lat="48.3906" lon="2.54677">
        <ele>74</ele>
        <time>2013-12-01T10:05:32Z</time>
      </trkpt>
      <trkpt lat="48.39058" lon="2.54657">
        <ele>74</ele>
        <time>2013-12-01T10:05:36Z</time>
      </trkpt>
      <trkpt lat="48.39059" lon="2.54636">
        <ele>74.400001525879</ele>
        <time>2013-12-01T10:05:41Z</time>
      </trkpt>
      <trkpt lat="48.39059" lon="2.54633">
        <ele>74.800003051758</ele>
        <time>2013-12-01T10:05:42Z</time>
      </trkpt>
      <trkpt lat="48.39059" lon="2.5463">
        <ele>75.400001525879</ele>
        <time>2013-12-01T10:05:43Z</time>
      </trkpt>
      <trkpt lat="48.39059" lon="2.54626">
        <ele>75.800003051758</ele>
        <time>2013-12-01T10:05:44Z</time>
      </trkpt>
      <trkpt lat="48.39059" lon="2.54623">
        <ele>76.199996948242</ele>
        <time>2013-12-01T10:05:45Z</time>
      </trkpt>
      <trkpt lat="48.3906" lon="2.54607">
        <ele>76.199996948242</ele>
        <time>2013-12-01T10:05:49Z</time>
      </trkpt>
      <trkpt lat="48.39061" lon="2.54604">
        <ele>76.199996948242</ele>
        <time>2013-12-01T10:05:50Z</time>
      </trkpt>
      <trkpt lat="48.39062" lon="2.54589">
        <ele>76.199996948242</ele>
        <time>2013-12-01T10:05:55Z</time>
      </trkpt>
      <trkpt lat="48.39061" lon="2.54586">
        <ele>76.599998474121</ele>
        <time>2013-12-01T10:05:56Z</time>
      </trkpt>
      <trkpt lat="48.39062" lon="2.54584">
        <ele>77</ele>
        <time>2013-12-01T10:05:57Z</time>
      </trkpt>
      <trkpt lat="48.39061" lon="2.5458">
        <ele>77.400001525879</ele>
        <time>2013-12-01T10:05:58Z</time>
      </trkpt>
      <trkpt lat="48.39063" lon="2.54575">
        <ele>77.800003051758</ele>
        <time>2013-12-01T10:05:59Z</time>
      </trkpt>
      <trkpt lat="48.39063" lon="2.5457">
        <ele>78.400001525879</ele>
        <time>2013-12-01T10:06:00Z</time>
      </trkpt>
      <trkpt lat="48.39062" lon="2.54566">
        <ele>78.400001525879</ele>
        <time>2013-12-01T10:06:01Z</time>
      </trkpt>
      <trkpt lat="48.39062" lon="2.54559">
        <ele>78.400001525879</ele>
        <time>2013-12-01T10:06:03Z</time>
      </trkpt>
      <trkpt lat="48.39062" lon="2.5454">
        <ele>78.400001525879</ele>
        <time>2013-12-01T10:06:08Z</time>
      </trkpt>
      <trkpt lat="48.39061" lon="2.54531">
        <ele>78.400001525879</ele>
        <time>2013-12-01T10:06:10Z</time>
      </trkpt>
      <trkpt lat="48.39061" lon="2.54527">
        <ele>78.400001525879</ele>
        <time>2013-12-01T10:06:11Z</time>
      </trkpt>
      <trkpt lat="48.39064" lon="2.54516">
        <ele>78.400001525879</ele>
        <time>2013-12-01T10:06:14Z</time>
      </trkpt>
      <trkpt lat="48.39065" lon="2.54508">
        <ele>78.400001525879</ele>
        <time>2013-12-01T10:06:16Z</time>
      </trkpt>
      <trkpt lat="48.39064" lon="2.54504">
        <ele>78.400001525879</ele>
        <time>2013-12-01T10:06:17Z</time>
      </trkpt>
      <trkpt lat="48.39064" lon="2.545">
        <ele>78.800003051758</ele>
        <time>2013-12-01T10:06:18Z</time>
      </trkpt>
      <trkpt lat="48.39065" lon="2.54496">
        <ele>79.199996948242</ele>
        <time>2013-12-01T10:06:19Z</time>
      </trkpt>
      <trkpt lat="48.39066" lon="2.54493">
        <ele>79.599998474121</ele>
        <time>2013-12-01T10:06:20Z</time>
      </trkpt>
      <trkpt lat="48.39067" lon="2.54489">
        <ele>80</ele>
        <time>2013-12-01T10:06:21Z</time>
      </trkpt>
      <trkpt lat="48.39068" lon="2.54485">
        <ele>80.400001525879</ele>
        <time>2013-12-01T10:06:22Z</time>
      </trkpt>
      <trkpt lat="48.39071" lon="2.54474">
        <ele>80.400001525879</ele>
        <time>2013-12-01T10:06:25Z</time>
      </trkpt>
      <trkpt lat="48.39077" lon="2.5445">
        <ele>80.400001525879</ele>
        <time>2013-12-01T10:06:31Z</time>
      </trkpt>
      <trkpt lat="48.39078" lon="2.54446">
        <ele>80.400001525879</ele>
        <time>2013-12-01T10:06:32Z</time>
      </trkpt>
      <trkpt lat="48.3908" lon="2.54435">
        <ele>80.400001525879</ele>
        <time>2013-12-01T10:06:35Z</time>
      </trkpt>
      <trkpt lat="48.39079" lon="2.54413">
        <ele>80.400001525879</ele>
        <time>2013-12-01T10:06:41Z</time>
      </trkpt>
      <trkpt lat="48.3908" lon="2.54403">
        <ele>80.800003051758</ele>
        <time>2013-12-01T10:06:44Z</time>
      </trkpt>
      <trkpt lat="48.3908" lon="2.544">
        <ele>81.199996948242</ele>
        <time>2013-12-01T10:06:45Z</time>
      </trkpt>
      <trkpt lat="48.39081" lon="2.54396">
        <ele>81.599998474121</ele>
        <time>2013-12-01T10:06:46Z</time>
      </trkpt>
      <trkpt lat="48.39082" lon="2.54393">
        <ele>82</ele>
        <time>2013-12-01T10:06:47Z</time>
      </trkpt>
      <trkpt lat="48.39083" lon="2.5439">
        <ele>82.400001525879</ele>
        <time>2013-12-01T10:06:48Z</time>
      </trkpt>
      <trkpt lat="48.3909" lon="2.54367">
        <ele>82.400001525879</ele>
        <time>2013-12-01T10:06:55Z</time>
      </trkpt>
      <trkpt lat="48.3909" lon="2.54352">
        <ele>83</ele>
        <time>2013-12-01T10:06:59Z</time>
      </trkpt>
      <trkpt lat="48.3909" lon="2.54348">
        <ele>83.400001525879</ele>
        <time>2013-12-01T10:07:00Z</time>
      </trkpt>
      <trkpt lat="48.3909" lon="2.54344">
        <ele>83.800003051758</ele>
        <time>2013-12-01T10:07:01Z</time>
      </trkpt>
      <trkpt lat="48.39091" lon="2.5434">
        <ele>84.199996948242</ele>
        <time>2013-12-01T10:07:02Z</time>
      </trkpt>
      <trkpt lat="48.39091" lon="2.54337">
        <ele>84.599998474121</ele>
        <time>2013-12-01T10:07:03Z</time>
      </trkpt>
      <trkpt lat="48.39095" lon="2.54317">
        <ele>84.599998474121</ele>
        <time>2013-12-01T10:07:08Z</time>
      </trkpt>
      <trkpt lat="48.39098" lon="2.54281">
        <ele>85</ele>
        <time>2013-12-01T10:07:17Z</time>
      </trkpt>
      <trkpt lat="48.39099" lon="2.54277">
        <ele>85.400001525879</ele>
        <time>2013-12-01T10:07:18Z</time>
      </trkpt>
      <trkpt lat="48.391" lon="2.54272">
        <ele>86</ele>
        <time>2013-12-01T10:07:19Z</time>
      </trkpt>
      <trkpt lat="48.391" lon="2.54269">
        <ele>86.400001525879</ele>
        <time>2013-12-01T10:07:20Z</time>
      </trkpt>
      <trkpt lat="48.39101" lon="2.54265">
        <ele>86.800003051758</ele>
        <time>2013-12-01T10:07:21Z</time>
      </trkpt>
      <trkpt lat="48.39104" lon="2.54259">
        <ele>86.800003051758</ele>
        <time>2013-12-01T10:07:23Z</time>
      </trkpt>
      <trkpt lat="48.39107" lon="2.54236">
        <ele>86.800003051758</ele>
        <time>2013-12-01T10:07:29Z</time>
      </trkpt>
      <trkpt lat="48.39109" lon="2.54232">
        <ele>86.800003051758</ele>
        <time>2013-12-01T10:07:30Z</time>
      </trkpt>
      <trkpt lat="48.39112" lon="2.54205">
        <ele>86.800003051758</ele>
        <time>2013-12-01T10:07:35Z</time>
      </trkpt>
      <trkpt lat="48.39116" lon="2.54181">
        <ele>86.800003051758</ele>
        <time>2013-12-01T10:07:40Z</time>
      </trkpt>
      <trkpt lat="48.39117" lon="2.54176">
        <ele>86.800003051758</ele>
        <time>2013-12-01T10:07:41Z</time>
      </trkpt>
      <trkpt lat="48.39123" lon="2.54147">
        <ele>86.800003051758</ele>
        <time>2013-12-01T10:07:47Z</time>
      </trkpt>
      <trkpt lat="48.39127" lon="2.54124">
        <ele>86.800003051758</ele>
        <time>2013-12-01T10:07:52Z</time>
      </trkpt>
      <trkpt lat="48.3913" lon="2.54104">
        <ele>86.800003051758</ele>
        <time>2013-12-01T10:07:57Z</time>
      </trkpt>
      <trkpt lat="48.39137" lon="2.54079">
        <ele>86.800003051758</ele>
        <time>2013-12-01T10:08:02Z</time>
      </trkpt>
      <trkpt lat="48.39139" lon="2.54069">
        <ele>86.800003051758</ele>
        <time>2013-12-01T10:08:03Z</time>
      </trkpt>
      <trkpt lat="48.39142" lon="2.54061">
        <ele>86.800003051758</ele>
        <time>2013-12-01T10:08:04Z</time>
      </trkpt>
      <trkpt lat="48.39144" lon="2.54054">
        <ele>86.800003051758</ele>
        <time>2013-12-01T10:08:05Z</time>
      </trkpt>
      <trkpt lat="48.39148" lon="2.54036">
        <ele>86.800003051758</ele>
        <time>2013-12-01T10:08:09Z</time>
      </trkpt>
      <trkpt lat="48.39151" lon="2.54021">
        <ele>86.800003051758</ele>
        <time>2013-12-01T10:08:13Z</time>
      </trkpt>
      <trkpt lat="48.39151" lon="2.54017">
        <ele>86.800003051758</ele>
        <time>2013-12-01T10:08:14Z</time>
      </trkpt>
      <trkpt lat="48.39152" lon="2.54013">
        <ele>86.800003051758</ele>
        <time>2013-12-01T10:08:15Z</time>
      </trkpt>
      <trkpt lat="48.39156" lon="2.53978">
        <ele>86.800003051758</ele>
        <time>2013-12-01T10:08:23Z</time>
      </trkpt>
      <trkpt lat="48.39156" lon="2.53973">
        <ele>87.199996948242</ele>
        <time>2013-12-01T10:08:24Z</time>
      </trkpt>
      <trkpt lat="48.39156" lon="2.53969">
        <ele>87.599998474121</ele>
        <time>2013-12-01T10:08:25Z</time>
      </trkpt>
      <trkpt lat="48.39156" lon="2.53966">
        <ele>88</ele>
        <time>2013-12-01T10:08:26Z</time>
      </trkpt>
      <trkpt lat="48.39156" lon="2.53962">
        <ele>88.400001525879</ele>
        <time>2013-12-01T10:08:27Z</time>
      </trkpt>
      <trkpt lat="48.39156" lon="2.53958">
        <ele>88.800003051758</ele>
        <time>2013-12-01T10:08:28Z</time>
      </trkpt>
      <trkpt lat="48.39157" lon="2.53953">
        <ele>88.800003051758</ele>
        <time>2013-12-01T10:08:29Z</time>
      </trkpt>
      <trkpt lat="48.39159" lon="2.53935">
        <ele>88.800003051758</ele>
        <time>2013-12-01T10:08:33Z</time>
      </trkpt>
      <trkpt lat="48.39163" lon="2.53919">
        <ele>88.800003051758</ele>
        <time>2013-12-01T10:08:36Z</time>
      </trkpt>
      <trkpt lat="48.39168" lon="2.53893">
        <ele>88.800003051758</ele>
        <time>2013-12-01T10:08:41Z</time>
      </trkpt>
      <trkpt lat="48.39167" lon="2.53883">
        <ele>89.199996948242</ele>
        <time>2013-12-01T10:08:43Z</time>
      </trkpt>
      <trkpt lat="48.39166" lon="2.53878">
        <ele>89.800003051758</ele>
        <time>2013-12-01T10:08:44Z</time>
      </trkpt>
      <trkpt lat="48.39166" lon="2.53874">
        <ele>90.199996948242</ele>
        <time>2013-12-01T10:08:45Z</time>
      </trkpt>
      <trkpt lat="48.39167" lon="2.53871">
        <ele>90.599998474121</ele>
        <time>2013-12-01T10:08:46Z</time>
      </trkpt>
      <trkpt lat="48.39168" lon="2.53867">
        <ele>91</ele>
        <time>2013-12-01T10:08:47Z</time>
      </trkpt>
      <trkpt lat="48.39168" lon="2.53863">
        <ele>91</ele>
        <time>2013-12-01T10:08:48Z</time>
      </trkpt>
      <trkpt lat="48.39174" lon="2.53844">
        <ele>91</ele>
        <time>2013-12-01T10:08:53Z</time>
      </trkpt>
      <trkpt lat="48.39178" lon="2.53833">
        <ele>91.400001525879</ele>
        <time>2013-12-01T10:08:56Z</time>
      </trkpt>
      <trkpt lat="48.3918" lon="2.53829">
        <ele>91.800003051758</ele>
        <time>2013-12-01T10:08:57Z</time>
      </trkpt>
      <trkpt lat="48.39182" lon="2.53825">
        <ele>92.199996948242</ele>
        <time>2013-12-01T10:08:58Z</time>
      </trkpt>
      <trkpt lat="48.39183" lon="2.53822">
        <ele>92.599998474121</ele>
        <time>2013-12-01T10:08:59Z</time>
      </trkpt>
      <trkpt lat="48.39185" lon="2.5382">
        <ele>93</ele>
        <time>2013-12-01T10:09:00Z</time>
      </trkpt>
      <trkpt lat="48.3919" lon="2.53799">
        <ele>93</ele>
        <time>2013-12-01T10:09:05Z</time>
      </trkpt>
      <trkpt lat="48.39193" lon="2.53774">
        <ele>93.400001525879</ele>
        <time>2013-12-01T10:09:11Z</time>
      </trkpt>
      <trkpt lat="48.39194" lon="2.5377">
        <ele>94</ele>
        <time>2013-12-01T10:09:12Z</time>
      </trkpt>
      <trkpt lat="48.39195" lon="2.53767">
        <ele>94.400001525879</ele>
        <time>2013-12-01T10:09:13Z</time>
      </trkpt>
      <trkpt lat="48.39196" lon="2.53764">
        <ele>94.800003051758</ele>
        <time>2013-12-01T10:09:14Z</time>
      </trkpt>
      <trkpt lat="48.39196" lon="2.53761">
        <ele>95.199996948242</ele>
        <time>2013-12-01T10:09:15Z</time>
      </trkpt>
      <trkpt lat="48.39198" lon="2.53746">
        <ele>95.199996948242</ele>
        <time>2013-12-01T10:09:20Z</time>
      </trkpt>
      <trkpt lat="48.39202" lon="2.53728">
        <ele>95.199996948242</ele>
        <time>2013-12-01T10:09:25Z</time>
      </trkpt>
      <trkpt lat="48.39202" lon="2.53724">
        <ele>95.199996948242</ele>
        <time>2013-12-01T10:09:26Z</time>
      </trkpt>
      <trkpt lat="48.39202" lon="2.5372">
        <ele>95.199996948242</ele>
        <time>2013-12-01T10:09:27Z</time>
      </trkpt>
      <trkpt lat="48.39206" lon="2.53707">
        <ele>95.599998474121</ele>
        <time>2013-12-01T10:09:32Z</time>
      </trkpt>
      <trkpt lat="48.39207" lon="2.53704">
        <ele>96</ele>
        <time>2013-12-01T10:09:33Z</time>
      </trkpt>
      <trkpt lat="48.39207" lon="2.53701">
        <ele>96.599998474121</ele>
        <time>2013-12-01T10:09:34Z</time>
      </trkpt>
      <trkpt lat="48.39208" lon="2.53698">
        <ele>97</ele>
        <time>2013-12-01T10:09:35Z</time>
      </trkpt>
      <trkpt lat="48.39209" lon="2.53692">
        <ele>97.400001525879</ele>
        <time>2013-12-01T10:09:36Z</time>
      </trkpt>
      <trkpt lat="48.39208" lon="2.53676">
        <ele>97.400001525879</ele>
        <time>2013-12-01T10:09:41Z</time>
      </trkpt>
      <trkpt lat="48.39209" lon="2.53673">
        <ele>97.800003051758</ele>
        <time>2013-12-01T10:09:43Z</time>
      </trkpt>
      <trkpt lat="48.39209" lon="2.53671">
        <ele>98.199996948242</ele>
        <time>2013-12-01T10:09:44Z</time>
      </trkpt>
      <trkpt lat="48.3921" lon="2.53669">
        <ele>98.599998474121</ele>
        <time>2013-12-01T10:09:45Z</time>
      </trkpt>
      <trkpt lat="48.39211" lon="2.53666">
        <ele>99</ele>
        <time>2013-12-01T10:09:46Z</time>
      </trkpt>
      <trkpt lat="48.39212" lon="2.53664">
        <ele>99.400001525879</ele>
        <time>2013-12-01T10:09:47Z</time>
      </trkpt>
      <trkpt lat="48.39213" lon="2.53644">
        <ele>99.400001525879</ele>
        <time>2013-12-01T10:09:54Z</time>
      </trkpt>
      <trkpt lat="48.39215" lon="2.53627">
        <ele>99.400001525879</ele>
        <time>2013-12-01T10:10:00Z</time>
      </trkpt>
      <trkpt lat="48.39214" lon="2.53624">
        <ele>99.400001525879</ele>
        <time>2013-12-01T10:10:01Z</time>
      </trkpt>
      <trkpt lat="48.39215" lon="2.53622">
        <ele>99.800003051758</ele>
        <time>2013-12-01T10:10:02Z</time>
      </trkpt>
      <trkpt lat="48.39215" lon="2.53618">
        <ele>100.59999847412</ele>
        <time>2013-12-01T10:10:04Z</time>
      </trkpt>
      <trkpt lat="48.39216" lon="2.53613">
        <ele>101.59999847412</ele>
        <time>2013-12-01T10:10:06Z</time>
      </trkpt>
      <trkpt lat="48.39217" lon="2.53609">
        <ele>101.59999847412</ele>
        <time>2013-12-01T10:10:07Z</time>
      </trkpt>
      <trkpt lat="48.39219" lon="2.53592">
        <ele>102</ele>
        <time>2013-12-01T10:10:13Z</time>
      </trkpt>
      <trkpt lat="48.3922" lon="2.53589">
        <ele>102.40000152588</ele>
        <time>2013-12-01T10:10:14Z</time>
      </trkpt>
      <trkpt lat="48.39219" lon="2.53586">
        <ele>102.80000305176</ele>
        <time>2013-12-01T10:10:15Z</time>
      </trkpt>
      <trkpt lat="48.39219" lon="2.53584">
        <ele>103.19999694824</ele>
        <time>2013-12-01T10:10:16Z</time>
      </trkpt>
      <trkpt lat="48.39219" lon="2.53582">
        <ele>103.59999847412</ele>
        <time>2013-12-01T10:10:17Z</time>
      </trkpt>
      <trkpt lat="48.39219" lon="2.53577">
        <ele>104</ele>
        <time>2013-12-01T10:10:20Z</time>
      </trkpt>
      <trkpt lat="48.39219" lon="2.53574">
        <ele>104.59999847412</ele>
        <time>2013-12-01T10:10:21Z</time>
      </trkpt>
      <trkpt lat="48.39219" lon="2.53572">
        <ele>105</ele>
        <time>2013-12-01T10:10:22Z</time>
      </trkpt>
      <trkpt lat="48.39219" lon="2.53571">
        <ele>105.40000152588</ele>
        <time>2013-12-01T10:10:23Z</time>
      </trkpt>
      <trkpt lat="48.39219" lon="2.53569">
        <ele>106</ele>
        <time>2013-12-01T10:10:24Z</time>
      </trkpt>
      <trkpt lat="48.3922" lon="2.53563">
        <ele>106.40000152588</ele>
        <time>2013-12-01T10:10:29Z</time>
      </trkpt>
      <trkpt lat="48.3922" lon="2.53561">
        <ele>106.40000152588</ele>
        <time>2013-12-01T10:10:30Z</time>
      </trkpt>
      <trkpt lat="48.3922" lon="2.5356">
        <ele>107.19999694824</ele>
        <time>2013-12-01T10:10:31Z</time>
      </trkpt>
      <trkpt lat="48.39221" lon="2.53559">
        <ele>107.59999847412</ele>
        <time>2013-12-01T10:10:33Z</time>
      </trkpt>
      <trkpt lat="48.39221" lon="2.53559">
        <ele>108</ele>
        <time>2013-12-01T10:10:34Z</time>
      </trkpt>
      <trkpt lat="48.39221" lon="2.53559">
        <ele>108.40000152588</ele>
        <time>2013-12-01T10:10:46Z</time>
      </trkpt>
      <trkpt lat="48.39221" lon="2.53559">
        <ele>109</ele>
        <time>2013-12-01T10:10:47Z</time>
      </trkpt>
      <trkpt lat="48.39221" lon="2.53559">
        <ele>109.40000152588</ele>
        <time>2013-12-01T10:10:48Z</time>
      </trkpt>
      <trkpt lat="48.39221" lon="2.53559">
        <ele>109.80000305176</ele>
        <time>2013-12-01T10:10:49Z</time>
      </trkpt>
      <trkpt lat="48.39221" lon="2.53559">
        <ele>110.19999694824</ele>
        <time>2013-12-01T10:10:50Z</time>
      </trkpt>
      <trkpt lat="48.39221" lon="2.53559">
        <ele>110.19999694824</ele>
        <time>2013-12-01T10:10:58Z</time>
      </trkpt>
      <trkpt lat="48.39221" lon="2.53559">
        <ele>110.19999694824</ele>
        <time>2013-12-01T10:10:59Z</time>
      </trkpt>
      <trkpt lat="48.3922" lon="2.53554">
        <ele>110.19999694824</ele>
        <time>2013-12-01T10:11:09Z</time>
      </trkpt>
      <trkpt lat="48.39222" lon="2.5353">
        <ele>110.80000305176</ele>
        <time>2013-12-01T10:11:12Z</time>
      </trkpt>
      <trkpt lat="48.39221" lon="2.53523">
        <ele>111.19999694824</ele>
        <time>2013-12-01T10:11:13Z</time>
      </trkpt>
      <trkpt lat="48.39219" lon="2.53517">
        <ele>111.59999847412</ele>
        <time>2013-12-01T10:11:14Z</time>
      </trkpt>
      <trkpt lat="48.39218" lon="2.53513">
        <ele>112</ele>
        <time>2013-12-01T10:11:15Z</time>
      </trkpt>
      <trkpt lat="48.39217" lon="2.53508">
        <ele>112.40000152588</ele>
        <time>2013-12-01T10:11:16Z</time>
      </trkpt>
      <trkpt lat="48.39214" lon="2.53485">
        <ele>112.40000152588</ele>
        <time>2013-12-01T10:11:22Z</time>
      </trkpt>
      <trkpt lat="48.39213" lon="2.5348">
        <ele>112.40000152588</ele>
        <time>2013-12-01T10:11:24Z</time>
      </trkpt>
      <trkpt lat="48.39213" lon="2.53477">
        <ele>112.40000152588</ele>
        <time>2013-12-01T10:11:25Z</time>
      </trkpt>
      <trkpt lat="48.39211" lon="2.53463">
        <ele>112.40000152588</ele>
        <time>2013-12-01T10:11:29Z</time>
      </trkpt>
      <trkpt lat="48.3921" lon="2.53458">
        <ele>112.40000152588</ele>
        <time>2013-12-01T10:11:30Z</time>
      </trkpt>
      <trkpt lat="48.39209" lon="2.53438">
        <ele>112.40000152588</ele>
        <time>2013-12-01T10:11:34Z</time>
      </trkpt>
      <trkpt lat="48.39208" lon="2.53406">
        <ele>112.40000152588</ele>
        <time>2013-12-01T10:11:40Z</time>
      </trkpt>
      <trkpt lat="48.39209" lon="2.53398">
        <ele>112.40000152588</ele>
        <time>2013-12-01T10:11:41Z</time>
      </trkpt>
      <trkpt lat="48.3921" lon="2.5339">
        <ele>112.40000152588</ele>
        <time>2013-12-01T10:11:42Z</time>
      </trkpt>
      <trkpt lat="48.39214" lon="2.53368">
        <ele>112.40000152588</ele>
        <time>2013-12-01T10:11:46Z</time>
      </trkpt>
      <trkpt lat="48.39216" lon="2.53363">
        <ele>112.40000152588</ele>
        <time>2013-12-01T10:11:47Z</time>
      </trkpt>
      <trkpt lat="48.39227" lon="2.53352">
        <ele>112.40000152588</ele>
        <time>2013-12-01T10:11:51Z</time>
      </trkpt>
      <trkpt lat="48.3924" lon="2.53355">
        <ele>112.40000152588</ele>
        <time>2013-12-01T10:11:55Z</time>
      </trkpt>
      <trkpt lat="48.39243" lon="2.53356">
        <ele>112.40000152588</ele>
        <time>2013-12-01T10:11:56Z</time>
      </trkpt>
      <trkpt lat="48.39259" lon="2.53369">
        <ele>112.40000152588</ele>
        <time>2013-12-01T10:12:02Z</time>
      </trkpt>
      <trkpt lat="48.39268" lon="2.53373">
        <ele>112.80000305176</ele>
        <time>2013-12-01T10:12:05Z</time>
      </trkpt>
      <trkpt lat="48.39272" lon="2.53374">
        <ele>113.19999694824</ele>
        <time>2013-12-01T10:12:06Z</time>
      </trkpt>
      <trkpt lat="48.39274" lon="2.53376">
        <ele>113.59999847412</ele>
        <time>2013-12-01T10:12:07Z</time>
      </trkpt>
      <trkpt lat="48.39277" lon="2.53377">
        <ele>114</ele>
        <time>2013-12-01T10:12:08Z</time>
      </trkpt>
      <trkpt lat="48.39281" lon="2.53378">
        <ele>114.40000152588</ele>
        <time>2013-12-01T10:12:09Z</time>
      </trkpt>
      <trkpt lat="48.39293" lon="2.5338">
        <ele>114.40000152588</ele>
        <time>2013-12-01T10:12:12Z</time>
      </trkpt>
      <trkpt lat="48.39297" lon="2.53382">
        <ele>114.40000152588</ele>
        <time>2013-12-01T10:12:13Z</time>
      </trkpt>
      <trkpt lat="48.39304" lon="2.53384">
        <ele>114.40000152588</ele>
        <time>2013-12-01T10:12:15Z</time>
      </trkpt>
      <trkpt lat="48.39327" lon="2.53391">
        <ele>114.40000152588</ele>
        <time>2013-12-01T10:12:21Z</time>
      </trkpt>
      <trkpt lat="48.3933" lon="2.53392">
        <ele>114.40000152588</ele>
        <time>2013-12-01T10:12:22Z</time>
      </trkpt>
      <trkpt lat="48.39342" lon="2.53394">
        <ele>114.40000152588</ele>
        <time>2013-12-01T10:12:25Z</time>
      </trkpt>
      <trkpt lat="48.39349" lon="2.53396">
        <ele>114.40000152588</ele>
        <time>2013-12-01T10:12:27Z</time>
      </trkpt>
      <trkpt lat="48.39353" lon="2.53398">
        <ele>114.40000152588</ele>
        <time>2013-12-01T10:12:28Z</time>
      </trkpt>
      <trkpt lat="48.39366" lon="2.53404">
        <ele>114.40000152588</ele>
        <time>2013-12-01T10:12:32Z</time>
      </trkpt>
      <trkpt lat="48.39393" lon="2.53412">
        <ele>114.40000152588</ele>
        <time>2013-12-01T10:12:38Z</time>
      </trkpt>
      <trkpt lat="48.39403" lon="2.53416">
        <ele>114.40000152588</ele>
        <time>2013-12-01T10:12:40Z</time>
      </trkpt>
      <trkpt lat="48.39427" lon="2.53424">
        <ele>114.40000152588</ele>
        <time>2013-12-01T10:12:45Z</time>
      </trkpt>
      <trkpt lat="48.39439" lon="2.53427">
        <ele>114.40000152588</ele>
        <time>2013-12-01T10:12:47Z</time>
      </trkpt>
      <trkpt lat="48.39444" lon="2.53428">
        <ele>114.40000152588</ele>
        <time>2013-12-01T10:12:48Z</time>
      </trkpt>
      <trkpt lat="48.39453" lon="2.5343">
        <ele>114.40000152588</ele>
        <time>2013-12-01T10:12:50Z</time>
      </trkpt>
      <trkpt lat="48.39492" lon="2.5344">
        <ele>114.40000152588</ele>
        <time>2013-12-01T10:12:58Z</time>
      </trkpt>
      <trkpt lat="48.39514" lon="2.53453">
        <ele>114.40000152588</ele>
        <time>2013-12-01T10:13:03Z</time>
      </trkpt>
      <trkpt lat="48.39518" lon="2.5346">
        <ele>114.40000152588</ele>
        <time>2013-12-01T10:13:04Z</time>
      </trkpt>
      <trkpt lat="48.39523" lon="2.53476">
        <ele>114.40000152588</ele>
        <time>2013-12-01T10:13:06Z</time>
      </trkpt>
      <trkpt lat="48.39526" lon="2.53506">
        <ele>114.40000152588</ele>
        <time>2013-12-01T10:13:10Z</time>
      </trkpt>
      <trkpt lat="48.39525" lon="2.53519">
        <ele>114.40000152588</ele>
        <time>2013-12-01T10:13:12Z</time>
      </trkpt>
      <trkpt lat="48.39526" lon="2.53552">
        <ele>114.40000152588</ele>
        <time>2013-12-01T10:13:16Z</time>
      </trkpt>
      <trkpt lat="48.39524" lon="2.53616">
        <ele>114.40000152588</ele>
        <time>2013-12-01T10:13:24Z</time>
      </trkpt>
      <trkpt lat="48.39517" lon="2.53665">
        <ele>114.40000152588</ele>
        <time>2013-12-01T10:13:30Z</time>
      </trkpt>
      <trkpt lat="48.39516" lon="2.53674">
        <ele>114.40000152588</ele>
        <time>2013-12-01T10:13:31Z</time>
      </trkpt>
      <trkpt lat="48.39508" lon="2.53715">
        <ele>114.40000152588</ele>
        <time>2013-12-01T10:13:36Z</time>
      </trkpt>
      <trkpt lat="48.39505" lon="2.53722">
        <ele>114.40000152588</ele>
        <time>2013-12-01T10:13:37Z</time>
      </trkpt>
      <trkpt lat="48.395" lon="2.53737">
        <ele>114.40000152588</ele>
        <time>2013-12-01T10:13:39Z</time>
      </trkpt>
      <trkpt lat="48.39497" lon="2.53743">
        <ele>114.40000152588</ele>
        <time>2013-12-01T10:13:40Z</time>
      </trkpt>
      <trkpt lat="48.39489" lon="2.53765">
        <ele>114.40000152588</ele>
        <time>2013-12-01T10:13:43Z</time>
      </trkpt>
      <trkpt lat="48.39487" lon="2.53773">
        <ele>114.40000152588</ele>
        <time>2013-12-01T10:13:44Z</time>
      </trkpt>
      <trkpt lat="48.39487" lon="2.53792">
        <ele>114.40000152588</ele>
        <time>2013-12-01T10:13:46Z</time>
      </trkpt>
      <trkpt lat="48.39486" lon="2.53847">
        <ele>114.40000152588</ele>
        <time>2013-12-01T10:13:52Z</time>
      </trkpt>
      <trkpt lat="48.39485" lon="2.53892">
        <ele>114.40000152588</ele>
        <time>2013-12-01T10:13:57Z</time>
      </trkpt>
      <trkpt lat="48.39484" lon="2.5391">
        <ele>114.40000152588</ele>
        <time>2013-12-01T10:13:59Z</time>
      </trkpt>
      <trkpt lat="48.39484" lon="2.53928">
        <ele>114.40000152588</ele>
        <time>2013-12-01T10:14:01Z</time>
      </trkpt>
      <trkpt lat="48.3948" lon="2.53952">
        <ele>114.40000152588</ele>
        <time>2013-12-01T10:14:04Z</time>
      </trkpt>
      <trkpt lat="48.39474" lon="2.53984">
        <ele>114.40000152588</ele>
        <time>2013-12-01T10:14:09Z</time>
      </trkpt>
      <trkpt lat="48.39473" lon="2.53989">
        <ele>114.40000152588</ele>
        <time>2013-12-01T10:14:10Z</time>
      </trkpt>
      <trkpt lat="48.39466" lon="2.54023">
        <ele>114.40000152588</ele>
        <time>2013-12-01T10:14:15Z</time>
      </trkpt>
      <trkpt lat="48.39463" lon="2.54031">
        <ele>114.40000152588</ele>
        <time>2013-12-01T10:14:16Z</time>
      </trkpt>
      <trkpt lat="48.3945" lon="2.54068">
        <ele>114.40000152588</ele>
        <time>2013-12-01T10:14:21Z</time>
      </trkpt>
      <trkpt lat="48.39445" lon="2.54082">
        <ele>114.40000152588</ele>
        <time>2013-12-01T10:14:23Z</time>
      </trkpt>
      <trkpt lat="48.39433" lon="2.54123">
        <ele>114.40000152588</ele>
        <time>2013-12-01T10:14:29Z</time>
      </trkpt>
      <trkpt lat="48.39429" lon="2.54129">
        <ele>114.40000152588</ele>
        <time>2013-12-01T10:14:30Z</time>
      </trkpt>
      <trkpt lat="48.39411" lon="2.54149">
        <ele>114</ele>
        <time>2013-12-01T10:14:34Z</time>
      </trkpt>
      <trkpt lat="48.39407" lon="2.54154">
        <ele>113.59999847412</ele>
        <time>2013-12-01T10:14:35Z</time>
      </trkpt>
      <trkpt lat="48.39402" lon="2.5416">
        <ele>113.19999694824</ele>
        <time>2013-12-01T10:14:36Z</time>
      </trkpt>
      <trkpt lat="48.39399" lon="2.54165">
        <ele>112.80000305176</ele>
        <time>2013-12-01T10:14:37Z</time>
      </trkpt>
      <trkpt lat="48.39394" lon="2.54168">
        <ele>112.40000152588</ele>
        <time>2013-12-01T10:14:38Z</time>
      </trkpt>
      <trkpt lat="48.3939" lon="2.54172">
        <ele>112.40000152588</ele>
        <time>2013-12-01T10:14:39Z</time>
      </trkpt>
      <trkpt lat="48.39367" lon="2.54188">
        <ele>112.40000152588</ele>
        <time>2013-12-01T10:14:44Z</time>
      </trkpt>
      <trkpt lat="48.39358" lon="2.54199">
        <ele>111.80000305176</ele>
        <time>2013-12-01T10:14:46Z</time>
      </trkpt>
      <trkpt lat="48.39353" lon="2.5421">
        <ele>111.40000152588</ele>
        <time>2013-12-01T10:14:47Z</time>
      </trkpt>
      <trkpt lat="48.39351" lon="2.54224">
        <ele>110.80000305176</ele>
        <time>2013-12-01T10:14:48Z</time>
      </trkpt>
      <trkpt lat="48.39349" lon="2.54235">
        <ele>110.40000152588</ele>
        <time>2013-12-01T10:14:49Z</time>
      </trkpt>
      <trkpt lat="48.39348" lon="2.54246">
        <ele>109.80000305176</ele>
        <time>2013-12-01T10:14:50Z</time>
      </trkpt>
      <trkpt lat="48.39349" lon="2.54272">
        <ele>109.40000152588</ele>
        <time>2013-12-01T10:14:52Z</time>
      </trkpt>
      <trkpt lat="48.3935" lon="2.54287">
        <ele>108.80000305176</ele>
        <time>2013-12-01T10:14:53Z</time>
      </trkpt>
      <trkpt lat="48.39351" lon="2.54299">
        <ele>108.19999694824</ele>
        <time>2013-12-01T10:14:54Z</time>
      </trkpt>
      <trkpt lat="48.39353" lon="2.54313">
        <ele>107.59999847412</ele>
        <time>2013-12-01T10:14:55Z</time>
      </trkpt>
      <trkpt lat="48.39354" lon="2.54328">
        <ele>106.80000305176</ele>
        <time>2013-12-01T10:14:56Z</time>
      </trkpt>
      <trkpt lat="48.39354" lon="2.54343">
        <ele>106.19999694824</ele>
        <time>2013-12-01T10:14:57Z</time>
      </trkpt>
      <trkpt lat="48.39353" lon="2.54357">
        <ele>105</ele>
        <time>2013-12-01T10:14:58Z</time>
      </trkpt>
      <trkpt lat="48.39352" lon="2.54372">
        <ele>104</ele>
        <time>2013-12-01T10:14:59Z</time>
      </trkpt>
      <trkpt lat="48.3935" lon="2.54387">
        <ele>102.80000305176</ele>
        <time>2013-12-01T10:15:00Z</time>
      </trkpt>
      <trkpt lat="48.39349" lon="2.54404">
        <ele>101.59999847412</ele>
        <time>2013-12-01T10:15:01Z</time>
      </trkpt>
      <trkpt lat="48.39347" lon="2.54422">
        <ele>100.19999694824</ele>
        <time>2013-12-01T10:15:02Z</time>
      </trkpt>
      <trkpt lat="48.39346" lon="2.54441">
        <ele>99</ele>
        <time>2013-12-01T10:15:03Z</time>
      </trkpt>
      <trkpt lat="48.39345" lon="2.5446">
        <ele>97.400001525879</ele>
        <time>2013-12-01T10:15:04Z</time>
      </trkpt>
      <trkpt lat="48.39344" lon="2.54478">
        <ele>95.800003051758</ele>
        <time>2013-12-01T10:15:05Z</time>
      </trkpt>
      <trkpt lat="48.39344" lon="2.54495">
        <ele>94</ele>
        <time>2013-12-01T10:15:06Z</time>
      </trkpt>
      <trkpt lat="48.39344" lon="2.54512">
        <ele>92.199996948242</ele>
        <time>2013-12-01T10:15:07Z</time>
      </trkpt>
      <trkpt lat="48.39343" lon="2.54527">
        <ele>90.599998474121</ele>
        <time>2013-12-01T10:15:08Z</time>
      </trkpt>
      <trkpt lat="48.39342" lon="2.54541">
        <ele>89</ele>
        <time>2013-12-01T10:15:09Z</time>
      </trkpt>
      <trkpt lat="48.39344" lon="2.54554">
        <ele>87.599998474121</ele>
        <time>2013-12-01T10:15:10Z</time>
      </trkpt>
      <trkpt lat="48.39347" lon="2.54567">
        <ele>86</ele>
        <time>2013-12-01T10:15:11Z</time>
      </trkpt>
      <trkpt lat="48.39351" lon="2.5458">
        <ele>84.400001525879</ele>
        <time>2013-12-01T10:15:12Z</time>
      </trkpt>
      <trkpt lat="48.39352" lon="2.54594">
        <ele>83.599998474121</ele>
        <time>2013-12-01T10:15:13Z</time>
      </trkpt>
      <trkpt lat="48.39352" lon="2.54606">
        <ele>82.800003051758</ele>
        <time>2013-12-01T10:15:14Z</time>
      </trkpt>
      <trkpt lat="48.39351" lon="2.5462">
        <ele>82</ele>
        <time>2013-12-01T10:15:15Z</time>
      </trkpt>
      <trkpt lat="48.39349" lon="2.54634">
        <ele>81.199996948242</ele>
        <time>2013-12-01T10:15:16Z</time>
      </trkpt>
      <trkpt lat="48.39348" lon="2.54647">
        <ele>80.599998474121</ele>
        <time>2013-12-01T10:15:17Z</time>
      </trkpt>
      <trkpt lat="48.39346" lon="2.54661">
        <ele>79.800003051758</ele>
        <time>2013-12-01T10:15:18Z</time>
      </trkpt>
      <trkpt lat="48.39345" lon="2.54675">
        <ele>79.199996948242</ele>
        <time>2013-12-01T10:15:19Z</time>
      </trkpt>
      <trkpt lat="48.39342" lon="2.54689">
        <ele>78.599998474121</ele>
        <time>2013-12-01T10:15:20Z</time>
      </trkpt>
      <trkpt lat="48.3934" lon="2.54703">
        <ele>77.800003051758</ele>
        <time>2013-12-01T10:15:21Z</time>
      </trkpt>
      <trkpt lat="48.39337" lon="2.54731">
        <ele>77.400001525879</ele>
        <time>2013-12-01T10:15:23Z</time>
      </trkpt>
      <trkpt lat="48.39335" lon="2.54744">
        <ele>77</ele>
        <time>2013-12-01T10:15:24Z</time>
      </trkpt>
      <trkpt lat="48.39333" lon="2.54758">
        <ele>76.400001525879</ele>
        <time>2013-12-01T10:15:25Z</time>
      </trkpt>
      <trkpt lat="48.39331" lon="2.54771">
        <ele>76</ele>
        <time>2013-12-01T10:15:26Z</time>
      </trkpt>
      <trkpt lat="48.3933" lon="2.54785">
        <ele>75.599998474121</ele>
        <time>2013-12-01T10:15:27Z</time>
      </trkpt>
      <trkpt lat="48.39318" lon="2.54835">
        <ele>75.199996948242</ele>
        <time>2013-12-01T10:15:31Z</time>
      </trkpt>
      <trkpt lat="48.39317" lon="2.54848">
        <ele>74.599998474121</ele>
        <time>2013-12-01T10:15:32Z</time>
      </trkpt>
      <trkpt lat="48.39315" lon="2.54861">
        <ele>74.199996948242</ele>
        <time>2013-12-01T10:15:33Z</time>
      </trkpt>
      <trkpt lat="48.39313" lon="2.54873">
        <ele>73.800003051758</ele>
        <time>2013-12-01T10:15:34Z</time>
      </trkpt>
      <trkpt lat="48.39312" lon="2.54885">
        <ele>73.400001525879</ele>
        <time>2013-12-01T10:15:35Z</time>
      </trkpt>
      <trkpt lat="48.39306" lon="2.5493">
        <ele>73.400001525879</ele>
        <time>2013-12-01T10:15:39Z</time>
      </trkpt>
      <trkpt lat="48.39295" lon="2.5499">
        <ele>73</ele>
        <time>2013-12-01T10:15:45Z</time>
      </trkpt>
      <trkpt lat="48.39294" lon="2.55">
        <ele>72.400001525879</ele>
        <time>2013-12-01T10:15:46Z</time>
      </trkpt>
      <trkpt lat="48.39293" lon="2.55011">
        <ele>72</ele>
        <time>2013-12-01T10:15:47Z</time>
      </trkpt>
      <trkpt lat="48.39291" lon="2.55022">
        <ele>71.599998474121</ele>
        <time>2013-12-01T10:15:48Z</time>
      </trkpt>
      <trkpt lat="48.39289" lon="2.55033">
        <ele>71.199996948242</ele>
        <time>2013-12-01T10:15:49Z</time>
      </trkpt>
      <trkpt lat="48.39286" lon="2.55066">
        <ele>71.199996948242</ele>
        <time>2013-12-01T10:15:52Z</time>
      </trkpt>
      <trkpt lat="48.39288" lon="2.55088">
        <ele>70.800003051758</ele>
        <time>2013-12-01T10:15:54Z</time>
      </trkpt>
      <trkpt lat="48.3929" lon="2.55098">
        <ele>70.400001525879</ele>
        <time>2013-12-01T10:15:55Z</time>
      </trkpt>
      <trkpt lat="48.39293" lon="2.55107">
        <ele>70</ele>
        <time>2013-12-01T10:15:56Z</time>
      </trkpt>
      <trkpt lat="48.39296" lon="2.55116">
        <ele>69.599998474121</ele>
        <time>2013-12-01T10:15:57Z</time>
      </trkpt>
      <trkpt lat="48.39301" lon="2.55123">
        <ele>69.199996948242</ele>
        <time>2013-12-01T10:15:58Z</time>
      </trkpt>
      <trkpt lat="48.39306" lon="2.55129">
        <ele>69.199996948242</ele>
        <time>2013-12-01T10:15:59Z</time>
      </trkpt>
      <trkpt lat="48.39322" lon="2.55149">
        <ele>69.199996948242</ele>
        <time>2013-12-01T10:16:02Z</time>
      </trkpt>
      <trkpt lat="48.39328" lon="2.55155">
        <ele>69.199996948242</ele>
        <time>2013-12-01T10:16:03Z</time>
      </trkpt>
      <trkpt lat="48.39338" lon="2.55168">
        <ele>69.199996948242</ele>
        <time>2013-12-01T10:16:05Z</time>
      </trkpt>
      <trkpt lat="48.39344" lon="2.55175">
        <ele>69.199996948242</ele>
        <time>2013-12-01T10:16:06Z</time>
      </trkpt>
      <trkpt lat="48.39349" lon="2.55181">
        <ele>69.199996948242</ele>
        <time>2013-12-01T10:16:07Z</time>
      </trkpt>
      <trkpt lat="48.39357" lon="2.55195">
        <ele>69.199996948242</ele>
        <time>2013-12-01T10:16:09Z</time>
      </trkpt>
      <trkpt lat="48.39364" lon="2.55201">
        <ele>69.199996948242</ele>
        <time>2013-12-01T10:16:10Z</time>
      </trkpt>
      <trkpt lat="48.39384" lon="2.55217">
        <ele>69.199996948242</ele>
        <time>2013-12-01T10:16:14Z</time>
      </trkpt>
      <trkpt lat="48.3939" lon="2.55221">
        <ele>69.199996948242</ele>
        <time>2013-12-01T10:16:15Z</time>
      </trkpt>
      <trkpt lat="48.39396" lon="2.55224">
        <ele>69.199996948242</ele>
        <time>2013-12-01T10:16:16Z</time>
      </trkpt>
      <trkpt lat="48.3941" lon="2.55231">
        <ele>69.199996948242</ele>
        <time>2013-12-01T10:16:19Z</time>
      </trkpt>
      <trkpt lat="48.3942" lon="2.55237">
        <ele>68.599998474121</ele>
        <time>2013-12-01T10:16:21Z</time>
      </trkpt>
      <trkpt lat="48.39424" lon="2.55242">
        <ele>68.199996948242</ele>
        <time>2013-12-01T10:16:22Z</time>
      </trkpt>
      <trkpt lat="48.39429" lon="2.55247">
        <ele>67.800003051758</ele>
        <time>2013-12-01T10:16:23Z</time>
      </trkpt>
      <trkpt lat="48.39435" lon="2.5525">
        <ele>67.400001525879</ele>
        <time>2013-12-01T10:16:24Z</time>
      </trkpt>
      <trkpt lat="48.39441" lon="2.5525">
        <ele>67</ele>
        <time>2013-12-01T10:16:25Z</time>
      </trkpt>
      <trkpt lat="48.39445" lon="2.55244">
        <ele>67</ele>
        <time>2013-12-01T10:16:26Z</time>
      </trkpt>
      <trkpt lat="48.39453" lon="2.55231">
        <ele>67</ele>
        <time>2013-12-01T10:16:28Z</time>
      </trkpt>
      <trkpt lat="48.39457" lon="2.55224">
        <ele>67</ele>
        <time>2013-12-01T10:16:29Z</time>
      </trkpt>
      <trkpt lat="48.39461" lon="2.55217">
        <ele>67</ele>
        <time>2013-12-01T10:16:30Z</time>
      </trkpt>
      <trkpt lat="48.39473" lon="2.55187">
        <ele>67</ele>
        <time>2013-12-01T10:16:34Z</time>
      </trkpt>
      <trkpt lat="48.39479" lon="2.5517">
        <ele>67</ele>
        <time>2013-12-01T10:16:36Z</time>
      </trkpt>
      <trkpt lat="48.39503" lon="2.55111">
        <ele>67</ele>
        <time>2013-12-01T10:16:43Z</time>
      </trkpt>
      <trkpt lat="48.39527" lon="2.55046">
        <ele>66.599998474121</ele>
        <time>2013-12-01T10:16:50Z</time>
      </trkpt>
      <trkpt lat="48.39531" lon="2.55036">
        <ele>66.199996948242</ele>
        <time>2013-12-01T10:16:51Z</time>
      </trkpt>
      <trkpt lat="48.39535" lon="2.55027">
        <ele>65.800003051758</ele>
        <time>2013-12-01T10:16:52Z</time>
      </trkpt>
      <trkpt lat="48.39538" lon="2.55018">
        <ele>65.400001525879</ele>
        <time>2013-12-01T10:16:53Z</time>
      </trkpt>
      <trkpt lat="48.39542" lon="2.55009">
        <ele>65</ele>
        <time>2013-12-01T10:16:54Z</time>
      </trkpt>
      <trkpt lat="48.3955" lon="2.54992">
        <ele>65</ele>
        <time>2013-12-01T10:16:56Z</time>
      </trkpt>
      <trkpt lat="48.39569" lon="2.54949">
        <ele>65</ele>
        <time>2013-12-01T10:17:01Z</time>
      </trkpt>
      <trkpt lat="48.39576" lon="2.54933">
        <ele>65</ele>
        <time>2013-12-01T10:17:03Z</time>
      </trkpt>
      <trkpt lat="48.39606" lon="2.54858">
        <ele>65</ele>
        <time>2013-12-01T10:17:12Z</time>
      </trkpt>
      <trkpt lat="48.39621" lon="2.54809">
        <ele>65</ele>
        <time>2013-12-01T10:17:18Z</time>
      </trkpt>
      <trkpt lat="48.39623" lon="2.548">
        <ele>65</ele>
        <time>2013-12-01T10:17:19Z</time>
      </trkpt>
      <trkpt lat="48.39629" lon="2.54776">
        <ele>65</ele>
        <time>2013-12-01T10:17:22Z</time>
      </trkpt>
      <trkpt lat="48.3963" lon="2.54767">
        <ele>65</ele>
        <time>2013-12-01T10:17:23Z</time>
      </trkpt>
      <trkpt lat="48.39632" lon="2.54759">
        <ele>65</ele>
        <time>2013-12-01T10:17:24Z</time>
      </trkpt>
      <trkpt lat="48.39634" lon="2.54751">
        <ele>65</ele>
        <time>2013-12-01T10:17:25Z</time>
      </trkpt>
      <trkpt lat="48.39644" lon="2.54718">
        <ele>65</ele>
        <time>2013-12-01T10:17:29Z</time>
      </trkpt>
      <trkpt lat="48.39647" lon="2.5471">
        <ele>65</ele>
        <time>2013-12-01T10:17:30Z</time>
      </trkpt>
      <trkpt lat="48.39649" lon="2.54702">
        <ele>65</ele>
        <time>2013-12-01T10:17:31Z</time>
      </trkpt>
      <trkpt lat="48.39659" lon="2.54668">
        <ele>65</ele>
        <time>2013-12-01T10:17:35Z</time>
      </trkpt>
      <trkpt lat="48.39661" lon="2.5466">
        <ele>65</ele>
        <time>2013-12-01T10:17:36Z</time>
      </trkpt>
      <trkpt lat="48.39666" lon="2.54635">
        <ele>65</ele>
        <time>2013-12-01T10:17:39Z</time>
      </trkpt>
      <trkpt lat="48.39675" lon="2.54604">
        <ele>65</ele>
        <time>2013-12-01T10:17:43Z</time>
      </trkpt>
      <trkpt lat="48.3968" lon="2.5459">
        <ele>65</ele>
        <time>2013-12-01T10:17:45Z</time>
      </trkpt>
      <trkpt lat="48.39686" lon="2.54579">
        <ele>65.400001525879</ele>
        <time>2013-12-01T10:17:47Z</time>
      </trkpt>
      <trkpt lat="48.3969" lon="2.54573">
        <ele>66</ele>
        <time>2013-12-01T10:17:48Z</time>
      </trkpt>
      <trkpt lat="48.39693" lon="2.54568">
        <ele>66.400001525879</ele>
        <time>2013-12-01T10:17:49Z</time>
      </trkpt>
      <trkpt lat="48.39697" lon="2.54564">
        <ele>66.800003051758</ele>
        <time>2013-12-01T10:17:50Z</time>
      </trkpt>
      <trkpt lat="48.397" lon="2.54558">
        <ele>67.199996948242</ele>
        <time>2013-12-01T10:17:51Z</time>
      </trkpt>
      <trkpt lat="48.39704" lon="2.54553">
        <ele>67.199996948242</ele>
        <time>2013-12-01T10:17:52Z</time>
      </trkpt>
      <trkpt lat="48.39707" lon="2.54548">
        <ele>67.199996948242</ele>
        <time>2013-12-01T10:17:53Z</time>
      </trkpt>
      <trkpt lat="48.3971" lon="2.54543">
        <ele>67.199996948242</ele>
        <time>2013-12-01T10:17:54Z</time>
      </trkpt>
      <trkpt lat="48.39718" lon="2.54536">
        <ele>67.199996948242</ele>
        <time>2013-12-01T10:17:56Z</time>
      </trkpt>
      <trkpt lat="48.3973" lon="2.54534">
        <ele>67.199996948242</ele>
        <time>2013-12-01T10:17:59Z</time>
      </trkpt>
      <trkpt lat="48.39735" lon="2.54536">
        <ele>67.199996948242</ele>
        <time>2013-12-01T10:18:00Z</time>
      </trkpt>
      <trkpt lat="48.39745" lon="2.54541">
        <ele>67.199996948242</ele>
        <time>2013-12-01T10:18:02Z</time>
      </trkpt>
      <trkpt lat="48.39754" lon="2.54547">
        <ele>67.199996948242</ele>
        <time>2013-12-01T10:18:04Z</time>
      </trkpt>
      <trkpt lat="48.39763" lon="2.54552">
        <ele>67.199996948242</ele>
        <time>2013-12-01T10:18:06Z</time>
      </trkpt>
      <trkpt lat="48.39776" lon="2.54558">
        <ele>67.199996948242</ele>
        <time>2013-12-01T10:18:09Z</time>
      </trkpt>
      <trkpt lat="48.3978" lon="2.54561">
        <ele>67.199996948242</ele>
        <time>2013-12-01T10:18:10Z</time>
      </trkpt>
      <trkpt lat="48.39803" lon="2.54572">
        <ele>67.199996948242</ele>
        <time>2013-12-01T10:18:15Z</time>
      </trkpt>
      <trkpt lat="48.39815" lon="2.54577">
        <ele>67.199996948242</ele>
        <time>2013-12-01T10:18:17Z</time>
      </trkpt>
      <trkpt lat="48.39831" lon="2.54584">
        <ele>67.199996948242</ele>
        <time>2013-12-01T10:18:20Z</time>
      </trkpt>
      <trkpt lat="48.39841" lon="2.54586">
        <ele>67.199996948242</ele>
        <time>2013-12-01T10:18:21Z</time>
      </trkpt>
      <trkpt lat="48.39855" lon="2.54571">
        <ele>67.199996948242</ele>
        <time>2013-12-01T10:18:25Z</time>
      </trkpt>
      <trkpt lat="48.39857" lon="2.54548">
        <ele>67.199996948242</ele>
        <time>2013-12-01T10:18:28Z</time>
      </trkpt>
      <trkpt lat="48.39856" lon="2.54542">
        <ele>67.199996948242</ele>
        <time>2013-12-01T10:18:29Z</time>
      </trkpt>
      <trkpt lat="48.39856" lon="2.54538">
        <ele>67.199996948242</ele>
        <time>2013-12-01T10:18:30Z</time>
      </trkpt>
      <trkpt lat="48.39862" lon="2.54532">
        <ele>67.199996948242</ele>
        <time>2013-12-01T10:18:32Z</time>
      </trkpt>
      <trkpt lat="48.39868" lon="2.54512">
        <ele>67.599998474121</ele>
        <time>2013-12-01T10:18:36Z</time>
      </trkpt>
      <trkpt lat="48.39868" lon="2.54506">
        <ele>68</ele>
        <time>2013-12-01T10:18:37Z</time>
      </trkpt>
      <trkpt lat="48.39869" lon="2.54501">
        <ele>68.599998474121</ele>
        <time>2013-12-01T10:18:38Z</time>
      </trkpt>
      <trkpt lat="48.3987" lon="2.54494">
        <ele>69</ele>
        <time>2013-12-01T10:18:39Z</time>
      </trkpt>
      <trkpt lat="48.3987" lon="2.54488">
        <ele>69.400001525879</ele>
        <time>2013-12-01T10:18:40Z</time>
      </trkpt>
      <trkpt lat="48.39874" lon="2.54464">
        <ele>69.400001525879</ele>
        <time>2013-12-01T10:18:44Z</time>
      </trkpt>
      <trkpt lat="48.39878" lon="2.54436">
        <ele>69.400001525879</ele>
        <time>2013-12-01T10:18:49Z</time>
      </trkpt>
      <trkpt lat="48.39878" lon="2.54403">
        <ele>69.400001525879</ele>
        <time>2013-12-01T10:18:55Z</time>
      </trkpt>
      <trkpt lat="48.3988" lon="2.54377">
        <ele>69.800003051758</ele>
        <time>2013-12-01T10:19:00Z</time>
      </trkpt>
      <trkpt lat="48.3988" lon="2.54372">
        <ele>70.199996948242</ele>
        <time>2013-12-01T10:19:01Z</time>
      </trkpt>
      <trkpt lat="48.3988" lon="2.54368">
        <ele>70.599998474121</ele>
        <time>2013-12-01T10:19:02Z</time>
      </trkpt>
      <trkpt lat="48.39881" lon="2.54363">
        <ele>71</ele>
        <time>2013-12-01T10:19:03Z</time>
      </trkpt>
      <trkpt lat="48.39881" lon="2.54357">
        <ele>71.400001525879</ele>
        <time>2013-12-01T10:19:04Z</time>
      </trkpt>
      <trkpt lat="48.39885" lon="2.54336">
        <ele>71.400001525879</ele>
        <time>2013-12-01T10:19:08Z</time>
      </trkpt>
      <trkpt lat="48.39886" lon="2.54295">
        <ele>71.400001525879</ele>
        <time>2013-12-01T10:19:15Z</time>
      </trkpt>
      <trkpt lat="48.39886" lon="2.54273">
        <ele>71.800003051758</ele>
        <time>2013-12-01T10:19:19Z</time>
      </trkpt>
      <trkpt lat="48.39886" lon="2.54268">
        <ele>72.199996948242</ele>
        <time>2013-12-01T10:19:20Z</time>
      </trkpt>
      <trkpt lat="48.39886" lon="2.54262">
        <ele>72.800003051758</ele>
        <time>2013-12-01T10:19:21Z</time>
      </trkpt>
      <trkpt lat="48.39886" lon="2.54257">
        <ele>73.199996948242</ele>
        <time>2013-12-01T10:19:22Z</time>
      </trkpt>
      <trkpt lat="48.39885" lon="2.54252">
        <ele>73.599998474121</ele>
        <time>2013-12-01T10:19:23Z</time>
      </trkpt>
      <trkpt lat="48.39889" lon="2.5423">
        <ele>74</ele>
        <time>2013-12-01T10:19:28Z</time>
      </trkpt>
      <trkpt lat="48.3989" lon="2.54225">
        <ele>74.400001525879</ele>
        <time>2013-12-01T10:19:29Z</time>
      </trkpt>
      <trkpt lat="48.39892" lon="2.5422">
        <ele>75</ele>
        <time>2013-12-01T10:19:30Z</time>
      </trkpt>
      <trkpt lat="48.39893" lon="2.54216">
        <ele>75.400001525879</ele>
        <time>2013-12-01T10:19:31Z</time>
      </trkpt>
      <trkpt lat="48.39894" lon="2.54212">
        <ele>75.800003051758</ele>
        <time>2013-12-01T10:19:32Z</time>
      </trkpt>
      <trkpt lat="48.39898" lon="2.54198">
        <ele>75.800003051758</ele>
        <time>2013-12-01T10:19:35Z</time>
      </trkpt>
      <trkpt lat="48.39899" lon="2.5419">
        <ele>75.800003051758</ele>
        <time>2013-12-01T10:19:36Z</time>
      </trkpt>
      <trkpt lat="48.39901" lon="2.54183">
        <ele>75.800003051758</ele>
        <time>2013-12-01T10:19:37Z</time>
      </trkpt>
      <trkpt lat="48.39908" lon="2.54165">
        <ele>75.800003051758</ele>
        <time>2013-12-01T10:19:40Z</time>
      </trkpt>
      <trkpt lat="48.39911" lon="2.54159">
        <ele>75.800003051758</ele>
        <time>2013-12-01T10:19:41Z</time>
      </trkpt>
      <trkpt lat="48.39915" lon="2.54154">
        <ele>75.800003051758</ele>
        <time>2013-12-01T10:19:42Z</time>
      </trkpt>
      <trkpt lat="48.39933" lon="2.5414">
        <ele>75.800003051758</ele>
        <time>2013-12-01T10:19:46Z</time>
      </trkpt>
      <trkpt lat="48.39938" lon="2.54139">
        <ele>75.800003051758</ele>
        <time>2013-12-01T10:19:47Z</time>
      </trkpt>
      <trkpt lat="48.39943" lon="2.54138">
        <ele>75.800003051758</ele>
        <time>2013-12-01T10:19:48Z</time>
      </trkpt>
      <trkpt lat="48.39954" lon="2.54136">
        <ele>75.800003051758</ele>
        <time>2013-12-01T10:19:50Z</time>
      </trkpt>
      <trkpt lat="48.39967" lon="2.54138">
        <ele>75.800003051758</ele>
        <time>2013-12-01T10:19:54Z</time>
      </trkpt>
      <trkpt lat="48.39982" lon="2.54136">
        <ele>75.800003051758</ele>
        <time>2013-12-01T10:19:59Z</time>
      </trkpt>
      <trkpt lat="48.39985" lon="2.54135">
        <ele>75.800003051758</ele>
        <time>2013-12-01T10:20:00Z</time>
      </trkpt>
      <trkpt lat="48.39991" lon="2.54135">
        <ele>75.800003051758</ele>
        <time>2013-12-01T10:20:02Z</time>
      </trkpt>
      <trkpt lat="48.39995" lon="2.54135">
        <ele>76.199996948242</ele>
        <time>2013-12-01T10:20:04Z</time>
      </trkpt>
      <trkpt lat="48.39997" lon="2.54135">
        <ele>76.599998474121</ele>
        <time>2013-12-01T10:20:05Z</time>
      </trkpt>
      <trkpt lat="48.39999" lon="2.54136">
        <ele>77</ele>
        <time>2013-12-01T10:20:06Z</time>
      </trkpt>
      <trkpt lat="48.40001" lon="2.54137">
        <ele>77.400001525879</ele>
        <time>2013-12-01T10:20:07Z</time>
      </trkpt>
      <trkpt lat="48.40003" lon="2.54138">
        <ele>77.800003051758</ele>
        <time>2013-12-01T10:20:08Z</time>
      </trkpt>
      <trkpt lat="48.40006" lon="2.54138">
        <ele>78.199996948242</ele>
        <time>2013-12-01T10:20:10Z</time>
      </trkpt>
      <trkpt lat="48.40009" lon="2.54138">
        <ele>78.599998474121</ele>
        <time>2013-12-01T10:20:11Z</time>
      </trkpt>
      <trkpt lat="48.4001" lon="2.54138">
        <ele>79</ele>
        <time>2013-12-01T10:20:12Z</time>
      </trkpt>
      <trkpt lat="48.40011" lon="2.54138">
        <ele>79.400001525879</ele>
        <time>2013-12-01T10:20:13Z</time>
      </trkpt>
      <trkpt lat="48.40013" lon="2.54139">
        <ele>79.800003051758</ele>
        <time>2013-12-01T10:20:14Z</time>
      </trkpt>
      <trkpt lat="48.40019" lon="2.5414">
        <ele>80.199996948242</ele>
        <time>2013-12-01T10:20:17Z</time>
      </trkpt>
      <trkpt lat="48.40022" lon="2.54141">
        <ele>80.800003051758</ele>
        <time>2013-12-01T10:20:18Z</time>
      </trkpt>
      <trkpt lat="48.40024" lon="2.54142">
        <ele>81.199996948242</ele>
        <time>2013-12-01T10:20:19Z</time>
      </trkpt>
      <trkpt lat="48.40025" lon="2.54143">
        <ele>81.599998474121</ele>
        <time>2013-12-01T10:20:20Z</time>
      </trkpt>
      <trkpt lat="48.40026" lon="2.54143">
        <ele>82</ele>
        <time>2013-12-01T10:20:21Z</time>
      </trkpt>
      <trkpt lat="48.40033" lon="2.54141">
        <ele>82</ele>
        <time>2013-12-01T10:20:24Z</time>
      </trkpt>
      <trkpt lat="48.40034" lon="2.5414">
        <ele>82</ele>
        <time>2013-12-01T10:20:25Z</time>
      </trkpt>
      <trkpt lat="48.4005" lon="2.54141">
        <ele>82</ele>
        <time>2013-12-01T10:20:33Z</time>
      </trkpt>
      <trkpt lat="48.40054" lon="2.54138">
        <ele>82</ele>
        <time>2013-12-01T10:20:35Z</time>
      </trkpt>
      <trkpt lat="48.40057" lon="2.54132">
        <ele>82.400001525879</ele>
        <time>2013-12-01T10:20:37Z</time>
      </trkpt>
      <trkpt lat="48.40057" lon="2.54131">
        <ele>82.800003051758</ele>
        <time>2013-12-01T10:20:38Z</time>
      </trkpt>
      <trkpt lat="48.40057" lon="2.54128">
        <ele>83.400001525879</ele>
        <time>2013-12-01T10:20:39Z</time>
      </trkpt>
      <trkpt lat="48.40058" lon="2.54126">
        <ele>83.800003051758</ele>
        <time>2013-12-01T10:20:40Z</time>
      </trkpt>
      <trkpt lat="48.40059" lon="2.54124">
        <ele>84.199996948242</ele>
        <time>2013-12-01T10:20:41Z</time>
      </trkpt>
      <trkpt lat="48.4006" lon="2.54119">
        <ele>84.199996948242</ele>
        <time>2013-12-01T10:20:44Z</time>
      </trkpt>
      <trkpt lat="48.4006" lon="2.54118">
        <ele>84.199996948242</ele>
        <time>2013-12-01T10:20:45Z</time>
      </trkpt>
      <trkpt lat="48.4006" lon="2.54118">
        <ele>84.199996948242</ele>
        <time>2013-12-01T10:20:46Z</time>
      </trkpt>
      <trkpt lat="48.4006" lon="2.54117">
        <ele>84.599998474121</ele>
        <time>2013-12-01T10:20:49Z</time>
      </trkpt>
      <trkpt lat="48.40061" lon="2.54116">
        <ele>85</ele>
        <time>2013-12-01T10:20:50Z</time>
      </trkpt>
      <trkpt lat="48.40061" lon="2.54116">
        <ele>85.599998474121</ele>
        <time>2013-12-01T10:20:51Z</time>
      </trkpt>
      <trkpt lat="48.40061" lon="2.54116">
        <ele>86</ele>
        <time>2013-12-01T10:20:52Z</time>
      </trkpt>
      <trkpt lat="48.40061" lon="2.54116">
        <ele>86.400001525879</ele>
        <time>2013-12-01T10:20:53Z</time>
      </trkpt>
      <trkpt lat="48.40061" lon="2.54116">
        <ele>86.400001525879</ele>
        <time>2013-12-01T10:20:56Z</time>
      </trkpt>
      <trkpt lat="48.40061" lon="2.54116">
        <ele>86.400001525879</ele>
        <time>2013-12-01T10:20:57Z</time>
      </trkpt>
      <trkpt lat="48.40067" lon="2.54113">
        <ele>86.400001525879</ele>
        <time>2013-12-01T10:21:03Z</time>
      </trkpt>
      <trkpt lat="48.4007" lon="2.5411">
        <ele>86.400001525879</ele>
        <time>2013-12-01T10:21:04Z</time>
      </trkpt>
      <trkpt lat="48.401" lon="2.54094">
        <ele>86.400001525879</ele>
        <time>2013-12-01T10:21:11Z</time>
      </trkpt>
      <trkpt lat="48.40104" lon="2.54092">
        <ele>86.400001525879</ele>
        <time>2013-12-01T10:21:12Z</time>
      </trkpt>
      <trkpt lat="48.40108" lon="2.5409">
        <ele>86.400001525879</ele>
        <time>2013-12-01T10:21:13Z</time>
      </trkpt>
      <trkpt lat="48.40112" lon="2.54088">
        <ele>86.400001525879</ele>
        <time>2013-12-01T10:21:14Z</time>
      </trkpt>
      <trkpt lat="48.40125" lon="2.54073">
        <ele>86.400001525879</ele>
        <time>2013-12-01T10:21:18Z</time>
      </trkpt>
      <trkpt lat="48.40137" lon="2.54059">
        <ele>86.400001525879</ele>
        <time>2013-12-01T10:21:22Z</time>
      </trkpt>
      <trkpt lat="48.40142" lon="2.54047">
        <ele>86.400001525879</ele>
        <time>2013-12-01T10:21:25Z</time>
      </trkpt>
      <trkpt lat="48.40153" lon="2.5403">
        <ele>86.400001525879</ele>
        <time>2013-12-01T10:21:29Z</time>
      </trkpt>
      <trkpt lat="48.40155" lon="2.54025">
        <ele>86.400001525879</ele>
        <time>2013-12-01T10:21:30Z</time>
      </trkpt>
      <trkpt lat="48.40162" lon="2.54015">
        <ele>86.400001525879</ele>
        <time>2013-12-01T10:21:32Z</time>
      </trkpt>
      <trkpt lat="48.40168" lon="2.54006">
        <ele>86.400001525879</ele>
        <time>2013-12-01T10:21:34Z</time>
      </trkpt>
      <trkpt lat="48.40183" lon="2.53979">
        <ele>86.400001525879</ele>
        <time>2013-12-01T10:21:40Z</time>
      </trkpt>
      <trkpt lat="48.40187" lon="2.53973">
        <ele>86.400001525879</ele>
        <time>2013-12-01T10:21:41Z</time>
      </trkpt>
      <trkpt lat="48.4019" lon="2.53968">
        <ele>86.400001525879</ele>
        <time>2013-12-01T10:21:42Z</time>
      </trkpt>
      <trkpt lat="48.40214" lon="2.53923">
        <ele>86.400001525879</ele>
        <time>2013-12-01T10:21:50Z</time>
      </trkpt>
      <trkpt lat="48.40217" lon="2.53916">
        <ele>86.400001525879</ele>
        <time>2013-12-01T10:21:51Z</time>
      </trkpt>
      <trkpt lat="48.40223" lon="2.53904">
        <ele>86.400001525879</ele>
        <time>2013-12-01T10:21:53Z</time>
      </trkpt>
      <trkpt lat="48.40237" lon="2.53873">
        <ele>86.400001525879</ele>
        <time>2013-12-01T10:21:58Z</time>
      </trkpt>
      <trkpt lat="48.40243" lon="2.53862">
        <ele>86.400001525879</ele>
        <time>2013-12-01T10:22:00Z</time>
      </trkpt>
      <trkpt lat="48.40258" lon="2.53835">
        <ele>86.400001525879</ele>
        <time>2013-12-01T10:22:05Z</time>
      </trkpt>
      <trkpt lat="48.40261" lon="2.53829">
        <ele>86.400001525879</ele>
        <time>2013-12-01T10:22:06Z</time>
      </trkpt>
      <trkpt lat="48.40265" lon="2.53824">
        <ele>86.400001525879</ele>
        <time>2013-12-01T10:22:07Z</time>
      </trkpt>
      <trkpt lat="48.40274" lon="2.53811">
        <ele>86.400001525879</ele>
        <time>2013-12-01T10:22:10Z</time>
      </trkpt>
      <trkpt lat="48.40282" lon="2.53798">
        <ele>86.400001525879</ele>
        <time>2013-12-01T10:22:13Z</time>
      </trkpt>
      <trkpt lat="48.40297" lon="2.53779">
        <ele>86.400001525879</ele>
        <time>2013-12-01T10:22:17Z</time>
      </trkpt>
      <trkpt lat="48.403" lon="2.53774">
        <ele>86.400001525879</ele>
        <time>2013-12-01T10:22:18Z</time>
      </trkpt>
      <trkpt lat="48.40322" lon="2.53744">
        <ele>86.400001525879</ele>
        <time>2013-12-01T10:22:24Z</time>
      </trkpt>
      <trkpt lat="48.40332" lon="2.53731">
        <ele>86.400001525879</ele>
        <time>2013-12-01T10:22:27Z</time>
      </trkpt>
      <trkpt lat="48.40335" lon="2.53726">
        <ele>86.400001525879</ele>
        <time>2013-12-01T10:22:28Z</time>
      </trkpt>
      <trkpt lat="48.40337" lon="2.53721">
        <ele>86.400001525879</ele>
        <time>2013-12-01T10:22:29Z</time>
      </trkpt>
      <trkpt lat="48.4034" lon="2.53716">
        <ele>86.400001525879</ele>
        <time>2013-12-01T10:22:30Z</time>
      </trkpt>
      <trkpt lat="48.40341" lon="2.53689">
        <ele>86.400001525879</ele>
        <time>2013-12-01T10:22:34Z</time>
      </trkpt>
      <trkpt lat="48.40341" lon="2.53681">
        <ele>86.400001525879</ele>
        <time>2013-12-01T10:22:35Z</time>
      </trkpt>
      <trkpt lat="48.40341" lon="2.53665">
        <ele>86.400001525879</ele>
        <time>2013-12-01T10:22:38Z</time>
      </trkpt>
      <trkpt lat="48.40342" lon="2.53659">
        <ele>86.400001525879</ele>
        <time>2013-12-01T10:22:39Z</time>
      </trkpt>
      <trkpt lat="48.40344" lon="2.53651">
        <ele>86.400001525879</ele>
        <time>2013-12-01T10:22:40Z</time>
      </trkpt>
      <trkpt lat="48.40345" lon="2.53644">
        <ele>86.400001525879</ele>
        <time>2013-12-01T10:22:41Z</time>
      </trkpt>
      <trkpt lat="48.40346" lon="2.53637">
        <ele>86.400001525879</ele>
        <time>2013-12-01T10:22:42Z</time>
      </trkpt>
      <trkpt lat="48.40347" lon="2.53624">
        <ele>86.400001525879</ele>
        <time>2013-12-01T10:22:44Z</time>
      </trkpt>
      <trkpt lat="48.40345" lon="2.53615">
        <ele>86.400001525879</ele>
        <time>2013-12-01T10:22:45Z</time>
      </trkpt>
      <trkpt lat="48.40345" lon="2.53607">
        <ele>86.400001525879</ele>
        <time>2013-12-01T10:22:46Z</time>
      </trkpt>
      <trkpt lat="48.40353" lon="2.53572">
        <ele>86.400001525879</ele>
        <time>2013-12-01T10:22:51Z</time>
      </trkpt>
      <trkpt lat="48.40354" lon="2.53565">
        <ele>86.400001525879</ele>
        <time>2013-12-01T10:22:52Z</time>
      </trkpt>
      <trkpt lat="48.40361" lon="2.53503">
        <ele>86.400001525879</ele>
        <time>2013-12-01T10:23:00Z</time>
      </trkpt>
      <trkpt lat="48.40368" lon="2.5347">
        <ele>86.400001525879</ele>
        <time>2013-12-01T10:23:04Z</time>
      </trkpt>
      <trkpt lat="48.40368" lon="2.53444">
        <ele>86.400001525879</ele>
        <time>2013-12-01T10:23:07Z</time>
      </trkpt>
      <trkpt lat="48.40364" lon="2.5341">
        <ele>86</ele>
        <time>2013-12-01T10:23:10Z</time>
      </trkpt>
      <trkpt lat="48.40363" lon="2.534">
        <ele>85.599998474121</ele>
        <time>2013-12-01T10:23:11Z</time>
      </trkpt>
      <trkpt lat="48.40364" lon="2.5339">
        <ele>85.199996948242</ele>
        <time>2013-12-01T10:23:12Z</time>
      </trkpt>
      <trkpt lat="48.40363" lon="2.53379">
        <ele>84.800003051758</ele>
        <time>2013-12-01T10:23:13Z</time>
      </trkpt>
      <trkpt lat="48.40363" lon="2.53369">
        <ele>84.400001525879</ele>
        <time>2013-12-01T10:23:14Z</time>
      </trkpt>
      <trkpt lat="48.40362" lon="2.53343">
        <ele>84.400001525879</ele>
        <time>2013-12-01T10:23:17Z</time>
      </trkpt>
      <trkpt lat="48.40362" lon="2.53333">
        <ele>84.400001525879</ele>
        <time>2013-12-01T10:23:18Z</time>
      </trkpt>
      <trkpt lat="48.40362" lon="2.53324">
        <ele>84.400001525879</ele>
        <time>2013-12-01T10:23:19Z</time>
      </trkpt>
      <trkpt lat="48.40364" lon="2.53285">
        <ele>84</ele>
        <time>2013-12-01T10:23:23Z</time>
      </trkpt>
      <trkpt lat="48.40365" lon="2.53276">
        <ele>83.599998474121</ele>
        <time>2013-12-01T10:23:24Z</time>
      </trkpt>
      <trkpt lat="48.40366" lon="2.53266">
        <ele>83</ele>
        <time>2013-12-01T10:23:25Z</time>
      </trkpt>
      <trkpt lat="48.40367" lon="2.53256">
        <ele>82.599998474121</ele>
        <time>2013-12-01T10:23:26Z</time>
      </trkpt>
      <trkpt lat="48.40368" lon="2.53247">
        <ele>82.199996948242</ele>
        <time>2013-12-01T10:23:27Z</time>
      </trkpt>
      <trkpt lat="48.40373" lon="2.53195">
        <ele>82.199996948242</ele>
        <time>2013-12-01T10:23:32Z</time>
      </trkpt>
      <trkpt lat="48.40375" lon="2.53185">
        <ele>81.800003051758</ele>
        <time>2013-12-01T10:23:33Z</time>
      </trkpt>
      <trkpt lat="48.40377" lon="2.53175">
        <ele>81.400001525879</ele>
        <time>2013-12-01T10:23:34Z</time>
      </trkpt>
      <trkpt lat="48.40378" lon="2.53164">
        <ele>81</ele>
        <time>2013-12-01T10:23:35Z</time>
      </trkpt>
      <trkpt lat="48.40379" lon="2.53153">
        <ele>80.599998474121</ele>
        <time>2013-12-01T10:23:36Z</time>
      </trkpt>
      <trkpt lat="48.40379" lon="2.53142">
        <ele>80.199996948242</ele>
        <time>2013-12-01T10:23:37Z</time>
      </trkpt>
      <trkpt lat="48.4038" lon="2.53119">
        <ele>80.199996948242</ele>
        <time>2013-12-01T10:23:39Z</time>
      </trkpt>
      <trkpt lat="48.40379" lon="2.53093">
        <ele>79.800003051758</ele>
        <time>2013-12-01T10:23:41Z</time>
      </trkpt>
      <trkpt lat="48.40379" lon="2.53082">
        <ele>79.400001525879</ele>
        <time>2013-12-01T10:23:42Z</time>
      </trkpt>
      <trkpt lat="48.40378" lon="2.53071">
        <ele>78.800003051758</ele>
        <time>2013-12-01T10:23:43Z</time>
      </trkpt>
      <trkpt lat="48.40377" lon="2.5306">
        <ele>78.400001525879</ele>
        <time>2013-12-01T10:23:44Z</time>
      </trkpt>
      <trkpt lat="48.40378" lon="2.53049">
        <ele>78</ele>
        <time>2013-12-01T10:23:45Z</time>
      </trkpt>
      <trkpt lat="48.40372" lon="2.53003">
        <ele>77.599998474121</ele>
        <time>2013-12-01T10:23:49Z</time>
      </trkpt>
      <trkpt lat="48.40371" lon="2.52991">
        <ele>77.199996948242</ele>
        <time>2013-12-01T10:23:50Z</time>
      </trkpt>
      <trkpt lat="48.4037" lon="2.5298">
        <ele>76.800003051758</ele>
        <time>2013-12-01T10:23:51Z</time>
      </trkpt>
      <trkpt lat="48.40369" lon="2.52967">
        <ele>76.400001525879</ele>
        <time>2013-12-01T10:23:52Z</time>
      </trkpt>
      <trkpt lat="48.40369" lon="2.52956">
        <ele>76</ele>
        <time>2013-12-01T10:23:53Z</time>
      </trkpt>
      <trkpt lat="48.40367" lon="2.52933">
        <ele>75.400001525879</ele>
        <time>2013-12-01T10:23:55Z</time>
      </trkpt>
      <trkpt lat="48.40366" lon="2.5292">
        <ele>75</ele>
        <time>2013-12-01T10:23:56Z</time>
      </trkpt>
      <trkpt lat="48.40364" lon="2.52908">
        <ele>74.400001525879</ele>
        <time>2013-12-01T10:23:57Z</time>
      </trkpt>
      <trkpt lat="48.40362" lon="2.52896">
        <ele>74</ele>
        <time>2013-12-01T10:23:58Z</time>
      </trkpt>
      <trkpt lat="48.4036" lon="2.52885">
        <ele>73.400001525879</ele>
        <time>2013-12-01T10:23:59Z</time>
      </trkpt>
      <trkpt lat="48.40356" lon="2.52849">
        <ele>73.400001525879</ele>
        <time>2013-12-01T10:24:02Z</time>
      </trkpt>
      <trkpt lat="48.40354" lon="2.52795">
        <ele>73</ele>
        <time>2013-12-01T10:24:07Z</time>
      </trkpt>
      <trkpt lat="48.40354" lon="2.52784">
        <ele>72.599998474121</ele>
        <time>2013-12-01T10:24:08Z</time>
      </trkpt>
      <trkpt lat="48.40353" lon="2.52776">
        <ele>72</ele>
        <time>2013-12-01T10:24:09Z</time>
      </trkpt>
      <trkpt lat="48.40351" lon="2.52768">
        <ele>71.599998474121</ele>
        <time>2013-12-01T10:24:10Z</time>
      </trkpt>
      <trkpt lat="48.40348" lon="2.52764">
        <ele>71.199996948242</ele>
        <time>2013-12-01T10:24:11Z</time>
      </trkpt>
      <trkpt lat="48.40342" lon="2.5276">
        <ele>71.199996948242</ele>
        <time>2013-12-01T10:24:12Z</time>
      </trkpt>
      <trkpt lat="48.40338" lon="2.52756">
        <ele>71.199996948242</ele>
        <time>2013-12-01T10:24:13Z</time>
      </trkpt>
      <trkpt lat="48.40312" lon="2.52753">
        <ele>71.199996948242</ele>
        <time>2013-12-01T10:24:19Z</time>
      </trkpt>
      <trkpt lat="48.40308" lon="2.52751">
        <ele>71.199996948242</ele>
        <time>2013-12-01T10:24:20Z</time>
      </trkpt>
      <trkpt lat="48.403" lon="2.52748">
        <ele>71.199996948242</ele>
        <time>2013-12-01T10:24:22Z</time>
      </trkpt>
      <trkpt lat="48.40297" lon="2.52745">
        <ele>71.199996948242</ele>
        <time>2013-12-01T10:24:23Z</time>
      </trkpt>
      <trkpt lat="48.40294" lon="2.52741">
        <ele>71.199996948242</ele>
        <time>2013-12-01T10:24:25Z</time>
      </trkpt>
      <trkpt lat="48.4029" lon="2.52737">
        <ele>71.199996948242</ele>
        <time>2013-12-01T10:24:32Z</time>
      </trkpt>
      <trkpt lat="48.4029" lon="2.52737">
        <ele>71.199996948242</ele>
        <time>2013-12-01T10:24:43Z</time>
      </trkpt>
      <trkpt lat="48.4029" lon="2.52737">
        <ele>71.199996948242</ele>
        <time>2013-12-01T10:24:46Z</time>
      </trkpt>
      <trkpt lat="48.40288" lon="2.52738">
        <ele>71.199996948242</ele>
        <time>2013-12-01T10:24:52Z</time>
      </trkpt>
      <trkpt lat="48.40285" lon="2.5274">
        <ele>71.199996948242</ele>
        <time>2013-12-01T10:24:53Z</time>
      </trkpt>
      <trkpt lat="48.40253" lon="2.52744">
        <ele>71.199996948242</ele>
        <time>2013-12-01T10:24:58Z</time>
      </trkpt>
      <trkpt lat="48.40237" lon="2.52759">
        <ele>71.199996948242</ele>
        <time>2013-12-01T10:25:03Z</time>
      </trkpt>
      <trkpt lat="48.40235" lon="2.52763">
        <ele>71.199996948242</ele>
        <time>2013-12-01T10:25:04Z</time>
      </trkpt>
      <trkpt lat="48.40233" lon="2.52766">
        <ele>71.199996948242</ele>
        <time>2013-12-01T10:25:05Z</time>
      </trkpt>
      <trkpt lat="48.40231" lon="2.5277">
        <ele>71.199996948242</ele>
        <time>2013-12-01T10:25:06Z</time>
      </trkpt>
      <trkpt lat="48.40229" lon="2.52775">
        <ele>71.199996948242</ele>
        <time>2013-12-01T10:25:07Z</time>
      </trkpt>
      <trkpt lat="48.40228" lon="2.52778">
        <ele>71.199996948242</ele>
        <time>2013-12-01T10:25:08Z</time>
      </trkpt>
      <trkpt lat="48.40227" lon="2.52782">
        <ele>71.199996948242</ele>
        <time>2013-12-01T10:25:09Z</time>
      </trkpt>
      <trkpt lat="48.40223" lon="2.52798">
        <ele>71.199996948242</ele>
        <time>2013-12-01T10:25:14Z</time>
      </trkpt>
      <trkpt lat="48.40222" lon="2.52802">
        <ele>71.199996948242</ele>
        <time>2013-12-01T10:25:15Z</time>
      </trkpt>
      <trkpt lat="48.40218" lon="2.52815">
        <ele>71.599998474121</ele>
        <time>2013-12-01T10:25:19Z</time>
      </trkpt>
      <trkpt lat="48.40212" lon="2.52825">
        <ele>72.400001525879</ele>
        <time>2013-12-01T10:25:23Z</time>
      </trkpt>
      <trkpt lat="48.4021" lon="2.52828">
        <ele>72.800003051758</ele>
        <time>2013-12-01T10:25:24Z</time>
      </trkpt>
      <trkpt lat="48.40208" lon="2.52832">
        <ele>73.199996948242</ele>
        <time>2013-12-01T10:25:25Z</time>
      </trkpt>
      <trkpt lat="48.40205" lon="2.52836">
        <ele>73.199996948242</ele>
        <time>2013-12-01T10:25:26Z</time>
      </trkpt>
      <trkpt lat="48.40199" lon="2.5284">
        <ele>73.199996948242</ele>
        <time>2013-12-01T10:25:28Z</time>
      </trkpt>
      <trkpt lat="48.40193" lon="2.52843">
        <ele>73.199996948242</ele>
        <time>2013-12-01T10:25:30Z</time>
      </trkpt>
      <trkpt lat="48.4019" lon="2.52844">
        <ele>73.199996948242</ele>
        <time>2013-12-01T10:25:31Z</time>
      </trkpt>
      <trkpt lat="48.40175" lon="2.52826">
        <ele>73.199996948242</ele>
        <time>2013-12-01T10:25:37Z</time>
      </trkpt>
      <trkpt lat="48.40162" lon="2.52796">
        <ele>73.199996948242</ele>
        <time>2013-12-01T10:25:42Z</time>
      </trkpt>
      <trkpt lat="48.4016" lon="2.5279">
        <ele>72.800003051758</ele>
        <time>2013-12-01T10:25:43Z</time>
      </trkpt>
      <trkpt lat="48.40157" lon="2.52782">
        <ele>72.199996948242</ele>
        <time>2013-12-01T10:25:44Z</time>
      </trkpt>
      <trkpt lat="48.40153" lon="2.52775">
        <ele>71.800003051758</ele>
        <time>2013-12-01T10:25:45Z</time>
      </trkpt>
      <trkpt lat="48.40149" lon="2.52769">
        <ele>71.199996948242</ele>
        <time>2013-12-01T10:25:46Z</time>
      </trkpt>
      <trkpt lat="48.40146" lon="2.52763">
        <ele>70.800003051758</ele>
        <time>2013-12-01T10:25:47Z</time>
      </trkpt>
      <trkpt lat="48.4013" lon="2.52738">
        <ele>70.400001525879</ele>
        <time>2013-12-01T10:25:51Z</time>
      </trkpt>
      <trkpt lat="48.40126" lon="2.52733">
        <ele>69.800003051758</ele>
        <time>2013-12-01T10:25:52Z</time>
      </trkpt>
      <trkpt lat="48.4012" lon="2.52727">
        <ele>69.400001525879</ele>
        <time>2013-12-01T10:25:53Z</time>
      </trkpt>
      <trkpt lat="48.40116" lon="2.52723">
        <ele>69</ele>
        <time>2013-12-01T10:25:54Z</time>
      </trkpt>
      <trkpt lat="48.40111" lon="2.5272">
        <ele>68.599998474121</ele>
        <time>2013-12-01T10:25:55Z</time>
      </trkpt>
      <trkpt lat="48.40099" lon="2.52707">
        <ele>68.599998474121</ele>
        <time>2013-12-01T10:25:58Z</time>
      </trkpt>
      <trkpt lat="48.40076" lon="2.52687">
        <ele>68.599998474121</ele>
        <time>2013-12-01T10:26:03Z</time>
      </trkpt>
      <trkpt lat="48.40051" lon="2.52673">
        <ele>68.599998474121</ele>
        <time>2013-12-01T10:26:09Z</time>
      </trkpt>
      <trkpt lat="48.40038" lon="2.52657">
        <ele>68.599998474121</ele>
        <time>2013-12-01T10:26:13Z</time>
      </trkpt>
      <trkpt lat="48.40038" lon="2.52649">
        <ele>68.599998474121</ele>
        <time>2013-12-01T10:26:14Z</time>
      </trkpt>
      <trkpt lat="48.40045" lon="2.52618">
        <ele>68.599998474121</ele>
        <time>2013-12-01T10:26:18Z</time>
      </trkpt>
      <trkpt lat="48.40056" lon="2.52585">
        <ele>68.599998474121</ele>
        <time>2013-12-01T10:26:22Z</time>
      </trkpt>
      <trkpt lat="48.40067" lon="2.52553">
        <ele>68.599998474121</ele>
        <time>2013-12-01T10:26:26Z</time>
      </trkpt>
      <trkpt lat="48.4007" lon="2.52544">
        <ele>68.599998474121</ele>
        <time>2013-12-01T10:26:27Z</time>
      </trkpt>
      <trkpt lat="48.40083" lon="2.52501">
        <ele>68.599998474121</ele>
        <time>2013-12-01T10:26:32Z</time>
      </trkpt>
      <trkpt lat="48.40086" lon="2.52492">
        <ele>68.599998474121</ele>
        <time>2013-12-01T10:26:33Z</time>
      </trkpt>
      <trkpt lat="48.4009" lon="2.52476">
        <ele>68.199996948242</ele>
        <time>2013-12-01T10:26:35Z</time>
      </trkpt>
      <trkpt lat="48.40092" lon="2.52468">
        <ele>67.800003051758</ele>
        <time>2013-12-01T10:26:36Z</time>
      </trkpt>
      <trkpt lat="48.40094" lon="2.52459">
        <ele>67.199996948242</ele>
        <time>2013-12-01T10:26:37Z</time>
      </trkpt>
      <trkpt lat="48.40096" lon="2.52451">
        <ele>66.800003051758</ele>
        <time>2013-12-01T10:26:38Z</time>
      </trkpt>
      <trkpt lat="48.40098" lon="2.52443">
        <ele>66.400001525879</ele>
        <time>2013-12-01T10:26:39Z</time>
      </trkpt>
      <trkpt lat="48.40102" lon="2.5243">
        <ele>66.400001525879</ele>
        <time>2013-12-01T10:26:41Z</time>
      </trkpt>
      <trkpt lat="48.40107" lon="2.52421">
        <ele>66.400001525879</ele>
        <time>2013-12-01T10:26:43Z</time>
      </trkpt>
      <trkpt lat="48.4012" lon="2.52385">
        <ele>66.400001525879</ele>
        <time>2013-12-01T10:26:49Z</time>
      </trkpt>
      <trkpt lat="48.40122" lon="2.52377">
        <ele>66.400001525879</ele>
        <time>2013-12-01T10:26:50Z</time>
      </trkpt>
      <trkpt lat="48.40141" lon="2.52331">
        <ele>66.400001525879</ele>
        <time>2013-12-01T10:26:56Z</time>
      </trkpt>
      <trkpt lat="48.40144" lon="2.52323">
        <ele>66.400001525879</ele>
        <time>2013-12-01T10:26:57Z</time>
      </trkpt>
      <trkpt lat="48.40166" lon="2.52277">
        <ele>66.400001525879</ele>
        <time>2013-12-01T10:27:03Z</time>
      </trkpt>
      <trkpt lat="48.40174" lon="2.52264">
        <ele>66.400001525879</ele>
        <time>2013-12-01T10:27:05Z</time>
      </trkpt>
      <trkpt lat="48.40184" lon="2.52237">
        <ele>66.400001525879</ele>
        <time>2013-12-01T10:27:09Z</time>
      </trkpt>
      <trkpt lat="48.40198" lon="2.52201">
        <ele>66.400001525879</ele>
        <time>2013-12-01T10:27:14Z</time>
      </trkpt>
      <trkpt lat="48.402" lon="2.52194">
        <ele>66.400001525879</ele>
        <time>2013-12-01T10:27:15Z</time>
      </trkpt>
      <trkpt lat="48.40201" lon="2.52187">
        <ele>66.400001525879</ele>
        <time>2013-12-01T10:27:16Z</time>
      </trkpt>
      <trkpt lat="48.40202" lon="2.5218">
        <ele>66.400001525879</ele>
        <time>2013-12-01T10:27:17Z</time>
      </trkpt>
      <trkpt lat="48.40202" lon="2.52158">
        <ele>66.400001525879</ele>
        <time>2013-12-01T10:27:20Z</time>
      </trkpt>
      <trkpt lat="48.402" lon="2.52134">
        <ele>66.400001525879</ele>
        <time>2013-12-01T10:27:23Z</time>
      </trkpt>
      <trkpt lat="48.40196" lon="2.52119">
        <ele>66.400001525879</ele>
        <time>2013-12-01T10:27:25Z</time>
      </trkpt>
      <trkpt lat="48.40193" lon="2.5211">
        <ele>66.400001525879</ele>
        <time>2013-12-01T10:27:26Z</time>
      </trkpt>
      <trkpt lat="48.40168" lon="2.52054">
        <ele>66.400001525879</ele>
        <time>2013-12-01T10:27:33Z</time>
      </trkpt>
      <trkpt lat="48.40147" lon="2.52019">
        <ele>66.400001525879</ele>
        <time>2013-12-01T10:27:37Z</time>
      </trkpt>
      <trkpt lat="48.40125" lon="2.51972">
        <ele>66.400001525879</ele>
        <time>2013-12-01T10:27:43Z</time>
      </trkpt>
      <trkpt lat="48.40105" lon="2.51938">
        <ele>66.400001525879</ele>
        <time>2013-12-01T10:27:48Z</time>
      </trkpt>
      <trkpt lat="48.40087" lon="2.51907">
        <ele>66.400001525879</ele>
        <time>2013-12-01T10:27:53Z</time>
      </trkpt>
      <trkpt lat="48.40063" lon="2.51853">
        <ele>66.400001525879</ele>
        <time>2013-12-01T10:28:00Z</time>
      </trkpt>
      <trkpt lat="48.40035" lon="2.51803">
        <ele>66.400001525879</ele>
        <time>2013-12-01T10:28:07Z</time>
      </trkpt>
      <trkpt lat="48.40019" lon="2.51775">
        <ele>66.400001525879</ele>
        <time>2013-12-01T10:28:11Z</time>
      </trkpt>
      <trkpt lat="48.40015" lon="2.51768">
        <ele>66.400001525879</ele>
        <time>2013-12-01T10:28:12Z</time>
      </trkpt>
      <trkpt lat="48.39999" lon="2.51743">
        <ele>66.400001525879</ele>
        <time>2013-12-01T10:28:16Z</time>
      </trkpt>
      <trkpt lat="48.39978" lon="2.51708">
        <ele>66.400001525879</ele>
        <time>2013-12-01T10:28:22Z</time>
      </trkpt>
      <trkpt lat="48.39974" lon="2.51703">
        <ele>66.400001525879</ele>
        <time>2013-12-01T10:28:23Z</time>
      </trkpt>
      <trkpt lat="48.39969" lon="2.51702">
        <ele>66.400001525879</ele>
        <time>2013-12-01T10:28:24Z</time>
      </trkpt>
      <trkpt lat="48.39964" lon="2.51703">
        <ele>66.400001525879</ele>
        <time>2013-12-01T10:28:25Z</time>
      </trkpt>
      <trkpt lat="48.39953" lon="2.51715">
        <ele>66.400001525879</ele>
        <time>2013-12-01T10:28:28Z</time>
      </trkpt>
      <trkpt lat="48.39946" lon="2.51735">
        <ele>66.400001525879</ele>
        <time>2013-12-01T10:28:32Z</time>
      </trkpt>
      <trkpt lat="48.39942" lon="2.5175">
        <ele>66.400001525879</ele>
        <time>2013-12-01T10:28:35Z</time>
      </trkpt>
      <trkpt lat="48.39936" lon="2.51764">
        <ele>66.400001525879</ele>
        <time>2013-12-01T10:28:38Z</time>
      </trkpt>
      <trkpt lat="48.39933" lon="2.51771">
        <ele>66.800003051758</ele>
        <time>2013-12-01T10:28:40Z</time>
      </trkpt>
      <trkpt lat="48.39931" lon="2.51776">
        <ele>67.199996948242</ele>
        <time>2013-12-01T10:28:41Z</time>
      </trkpt>
      <trkpt lat="48.3993" lon="2.51781">
        <ele>67.800003051758</ele>
        <time>2013-12-01T10:28:42Z</time>
      </trkpt>
      <trkpt lat="48.39928" lon="2.51786">
        <ele>68.199996948242</ele>
        <time>2013-12-01T10:28:43Z</time>
      </trkpt>
      <trkpt lat="48.39927" lon="2.51791">
        <ele>68.599998474121</ele>
        <time>2013-12-01T10:28:44Z</time>
      </trkpt>
      <trkpt lat="48.39924" lon="2.518">
        <ele>68.599998474121</ele>
        <time>2013-12-01T10:28:46Z</time>
      </trkpt>
      <trkpt lat="48.39919" lon="2.51813">
        <ele>68.599998474121</ele>
        <time>2013-12-01T10:28:49Z</time>
      </trkpt>
      <trkpt lat="48.39917" lon="2.51821">
        <ele>68.599998474121</ele>
        <time>2013-12-01T10:28:51Z</time>
      </trkpt>
      <trkpt lat="48.39911" lon="2.51838">
        <ele>69</ele>
        <time>2013-12-01T10:28:55Z</time>
      </trkpt>
      <trkpt lat="48.3991" lon="2.51841">
        <ele>69.400001525879</ele>
        <time>2013-12-01T10:28:56Z</time>
      </trkpt>
      <trkpt lat="48.39908" lon="2.51843">
        <ele>69.800003051758</ele>
        <time>2013-12-01T10:28:57Z</time>
      </trkpt>
      <trkpt lat="48.39906" lon="2.51845">
        <ele>70.199996948242</ele>
        <time>2013-12-01T10:28:58Z</time>
      </trkpt>
      <trkpt lat="48.39904" lon="2.51848">
        <ele>70.599998474121</ele>
        <time>2013-12-01T10:28:59Z</time>
      </trkpt>
      <trkpt lat="48.39892" lon="2.5186">
        <ele>70.599998474121</ele>
        <time>2013-12-01T10:29:03Z</time>
      </trkpt>
      <trkpt lat="48.3989" lon="2.51861">
        <ele>70.599998474121</ele>
        <time>2013-12-01T10:29:04Z</time>
      </trkpt>
      <trkpt lat="48.3987" lon="2.51867">
        <ele>71</ele>
        <time>2013-12-01T10:29:11Z</time>
      </trkpt>
      <trkpt lat="48.39867" lon="2.51868">
        <ele>71.400001525879</ele>
        <time>2013-12-01T10:29:12Z</time>
      </trkpt>
      <trkpt lat="48.39864" lon="2.5187">
        <ele>72</ele>
        <time>2013-12-01T10:29:13Z</time>
      </trkpt>
      <trkpt lat="48.39862" lon="2.51872">
        <ele>72.400001525879</ele>
        <time>2013-12-01T10:29:14Z</time>
      </trkpt>
      <trkpt lat="48.39861" lon="2.51875">
        <ele>72.800003051758</ele>
        <time>2013-12-01T10:29:15Z</time>
      </trkpt>
      <trkpt lat="48.39858" lon="2.51879">
        <ele>72.800003051758</ele>
        <time>2013-12-01T10:29:17Z</time>
      </trkpt>
      <trkpt lat="48.39849" lon="2.51889">
        <ele>72.800003051758</ele>
        <time>2013-12-01T10:29:21Z</time>
      </trkpt>
      <trkpt lat="48.39848" lon="2.51893">
        <ele>72.800003051758</ele>
        <time>2013-12-01T10:29:22Z</time>
      </trkpt>
      <trkpt lat="48.39837" lon="2.5192">
        <ele>73.199996948242</ele>
        <time>2013-12-01T10:29:29Z</time>
      </trkpt>
      <trkpt lat="48.39835" lon="2.51923">
        <ele>73.599998474121</ele>
        <time>2013-12-01T10:29:30Z</time>
      </trkpt>
      <trkpt lat="48.39833" lon="2.51926">
        <ele>74</ele>
        <time>2013-12-01T10:29:31Z</time>
      </trkpt>
      <trkpt lat="48.39832" lon="2.51929">
        <ele>74.400001525879</ele>
        <time>2013-12-01T10:29:32Z</time>
      </trkpt>
      <trkpt lat="48.39829" lon="2.51932">
        <ele>74.800003051758</ele>
        <time>2013-12-01T10:29:33Z</time>
      </trkpt>
      <trkpt lat="48.39823" lon="2.51938">
        <ele>74.800003051758</ele>
        <time>2013-12-01T10:29:35Z</time>
      </trkpt>
      <trkpt lat="48.39805" lon="2.51958">
        <ele>74.800003051758</ele>
        <time>2013-12-01T10:29:42Z</time>
      </trkpt>
      <trkpt lat="48.398" lon="2.51964">
        <ele>75.800003051758</ele>
        <time>2013-12-01T10:29:44Z</time>
      </trkpt>
      <trkpt lat="48.39795" lon="2.51968">
        <ele>76.199996948242</ele>
        <time>2013-12-01T10:29:46Z</time>
      </trkpt>
      <trkpt lat="48.39792" lon="2.5197">
        <ele>76.599998474121</ele>
        <time>2013-12-01T10:29:47Z</time>
      </trkpt>
      <trkpt lat="48.3979" lon="2.51972">
        <ele>77</ele>
        <time>2013-12-01T10:29:48Z</time>
      </trkpt>
      <trkpt lat="48.39787" lon="2.51974">
        <ele>77</ele>
        <time>2013-12-01T10:29:49Z</time>
      </trkpt>
      <trkpt lat="48.39767" lon="2.51989">
        <ele>77</ele>
        <time>2013-12-01T10:29:56Z</time>
      </trkpt>
      <trkpt lat="48.39761" lon="2.52008">
        <ele>77</ele>
        <time>2013-12-01T10:30:01Z</time>
      </trkpt>
      <trkpt lat="48.3976" lon="2.52012">
        <ele>77</ele>
        <time>2013-12-01T10:30:02Z</time>
      </trkpt>
      <trkpt lat="48.39759" lon="2.52015">
        <ele>77</ele>
        <time>2013-12-01T10:30:03Z</time>
      </trkpt>
      <trkpt lat="48.39753" lon="2.52041">
        <ele>77</ele>
        <time>2013-12-01T10:30:09Z</time>
      </trkpt>
      <trkpt lat="48.39747" lon="2.52073">
        <ele>77.599998474121</ele>
        <time>2013-12-01T10:30:15Z</time>
      </trkpt>
      <trkpt lat="48.39746" lon="2.52078">
        <ele>78</ele>
        <time>2013-12-01T10:30:16Z</time>
      </trkpt>
      <trkpt lat="48.39746" lon="2.52083">
        <ele>78.400001525879</ele>
        <time>2013-12-01T10:30:17Z</time>
      </trkpt>
      <trkpt lat="48.39746" lon="2.52088">
        <ele>78.800003051758</ele>
        <time>2013-12-01T10:30:18Z</time>
      </trkpt>
      <trkpt lat="48.39745" lon="2.52094">
        <ele>79.199996948242</ele>
        <time>2013-12-01T10:30:19Z</time>
      </trkpt>
      <trkpt lat="48.3974" lon="2.52133">
        <ele>79.199996948242</ele>
        <time>2013-12-01T10:30:26Z</time>
      </trkpt>
      <trkpt lat="48.39732" lon="2.52174">
        <ele>79.199996948242</ele>
        <time>2013-12-01T10:30:35Z</time>
      </trkpt>
      <trkpt lat="48.39727" lon="2.52198">
        <ele>79.599998474121</ele>
        <time>2013-12-01T10:30:40Z</time>
      </trkpt>
      <trkpt lat="48.39726" lon="2.52204">
        <ele>80</ele>
        <time>2013-12-01T10:30:41Z</time>
      </trkpt>
      <trkpt lat="48.39725" lon="2.52209">
        <ele>80.400001525879</ele>
        <time>2013-12-01T10:30:42Z</time>
      </trkpt>
      <trkpt lat="48.39725" lon="2.52214">
        <ele>80.800003051758</ele>
        <time>2013-12-01T10:30:43Z</time>
      </trkpt>
      <trkpt lat="48.39725" lon="2.5222">
        <ele>81.199996948242</ele>
        <time>2013-12-01T10:30:44Z</time>
      </trkpt>
      <trkpt lat="48.39722" lon="2.52248">
        <ele>81.199996948242</ele>
        <time>2013-12-01T10:30:50Z</time>
      </trkpt>
      <trkpt lat="48.39716" lon="2.52267">
        <ele>81.599998474121</ele>
        <time>2013-12-01T10:30:55Z</time>
      </trkpt>
      <trkpt lat="48.39714" lon="2.5227">
        <ele>82</ele>
        <time>2013-12-01T10:30:56Z</time>
      </trkpt>
      <trkpt lat="48.39713" lon="2.52273">
        <ele>82.400001525879</ele>
        <time>2013-12-01T10:30:57Z</time>
      </trkpt>
      <trkpt lat="48.39711" lon="2.52276">
        <ele>82.800003051758</ele>
        <time>2013-12-01T10:30:58Z</time>
      </trkpt>
      <trkpt lat="48.39709" lon="2.52279">
        <ele>83.199996948242</ele>
        <time>2013-12-01T10:30:59Z</time>
      </trkpt>
      <trkpt lat="48.39703" lon="2.52295">
        <ele>83.199996948242</ele>
        <time>2013-12-01T10:31:04Z</time>
      </trkpt>
      <trkpt lat="48.39694" lon="2.52328">
        <ele>83.599998474121</ele>
        <time>2013-12-01T10:31:13Z</time>
      </trkpt>
      <trkpt lat="48.39693" lon="2.52331">
        <ele>84</ele>
        <time>2013-12-01T10:31:14Z</time>
      </trkpt>
      <trkpt lat="48.39692" lon="2.52334">
        <ele>84.400001525879</ele>
        <time>2013-12-01T10:31:15Z</time>
      </trkpt>
      <trkpt lat="48.3969" lon="2.52336">
        <ele>85</ele>
        <time>2013-12-01T10:31:16Z</time>
      </trkpt>
      <trkpt lat="48.39689" lon="2.52339">
        <ele>85.400001525879</ele>
        <time>2013-12-01T10:31:17Z</time>
      </trkpt>
      <trkpt lat="48.39686" lon="2.52348">
        <ele>85.400001525879</ele>
        <time>2013-12-01T10:31:21Z</time>
      </trkpt>
      <trkpt lat="48.39683" lon="2.52358">
        <ele>85.800003051758</ele>
        <time>2013-12-01T10:31:25Z</time>
      </trkpt>
      <trkpt lat="48.39682" lon="2.5236">
        <ele>86.199996948242</ele>
        <time>2013-12-01T10:31:26Z</time>
      </trkpt>
      <trkpt lat="48.39681" lon="2.52362">
        <ele>86.599998474121</ele>
        <time>2013-12-01T10:31:27Z</time>
      </trkpt>
      <trkpt lat="48.39681" lon="2.52364">
        <ele>87</ele>
        <time>2013-12-01T10:31:28Z</time>
      </trkpt>
      <trkpt lat="48.39681" lon="2.52366">
        <ele>87.599998474121</ele>
        <time>2013-12-01T10:31:29Z</time>
      </trkpt>
      <trkpt lat="48.3968" lon="2.52368">
        <ele>87.599998474121</ele>
        <time>2013-12-01T10:31:30Z</time>
      </trkpt>
      <trkpt lat="48.39678" lon="2.52375">
        <ele>88</ele>
        <time>2013-12-01T10:31:34Z</time>
      </trkpt>
      <trkpt lat="48.39677" lon="2.52377">
        <ele>88.400001525879</ele>
        <time>2013-12-01T10:31:35Z</time>
      </trkpt>
      <trkpt lat="48.39676" lon="2.52379">
        <ele>88.800003051758</ele>
        <time>2013-12-01T10:31:36Z</time>
      </trkpt>
      <trkpt lat="48.39676" lon="2.52383">
        <ele>89.199996948242</ele>
        <time>2013-12-01T10:31:37Z</time>
      </trkpt>
      <trkpt lat="48.39674" lon="2.52384">
        <ele>89.599998474121</ele>
        <time>2013-12-01T10:31:38Z</time>
      </trkpt>
      <trkpt lat="48.39674" lon="2.52386">
        <ele>89.599998474121</ele>
        <time>2013-12-01T10:31:39Z</time>
      </trkpt>
      <trkpt lat="48.3967" lon="2.52399">
        <ele>90</ele>
        <time>2013-12-01T10:31:46Z</time>
      </trkpt>
      <trkpt lat="48.39669" lon="2.52401">
        <ele>90.400001525879</ele>
        <time>2013-12-01T10:31:47Z</time>
      </trkpt>
      <trkpt lat="48.39668" lon="2.52402">
        <ele>90.800003051758</ele>
        <time>2013-12-01T10:31:48Z</time>
      </trkpt>
      <trkpt lat="48.39667" lon="2.52404">
        <ele>91.199996948242</ele>
        <time>2013-12-01T10:31:49Z</time>
      </trkpt>
      <trkpt lat="48.39666" lon="2.52405">
        <ele>91.599998474121</ele>
        <time>2013-12-01T10:31:50Z</time>
      </trkpt>
      <trkpt lat="48.39663" lon="2.5241">
        <ele>92</ele>
        <time>2013-12-01T10:31:54Z</time>
      </trkpt>
      <trkpt lat="48.39662" lon="2.52412">
        <ele>92.599998474121</ele>
        <time>2013-12-01T10:31:55Z</time>
      </trkpt>
      <trkpt lat="48.39662" lon="2.52413">
        <ele>93</ele>
        <time>2013-12-01T10:31:56Z</time>
      </trkpt>
      <trkpt lat="48.39661" lon="2.52415">
        <ele>93.400001525879</ele>
        <time>2013-12-01T10:31:57Z</time>
      </trkpt>
      <trkpt lat="48.3966" lon="2.52417">
        <ele>93.800003051758</ele>
        <time>2013-12-01T10:31:58Z</time>
      </trkpt>
      <trkpt lat="48.39654" lon="2.52432">
        <ele>93.800003051758</ele>
        <time>2013-12-01T10:32:07Z</time>
      </trkpt>
      <trkpt lat="48.39647" lon="2.52453">
        <ele>94.199996948242</ele>
        <time>2013-12-01T10:32:15Z</time>
      </trkpt>
      <trkpt lat="48.39647" lon="2.52456">
        <ele>94.599998474121</ele>
        <time>2013-12-01T10:32:16Z</time>
      </trkpt>
      <trkpt lat="48.39646" lon="2.52458">
        <ele>95</ele>
        <time>2013-12-01T10:32:17Z</time>
      </trkpt>
      <trkpt lat="48.39645" lon="2.5246">
        <ele>95.400001525879</ele>
        <time>2013-12-01T10:32:18Z</time>
      </trkpt>
      <trkpt lat="48.39645" lon="2.52463">
        <ele>95.800003051758</ele>
        <time>2013-12-01T10:32:19Z</time>
      </trkpt>
      <trkpt lat="48.39643" lon="2.52472">
        <ele>95.800003051758</ele>
        <time>2013-12-01T10:32:23Z</time>
      </trkpt>
      <trkpt lat="48.39638" lon="2.52491">
        <ele>96.199996948242</ele>
        <time>2013-12-01T10:32:32Z</time>
      </trkpt>
      <trkpt lat="48.39637" lon="2.52494">
        <ele>96.800003051758</ele>
        <time>2013-12-01T10:32:33Z</time>
      </trkpt>
      <trkpt lat="48.39637" lon="2.52496">
        <ele>97.199996948242</ele>
        <time>2013-12-01T10:32:34Z</time>
      </trkpt>
      <trkpt lat="48.39635" lon="2.52498">
        <ele>97.599998474121</ele>
        <time>2013-12-01T10:32:35Z</time>
      </trkpt>
      <trkpt lat="48.39635" lon="2.52501">
        <ele>98</ele>
        <time>2013-12-01T10:32:36Z</time>
      </trkpt>
      <trkpt lat="48.39632" lon="2.52507">
        <ele>98</ele>
        <time>2013-12-01T10:32:38Z</time>
      </trkpt>
      <trkpt lat="48.39631" lon="2.5251">
        <ele>98</ele>
        <time>2013-12-01T10:32:39Z</time>
      </trkpt>
      <trkpt lat="48.3963" lon="2.52512">
        <ele>98</ele>
        <time>2013-12-01T10:32:40Z</time>
      </trkpt>
      <trkpt lat="48.39624" lon="2.52535">
        <ele>98</ele>
        <time>2013-12-01T10:32:46Z</time>
      </trkpt>
      <trkpt lat="48.39623" lon="2.52539">
        <ele>98.400001525879</ele>
        <time>2013-12-01T10:32:47Z</time>
      </trkpt>
      <trkpt lat="48.39622" lon="2.52541">
        <ele>98.800003051758</ele>
        <time>2013-12-01T10:32:48Z</time>
      </trkpt>
      <trkpt lat="48.39622" lon="2.52544">
        <ele>99.400001525879</ele>
        <time>2013-12-01T10:32:49Z</time>
      </trkpt>
      <trkpt lat="48.39621" lon="2.52546">
        <ele>99.800003051758</ele>
        <time>2013-12-01T10:32:50Z</time>
      </trkpt>
      <trkpt lat="48.3962" lon="2.52548">
        <ele>100.19999694824</ele>
        <time>2013-12-01T10:32:51Z</time>
      </trkpt>
      <trkpt lat="48.39617" lon="2.5256">
        <ele>100.19999694824</ele>
        <time>2013-12-01T10:32:56Z</time>
      </trkpt>
      <trkpt lat="48.39616" lon="2.52568">
        <ele>100.59999847412</ele>
        <time>2013-12-01T10:32:59Z</time>
      </trkpt>
      <trkpt lat="48.39615" lon="2.52571">
        <ele>101</ele>
        <time>2013-12-01T10:33:00Z</time>
      </trkpt>
      <trkpt lat="48.39614" lon="2.52574">
        <ele>101.40000152588</ele>
        <time>2013-12-01T10:33:01Z</time>
      </trkpt>
      <trkpt lat="48.39614" lon="2.52578">
        <ele>101.80000305176</ele>
        <time>2013-12-01T10:33:02Z</time>
      </trkpt>
      <trkpt lat="48.39614" lon="2.5258">
        <ele>102.19999694824</ele>
        <time>2013-12-01T10:33:03Z</time>
      </trkpt>
      <trkpt lat="48.39614" lon="2.52583">
        <ele>102.19999694824</ele>
        <time>2013-12-01T10:33:04Z</time>
      </trkpt>
      <trkpt lat="48.39609" lon="2.52607">
        <ele>102.19999694824</ele>
        <time>2013-12-01T10:33:11Z</time>
      </trkpt>
      <trkpt lat="48.39607" lon="2.52616">
        <ele>102.59999847412</ele>
        <time>2013-12-01T10:33:14Z</time>
      </trkpt>
      <trkpt lat="48.39607" lon="2.52619">
        <ele>103.19999694824</ele>
        <time>2013-12-01T10:33:15Z</time>
      </trkpt>
      <trkpt lat="48.39606" lon="2.52622">
        <ele>103.59999847412</ele>
        <time>2013-12-01T10:33:16Z</time>
      </trkpt>
      <trkpt lat="48.39606" lon="2.52625">
        <ele>103.59999847412</ele>
        <time>2013-12-01T10:33:17Z</time>
      </trkpt>
      <trkpt lat="48.39605" lon="2.52627">
        <ele>104.40000152588</ele>
        <time>2013-12-01T10:33:18Z</time>
      </trkpt>
      <trkpt lat="48.39603" lon="2.52642">
        <ele>104.40000152588</ele>
        <time>2013-12-01T10:33:24Z</time>
      </trkpt>
      <trkpt lat="48.396" lon="2.52659">
        <ele>104.40000152588</ele>
        <time>2013-12-01T10:33:31Z</time>
      </trkpt>
      <trkpt lat="48.39599" lon="2.52662">
        <ele>105.19999694824</ele>
        <time>2013-12-01T10:33:32Z</time>
      </trkpt>
      <trkpt lat="48.39598" lon="2.52665">
        <ele>105.19999694824</ele>
        <time>2013-12-01T10:33:33Z</time>
      </trkpt>
      <trkpt lat="48.39597" lon="2.52668">
        <ele>105.59999847412</ele>
        <time>2013-12-01T10:33:34Z</time>
      </trkpt>
      <trkpt lat="48.39597" lon="2.52671">
        <ele>106.19999694824</ele>
        <time>2013-12-01T10:33:35Z</time>
      </trkpt>
      <trkpt lat="48.39596" lon="2.52673">
        <ele>106.59999847412</ele>
        <time>2013-12-01T10:33:36Z</time>
      </trkpt>
      <trkpt lat="48.39595" lon="2.52681">
        <ele>106.59999847412</ele>
        <time>2013-12-01T10:33:38Z</time>
      </trkpt>
      <trkpt lat="48.3959" lon="2.5271">
        <ele>107</ele>
        <time>2013-12-01T10:33:46Z</time>
      </trkpt>
      <trkpt lat="48.39589" lon="2.52713">
        <ele>107.40000152588</ele>
        <time>2013-12-01T10:33:47Z</time>
      </trkpt>
      <trkpt lat="48.39587" lon="2.52716">
        <ele>107.80000305176</ele>
        <time>2013-12-01T10:33:48Z</time>
      </trkpt>
      <trkpt lat="48.39586" lon="2.52719">
        <ele>108.19999694824</ele>
        <time>2013-12-01T10:33:49Z</time>
      </trkpt>
      <trkpt lat="48.39585" lon="2.52722">
        <ele>108.59999847412</ele>
        <time>2013-12-01T10:33:50Z</time>
      </trkpt>
      <trkpt lat="48.3958" lon="2.52729">
        <ele>108.59999847412</ele>
        <time>2013-12-01T10:33:53Z</time>
      </trkpt>
      <trkpt lat="48.39576" lon="2.52733">
        <ele>109</ele>
        <time>2013-12-01T10:33:55Z</time>
      </trkpt>
      <trkpt lat="48.39575" lon="2.52735">
        <ele>109.40000152588</ele>
        <time>2013-12-01T10:33:56Z</time>
      </trkpt>
      <trkpt lat="48.39573" lon="2.52737">
        <ele>109.80000305176</ele>
        <time>2013-12-01T10:33:57Z</time>
      </trkpt>
      <trkpt lat="48.39571" lon="2.5274">
        <ele>110.19999694824</ele>
        <time>2013-12-01T10:33:58Z</time>
      </trkpt>
      <trkpt lat="48.39569" lon="2.52741">
        <ele>110.59999847412</ele>
        <time>2013-12-01T10:33:59Z</time>
      </trkpt>
      <trkpt lat="48.39568" lon="2.52743">
        <ele>110.59999847412</ele>
        <time>2013-12-01T10:34:00Z</time>
      </trkpt>
      <trkpt lat="48.39561" lon="2.5275">
        <ele>111</ele>
        <time>2013-12-01T10:34:04Z</time>
      </trkpt>
      <trkpt lat="48.3956" lon="2.52752">
        <ele>111.59999847412</ele>
        <time>2013-12-01T10:34:05Z</time>
      </trkpt>
      <trkpt lat="48.39558" lon="2.52753">
        <ele>112</ele>
        <time>2013-12-01T10:34:06Z</time>
      </trkpt>
      <trkpt lat="48.39557" lon="2.52755">
        <ele>112.40000152588</ele>
        <time>2013-12-01T10:34:07Z</time>
      </trkpt>
      <trkpt lat="48.39555" lon="2.52756">
        <ele>112.80000305176</ele>
        <time>2013-12-01T10:34:08Z</time>
      </trkpt>
      <trkpt lat="48.39542" lon="2.52763">
        <ele>112.80000305176</ele>
        <time>2013-12-01T10:34:14Z</time>
      </trkpt>
      <trkpt lat="48.3954" lon="2.52763">
        <ele>112.80000305176</ele>
        <time>2013-12-01T10:34:15Z</time>
      </trkpt>
      <trkpt lat="48.39537" lon="2.52763">
        <ele>112.80000305176</ele>
        <time>2013-12-01T10:34:16Z</time>
      </trkpt>
      <trkpt lat="48.39535" lon="2.52764">
        <ele>112.80000305176</ele>
        <time>2013-12-01T10:34:17Z</time>
      </trkpt>
      <trkpt lat="48.39528" lon="2.52765">
        <ele>112.80000305176</ele>
        <time>2013-12-01T10:34:20Z</time>
      </trkpt>
      <trkpt lat="48.39526" lon="2.52765">
        <ele>113.19999694824</ele>
        <time>2013-12-01T10:34:21Z</time>
      </trkpt>
      <trkpt lat="48.39524" lon="2.52766">
        <ele>113.59999847412</ele>
        <time>2013-12-01T10:34:22Z</time>
      </trkpt>
      <trkpt lat="48.39522" lon="2.52767">
        <ele>114</ele>
        <time>2013-12-01T10:34:23Z</time>
      </trkpt>
      <trkpt lat="48.3952" lon="2.52767">
        <ele>114.40000152588</ele>
        <time>2013-12-01T10:34:24Z</time>
      </trkpt>
      <trkpt lat="48.39517" lon="2.52767">
        <ele>114.80000305176</ele>
        <time>2013-12-01T10:34:25Z</time>
      </trkpt>
      <trkpt lat="48.39514" lon="2.52767">
        <ele>114.80000305176</ele>
        <time>2013-12-01T10:34:26Z</time>
      </trkpt>
      <trkpt lat="48.39494" lon="2.52763">
        <ele>114.80000305176</ele>
        <time>2013-12-01T10:34:32Z</time>
      </trkpt>
      <trkpt lat="48.39489" lon="2.52763">
        <ele>114.80000305176</ele>
        <time>2013-12-01T10:34:33Z</time>
      </trkpt>
      <trkpt lat="48.39486" lon="2.52763">
        <ele>114.80000305176</ele>
        <time>2013-12-01T10:34:34Z</time>
      </trkpt>
      <trkpt lat="48.39467" lon="2.52763">
        <ele>114.80000305176</ele>
        <time>2013-12-01T10:34:39Z</time>
      </trkpt>
      <trkpt lat="48.39465" lon="2.52745">
        <ele>114.80000305176</ele>
        <time>2013-12-01T10:34:42Z</time>
      </trkpt>
      <trkpt lat="48.39465" lon="2.52736">
        <ele>114.80000305176</ele>
        <time>2013-12-01T10:34:43Z</time>
      </trkpt>
      <trkpt lat="48.39465" lon="2.5273">
        <ele>114.80000305176</ele>
        <time>2013-12-01T10:34:44Z</time>
      </trkpt>
      <trkpt lat="48.39466" lon="2.52697">
        <ele>114.80000305176</ele>
        <time>2013-12-01T10:34:49Z</time>
      </trkpt>
      <trkpt lat="48.39465" lon="2.52687">
        <ele>114.80000305176</ele>
        <time>2013-12-01T10:34:50Z</time>
      </trkpt>
      <trkpt lat="48.39465" lon="2.52674">
        <ele>114.80000305176</ele>
        <time>2013-12-01T10:34:52Z</time>
      </trkpt>
      <trkpt lat="48.39465" lon="2.52632">
        <ele>114.80000305176</ele>
        <time>2013-12-01T10:34:58Z</time>
      </trkpt>
      <trkpt lat="48.39468" lon="2.52593">
        <ele>114.80000305176</ele>
        <time>2013-12-01T10:35:04Z</time>
      </trkpt>
      <trkpt lat="48.3947" lon="2.52557">
        <ele>114.80000305176</ele>
        <time>2013-12-01T10:35:09Z</time>
      </trkpt>
      <trkpt lat="48.39474" lon="2.52515">
        <ele>114.80000305176</ele>
        <time>2013-12-01T10:35:14Z</time>
      </trkpt>
      <trkpt lat="48.39472" lon="2.52495">
        <ele>114.80000305176</ele>
        <time>2013-12-01T10:35:16Z</time>
      </trkpt>
      <trkpt lat="48.39471" lon="2.52458">
        <ele>114.80000305176</ele>
        <time>2013-12-01T10:35:20Z</time>
      </trkpt>
      <trkpt lat="48.39472" lon="2.52449">
        <ele>114.40000152588</ele>
        <time>2013-12-01T10:35:21Z</time>
      </trkpt>
      <trkpt lat="48.39474" lon="2.52441">
        <ele>114</ele>
        <time>2013-12-01T10:35:22Z</time>
      </trkpt>
      <trkpt lat="48.39475" lon="2.52432">
        <ele>113.40000152588</ele>
        <time>2013-12-01T10:35:23Z</time>
      </trkpt>
      <trkpt lat="48.39474" lon="2.52423">
        <ele>113</ele>
        <time>2013-12-01T10:35:24Z</time>
      </trkpt>
      <trkpt lat="48.39473" lon="2.52414">
        <ele>112.59999847412</ele>
        <time>2013-12-01T10:35:25Z</time>
      </trkpt>
      <trkpt lat="48.39467" lon="2.52405">
        <ele>112.59999847412</ele>
        <time>2013-12-01T10:35:26Z</time>
      </trkpt>
      <trkpt lat="48.39463" lon="2.52396">
        <ele>111.40000152588</ele>
        <time>2013-12-01T10:35:27Z</time>
      </trkpt>
      <trkpt lat="48.39458" lon="2.52387">
        <ele>110.80000305176</ele>
        <time>2013-12-01T10:35:28Z</time>
      </trkpt>
      <trkpt lat="48.39454" lon="2.5238">
        <ele>110.19999694824</ele>
        <time>2013-12-01T10:35:29Z</time>
      </trkpt>
      <trkpt lat="48.39451" lon="2.52368">
        <ele>109.80000305176</ele>
        <time>2013-12-01T10:35:30Z</time>
      </trkpt>
      <trkpt lat="48.39448" lon="2.52356">
        <ele>109.40000152588</ele>
        <time>2013-12-01T10:35:31Z</time>
      </trkpt>
      <trkpt lat="48.39445" lon="2.52344">
        <ele>109</ele>
        <time>2013-12-01T10:35:32Z</time>
      </trkpt>
      <trkpt lat="48.39441" lon="2.52332">
        <ele>108.59999847412</ele>
        <time>2013-12-01T10:35:33Z</time>
      </trkpt>
      <trkpt lat="48.39437" lon="2.5232">
        <ele>108.19999694824</ele>
        <time>2013-12-01T10:35:34Z</time>
      </trkpt>
      <trkpt lat="48.39428" lon="2.52277">
        <ele>107.80000305176</ele>
        <time>2013-12-01T10:35:38Z</time>
      </trkpt>
      <trkpt lat="48.39427" lon="2.52267">
        <ele>107.19999694824</ele>
        <time>2013-12-01T10:35:39Z</time>
      </trkpt>
      <trkpt lat="48.39426" lon="2.52257">
        <ele>106.80000305176</ele>
        <time>2013-12-01T10:35:40Z</time>
      </trkpt>
      <trkpt lat="48.39426" lon="2.52245">
        <ele>106.40000152588</ele>
        <time>2013-12-01T10:35:41Z</time>
      </trkpt>
      <trkpt lat="48.39426" lon="2.52236">
        <ele>106</ele>
        <time>2013-12-01T10:35:42Z</time>
      </trkpt>
      <trkpt lat="48.3943" lon="2.52207">
        <ele>106</ele>
        <time>2013-12-01T10:35:45Z</time>
      </trkpt>
      <trkpt lat="48.39432" lon="2.52194">
        <ele>105.59999847412</ele>
        <time>2013-12-01T10:35:46Z</time>
      </trkpt>
      <trkpt lat="48.39435" lon="2.52183">
        <ele>105</ele>
        <time>2013-12-01T10:35:47Z</time>
      </trkpt>
      <trkpt lat="48.39436" lon="2.52172">
        <ele>104.59999847412</ele>
        <time>2013-12-01T10:35:48Z</time>
      </trkpt>
      <trkpt lat="48.39438" lon="2.5216">
        <ele>104.19999694824</ele>
        <time>2013-12-01T10:35:49Z</time>
      </trkpt>
      <trkpt lat="48.39442" lon="2.52137">
        <ele>103.19999694824</ele>
        <time>2013-12-01T10:35:51Z</time>
      </trkpt>
      <trkpt lat="48.39442" lon="2.52126">
        <ele>102.80000305176</ele>
        <time>2013-12-01T10:35:52Z</time>
      </trkpt>
      <trkpt lat="48.39444" lon="2.52116">
        <ele>102.19999694824</ele>
        <time>2013-12-01T10:35:53Z</time>
      </trkpt>
      <trkpt lat="48.39446" lon="2.52105">
        <ele>101.80000305176</ele>
        <time>2013-12-01T10:35:54Z</time>
      </trkpt>
      <trkpt lat="48.39449" lon="2.52095">
        <ele>101.40000152588</ele>
        <time>2013-12-01T10:35:55Z</time>
      </trkpt>
      <trkpt lat="48.39449" lon="2.52084">
        <ele>100.80000305176</ele>
        <time>2013-12-01T10:35:56Z</time>
      </trkpt>
      <trkpt lat="48.39449" lon="2.52072">
        <ele>100.19999694824</ele>
        <time>2013-12-01T10:35:57Z</time>
      </trkpt>
      <trkpt lat="48.39449" lon="2.52062">
        <ele>99.800003051758</ele>
        <time>2013-12-01T10:35:58Z</time>
      </trkpt>
      <trkpt lat="48.39449" lon="2.52051">
        <ele>99.199996948242</ele>
        <time>2013-12-01T10:35:59Z</time>
      </trkpt>
      <trkpt lat="48.3945" lon="2.52041">
        <ele>98.800003051758</ele>
        <time>2013-12-01T10:36:00Z</time>
      </trkpt>
      <trkpt lat="48.39451" lon="2.5203">
        <ele>98.199996948242</ele>
        <time>2013-12-01T10:36:01Z</time>
      </trkpt>
      <trkpt lat="48.39453" lon="2.5202">
        <ele>97.800003051758</ele>
        <time>2013-12-01T10:36:02Z</time>
      </trkpt>
      <trkpt lat="48.39455" lon="2.52009">
        <ele>97.199996948242</ele>
        <time>2013-12-01T10:36:03Z</time>
      </trkpt>
      <trkpt lat="48.39458" lon="2.51999">
        <ele>96.800003051758</ele>
        <time>2013-12-01T10:36:04Z</time>
      </trkpt>
      <trkpt lat="48.3946" lon="2.5199">
        <ele>96.400001525879</ele>
        <time>2013-12-01T10:36:05Z</time>
      </trkpt>
      <trkpt lat="48.39466" lon="2.51969">
        <ele>96</ele>
        <time>2013-12-01T10:36:07Z</time>
      </trkpt>
      <trkpt lat="48.39469" lon="2.5196">
        <ele>95.400001525879</ele>
        <time>2013-12-01T10:36:08Z</time>
      </trkpt>
      <trkpt lat="48.39473" lon="2.51951">
        <ele>95</ele>
        <time>2013-12-01T10:36:09Z</time>
      </trkpt>
      <trkpt lat="48.39476" lon="2.51942">
        <ele>94.599998474121</ele>
        <time>2013-12-01T10:36:10Z</time>
      </trkpt>
      <trkpt lat="48.3948" lon="2.51933">
        <ele>94.199996948242</ele>
        <time>2013-12-01T10:36:11Z</time>
      </trkpt>
      <trkpt lat="48.39482" lon="2.51922">
        <ele>94.199996948242</ele>
        <time>2013-12-01T10:36:12Z</time>
      </trkpt>
      <trkpt lat="48.39492" lon="2.51897">
        <ele>94.199996948242</ele>
        <time>2013-12-01T10:36:15Z</time>
      </trkpt>
      <trkpt lat="48.39501" lon="2.51879">
        <ele>93.800003051758</ele>
        <time>2013-12-01T10:36:17Z</time>
      </trkpt>
      <trkpt lat="48.39504" lon="2.51871">
        <ele>93.400001525879</ele>
        <time>2013-12-01T10:36:18Z</time>
      </trkpt>
      <trkpt lat="48.39506" lon="2.51861">
        <ele>93</ele>
        <time>2013-12-01T10:36:19Z</time>
      </trkpt>
      <trkpt lat="48.39507" lon="2.51851">
        <ele>92.599998474121</ele>
        <time>2013-12-01T10:36:20Z</time>
      </trkpt>
      <trkpt lat="48.39509" lon="2.51841">
        <ele>92.199996948242</ele>
        <time>2013-12-01T10:36:21Z</time>
      </trkpt>
      <trkpt lat="48.3951" lon="2.51832">
        <ele>92.199996948242</ele>
        <time>2013-12-01T10:36:22Z</time>
      </trkpt>
      <trkpt lat="48.39513" lon="2.51823">
        <ele>91.599998474121</ele>
        <time>2013-12-01T10:36:23Z</time>
      </trkpt>
      <trkpt lat="48.39515" lon="2.51813">
        <ele>91.199996948242</ele>
        <time>2013-12-01T10:36:24Z</time>
      </trkpt>
      <trkpt lat="48.39517" lon="2.51803">
        <ele>90.599998474121</ele>
        <time>2013-12-01T10:36:25Z</time>
      </trkpt>
      <trkpt lat="48.39519" lon="2.51793">
        <ele>90.199996948242</ele>
        <time>2013-12-01T10:36:26Z</time>
      </trkpt>
      <trkpt lat="48.39521" lon="2.51783">
        <ele>89.599998474121</ele>
        <time>2013-12-01T10:36:27Z</time>
      </trkpt>
      <trkpt lat="48.39522" lon="2.51775">
        <ele>89.199996948242</ele>
        <time>2013-12-01T10:36:28Z</time>
      </trkpt>
      <trkpt lat="48.39522" lon="2.51766">
        <ele>88.599998474121</ele>
        <time>2013-12-01T10:36:29Z</time>
      </trkpt>
      <trkpt lat="48.39521" lon="2.51759">
        <ele>88.199996948242</ele>
        <time>2013-12-01T10:36:30Z</time>
      </trkpt>
      <trkpt lat="48.3952" lon="2.51752">
        <ele>87.599998474121</ele>
        <time>2013-12-01T10:36:31Z</time>
      </trkpt>
      <trkpt lat="48.39516" lon="2.51744">
        <ele>87</ele>
        <time>2013-12-01T10:36:32Z</time>
      </trkpt>
      <trkpt lat="48.39515" lon="2.51736">
        <ele>86.400001525879</ele>
        <time>2013-12-01T10:36:33Z</time>
      </trkpt>
      <trkpt lat="48.39513" lon="2.51725">
        <ele>85.800003051758</ele>
        <time>2013-12-01T10:36:34Z</time>
      </trkpt>
      <trkpt lat="48.39512" lon="2.51715">
        <ele>85</ele>
        <time>2013-12-01T10:36:35Z</time>
      </trkpt>
      <trkpt lat="48.39513" lon="2.51704">
        <ele>84.400001525879</ele>
        <time>2013-12-01T10:36:36Z</time>
      </trkpt>
      <trkpt lat="48.39514" lon="2.51694">
        <ele>83.800003051758</ele>
        <time>2013-12-01T10:36:37Z</time>
      </trkpt>
      <trkpt lat="48.39515" lon="2.51683">
        <ele>83</ele>
        <time>2013-12-01T10:36:38Z</time>
      </trkpt>
      <trkpt lat="48.39518" lon="2.51662">
        <ele>83</ele>
        <time>2013-12-01T10:36:40Z</time>
      </trkpt>
      <trkpt lat="48.39519" lon="2.51652">
        <ele>83</ele>
        <time>2013-12-01T10:36:41Z</time>
      </trkpt>
      <trkpt lat="48.39518" lon="2.51632">
        <ele>83</ele>
        <time>2013-12-01T10:36:43Z</time>
      </trkpt>
      <trkpt lat="48.39518" lon="2.51623">
        <ele>83</ele>
        <time>2013-12-01T10:36:44Z</time>
      </trkpt>
      <trkpt lat="48.39518" lon="2.51614">
        <ele>83</ele>
        <time>2013-12-01T10:36:45Z</time>
      </trkpt>
      <trkpt lat="48.3952" lon="2.51599">
        <ele>83</ele>
        <time>2013-12-01T10:36:47Z</time>
      </trkpt>
      <trkpt lat="48.39523" lon="2.51579">
        <ele>83</ele>
        <time>2013-12-01T10:36:50Z</time>
      </trkpt>
      <trkpt lat="48.39524" lon="2.51571">
        <ele>83</ele>
        <time>2013-12-01T10:36:51Z</time>
      </trkpt>
      <trkpt lat="48.39528" lon="2.51536">
        <ele>82.599998474121</ele>
        <time>2013-12-01T10:36:55Z</time>
      </trkpt>
      <trkpt lat="48.3953" lon="2.51524">
        <ele>82.199996948242</ele>
        <time>2013-12-01T10:36:56Z</time>
      </trkpt>
      <trkpt lat="48.39532" lon="2.51511">
        <ele>81.800003051758</ele>
        <time>2013-12-01T10:36:57Z</time>
      </trkpt>
      <trkpt lat="48.39535" lon="2.51499">
        <ele>81</ele>
        <time>2013-12-01T10:36:58Z</time>
      </trkpt>
      <trkpt lat="48.3954" lon="2.51487">
        <ele>80.199996948242</ele>
        <time>2013-12-01T10:36:59Z</time>
      </trkpt>
      <trkpt lat="48.39544" lon="2.51473">
        <ele>79.199996948242</ele>
        <time>2013-12-01T10:37:00Z</time>
      </trkpt>
      <trkpt lat="48.39547" lon="2.5146">
        <ele>78.400001525879</ele>
        <time>2013-12-01T10:37:01Z</time>
      </trkpt>
      <trkpt lat="48.39551" lon="2.51448">
        <ele>77.199996948242</ele>
        <time>2013-12-01T10:37:02Z</time>
      </trkpt>
      <trkpt lat="48.39556" lon="2.51438">
        <ele>76.199996948242</ele>
        <time>2013-12-01T10:37:03Z</time>
      </trkpt>
      <trkpt lat="48.39561" lon="2.51429">
        <ele>75</ele>
        <time>2013-12-01T10:37:04Z</time>
      </trkpt>
      <trkpt lat="48.3957" lon="2.51428">
        <ele>74.199996948242</ele>
        <time>2013-12-01T10:37:05Z</time>
      </trkpt>
      <trkpt lat="48.39577" lon="2.51424">
        <ele>73.199996948242</ele>
        <time>2013-12-01T10:37:06Z</time>
      </trkpt>
      <trkpt lat="48.39584" lon="2.51421">
        <ele>72.400001525879</ele>
        <time>2013-12-01T10:37:07Z</time>
      </trkpt>
      <trkpt lat="48.39589" lon="2.51415">
        <ele>71.400001525879</ele>
        <time>2013-12-01T10:37:08Z</time>
      </trkpt>
      <trkpt lat="48.39595" lon="2.5141">
        <ele>70.400001525879</ele>
        <time>2013-12-01T10:37:09Z</time>
      </trkpt>
      <trkpt lat="48.396" lon="2.51406">
        <ele>69.400001525879</ele>
        <time>2013-12-01T10:37:10Z</time>
      </trkpt>
      <trkpt lat="48.39604" lon="2.514">
        <ele>68.400001525879</ele>
        <time>2013-12-01T10:37:11Z</time>
      </trkpt>
      <trkpt lat="48.3961" lon="2.51394">
        <ele>68</ele>
        <time>2013-12-01T10:37:12Z</time>
      </trkpt>
      <trkpt lat="48.39615" lon="2.51389">
        <ele>67.599998474121</ele>
        <time>2013-12-01T10:37:13Z</time>
      </trkpt>
      <trkpt lat="48.3962" lon="2.51385">
        <ele>67.199996948242</ele>
        <time>2013-12-01T10:37:14Z</time>
      </trkpt>
      <trkpt lat="48.39625" lon="2.51381">
        <ele>66.599998474121</ele>
        <time>2013-12-01T10:37:15Z</time>
      </trkpt>
      <trkpt lat="48.39629" lon="2.51377">
        <ele>66.199996948242</ele>
        <time>2013-12-01T10:37:16Z</time>
      </trkpt>
      <trkpt lat="48.3964" lon="2.51364">
        <ele>66.199996948242</ele>
        <time>2013-12-01T10:37:19Z</time>
      </trkpt>
      <trkpt lat="48.3966" lon="2.51338">
        <ele>66.199996948242</ele>
        <time>2013-12-01T10:37:24Z</time>
      </trkpt>
      <trkpt lat="48.39678" lon="2.51311">
        <ele>66.199996948242</ele>
        <time>2013-12-01T10:37:29Z</time>
      </trkpt>
      <trkpt lat="48.3968" lon="2.51303">
        <ele>66.199996948242</ele>
        <time>2013-12-01T10:37:30Z</time>
      </trkpt>
      <trkpt lat="48.39683" lon="2.51286">
        <ele>66.199996948242</ele>
        <time>2013-12-01T10:37:32Z</time>
      </trkpt>
      <trkpt lat="48.39688" lon="2.51263">
        <ele>66.199996948242</ele>
        <time>2013-12-01T10:37:35Z</time>
      </trkpt>
      <trkpt lat="48.39695" lon="2.51232">
        <ele>66.199996948242</ele>
        <time>2013-12-01T10:37:39Z</time>
      </trkpt>
      <trkpt lat="48.39699" lon="2.51218">
        <ele>66.199996948242</ele>
        <time>2013-12-01T10:37:41Z</time>
      </trkpt>
      <trkpt lat="48.39704" lon="2.51205">
        <ele>66.199996948242</ele>
        <time>2013-12-01T10:37:43Z</time>
      </trkpt>
      <trkpt lat="48.3971" lon="2.51193">
        <ele>66.199996948242</ele>
        <time>2013-12-01T10:37:46Z</time>
      </trkpt>
      <trkpt lat="48.3971" lon="2.51191">
        <ele>66.199996948242</ele>
        <time>2013-12-01T10:37:47Z</time>
      </trkpt>
      <trkpt lat="48.39711" lon="2.5119">
        <ele>66.199996948242</ele>
        <time>2013-12-01T10:37:48Z</time>
      </trkpt>
      <trkpt lat="48.39711" lon="2.51188">
        <ele>66.199996948242</ele>
        <time>2013-12-01T10:37:49Z</time>
      </trkpt>
      <trkpt lat="48.39707" lon="2.5116">
        <ele>66.199996948242</ele>
        <time>2013-12-01T10:37:59Z</time>
      </trkpt>
      <trkpt lat="48.397" lon="2.51149">
        <ele>66.199996948242</ele>
        <time>2013-12-01T10:38:01Z</time>
      </trkpt>
      <trkpt lat="48.39698" lon="2.51145">
        <ele>66.199996948242</ele>
        <time>2013-12-01T10:38:02Z</time>
      </trkpt>
      <trkpt lat="48.39683" lon="2.51115">
        <ele>66.199996948242</ele>
        <time>2013-12-01T10:38:08Z</time>
      </trkpt>
      <trkpt lat="48.39666" lon="2.51078">
        <ele>66.199996948242</ele>
        <time>2013-12-01T10:38:15Z</time>
      </trkpt>
      <trkpt lat="48.39657" lon="2.51054">
        <ele>66.199996948242</ele>
        <time>2013-12-01T10:38:19Z</time>
      </trkpt>
      <trkpt lat="48.39646" lon="2.5103">
        <ele>66.199996948242</ele>
        <time>2013-12-01T10:38:25Z</time>
      </trkpt>
      <trkpt lat="48.39645" lon="2.51026">
        <ele>66.199996948242</ele>
        <time>2013-12-01T10:38:26Z</time>
      </trkpt>
      <trkpt lat="48.39644" lon="2.51021">
        <ele>66.199996948242</ele>
        <time>2013-12-01T10:38:27Z</time>
      </trkpt>
      <trkpt lat="48.39639" lon="2.50993">
        <ele>66.199996948242</ele>
        <time>2013-12-01T10:38:32Z</time>
      </trkpt>
      <trkpt lat="48.39638" lon="2.50986">
        <ele>66.599998474121</ele>
        <time>2013-12-01T10:38:34Z</time>
      </trkpt>
      <trkpt lat="48.39637" lon="2.50981">
        <ele>67</ele>
        <time>2013-12-01T10:38:35Z</time>
      </trkpt>
      <trkpt lat="48.39635" lon="2.50973">
        <ele>67.400001525879</ele>
        <time>2013-12-01T10:38:36Z</time>
      </trkpt>
      <trkpt lat="48.39633" lon="2.50968">
        <ele>67.800003051758</ele>
        <time>2013-12-01T10:38:37Z</time>
      </trkpt>
      <trkpt lat="48.39631" lon="2.50962">
        <ele>68.199996948242</ele>
        <time>2013-12-01T10:38:38Z</time>
      </trkpt>
      <trkpt lat="48.39623" lon="2.50945">
        <ele>68.199996948242</ele>
        <time>2013-12-01T10:38:41Z</time>
      </trkpt>
      <trkpt lat="48.39616" lon="2.5093">
        <ele>68.599998474121</ele>
        <time>2013-12-01T10:38:44Z</time>
      </trkpt>
      <trkpt lat="48.39614" lon="2.50925">
        <ele>69.199996948242</ele>
        <time>2013-12-01T10:38:45Z</time>
      </trkpt>
      <trkpt lat="48.39612" lon="2.50919">
        <ele>69.599998474121</ele>
        <time>2013-12-01T10:38:46Z</time>
      </trkpt>
      <trkpt lat="48.3961" lon="2.50913">
        <ele>70</ele>
        <time>2013-12-01T10:38:47Z</time>
      </trkpt>
      <trkpt lat="48.39607" lon="2.50907">
        <ele>70.400001525879</ele>
        <time>2013-12-01T10:38:48Z</time>
      </trkpt>
      <trkpt lat="48.39605" lon="2.50903">
        <ele>70.400001525879</ele>
        <time>2013-12-01T10:38:49Z</time>
      </trkpt>
      <trkpt lat="48.39601" lon="2.50894">
        <ele>70.400001525879</ele>
        <time>2013-12-01T10:38:51Z</time>
      </trkpt>
      <trkpt lat="48.39595" lon="2.5088">
        <ele>70.800003051758</ele>
        <time>2013-12-01T10:38:54Z</time>
      </trkpt>
      <trkpt lat="48.39591" lon="2.50876">
        <ele>71.199996948242</ele>
        <time>2013-12-01T10:38:55Z</time>
      </trkpt>
      <trkpt lat="48.39589" lon="2.50872">
        <ele>71.599998474121</ele>
        <time>2013-12-01T10:38:56Z</time>
      </trkpt>
      <trkpt lat="48.39587" lon="2.50867">
        <ele>72</ele>
        <time>2013-12-01T10:38:57Z</time>
      </trkpt>
      <trkpt lat="48.39584" lon="2.50862">
        <ele>72.400001525879</ele>
        <time>2013-12-01T10:38:58Z</time>
      </trkpt>
      <trkpt lat="48.39579" lon="2.50854">
        <ele>72.400001525879</ele>
        <time>2013-12-01T10:39:00Z</time>
      </trkpt>
      <trkpt lat="48.39574" lon="2.50845">
        <ele>72.400001525879</ele>
        <time>2013-12-01T10:39:02Z</time>
      </trkpt>
      <trkpt lat="48.39571" lon="2.50832">
        <ele>72.400001525879</ele>
        <time>2013-12-01T10:39:04Z</time>
      </trkpt>
      <trkpt lat="48.39567" lon="2.50827">
        <ele>73</ele>
        <time>2013-12-01T10:39:05Z</time>
      </trkpt>
      <trkpt lat="48.39563" lon="2.50823">
        <ele>73.400001525879</ele>
        <time>2013-12-01T10:39:06Z</time>
      </trkpt>
      <trkpt lat="48.3956" lon="2.50819">
        <ele>73.800003051758</ele>
        <time>2013-12-01T10:39:07Z</time>
      </trkpt>
      <trkpt lat="48.39557" lon="2.50815">
        <ele>74.400001525879</ele>
        <time>2013-12-01T10:39:08Z</time>
      </trkpt>
      <trkpt lat="48.39555" lon="2.5081">
        <ele>74.800003051758</ele>
        <time>2013-12-01T10:39:09Z</time>
      </trkpt>
      <trkpt lat="48.39518" lon="2.50769">
        <ele>74.800003051758</ele>
        <time>2013-12-01T10:39:15Z</time>
      </trkpt>
      <trkpt lat="48.39503" lon="2.50749">
        <ele>74.800003051758</ele>
        <time>2013-12-01T10:39:20Z</time>
      </trkpt>
      <trkpt lat="48.395" lon="2.50744">
        <ele>74.800003051758</ele>
        <time>2013-12-01T10:39:21Z</time>
      </trkpt>
      <trkpt lat="48.39496" lon="2.5074">
        <ele>74.800003051758</ele>
        <time>2013-12-01T10:39:22Z</time>
      </trkpt>
      <trkpt lat="48.39492" lon="2.50736">
        <ele>74.800003051758</ele>
        <time>2013-12-01T10:39:23Z</time>
      </trkpt>
      <trkpt lat="48.39473" lon="2.50717">
        <ele>74.800003051758</ele>
        <time>2013-12-01T10:39:28Z</time>
      </trkpt>
      <trkpt lat="48.39464" lon="2.50709">
        <ele>74.800003051758</ele>
        <time>2013-12-01T10:39:30Z</time>
      </trkpt>
      <trkpt lat="48.39455" lon="2.50693">
        <ele>74.800003051758</ele>
        <time>2013-12-01T10:39:33Z</time>
      </trkpt>
      <trkpt lat="48.39451" lon="2.50688">
        <ele>74.800003051758</ele>
        <time>2013-12-01T10:39:34Z</time>
      </trkpt>
      <trkpt lat="48.39431" lon="2.50667">
        <ele>74.400001525879</ele>
        <time>2013-12-01T10:39:40Z</time>
      </trkpt>
      <trkpt lat="48.39429" lon="2.50661">
        <ele>74</ele>
        <time>2013-12-01T10:39:41Z</time>
      </trkpt>
      <trkpt lat="48.39427" lon="2.50656">
        <ele>73.599998474121</ele>
        <time>2013-12-01T10:39:42Z</time>
      </trkpt>
      <trkpt lat="48.39423" lon="2.50649">
        <ele>73.199996948242</ele>
        <time>2013-12-01T10:39:43Z</time>
      </trkpt>
      <trkpt lat="48.3942" lon="2.50643">
        <ele>72.800003051758</ele>
        <time>2013-12-01T10:39:44Z</time>
      </trkpt>
      <trkpt lat="48.39416" lon="2.50635">
        <ele>72.800003051758</ele>
        <time>2013-12-01T10:39:45Z</time>
      </trkpt>
      <trkpt lat="48.39409" lon="2.50621">
        <ele>72.400001525879</ele>
        <time>2013-12-01T10:39:47Z</time>
      </trkpt>
      <trkpt lat="48.39405" lon="2.50614">
        <ele>72</ele>
        <time>2013-12-01T10:39:48Z</time>
      </trkpt>
      <trkpt lat="48.39401" lon="2.50607">
        <ele>71.599998474121</ele>
        <time>2013-12-01T10:39:49Z</time>
      </trkpt>
      <trkpt lat="48.39398" lon="2.506">
        <ele>71.199996948242</ele>
        <time>2013-12-01T10:39:50Z</time>
      </trkpt>
      <trkpt lat="48.39394" lon="2.50593">
        <ele>70.800003051758</ele>
        <time>2013-12-01T10:39:51Z</time>
      </trkpt>
      <trkpt lat="48.39384" lon="2.50569">
        <ele>70.400001525879</ele>
        <time>2013-12-01T10:39:54Z</time>
      </trkpt>
      <trkpt lat="48.39381" lon="2.50559">
        <ele>70</ele>
        <time>2013-12-01T10:39:55Z</time>
      </trkpt>
      <trkpt lat="48.39376" lon="2.50544">
        <ele>69.599998474121</ele>
        <time>2013-12-01T10:39:56Z</time>
      </trkpt>
      <trkpt lat="48.39373" lon="2.50535">
        <ele>69</ele>
        <time>2013-12-01T10:39:57Z</time>
      </trkpt>
      <trkpt lat="48.3937" lon="2.50525">
        <ele>68.599998474121</ele>
        <time>2013-12-01T10:39:58Z</time>
      </trkpt>
      <trkpt lat="48.39365" lon="2.50506">
        <ele>68.199996948242</ele>
        <time>2013-12-01T10:40:00Z</time>
      </trkpt>
      <trkpt lat="48.39361" lon="2.50496">
        <ele>67.800003051758</ele>
        <time>2013-12-01T10:40:01Z</time>
      </trkpt>
      <trkpt lat="48.39358" lon="2.50486">
        <ele>67.400001525879</ele>
        <time>2013-12-01T10:40:02Z</time>
      </trkpt>
      <trkpt lat="48.39355" lon="2.50476">
        <ele>67</ele>
        <time>2013-12-01T10:40:03Z</time>
      </trkpt>
      <trkpt lat="48.39352" lon="2.50467">
        <ele>66.400001525879</ele>
        <time>2013-12-01T10:40:04Z</time>
      </trkpt>
      <trkpt lat="48.39339" lon="2.50426">
        <ele>66.400001525879</ele>
        <time>2013-12-01T10:40:08Z</time>
      </trkpt>
      <trkpt lat="48.39335" lon="2.50416">
        <ele>66.400001525879</ele>
        <time>2013-12-01T10:40:09Z</time>
      </trkpt>
      <trkpt lat="48.39329" lon="2.50397">
        <ele>66</ele>
        <time>2013-12-01T10:40:11Z</time>
      </trkpt>
      <trkpt lat="48.39325" lon="2.50387">
        <ele>65.599998474121</ele>
        <time>2013-12-01T10:40:12Z</time>
      </trkpt>
      <trkpt lat="48.39321" lon="2.50378">
        <ele>65.199996948242</ele>
        <time>2013-12-01T10:40:13Z</time>
      </trkpt>
      <trkpt lat="48.39318" lon="2.50368">
        <ele>64.599998474121</ele>
        <time>2013-12-01T10:40:14Z</time>
      </trkpt>
      <trkpt lat="48.39315" lon="2.50359">
        <ele>64.199996948242</ele>
        <time>2013-12-01T10:40:15Z</time>
      </trkpt>
      <trkpt lat="48.39308" lon="2.50339">
        <ele>64.199996948242</ele>
        <time>2013-12-01T10:40:17Z</time>
      </trkpt>
      <trkpt lat="48.39294" lon="2.50293">
        <ele>64.199996948242</ele>
        <time>2013-12-01T10:40:22Z</time>
      </trkpt>
      <trkpt lat="48.39294" lon="2.50283">
        <ele>64.199996948242</ele>
        <time>2013-12-01T10:40:23Z</time>
      </trkpt>
      <trkpt lat="48.39299" lon="2.50266">
        <ele>64.199996948242</ele>
        <time>2013-12-01T10:40:25Z</time>
      </trkpt>
      <trkpt lat="48.39304" lon="2.50262">
        <ele>64.199996948242</ele>
        <time>2013-12-01T10:40:26Z</time>
      </trkpt>
      <trkpt lat="48.39322" lon="2.50247">
        <ele>64.199996948242</ele>
        <time>2013-12-01T10:40:29Z</time>
      </trkpt>
      <trkpt lat="48.39328" lon="2.50242">
        <ele>64.199996948242</ele>
        <time>2013-12-01T10:40:30Z</time>
      </trkpt>
      <trkpt lat="48.39334" lon="2.50236">
        <ele>63.799999237061</ele>
        <time>2013-12-01T10:40:31Z</time>
      </trkpt>
      <trkpt lat="48.3934" lon="2.50231">
        <ele>63.400001525879</ele>
        <time>2013-12-01T10:40:32Z</time>
      </trkpt>
      <trkpt lat="48.39346" lon="2.50227">
        <ele>63</ele>
        <time>2013-12-01T10:40:33Z</time>
      </trkpt>
      <trkpt lat="48.39352" lon="2.50222">
        <ele>62.599998474121</ele>
        <time>2013-12-01T10:40:34Z</time>
      </trkpt>
      <trkpt lat="48.39357" lon="2.50217">
        <ele>62.200000762939</ele>
        <time>2013-12-01T10:40:35Z</time>
      </trkpt>
      <trkpt lat="48.39384" lon="2.50187">
        <ele>62.200000762939</ele>
        <time>2013-12-01T10:40:41Z</time>
      </trkpt>
      <trkpt lat="48.39384" lon="2.50183">
        <ele>62.200000762939</ele>
        <time>2013-12-01T10:40:42Z</time>
      </trkpt>
      <trkpt lat="48.39384" lon="2.50175">
        <ele>62.200000762939</ele>
        <time>2013-12-01T10:40:44Z</time>
      </trkpt>
      <trkpt lat="48.39384" lon="2.50172">
        <ele>62.200000762939</ele>
        <time>2013-12-01T10:40:45Z</time>
      </trkpt>
      <trkpt lat="48.39384" lon="2.50167">
        <ele>62.200000762939</ele>
        <time>2013-12-01T10:40:46Z</time>
      </trkpt>
      <trkpt lat="48.39389" lon="2.50155">
        <ele>62.200000762939</ele>
        <time>2013-12-01T10:40:49Z</time>
      </trkpt>
      <trkpt lat="48.39392" lon="2.50151">
        <ele>62.200000762939</ele>
        <time>2013-12-01T10:40:50Z</time>
      </trkpt>
      <trkpt lat="48.39397" lon="2.50147">
        <ele>62.200000762939</ele>
        <time>2013-12-01T10:40:52Z</time>
      </trkpt>
      <trkpt lat="48.394" lon="2.50142">
        <ele>62.200000762939</ele>
        <time>2013-12-01T10:40:54Z</time>
      </trkpt>
      <trkpt lat="48.39405" lon="2.50134">
        <ele>62.200000762939</ele>
        <time>2013-12-01T10:40:56Z</time>
      </trkpt>
      <trkpt lat="48.39407" lon="2.5013">
        <ele>62.200000762939</ele>
        <time>2013-12-01T10:40:57Z</time>
      </trkpt>
      <trkpt lat="48.39418" lon="2.50109">
        <ele>62.200000762939</ele>
        <time>2013-12-01T10:41:03Z</time>
      </trkpt>
      <trkpt lat="48.39421" lon="2.50103">
        <ele>62.200000762939</ele>
        <time>2013-12-01T10:41:05Z</time>
      </trkpt>
      <trkpt lat="48.39434" lon="2.50087">
        <ele>62.200000762939</ele>
        <time>2013-12-01T10:41:08Z</time>
      </trkpt>
      <trkpt lat="48.39441" lon="2.50076">
        <ele>62.200000762939</ele>
        <time>2013-12-01T10:41:11Z</time>
      </trkpt>
      <trkpt lat="48.39442" lon="2.50075">
        <ele>62.200000762939</ele>
        <time>2013-12-01T10:41:12Z</time>
      </trkpt>
      <trkpt lat="48.39444" lon="2.50074">
        <ele>62.200000762939</ele>
        <time>2013-12-01T10:41:13Z</time>
      </trkpt>
      <trkpt lat="48.39451" lon="2.50067">
        <ele>62.200000762939</ele>
        <time>2013-12-01T10:41:16Z</time>
      </trkpt>
      <trkpt lat="48.39458" lon="2.50063">
        <ele>62.200000762939</ele>
        <time>2013-12-01T10:41:19Z</time>
      </trkpt>
      <trkpt lat="48.3946" lon="2.50059">
        <ele>62.200000762939</ele>
        <time>2013-12-01T10:41:20Z</time>
      </trkpt>
      <trkpt lat="48.39464" lon="2.50052">
        <ele>62.200000762939</ele>
        <time>2013-12-01T10:41:22Z</time>
      </trkpt>
      <trkpt lat="48.39477" lon="2.50038">
        <ele>62.200000762939</ele>
        <time>2013-12-01T10:41:26Z</time>
      </trkpt>
      <trkpt lat="48.39489" lon="2.50028">
        <ele>62.200000762939</ele>
        <time>2013-12-01T10:41:30Z</time>
      </trkpt>
      <trkpt lat="48.39493" lon="2.50025">
        <ele>62.200000762939</ele>
        <time>2013-12-01T10:41:31Z</time>
      </trkpt>
      <trkpt lat="48.39497" lon="2.50022">
        <ele>62.200000762939</ele>
        <time>2013-12-01T10:41:32Z</time>
      </trkpt>
      <trkpt lat="48.39502" lon="2.50014">
        <ele>62.200000762939</ele>
        <time>2013-12-01T10:41:34Z</time>
      </trkpt>
      <trkpt lat="48.39505" lon="2.50011">
        <ele>62.200000762939</ele>
        <time>2013-12-01T10:41:35Z</time>
      </trkpt>
      <trkpt lat="48.39519" lon="2.49997">
        <ele>62.200000762939</ele>
        <time>2013-12-01T10:41:39Z</time>
      </trkpt>
      <trkpt lat="48.39524" lon="2.49996">
        <ele>62.200000762939</ele>
        <time>2013-12-01T10:41:40Z</time>
      </trkpt>
      <trkpt lat="48.39529" lon="2.49997">
        <ele>62.200000762939</ele>
        <time>2013-12-01T10:41:41Z</time>
      </trkpt>
      <trkpt lat="48.39533" lon="2.5">
        <ele>62.200000762939</ele>
        <time>2013-12-01T10:41:42Z</time>
      </trkpt>
      <trkpt lat="48.3954" lon="2.50002">
        <ele>62.200000762939</ele>
        <time>2013-12-01T10:41:44Z</time>
      </trkpt>
      <trkpt lat="48.39544" lon="2.50003">
        <ele>62.200000762939</ele>
        <time>2013-12-01T10:41:45Z</time>
      </trkpt>
      <trkpt lat="48.39562" lon="2.50006">
        <ele>62.200000762939</ele>
        <time>2013-12-01T10:41:51Z</time>
      </trkpt>
      <trkpt lat="48.39566" lon="2.50005">
        <ele>62.200000762939</ele>
        <time>2013-12-01T10:41:52Z</time>
      </trkpt>
      <trkpt lat="48.39573" lon="2.5">
        <ele>62.200000762939</ele>
        <time>2013-12-01T10:41:54Z</time>
      </trkpt>
      <trkpt lat="48.3958" lon="2.49994">
        <ele>62.200000762939</ele>
        <time>2013-12-01T10:41:56Z</time>
      </trkpt>
      <trkpt lat="48.39586" lon="2.49986">
        <ele>62.200000762939</ele>
        <time>2013-12-01T10:41:58Z</time>
      </trkpt>
      <trkpt lat="48.3959" lon="2.49977">
        <ele>62.200000762939</ele>
        <time>2013-12-01T10:42:00Z</time>
      </trkpt>
      <trkpt lat="48.39586" lon="2.49966">
        <ele>62.200000762939</ele>
        <time>2013-12-01T10:42:03Z</time>
      </trkpt>
      <trkpt lat="48.39584" lon="2.49962">
        <ele>62.200000762939</ele>
        <time>2013-12-01T10:42:04Z</time>
      </trkpt>
      <trkpt lat="48.39571" lon="2.49945">
        <ele>62.200000762939</ele>
        <time>2013-12-01T10:42:09Z</time>
      </trkpt>
      <trkpt lat="48.39541" lon="2.4992">
        <ele>62.200000762939</ele>
        <time>2013-12-01T10:42:17Z</time>
      </trkpt>
      <trkpt lat="48.39533" lon="2.49909">
        <ele>62.200000762939</ele>
        <time>2013-12-01T10:42:20Z</time>
      </trkpt>
      <trkpt lat="48.39529" lon="2.49903">
        <ele>62.200000762939</ele>
        <time>2013-12-01T10:42:21Z</time>
      </trkpt>
      <trkpt lat="48.39527" lon="2.49897">
        <ele>62.200000762939</ele>
        <time>2013-12-01T10:42:22Z</time>
      </trkpt>
      <trkpt lat="48.39523" lon="2.4989">
        <ele>62.200000762939</ele>
        <time>2013-12-01T10:42:23Z</time>
      </trkpt>
      <trkpt lat="48.39516" lon="2.49878">
        <ele>62.200000762939</ele>
        <time>2013-12-01T10:42:25Z</time>
      </trkpt>
      <trkpt lat="48.39507" lon="2.49864">
        <ele>62.200000762939</ele>
        <time>2013-12-01T10:42:27Z</time>
      </trkpt>
      <trkpt lat="48.39481" lon="2.49817">
        <ele>62.200000762939</ele>
        <time>2013-12-01T10:42:34Z</time>
      </trkpt>
      <trkpt lat="48.39455" lon="2.49776">
        <ele>62.200000762939</ele>
        <time>2013-12-01T10:42:40Z</time>
      </trkpt>
      <trkpt lat="48.39426" lon="2.49737">
        <ele>62.200000762939</ele>
        <time>2013-12-01T10:42:47Z</time>
      </trkpt>
      <trkpt lat="48.39402" lon="2.49706">
        <ele>62.200000762939</ele>
        <time>2013-12-01T10:42:52Z</time>
      </trkpt>
      <trkpt lat="48.39365" lon="2.49647">
        <ele>62.200000762939</ele>
        <time>2013-12-01T10:43:00Z</time>
      </trkpt>
      <trkpt lat="48.3934" lon="2.49609">
        <ele>62.200000762939</ele>
        <time>2013-12-01T10:43:06Z</time>
      </trkpt>
      <trkpt lat="48.39319" lon="2.49579">
        <ele>62.200000762939</ele>
        <time>2013-12-01T10:43:11Z</time>
      </trkpt>
      <trkpt lat="48.39279" lon="2.49531">
        <ele>62.200000762939</ele>
        <time>2013-12-01T10:43:19Z</time>
      </trkpt>
      <trkpt lat="48.39262" lon="2.49516">
        <ele>62.200000762939</ele>
        <time>2013-12-01T10:43:22Z</time>
      </trkpt>
      <trkpt lat="48.39257" lon="2.4951">
        <ele>62.200000762939</ele>
        <time>2013-12-01T10:43:23Z</time>
      </trkpt>
      <trkpt lat="48.39248" lon="2.49496">
        <ele>62.200000762939</ele>
        <time>2013-12-01T10:43:25Z</time>
      </trkpt>
      <trkpt lat="48.39244" lon="2.49488">
        <ele>62.200000762939</ele>
        <time>2013-12-01T10:43:26Z</time>
      </trkpt>
      <trkpt lat="48.3924" lon="2.4947">
        <ele>62.200000762939</ele>
        <time>2013-12-01T10:43:28Z</time>
      </trkpt>
      <trkpt lat="48.39239" lon="2.4946">
        <ele>62.200000762939</ele>
        <time>2013-12-01T10:43:29Z</time>
      </trkpt>
      <trkpt lat="48.39231" lon="2.49393">
        <ele>62.200000762939</ele>
        <time>2013-12-01T10:43:36Z</time>
      </trkpt>
      <trkpt lat="48.39231" lon="2.49384">
        <ele>62.200000762939</ele>
        <time>2013-12-01T10:43:37Z</time>
      </trkpt>
      <trkpt lat="48.3923" lon="2.49373">
        <ele>62.200000762939</ele>
        <time>2013-12-01T10:43:38Z</time>
      </trkpt>
      <trkpt lat="48.39222" lon="2.49311">
        <ele>62.200000762939</ele>
        <time>2013-12-01T10:43:44Z</time>
      </trkpt>
      <trkpt lat="48.3921" lon="2.49225">
        <ele>62.200000762939</ele>
        <time>2013-12-01T10:43:52Z</time>
      </trkpt>
      <trkpt lat="48.39198" lon="2.49144">
        <ele>62.200000762939</ele>
        <time>2013-12-01T10:44:00Z</time>
      </trkpt>
      <trkpt lat="48.39192" lon="2.49107">
        <ele>62.200000762939</ele>
        <time>2013-12-01T10:44:04Z</time>
      </trkpt>
      <trkpt lat="48.3919" lon="2.49099">
        <ele>62.200000762939</ele>
        <time>2013-12-01T10:44:05Z</time>
      </trkpt>
      <trkpt lat="48.39184" lon="2.49072">
        <ele>62.200000762939</ele>
        <time>2013-12-01T10:44:08Z</time>
      </trkpt>
      <trkpt lat="48.39182" lon="2.49063">
        <ele>62.200000762939</ele>
        <time>2013-12-01T10:44:09Z</time>
      </trkpt>
      <trkpt lat="48.39181" lon="2.49055">
        <ele>62.200000762939</ele>
        <time>2013-12-01T10:44:10Z</time>
      </trkpt>
      <trkpt lat="48.39177" lon="2.49036">
        <ele>62.200000762939</ele>
        <time>2013-12-01T10:44:12Z</time>
      </trkpt>
      <trkpt lat="48.39173" lon="2.49017">
        <ele>62.200000762939</ele>
        <time>2013-12-01T10:44:14Z</time>
      </trkpt>
      <trkpt lat="48.39172" lon="2.49007">
        <ele>62.200000762939</ele>
        <time>2013-12-01T10:44:15Z</time>
      </trkpt>
      <trkpt lat="48.39158" lon="2.48944">
        <ele>62.200000762939</ele>
        <time>2013-12-01T10:44:22Z</time>
      </trkpt>
      <trkpt lat="48.39159" lon="2.48911">
        <ele>62.200000762939</ele>
        <time>2013-12-01T10:44:26Z</time>
      </trkpt>
      <trkpt lat="48.39165" lon="2.48904">
        <ele>62.200000762939</ele>
        <time>2013-12-01T10:44:27Z</time>
      </trkpt>
      <trkpt lat="48.39198" lon="2.48856">
        <ele>62.200000762939</ele>
        <time>2013-12-01T10:44:34Z</time>
      </trkpt>
      <trkpt lat="48.39222" lon="2.48819">
        <ele>62.200000762939</ele>
        <time>2013-12-01T10:44:40Z</time>
      </trkpt>
      <trkpt lat="48.39231" lon="2.488">
        <ele>62.200000762939</ele>
        <time>2013-12-01T10:44:43Z</time>
      </trkpt>
      <trkpt lat="48.39231" lon="2.48792">
        <ele>62.200000762939</ele>
        <time>2013-12-01T10:44:44Z</time>
      </trkpt>
      <trkpt lat="48.39229" lon="2.48784">
        <ele>62.200000762939</ele>
        <time>2013-12-01T10:44:45Z</time>
      </trkpt>
      <trkpt lat="48.39222" lon="2.48771">
        <ele>62.200000762939</ele>
        <time>2013-12-01T10:44:47Z</time>
      </trkpt>
      <trkpt lat="48.39208" lon="2.48751">
        <ele>62.200000762939</ele>
        <time>2013-12-01T10:44:50Z</time>
      </trkpt>
      <trkpt lat="48.39199" lon="2.48737">
        <ele>62.200000762939</ele>
        <time>2013-12-01T10:44:52Z</time>
      </trkpt>
      <trkpt lat="48.39182" lon="2.48709">
        <ele>62.200000762939</ele>
        <time>2013-12-01T10:44:56Z</time>
      </trkpt>
      <trkpt lat="48.3917" lon="2.48687">
        <ele>62.200000762939</ele>
        <time>2013-12-01T10:44:59Z</time>
      </trkpt>
      <trkpt lat="48.39149" lon="2.48651">
        <ele>62.200000762939</ele>
        <time>2013-12-01T10:45:04Z</time>
      </trkpt>
      <trkpt lat="48.39111" lon="2.48586">
        <ele>62.200000762939</ele>
        <time>2013-12-01T10:45:12Z</time>
      </trkpt>
      <trkpt lat="48.39102" lon="2.48569">
        <ele>62.200000762939</ele>
        <time>2013-12-01T10:45:14Z</time>
      </trkpt>
      <trkpt lat="48.39064" lon="2.485">
        <ele>62.200000762939</ele>
        <time>2013-12-01T10:45:22Z</time>
      </trkpt>
      <trkpt lat="48.39059" lon="2.48491">
        <ele>62.200000762939</ele>
        <time>2013-12-01T10:45:23Z</time>
      </trkpt>
      <trkpt lat="48.39034" lon="2.48444">
        <ele>62.200000762939</ele>
        <time>2013-12-01T10:45:29Z</time>
      </trkpt>
      <trkpt lat="48.39014" lon="2.48402">
        <ele>62.200000762939</ele>
        <time>2013-12-01T10:45:34Z</time>
      </trkpt>
      <trkpt lat="48.38997" lon="2.4837">
        <ele>62.200000762939</ele>
        <time>2013-12-01T10:45:38Z</time>
      </trkpt>
      <trkpt lat="48.38993" lon="2.48362">
        <ele>62.200000762939</ele>
        <time>2013-12-01T10:45:39Z</time>
      </trkpt>
      <trkpt lat="48.38984" lon="2.48346">
        <ele>62.200000762939</ele>
        <time>2013-12-01T10:45:41Z</time>
      </trkpt>
      <trkpt lat="48.38961" lon="2.48295">
        <ele>62.200000762939</ele>
        <time>2013-12-01T10:45:47Z</time>
      </trkpt>
      <trkpt lat="48.38934" lon="2.48242">
        <ele>61.799999237061</ele>
        <time>2013-12-01T10:45:53Z</time>
      </trkpt>
      <trkpt lat="48.38929" lon="2.48233">
        <ele>61.400001525879</ele>
        <time>2013-12-01T10:45:54Z</time>
      </trkpt>
      <trkpt lat="48.38924" lon="2.48224">
        <ele>61</ele>
        <time>2013-12-01T10:45:55Z</time>
      </trkpt>
      <trkpt lat="48.38919" lon="2.48215">
        <ele>60.599998474121</ele>
        <time>2013-12-01T10:45:56Z</time>
      </trkpt>
      <trkpt lat="48.38914" lon="2.48206">
        <ele>60.200000762939</ele>
        <time>2013-12-01T10:45:57Z</time>
      </trkpt>
      <trkpt lat="48.38895" lon="2.48173">
        <ele>60.200000762939</ele>
        <time>2013-12-01T10:46:01Z</time>
      </trkpt>
      <trkpt lat="48.3889" lon="2.48163">
        <ele>60.200000762939</ele>
        <time>2013-12-01T10:46:02Z</time>
      </trkpt>
      <trkpt lat="48.38862" lon="2.48109">
        <ele>60.200000762939</ele>
        <time>2013-12-01T10:46:08Z</time>
      </trkpt>
      <trkpt lat="48.38854" lon="2.48093">
        <ele>60.200000762939</ele>
        <time>2013-12-01T10:46:10Z</time>
      </trkpt>
      <trkpt lat="48.38823" lon="2.48032">
        <ele>60.200000762939</ele>
        <time>2013-12-01T10:46:17Z</time>
      </trkpt>
      <trkpt lat="48.38817" lon="2.48023">
        <ele>60.200000762939</ele>
        <time>2013-12-01T10:46:18Z</time>
      </trkpt>
      <trkpt lat="48.38813" lon="2.48014">
        <ele>60.200000762939</ele>
        <time>2013-12-01T10:46:19Z</time>
      </trkpt>
      <trkpt lat="48.38795" lon="2.47977">
        <ele>60.200000762939</ele>
        <time>2013-12-01T10:46:23Z</time>
      </trkpt>
      <trkpt lat="48.3879" lon="2.47968">
        <ele>60.200000762939</ele>
        <time>2013-12-01T10:46:24Z</time>
      </trkpt>
      <trkpt lat="48.38777" lon="2.47943">
        <ele>60.200000762939</ele>
        <time>2013-12-01T10:46:27Z</time>
      </trkpt>
      <trkpt lat="48.38772" lon="2.47934">
        <ele>60.200000762939</ele>
        <time>2013-12-01T10:46:28Z</time>
      </trkpt>
      <trkpt lat="48.38744" lon="2.4789">
        <ele>60.200000762939</ele>
        <time>2013-12-01T10:46:34Z</time>
      </trkpt>
      <trkpt lat="48.3873" lon="2.47875">
        <ele>60.200000762939</ele>
        <time>2013-12-01T10:46:37Z</time>
      </trkpt>
      <trkpt lat="48.38719" lon="2.47867">
        <ele>60.200000762939</ele>
        <time>2013-12-01T10:46:39Z</time>
      </trkpt>
      <trkpt lat="48.38713" lon="2.47864">
        <ele>60.200000762939</ele>
        <time>2013-12-01T10:46:40Z</time>
      </trkpt>
      <trkpt lat="48.38707" lon="2.47861">
        <ele>60.200000762939</ele>
        <time>2013-12-01T10:46:41Z</time>
      </trkpt>
      <trkpt lat="48.387" lon="2.4786">
        <ele>60.200000762939</ele>
        <time>2013-12-01T10:46:42Z</time>
      </trkpt>
      <trkpt lat="48.38687" lon="2.4786">
        <ele>60.200000762939</ele>
        <time>2013-12-01T10:46:44Z</time>
      </trkpt>
      <trkpt lat="48.38668" lon="2.47864">
        <ele>60.200000762939</ele>
        <time>2013-12-01T10:46:47Z</time>
      </trkpt>
      <trkpt lat="48.38662" lon="2.47865">
        <ele>60.200000762939</ele>
        <time>2013-12-01T10:46:48Z</time>
      </trkpt>
      <trkpt lat="48.38649" lon="2.47862">
        <ele>60.200000762939</ele>
        <time>2013-12-01T10:46:50Z</time>
      </trkpt>
      <trkpt lat="48.38633" lon="2.47841">
        <ele>60.200000762939</ele>
        <time>2013-12-01T10:46:53Z</time>
      </trkpt>
      <trkpt lat="48.38602" lon="2.47785">
        <ele>60.200000762939</ele>
        <time>2013-12-01T10:47:00Z</time>
      </trkpt>
      <trkpt lat="48.38589" lon="2.47761">
        <ele>60.200000762939</ele>
        <time>2013-12-01T10:47:03Z</time>
      </trkpt>
      <trkpt lat="48.38566" lon="2.47717">
        <ele>60.200000762939</ele>
        <time>2013-12-01T10:47:09Z</time>
      </trkpt>
      <trkpt lat="48.38562" lon="2.47711">
        <ele>60.200000762939</ele>
        <time>2013-12-01T10:47:10Z</time>
      </trkpt>
      <trkpt lat="48.38559" lon="2.47704">
        <ele>60.200000762939</ele>
        <time>2013-12-01T10:47:11Z</time>
      </trkpt>
      <trkpt lat="48.38544" lon="2.47677">
        <ele>60.200000762939</ele>
        <time>2013-12-01T10:47:15Z</time>
      </trkpt>
      <trkpt lat="48.38536" lon="2.47663">
        <ele>60.200000762939</ele>
        <time>2013-12-01T10:47:17Z</time>
      </trkpt>
      <trkpt lat="48.38532" lon="2.47656">
        <ele>60.200000762939</ele>
        <time>2013-12-01T10:47:18Z</time>
      </trkpt>
      <trkpt lat="48.38528" lon="2.47649">
        <ele>60.200000762939</ele>
        <time>2013-12-01T10:47:19Z</time>
      </trkpt>
      <trkpt lat="48.38507" lon="2.47609">
        <ele>60.200000762939</ele>
        <time>2013-12-01T10:47:25Z</time>
      </trkpt>
      <trkpt lat="48.38492" lon="2.4758">
        <ele>60.200000762939</ele>
        <time>2013-12-01T10:47:30Z</time>
      </trkpt>
      <trkpt lat="48.38475" lon="2.47539">
        <ele>60.200000762939</ele>
        <time>2013-12-01T10:47:37Z</time>
      </trkpt>
      <trkpt lat="48.38478" lon="2.47533">
        <ele>60.200000762939</ele>
        <time>2013-12-01T10:47:38Z</time>
      </trkpt>
      <trkpt lat="48.38491" lon="2.47519">
        <ele>60.200000762939</ele>
        <time>2013-12-01T10:47:41Z</time>
      </trkpt>
      <trkpt lat="48.38514" lon="2.47492">
        <ele>60.200000762939</ele>
        <time>2013-12-01T10:47:47Z</time>
      </trkpt>
      <trkpt lat="48.38517" lon="2.47488">
        <ele>60.200000762939</ele>
        <time>2013-12-01T10:47:48Z</time>
      </trkpt>
      <trkpt lat="48.38521" lon="2.47483">
        <ele>60.200000762939</ele>
        <time>2013-12-01T10:47:49Z</time>
      </trkpt>
      <trkpt lat="48.3854" lon="2.47455">
        <ele>60.200000762939</ele>
        <time>2013-12-01T10:47:55Z</time>
      </trkpt>
      <trkpt lat="48.38542" lon="2.47449">
        <ele>60.200000762939</ele>
        <time>2013-12-01T10:47:56Z</time>
      </trkpt>
      <trkpt lat="48.38543" lon="2.47443">
        <ele>60.599998474121</ele>
        <time>2013-12-01T10:47:57Z</time>
      </trkpt>
      <trkpt lat="48.38544" lon="2.47438">
        <ele>61</ele>
        <time>2013-12-01T10:47:58Z</time>
      </trkpt>
      <trkpt lat="48.38544" lon="2.47432">
        <ele>61.400001525879</ele>
        <time>2013-12-01T10:47:59Z</time>
      </trkpt>
      <trkpt lat="48.38543" lon="2.47426">
        <ele>62</ele>
        <time>2013-12-01T10:48:00Z</time>
      </trkpt>
      <trkpt lat="48.38543" lon="2.47421">
        <ele>62.400001525879</ele>
        <time>2013-12-01T10:48:01Z</time>
      </trkpt>
      <trkpt lat="48.38544" lon="2.47411">
        <ele>62.400001525879</ele>
        <time>2013-12-01T10:48:04Z</time>
      </trkpt>
      <trkpt lat="48.38545" lon="2.47401">
        <ele>62.400001525879</ele>
        <time>2013-12-01T10:48:08Z</time>
      </trkpt>
      <trkpt lat="48.38545" lon="2.474">
        <ele>62.400001525879</ele>
        <time>2013-12-01T10:48:11Z</time>
      </trkpt>
      <trkpt lat="48.38541" lon="2.47396">
        <ele>62.400001525879</ele>
        <time>2013-12-01T10:48:16Z</time>
      </trkpt>
      <trkpt lat="48.38536" lon="2.47397">
        <ele>62.400001525879</ele>
        <time>2013-12-01T10:48:18Z</time>
      </trkpt>
      <trkpt lat="48.38531" lon="2.47402">
        <ele>62.400001525879</ele>
        <time>2013-12-01T10:48:20Z</time>
      </trkpt>
      <trkpt lat="48.38518" lon="2.47402">
        <ele>62.400001525879</ele>
        <time>2013-12-01T10:48:24Z</time>
      </trkpt>
      <trkpt lat="48.38503" lon="2.47389">
        <ele>62.400001525879</ele>
        <time>2013-12-01T10:48:28Z</time>
      </trkpt>
      <trkpt lat="48.38496" lon="2.47382">
        <ele>62.799999237061</ele>
        <time>2013-12-01T10:48:30Z</time>
      </trkpt>
      <trkpt lat="48.38492" lon="2.47378">
        <ele>63.200000762939</ele>
        <time>2013-12-01T10:48:31Z</time>
      </trkpt>
      <trkpt lat="48.38488" lon="2.47375">
        <ele>63.599998474121</ele>
        <time>2013-12-01T10:48:32Z</time>
      </trkpt>
      <trkpt lat="48.38481" lon="2.47368">
        <ele>64.599998474121</ele>
        <time>2013-12-01T10:48:34Z</time>
      </trkpt>
      <trkpt lat="48.3847" lon="2.47358">
        <ele>64.599998474121</ele>
        <time>2013-12-01T10:48:37Z</time>
      </trkpt>
      <trkpt lat="48.38445" lon="2.47331">
        <ele>64.599998474121</ele>
        <time>2013-12-01T10:48:44Z</time>
      </trkpt>
      <trkpt lat="48.38441" lon="2.47327">
        <ele>64.599998474121</ele>
        <time>2013-12-01T10:48:45Z</time>
      </trkpt>
      <trkpt lat="48.38434" lon="2.47315">
        <ele>65</ele>
        <time>2013-12-01T10:48:48Z</time>
      </trkpt>
      <trkpt lat="48.3843" lon="2.47312">
        <ele>65.599998474121</ele>
        <time>2013-12-01T10:48:49Z</time>
      </trkpt>
      <trkpt lat="48.38427" lon="2.47309">
        <ele>66</ele>
        <time>2013-12-01T10:48:50Z</time>
      </trkpt>
      <trkpt lat="48.38425" lon="2.47305">
        <ele>66.400001525879</ele>
        <time>2013-12-01T10:48:51Z</time>
      </trkpt>
      <trkpt lat="48.38421" lon="2.47302">
        <ele>67</ele>
        <time>2013-12-01T10:48:52Z</time>
      </trkpt>
      <trkpt lat="48.38409" lon="2.47289">
        <ele>67</ele>
        <time>2013-12-01T10:48:56Z</time>
      </trkpt>
      <trkpt lat="48.38406" lon="2.47285">
        <ele>67</ele>
        <time>2013-12-01T10:48:57Z</time>
      </trkpt>
      <trkpt lat="48.38383" lon="2.47264">
        <ele>67.400001525879</ele>
        <time>2013-12-01T10:49:04Z</time>
      </trkpt>
      <trkpt lat="48.3838" lon="2.47262">
        <ele>67.800003051758</ele>
        <time>2013-12-01T10:49:05Z</time>
      </trkpt>
      <trkpt lat="48.38377" lon="2.4726">
        <ele>68.199996948242</ele>
        <time>2013-12-01T10:49:06Z</time>
      </trkpt>
      <trkpt lat="48.38373" lon="2.47257">
        <ele>68.599998474121</ele>
        <time>2013-12-01T10:49:07Z</time>
      </trkpt>
      <trkpt lat="48.38369" lon="2.47254">
        <ele>69</ele>
        <time>2013-12-01T10:49:08Z</time>
      </trkpt>
      <trkpt lat="48.38351" lon="2.47243">
        <ele>69</ele>
        <time>2013-12-01T10:49:13Z</time>
      </trkpt>
      <trkpt lat="48.38325" lon="2.47225">
        <ele>69</ele>
        <time>2013-12-01T10:49:21Z</time>
      </trkpt>
      <trkpt lat="48.38316" lon="2.4722">
        <ele>69.400001525879</ele>
        <time>2013-12-01T10:49:24Z</time>
      </trkpt>
      <trkpt lat="48.38314" lon="2.47218">
        <ele>69.800003051758</ele>
        <time>2013-12-01T10:49:25Z</time>
      </trkpt>
      <trkpt lat="48.38311" lon="2.47217">
        <ele>70.400001525879</ele>
        <time>2013-12-01T10:49:26Z</time>
      </trkpt>
      <trkpt lat="48.38309" lon="2.47216">
        <ele>70.800003051758</ele>
        <time>2013-12-01T10:49:27Z</time>
      </trkpt>
      <trkpt lat="48.38306" lon="2.47214">
        <ele>71.199996948242</ele>
        <time>2013-12-01T10:49:28Z</time>
      </trkpt>
      <trkpt lat="48.38303" lon="2.47207">
        <ele>71.199996948242</ele>
        <time>2013-12-01T10:49:30Z</time>
      </trkpt>
      <trkpt lat="48.38307" lon="2.47181">
        <ele>71.199996948242</ele>
        <time>2013-12-01T10:49:36Z</time>
      </trkpt>
      <trkpt lat="48.38309" lon="2.47172">
        <ele>71.599998474121</ele>
        <time>2013-12-01T10:49:38Z</time>
      </trkpt>
      <trkpt lat="48.3831" lon="2.47169">
        <ele>72.199996948242</ele>
        <time>2013-12-01T10:49:39Z</time>
      </trkpt>
      <trkpt lat="48.38311" lon="2.47165">
        <ele>72.599998474121</ele>
        <time>2013-12-01T10:49:40Z</time>
      </trkpt>
      <trkpt lat="48.38312" lon="2.47161">
        <ele>73</ele>
        <time>2013-12-01T10:49:41Z</time>
      </trkpt>
      <trkpt lat="48.38313" lon="2.47157">
        <ele>73.400001525879</ele>
        <time>2013-12-01T10:49:42Z</time>
      </trkpt>
      <trkpt lat="48.38316" lon="2.47149">
        <ele>73.400001525879</ele>
        <time>2013-12-01T10:49:44Z</time>
      </trkpt>
      <trkpt lat="48.38317" lon="2.47141">
        <ele>73.400001525879</ele>
        <time>2013-12-01T10:49:46Z</time>
      </trkpt>
      <trkpt lat="48.38319" lon="2.47134">
        <ele>73.400001525879</ele>
        <time>2013-12-01T10:49:48Z</time>
      </trkpt>
      <trkpt lat="48.38321" lon="2.47127">
        <ele>73.400001525879</ele>
        <time>2013-12-01T10:49:50Z</time>
      </trkpt>
      <trkpt lat="48.38322" lon="2.47121">
        <ele>73.800003051758</ele>
        <time>2013-12-01T10:49:52Z</time>
      </trkpt>
      <trkpt lat="48.38322" lon="2.47118">
        <ele>74.199996948242</ele>
        <time>2013-12-01T10:49:53Z</time>
      </trkpt>
      <trkpt lat="48.38324" lon="2.47114">
        <ele>74.599998474121</ele>
        <time>2013-12-01T10:49:54Z</time>
      </trkpt>
      <trkpt lat="48.38324" lon="2.47111">
        <ele>75</ele>
        <time>2013-12-01T10:49:55Z</time>
      </trkpt>
      <trkpt lat="48.38324" lon="2.47108">
        <ele>75.400001525879</ele>
        <time>2013-12-01T10:49:56Z</time>
      </trkpt>
      <trkpt lat="48.38326" lon="2.47101">
        <ele>75.400001525879</ele>
        <time>2013-12-01T10:49:58Z</time>
      </trkpt>
      <trkpt lat="48.38329" lon="2.47084">
        <ele>75.800003051758</ele>
        <time>2013-12-01T10:50:03Z</time>
      </trkpt>
      <trkpt lat="48.3833" lon="2.4708">
        <ele>76.199996948242</ele>
        <time>2013-12-01T10:50:04Z</time>
      </trkpt>
      <trkpt lat="48.3833" lon="2.47077">
        <ele>76.599998474121</ele>
        <time>2013-12-01T10:50:05Z</time>
      </trkpt>
      <trkpt lat="48.38331" lon="2.47073">
        <ele>77.199996948242</ele>
        <time>2013-12-01T10:50:06Z</time>
      </trkpt>
      <trkpt lat="48.38331" lon="2.4707">
        <ele>77.599998474121</ele>
        <time>2013-12-01T10:50:07Z</time>
      </trkpt>
      <trkpt lat="48.38333" lon="2.47047">
        <ele>77.599998474121</ele>
        <time>2013-12-01T10:50:13Z</time>
      </trkpt>
      <trkpt lat="48.3833" lon="2.47043">
        <ele>78</ele>
        <time>2013-12-01T10:50:15Z</time>
      </trkpt>
      <trkpt lat="48.38329" lon="2.47041">
        <ele>78.400001525879</ele>
        <time>2013-12-01T10:50:16Z</time>
      </trkpt>
      <trkpt lat="48.38327" lon="2.47039">
        <ele>78.800003051758</ele>
        <time>2013-12-01T10:50:17Z</time>
      </trkpt>
      <trkpt lat="48.38325" lon="2.47038">
        <ele>79.199996948242</ele>
        <time>2013-12-01T10:50:18Z</time>
      </trkpt>
      <trkpt lat="48.38324" lon="2.47038">
        <ele>79.599998474121</ele>
        <time>2013-12-01T10:50:19Z</time>
      </trkpt>
      <trkpt lat="48.38318" lon="2.47033">
        <ele>79.599998474121</ele>
        <time>2013-12-01T10:50:23Z</time>
      </trkpt>
      <trkpt lat="48.38311" lon="2.47027">
        <ele>79.599998474121</ele>
        <time>2013-12-01T10:50:29Z</time>
      </trkpt>
      <trkpt lat="48.38307" lon="2.47023">
        <ele>79.599998474121</ele>
        <time>2013-12-01T10:50:32Z</time>
      </trkpt>
      <trkpt lat="48.383" lon="2.47017">
        <ele>79.599998474121</ele>
        <time>2013-12-01T10:50:37Z</time>
      </trkpt>
      <trkpt lat="48.383" lon="2.47016">
        <ele>79.599998474121</ele>
        <time>2013-12-01T10:50:38Z</time>
      </trkpt>
      <trkpt lat="48.38298" lon="2.47014">
        <ele>79.599998474121</ele>
        <time>2013-12-01T10:50:39Z</time>
      </trkpt>
      <trkpt lat="48.38295" lon="2.47008">
        <ele>79.599998474121</ele>
        <time>2013-12-01T10:50:45Z</time>
      </trkpt>
      <trkpt lat="48.38292" lon="2.47">
        <ele>80</ele>
        <time>2013-12-01T10:50:52Z</time>
      </trkpt>
      <trkpt lat="48.38291" lon="2.46999">
        <ele>80.599998474121</ele>
        <time>2013-12-01T10:50:53Z</time>
      </trkpt>
      <trkpt lat="48.38291" lon="2.46999">
        <ele>81</ele>
        <time>2013-12-01T10:50:54Z</time>
      </trkpt>
      <trkpt lat="48.38291" lon="2.46999">
        <ele>81.400001525879</ele>
        <time>2013-12-01T10:50:55Z</time>
      </trkpt>
      <trkpt lat="48.38291" lon="2.46999">
        <ele>81.800003051758</ele>
        <time>2013-12-01T10:50:56Z</time>
      </trkpt>
      <trkpt lat="48.38291" lon="2.46999">
        <ele>81.800003051758</ele>
        <time>2013-12-01T10:51:07Z</time>
      </trkpt>
      <trkpt lat="48.38291" lon="2.46999">
        <ele>81.800003051758</ele>
        <time>2013-12-01T10:51:08Z</time>
      </trkpt>
      <trkpt lat="48.3829" lon="2.46999">
        <ele>81.800003051758</ele>
        <time>2013-12-01T10:51:15Z</time>
      </trkpt>
    </trkseg>
  </trk>
</gpx>